<?xml version="1.0" encoding="UTF-8" standalone="no" ?>
<gpx xmlns="http://www.topografix.com/GPX/1/1" xmlns:xsi="http://www.w3.org/2001/XMLSchema-instance" xsi:schemaLocation="http://www.topografix.com/GPX/1/1 http://www.topografix.com/GPX/1/1/gpx.xsd" version="1.1" creator="VisuGPX - https://www.visugpx.com">
  <metadata>
    <name>La cycle du Bocage 2020.</name>
    <desc><![CDATA[Très beau parcours, première partie plus difficile.]]></desc>
  </metadata>
  <trk>
    <name><![CDATA[Vire]]></name>
    <trkseg>
      <trkpt lat="48.84486" lon="-0.89546">
        <ele>68</ele>
        <time>2020-09-12T11:09:51.983Z</time>
      </trkpt>
      <trkpt lat="48.84486" lon="-0.89546">
        <ele>68</ele>
        <time>2020-09-12T11:09:52.405Z</time>
      </trkpt>
      <trkpt lat="48.84517" lon="-0.89591">
        <ele>86</ele>
        <time>2020-09-12T11:10:03.266Z</time>
      </trkpt>
      <trkpt lat="48.84519" lon="-0.89604">
        <ele>97</ele>
        <time>2020-09-12T11:10:21.266Z</time>
      </trkpt>
      <trkpt lat="48.84516" lon="-0.89608">
        <ele>101</ele>
        <time>2020-09-12T11:10:35.266Z</time>
      </trkpt>
      <trkpt lat="48.84516" lon="-0.89608">
        <ele>101</ele>
        <time>2020-09-12T11:11:22.268Z</time>
      </trkpt>
      <trkpt lat="48.8452" lon="-0.89573">
        <ele>109</ele>
        <time>2020-09-12T11:11:23.266Z</time>
      </trkpt>
      <trkpt lat="48.84529" lon="-0.89568">
        <ele>109</ele>
        <time>2020-09-12T11:11:27.269Z</time>
      </trkpt>
      <trkpt lat="48.8454" lon="-0.8957">
        <ele>110</ele>
        <time>2020-09-12T11:11:31.269Z</time>
      </trkpt>
      <trkpt lat="48.84535" lon="-0.89553">
        <ele>110</ele>
        <time>2020-09-12T11:11:36.267Z</time>
      </trkpt>
      <trkpt lat="48.84531" lon="-0.8954">
        <ele>111</ele>
        <time>2020-09-12T11:11:39.270Z</time>
      </trkpt>
      <trkpt lat="48.84522" lon="-0.89524">
        <ele>111</ele>
        <time>2020-09-12T11:11:43.267Z</time>
      </trkpt>
      <trkpt lat="48.84505" lon="-0.89524">
        <ele>112</ele>
        <time>2020-09-12T11:11:47.269Z</time>
      </trkpt>
      <trkpt lat="48.84488" lon="-0.89538">
        <ele>113</ele>
        <time>2020-09-12T11:11:51.265Z</time>
      </trkpt>
      <trkpt lat="48.84472" lon="-0.89558">
        <ele>114</ele>
        <time>2020-09-12T11:11:55.268Z</time>
      </trkpt>
      <trkpt lat="48.8446" lon="-0.89586">
        <ele>116</ele>
        <time>2020-09-12T11:11:59.269Z</time>
      </trkpt>
      <trkpt lat="48.84452" lon="-0.89624">
        <ele>117</ele>
        <time>2020-09-12T11:12:04.267Z</time>
      </trkpt>
      <trkpt lat="48.8444" lon="-0.89661">
        <ele>119</ele>
        <time>2020-09-12T11:12:09.269Z</time>
      </trkpt>
      <trkpt lat="48.84426" lon="-0.89697">
        <ele>121</ele>
        <time>2020-09-12T11:12:14.265Z</time>
      </trkpt>
      <trkpt lat="48.84414" lon="-0.89729">
        <ele>123</ele>
        <time>2020-09-12T11:12:18.268Z</time>
      </trkpt>
      <trkpt lat="48.84405" lon="-0.89766">
        <ele>124</ele>
        <time>2020-09-12T11:12:23.266Z</time>
      </trkpt>
      <trkpt lat="48.84399" lon="-0.89804">
        <ele>126</ele>
        <time>2020-09-12T11:12:28.270Z</time>
      </trkpt>
      <trkpt lat="48.84387" lon="-0.89837">
        <ele>127</ele>
        <time>2020-09-12T11:12:33.267Z</time>
      </trkpt>
      <trkpt lat="48.84367" lon="-0.89853">
        <ele>129</ele>
        <time>2020-09-12T11:12:37.272Z</time>
      </trkpt>
      <trkpt lat="48.84344" lon="-0.89876">
        <ele>130</ele>
        <time>2020-09-12T11:12:42.270Z</time>
      </trkpt>
      <trkpt lat="48.84327" lon="-0.8991">
        <ele>132</ele>
        <time>2020-09-12T11:12:47.269Z</time>
      </trkpt>
      <trkpt lat="48.84311" lon="-0.89943">
        <ele>133</ele>
        <time>2020-09-12T11:12:52.270Z</time>
      </trkpt>
      <trkpt lat="48.84289" lon="-0.89962">
        <ele>134</ele>
        <time>2020-09-12T11:12:57.271Z</time>
      </trkpt>
      <trkpt lat="48.84264" lon="-0.89953">
        <ele>136</ele>
        <time>2020-09-12T11:13:02.271Z</time>
      </trkpt>
      <trkpt lat="48.84248" lon="-0.89929">
        <ele>137</ele>
        <time>2020-09-12T11:13:07.273Z</time>
      </trkpt>
      <trkpt lat="48.84242" lon="-0.89897">
        <ele>139</ele>
        <time>2020-09-12T11:13:12.267Z</time>
      </trkpt>
      <trkpt lat="48.84242" lon="-0.89867">
        <ele>140</ele>
        <time>2020-09-12T11:13:16.270Z</time>
      </trkpt>
      <trkpt lat="48.84243" lon="-0.89836">
        <ele>142</ele>
        <time>2020-09-12T11:13:20.268Z</time>
      </trkpt>
      <trkpt lat="48.84243" lon="-0.89798">
        <ele>144</ele>
        <time>2020-09-12T11:13:25.269Z</time>
      </trkpt>
      <trkpt lat="48.84245" lon="-0.89762">
        <ele>145</ele>
        <time>2020-09-12T11:13:29.270Z</time>
      </trkpt>
      <trkpt lat="48.84238" lon="-0.89727">
        <ele>148</ele>
        <time>2020-09-12T11:13:34.266Z</time>
      </trkpt>
      <trkpt lat="48.84225" lon="-0.89701">
        <ele>150</ele>
        <time>2020-09-12T11:13:39.269Z</time>
      </trkpt>
      <trkpt lat="48.84207" lon="-0.89686">
        <ele>152</ele>
        <time>2020-09-12T11:13:44.270Z</time>
      </trkpt>
      <trkpt lat="48.84191" lon="-0.89678">
        <ele>154</ele>
        <time>2020-09-12T11:13:48.268Z</time>
      </trkpt>
      <trkpt lat="48.84175" lon="-0.89668">
        <ele>156</ele>
        <time>2020-09-12T11:13:52.270Z</time>
      </trkpt>
      <trkpt lat="48.84156" lon="-0.89655">
        <ele>158</ele>
        <time>2020-09-12T11:13:57.262Z</time>
      </trkpt>
      <trkpt lat="48.8414" lon="-0.89644">
        <ele>159</ele>
        <time>2020-09-12T11:14:01.269Z</time>
      </trkpt>
      <trkpt lat="48.84121" lon="-0.89631">
        <ele>161</ele>
        <time>2020-09-12T11:14:06.268Z</time>
      </trkpt>
      <trkpt lat="48.84103" lon="-0.89619">
        <ele>162</ele>
        <time>2020-09-12T11:14:11.266Z</time>
      </trkpt>
      <trkpt lat="48.84087" lon="-0.89609">
        <ele>163</ele>
        <time>2020-09-12T11:14:15.267Z</time>
      </trkpt>
      <trkpt lat="48.84071" lon="-0.896">
        <ele>164</ele>
        <time>2020-09-12T11:14:19.271Z</time>
      </trkpt>
      <trkpt lat="48.84055" lon="-0.89586">
        <ele>165</ele>
        <time>2020-09-12T11:14:23.268Z</time>
      </trkpt>
      <trkpt lat="48.84038" lon="-0.89568">
        <ele>166</ele>
        <time>2020-09-12T11:14:28.272Z</time>
      </trkpt>
      <trkpt lat="48.84025" lon="-0.89543">
        <ele>167</ele>
        <time>2020-09-12T11:14:33.266Z</time>
      </trkpt>
      <trkpt lat="48.84018" lon="-0.8952">
        <ele>168</ele>
        <time>2020-09-12T11:14:37.267Z</time>
      </trkpt>
      <trkpt lat="48.84015" lon="-0.89494">
        <ele>168</ele>
        <time>2020-09-12T11:14:41.270Z</time>
      </trkpt>
      <trkpt lat="48.84012" lon="-0.89466">
        <ele>169</ele>
        <time>2020-09-12T11:14:45.267Z</time>
      </trkpt>
      <trkpt lat="48.8401" lon="-0.89437">
        <ele>170</ele>
        <time>2020-09-12T11:14:49.264Z</time>
      </trkpt>
      <trkpt lat="48.84007" lon="-0.89408">
        <ele>171</ele>
        <time>2020-09-12T11:14:53.269Z</time>
      </trkpt>
      <trkpt lat="48.84004" lon="-0.89373">
        <ele>173</ele>
        <time>2020-09-12T11:14:58.269Z</time>
      </trkpt>
      <trkpt lat="48.84" lon="-0.89338">
        <ele>174</ele>
        <time>2020-09-12T11:15:03.268Z</time>
      </trkpt>
      <trkpt lat="48.83997" lon="-0.89307">
        <ele>175</ele>
        <time>2020-09-12T11:15:07.269Z</time>
      </trkpt>
      <trkpt lat="48.83994" lon="-0.89274">
        <ele>176</ele>
        <time>2020-09-12T11:15:11.274Z</time>
      </trkpt>
      <trkpt lat="48.83991" lon="-0.89234">
        <ele>178</ele>
        <time>2020-09-12T11:15:16.268Z</time>
      </trkpt>
      <trkpt lat="48.83986" lon="-0.89198">
        <ele>180</ele>
        <time>2020-09-12T11:15:21.266Z</time>
      </trkpt>
      <trkpt lat="48.83982" lon="-0.89164">
        <ele>181</ele>
        <time>2020-09-12T11:15:25.268Z</time>
      </trkpt>
      <trkpt lat="48.83979" lon="-0.89127">
        <ele>182</ele>
        <time>2020-09-12T11:15:29.270Z</time>
      </trkpt>
      <trkpt lat="48.83976" lon="-0.89086">
        <ele>183</ele>
        <time>2020-09-12T11:15:33.271Z</time>
      </trkpt>
      <trkpt lat="48.83957" lon="-0.89054">
        <ele>185</ele>
        <time>2020-09-12T11:15:38.297Z</time>
      </trkpt>
      <trkpt lat="48.8393" lon="-0.89027">
        <ele>186</ele>
        <time>2020-09-12T11:15:43.264Z</time>
      </trkpt>
      <trkpt lat="48.83903" lon="-0.89001">
        <ele>187</ele>
        <time>2020-09-12T11:15:48.268Z</time>
      </trkpt>
      <trkpt lat="48.83879" lon="-0.88975">
        <ele>188</ele>
        <time>2020-09-12T11:15:53.269Z</time>
      </trkpt>
      <trkpt lat="48.83854" lon="-0.88956">
        <ele>189</ele>
        <time>2020-09-12T11:15:58.266Z</time>
      </trkpt>
      <trkpt lat="48.83841" lon="-0.88921">
        <ele>190</ele>
        <time>2020-09-12T11:16:03.266Z</time>
      </trkpt>
      <trkpt lat="48.83833" lon="-0.88877">
        <ele>190</ele>
        <time>2020-09-12T11:16:08.291Z</time>
      </trkpt>
      <trkpt lat="48.83825" lon="-0.88841">
        <ele>190</ele>
        <time>2020-09-12T11:16:13.267Z</time>
      </trkpt>
      <trkpt lat="48.83812" lon="-0.88811">
        <ele>189</ele>
        <time>2020-09-12T11:16:18.270Z</time>
      </trkpt>
      <trkpt lat="48.83799" lon="-0.8878">
        <ele>189</ele>
        <time>2020-09-12T11:16:23.279Z</time>
      </trkpt>
      <trkpt lat="48.83788" lon="-0.88749">
        <ele>189</ele>
        <time>2020-09-12T11:16:28.268Z</time>
      </trkpt>
      <trkpt lat="48.83779" lon="-0.88721">
        <ele>188</ele>
        <time>2020-09-12T11:16:32.271Z</time>
      </trkpt>
      <trkpt lat="48.8377" lon="-0.88686">
        <ele>188</ele>
        <time>2020-09-12T11:16:37.269Z</time>
      </trkpt>
      <trkpt lat="48.83764" lon="-0.88656">
        <ele>188</ele>
        <time>2020-09-12T11:16:41.267Z</time>
      </trkpt>
      <trkpt lat="48.83757" lon="-0.88619">
        <ele>188</ele>
        <time>2020-09-12T11:16:46.274Z</time>
      </trkpt>
      <trkpt lat="48.83747" lon="-0.88583">
        <ele>188</ele>
        <time>2020-09-12T11:16:51.268Z</time>
      </trkpt>
      <trkpt lat="48.83736" lon="-0.88549">
        <ele>189</ele>
        <time>2020-09-12T11:16:56.267Z</time>
      </trkpt>
      <trkpt lat="48.83727" lon="-0.8852">
        <ele>189</ele>
        <time>2020-09-12T11:17:00.270Z</time>
      </trkpt>
      <trkpt lat="48.83716" lon="-0.88484">
        <ele>190</ele>
        <time>2020-09-12T11:17:05.267Z</time>
      </trkpt>
      <trkpt lat="48.83705" lon="-0.88449">
        <ele>191</ele>
        <time>2020-09-12T11:17:10.267Z</time>
      </trkpt>
      <trkpt lat="48.837" lon="-0.88416">
        <ele>192</ele>
        <time>2020-09-12T11:17:14.296Z</time>
      </trkpt>
      <trkpt lat="48.83695" lon="-0.88384">
        <ele>193</ele>
        <time>2020-09-12T11:17:18.271Z</time>
      </trkpt>
      <trkpt lat="48.83688" lon="-0.88348">
        <ele>194</ele>
        <time>2020-09-12T11:17:23.267Z</time>
      </trkpt>
      <trkpt lat="48.83683" lon="-0.88311">
        <ele>196</ele>
        <time>2020-09-12T11:17:28.267Z</time>
      </trkpt>
      <trkpt lat="48.83683" lon="-0.8828">
        <ele>198</ele>
        <time>2020-09-12T11:17:32.270Z</time>
      </trkpt>
      <trkpt lat="48.83682" lon="-0.88246">
        <ele>199</ele>
        <time>2020-09-12T11:17:36.269Z</time>
      </trkpt>
      <trkpt lat="48.83684" lon="-0.88211">
        <ele>201</ele>
        <time>2020-09-12T11:17:40.268Z</time>
      </trkpt>
      <trkpt lat="48.83684" lon="-0.88174">
        <ele>202</ele>
        <time>2020-09-12T11:17:44.297Z</time>
      </trkpt>
      <trkpt lat="48.83692" lon="-0.88136">
        <ele>203</ele>
        <time>2020-09-12T11:17:48.266Z</time>
      </trkpt>
      <trkpt lat="48.83698" lon="-0.8809">
        <ele>205</ele>
        <time>2020-09-12T11:17:53.268Z</time>
      </trkpt>
      <trkpt lat="48.83721" lon="-0.88063">
        <ele>206</ele>
        <time>2020-09-12T11:17:58.267Z</time>
      </trkpt>
      <trkpt lat="48.83737" lon="-0.88029">
        <ele>207</ele>
        <time>2020-09-12T11:18:03.265Z</time>
      </trkpt>
      <trkpt lat="48.8375" lon="-0.87989">
        <ele>207</ele>
        <time>2020-09-12T11:18:08.297Z</time>
      </trkpt>
      <trkpt lat="48.83765" lon="-0.87948">
        <ele>208</ele>
        <time>2020-09-12T11:18:13.268Z</time>
      </trkpt>
      <trkpt lat="48.83779" lon="-0.87909">
        <ele>208</ele>
        <time>2020-09-12T11:18:18.268Z</time>
      </trkpt>
      <trkpt lat="48.83794" lon="-0.87867">
        <ele>208</ele>
        <time>2020-09-12T11:18:23.267Z</time>
      </trkpt>
      <trkpt lat="48.83807" lon="-0.87823">
        <ele>208</ele>
        <time>2020-09-12T11:18:28.272Z</time>
      </trkpt>
      <trkpt lat="48.83821" lon="-0.8778">
        <ele>208</ele>
        <time>2020-09-12T11:18:33.270Z</time>
      </trkpt>
      <trkpt lat="48.83833" lon="-0.87734">
        <ele>208</ele>
        <time>2020-09-12T11:18:38.299Z</time>
      </trkpt>
      <trkpt lat="48.83842" lon="-0.87688">
        <ele>209</ele>
        <time>2020-09-12T11:18:43.268Z</time>
      </trkpt>
      <trkpt lat="48.83848" lon="-0.8764">
        <ele>209</ele>
        <time>2020-09-12T11:18:48.274Z</time>
      </trkpt>
      <trkpt lat="48.83851" lon="-0.87593">
        <ele>210</ele>
        <time>2020-09-12T11:18:53.268Z</time>
      </trkpt>
      <trkpt lat="48.83854" lon="-0.87547">
        <ele>210</ele>
        <time>2020-09-12T11:18:59.271Z</time>
      </trkpt>
      <trkpt lat="48.83854" lon="-0.87517">
        <ele>211</ele>
        <time>2020-09-12T11:19:05.268Z</time>
      </trkpt>
      <trkpt lat="48.83849" lon="-0.87506">
        <ele>211</ele>
        <time>2020-09-12T11:19:14.296Z</time>
      </trkpt>
      <trkpt lat="48.83845" lon="-0.87493">
        <ele>212</ele>
        <time>2020-09-12T11:19:22.267Z</time>
      </trkpt>
      <trkpt lat="48.83845" lon="-0.87492">
        <ele>214</ele>
        <time>2020-09-12T11:19:35.269Z</time>
      </trkpt>
      <trkpt lat="48.83845" lon="-0.87492">
        <ele>214</ele>
        <time>2020-09-12T11:29:01.270Z</time>
      </trkpt>
      <trkpt lat="48.83858" lon="-0.87462">
        <ele>219</ele>
        <time>2020-09-12T11:29:02.325Z</time>
      </trkpt>
      <trkpt lat="48.83859" lon="-0.87443">
        <ele>219</ele>
        <time>2020-09-12T11:29:05.268Z</time>
      </trkpt>
      <trkpt lat="48.8386" lon="-0.8742">
        <ele>219</ele>
        <time>2020-09-12T11:29:09.276Z</time>
      </trkpt>
      <trkpt lat="48.83861" lon="-0.87396">
        <ele>219</ele>
        <time>2020-09-12T11:29:14.318Z</time>
      </trkpt>
      <trkpt lat="48.8386" lon="-0.8738">
        <ele>219</ele>
        <time>2020-09-12T11:29:20.327Z</time>
      </trkpt>
      <trkpt lat="48.83861" lon="-0.87362">
        <ele>218</ele>
        <time>2020-09-12T11:29:24.272Z</time>
      </trkpt>
      <trkpt lat="48.83861" lon="-0.87343">
        <ele>218</ele>
        <time>2020-09-12T11:29:27.282Z</time>
      </trkpt>
      <trkpt lat="48.83861" lon="-0.87323">
        <ele>218</ele>
        <time>2020-09-12T11:29:30.267Z</time>
      </trkpt>
      <trkpt lat="48.83861" lon="-0.87299">
        <ele>217</ele>
        <time>2020-09-12T11:29:33.271Z</time>
      </trkpt>
      <trkpt lat="48.83862" lon="-0.87266">
        <ele>217</ele>
        <time>2020-09-12T11:29:37.266Z</time>
      </trkpt>
      <trkpt lat="48.83863" lon="-0.87227">
        <ele>217</ele>
        <time>2020-09-12T11:29:41.270Z</time>
      </trkpt>
      <trkpt lat="48.83864" lon="-0.87186">
        <ele>216</ele>
        <time>2020-09-12T11:29:45.271Z</time>
      </trkpt>
      <trkpt lat="48.83865" lon="-0.8714">
        <ele>215</ele>
        <time>2020-09-12T11:29:49.269Z</time>
      </trkpt>
      <trkpt lat="48.83868" lon="-0.87083">
        <ele>214</ele>
        <time>2020-09-12T11:29:54.271Z</time>
      </trkpt>
      <trkpt lat="48.8387" lon="-0.87029">
        <ele>213</ele>
        <time>2020-09-12T11:29:59.271Z</time>
      </trkpt>
      <trkpt lat="48.83873" lon="-0.86973">
        <ele>213</ele>
        <time>2020-09-12T11:30:04.273Z</time>
      </trkpt>
      <trkpt lat="48.83876" lon="-0.86922">
        <ele>212</ele>
        <time>2020-09-12T11:30:09.271Z</time>
      </trkpt>
      <trkpt lat="48.83879" lon="-0.86872">
        <ele>212</ele>
        <time>2020-09-12T11:30:15.272Z</time>
      </trkpt>
      <trkpt lat="48.83881" lon="-0.86835">
        <ele>212</ele>
        <time>2020-09-12T11:30:20.323Z</time>
      </trkpt>
      <trkpt lat="48.83882" lon="-0.868">
        <ele>212</ele>
        <time>2020-09-12T11:30:25.271Z</time>
      </trkpt>
      <trkpt lat="48.83884" lon="-0.86767">
        <ele>213</ele>
        <time>2020-09-12T11:30:30.273Z</time>
      </trkpt>
      <trkpt lat="48.83885" lon="-0.8674">
        <ele>214</ele>
        <time>2020-09-12T11:30:34.276Z</time>
      </trkpt>
      <trkpt lat="48.83886" lon="-0.86713">
        <ele>215</ele>
        <time>2020-09-12T11:30:38.319Z</time>
      </trkpt>
      <trkpt lat="48.83887" lon="-0.8668">
        <ele>216</ele>
        <time>2020-09-12T11:30:43.274Z</time>
      </trkpt>
      <trkpt lat="48.83887" lon="-0.86652">
        <ele>217</ele>
        <time>2020-09-12T11:30:47.270Z</time>
      </trkpt>
      <trkpt lat="48.83888" lon="-0.86622">
        <ele>219</ele>
        <time>2020-09-12T11:30:51.271Z</time>
      </trkpt>
      <trkpt lat="48.83889" lon="-0.86591">
        <ele>220</ele>
        <time>2020-09-12T11:30:55.273Z</time>
      </trkpt>
      <trkpt lat="48.8389" lon="-0.86559">
        <ele>221</ele>
        <time>2020-09-12T11:30:59.273Z</time>
      </trkpt>
      <trkpt lat="48.83891" lon="-0.86525">
        <ele>222</ele>
        <time>2020-09-12T11:31:03.272Z</time>
      </trkpt>
      <trkpt lat="48.83893" lon="-0.8649">
        <ele>223</ele>
        <time>2020-09-12T11:31:07.269Z</time>
      </trkpt>
      <trkpt lat="48.83894" lon="-0.86452">
        <ele>223</ele>
        <time>2020-09-12T11:31:11.268Z</time>
      </trkpt>
      <trkpt lat="48.83895" lon="-0.86409">
        <ele>224</ele>
        <time>2020-09-12T11:31:16.273Z</time>
      </trkpt>
      <trkpt lat="48.83897" lon="-0.86363">
        <ele>225</ele>
        <time>2020-09-12T11:31:21.270Z</time>
      </trkpt>
      <trkpt lat="48.83899" lon="-0.86324">
        <ele>225</ele>
        <time>2020-09-12T11:31:25.271Z</time>
      </trkpt>
      <trkpt lat="48.839" lon="-0.86282">
        <ele>225</ele>
        <time>2020-09-12T11:31:29.269Z</time>
      </trkpt>
      <trkpt lat="48.83901" lon="-0.86226">
        <ele>225</ele>
        <time>2020-09-12T11:31:34.271Z</time>
      </trkpt>
      <trkpt lat="48.83902" lon="-0.86167">
        <ele>225</ele>
        <time>2020-09-12T11:31:39.271Z</time>
      </trkpt>
      <trkpt lat="48.83905" lon="-0.86105">
        <ele>225</ele>
        <time>2020-09-12T11:31:44.319Z</time>
      </trkpt>
      <trkpt lat="48.83908" lon="-0.86041">
        <ele>224</ele>
        <time>2020-09-12T11:31:49.261Z</time>
      </trkpt>
      <trkpt lat="48.8391" lon="-0.85981">
        <ele>224</ele>
        <time>2020-09-12T11:31:54.278Z</time>
      </trkpt>
      <trkpt lat="48.83911" lon="-0.85923">
        <ele>223</ele>
        <time>2020-09-12T11:31:59.270Z</time>
      </trkpt>
      <trkpt lat="48.83914" lon="-0.85866">
        <ele>223</ele>
        <time>2020-09-12T11:32:04.270Z</time>
      </trkpt>
      <trkpt lat="48.83916" lon="-0.85812">
        <ele>222</ele>
        <time>2020-09-12T11:32:09.273Z</time>
      </trkpt>
      <trkpt lat="48.83919" lon="-0.85763">
        <ele>222</ele>
        <time>2020-09-12T11:32:14.321Z</time>
      </trkpt>
      <trkpt lat="48.8392" lon="-0.85716">
        <ele>222</ele>
        <time>2020-09-12T11:32:19.270Z</time>
      </trkpt>
      <trkpt lat="48.83922" lon="-0.85671">
        <ele>223</ele>
        <time>2020-09-12T11:32:24.271Z</time>
      </trkpt>
      <trkpt lat="48.83924" lon="-0.85626">
        <ele>223</ele>
        <time>2020-09-12T11:32:29.273Z</time>
      </trkpt>
      <trkpt lat="48.83926" lon="-0.85579">
        <ele>225</ele>
        <time>2020-09-12T11:32:34.271Z</time>
      </trkpt>
      <trkpt lat="48.83926" lon="-0.85535">
        <ele>226</ele>
        <time>2020-09-12T11:32:39.272Z</time>
      </trkpt>
      <trkpt lat="48.83927" lon="-0.85487">
        <ele>228</ele>
        <time>2020-09-12T11:32:44.325Z</time>
      </trkpt>
      <trkpt lat="48.83928" lon="-0.85437">
        <ele>230</ele>
        <time>2020-09-12T11:32:49.271Z</time>
      </trkpt>
      <trkpt lat="48.83931" lon="-0.85386">
        <ele>232</ele>
        <time>2020-09-12T11:32:54.279Z</time>
      </trkpt>
      <trkpt lat="48.83934" lon="-0.85336">
        <ele>233</ele>
        <time>2020-09-12T11:32:59.270Z</time>
      </trkpt>
      <trkpt lat="48.83936" lon="-0.85283">
        <ele>234</ele>
        <time>2020-09-12T11:33:04.270Z</time>
      </trkpt>
      <trkpt lat="48.83939" lon="-0.85232">
        <ele>235</ele>
        <time>2020-09-12T11:33:09.272Z</time>
      </trkpt>
      <trkpt lat="48.83941" lon="-0.85184">
        <ele>236</ele>
        <time>2020-09-12T11:33:14.324Z</time>
      </trkpt>
      <trkpt lat="48.83956" lon="-0.85146">
        <ele>237</ele>
        <time>2020-09-12T11:33:19.271Z</time>
      </trkpt>
      <trkpt lat="48.83985" lon="-0.85153">
        <ele>238</ele>
        <time>2020-09-12T11:33:23.275Z</time>
      </trkpt>
      <trkpt lat="48.84016" lon="-0.8518">
        <ele>238</ele>
        <time>2020-09-12T11:33:28.271Z</time>
      </trkpt>
      <trkpt lat="48.84047" lon="-0.85222">
        <ele>238</ele>
        <time>2020-09-12T11:33:33.273Z</time>
      </trkpt>
      <trkpt lat="48.84075" lon="-0.85257">
        <ele>238</ele>
        <time>2020-09-12T11:33:37.274Z</time>
      </trkpt>
      <trkpt lat="48.84112" lon="-0.85291">
        <ele>238</ele>
        <time>2020-09-12T11:33:42.261Z</time>
      </trkpt>
      <trkpt lat="48.84135" lon="-0.85249">
        <ele>238</ele>
        <time>2020-09-12T11:33:49.272Z</time>
      </trkpt>
      <trkpt lat="48.84138" lon="-0.85199">
        <ele>238</ele>
        <time>2020-09-12T11:33:54.275Z</time>
      </trkpt>
      <trkpt lat="48.84142" lon="-0.85149">
        <ele>238</ele>
        <time>2020-09-12T11:33:59.270Z</time>
      </trkpt>
      <trkpt lat="48.84143" lon="-0.851">
        <ele>238</ele>
        <time>2020-09-12T11:34:04.275Z</time>
      </trkpt>
      <trkpt lat="48.84146" lon="-0.85051">
        <ele>237</ele>
        <time>2020-09-12T11:34:09.272Z</time>
      </trkpt>
      <trkpt lat="48.8415" lon="-0.85004">
        <ele>237</ele>
        <time>2020-09-12T11:34:14.326Z</time>
      </trkpt>
      <trkpt lat="48.84154" lon="-0.84962">
        <ele>236</ele>
        <time>2020-09-12T11:34:19.271Z</time>
      </trkpt>
      <trkpt lat="48.84158" lon="-0.84922">
        <ele>236</ele>
        <time>2020-09-12T11:34:24.270Z</time>
      </trkpt>
      <trkpt lat="48.84162" lon="-0.84883">
        <ele>236</ele>
        <time>2020-09-12T11:34:29.276Z</time>
      </trkpt>
      <trkpt lat="48.84165" lon="-0.84849">
        <ele>236</ele>
        <time>2020-09-12T11:34:33.269Z</time>
      </trkpt>
      <trkpt lat="48.84171" lon="-0.8481">
        <ele>237</ele>
        <time>2020-09-12T11:34:38.323Z</time>
      </trkpt>
      <trkpt lat="48.84176" lon="-0.84771">
        <ele>238</ele>
        <time>2020-09-12T11:34:42.273Z</time>
      </trkpt>
      <trkpt lat="48.8418" lon="-0.84733">
        <ele>239</ele>
        <time>2020-09-12T11:34:46.270Z</time>
      </trkpt>
      <trkpt lat="48.84186" lon="-0.84686">
        <ele>239</ele>
        <time>2020-09-12T11:34:51.271Z</time>
      </trkpt>
      <trkpt lat="48.84193" lon="-0.8464">
        <ele>240</ele>
        <time>2020-09-12T11:34:56.333Z</time>
      </trkpt>
      <trkpt lat="48.84203" lon="-0.84593">
        <ele>241</ele>
        <time>2020-09-12T11:35:01.271Z</time>
      </trkpt>
      <trkpt lat="48.84214" lon="-0.84544">
        <ele>242</ele>
        <time>2020-09-12T11:35:06.272Z</time>
      </trkpt>
      <trkpt lat="48.84229" lon="-0.84495">
        <ele>243</ele>
        <time>2020-09-12T11:35:11.272Z</time>
      </trkpt>
      <trkpt lat="48.84258" lon="-0.84457">
        <ele>243</ele>
        <time>2020-09-12T11:35:16.271Z</time>
      </trkpt>
      <trkpt lat="48.84287" lon="-0.84429">
        <ele>243</ele>
        <time>2020-09-12T11:35:20.325Z</time>
      </trkpt>
      <trkpt lat="48.84326" lon="-0.84391">
        <ele>243</ele>
        <time>2020-09-12T11:35:25.268Z</time>
      </trkpt>
      <trkpt lat="48.84369" lon="-0.84348">
        <ele>242</ele>
        <time>2020-09-12T11:35:30.271Z</time>
      </trkpt>
      <trkpt lat="48.84414" lon="-0.84296">
        <ele>240</ele>
        <time>2020-09-12T11:35:35.270Z</time>
      </trkpt>
      <trkpt lat="48.84444" lon="-0.84209">
        <ele>238</ele>
        <time>2020-09-12T11:35:40.272Z</time>
      </trkpt>
      <trkpt lat="48.84452" lon="-0.84118">
        <ele>236</ele>
        <time>2020-09-12T11:35:44.326Z</time>
      </trkpt>
      <trkpt lat="48.84486" lon="-0.8401">
        <ele>232</ele>
        <time>2020-09-12T11:35:49.272Z</time>
      </trkpt>
      <trkpt lat="48.84535" lon="-0.83919">
        <ele>228</ele>
        <time>2020-09-12T11:35:54.268Z</time>
      </trkpt>
      <trkpt lat="48.84592" lon="-0.83834">
        <ele>222</ele>
        <time>2020-09-12T11:36:00.271Z</time>
      </trkpt>
      <trkpt lat="48.84645" lon="-0.83754">
        <ele>217</ele>
        <time>2020-09-12T11:36:06.271Z</time>
      </trkpt>
      <trkpt lat="48.8469" lon="-0.83687">
        <ele>212</ele>
        <time>2020-09-12T11:36:11.270Z</time>
      </trkpt>
      <trkpt lat="48.84741" lon="-0.83631">
        <ele>207</ele>
        <time>2020-09-12T11:36:16.269Z</time>
      </trkpt>
      <trkpt lat="48.84792" lon="-0.83582">
        <ele>203</ele>
        <time>2020-09-12T11:36:21.271Z</time>
      </trkpt>
      <trkpt lat="48.84841" lon="-0.83533">
        <ele>199</ele>
        <time>2020-09-12T11:36:26.334Z</time>
      </trkpt>
      <trkpt lat="48.84887" lon="-0.83482">
        <ele>195</ele>
        <time>2020-09-12T11:36:31.270Z</time>
      </trkpt>
      <trkpt lat="48.84932" lon="-0.83431">
        <ele>193</ele>
        <time>2020-09-12T11:36:36.286Z</time>
      </trkpt>
      <trkpt lat="48.84961" lon="-0.83358">
        <ele>190</ele>
        <time>2020-09-12T11:36:41.268Z</time>
      </trkpt>
      <trkpt lat="48.84985" lon="-0.83279">
        <ele>187</ele>
        <time>2020-09-12T11:36:46.269Z</time>
      </trkpt>
      <trkpt lat="48.85012" lon="-0.83205">
        <ele>185</ele>
        <time>2020-09-12T11:36:51.271Z</time>
      </trkpt>
      <trkpt lat="48.85062" lon="-0.83164">
        <ele>182</ele>
        <time>2020-09-12T11:36:57.271Z</time>
      </trkpt>
      <trkpt lat="48.85106" lon="-0.83187">
        <ele>179</ele>
        <time>2020-09-12T11:37:03.278Z</time>
      </trkpt>
      <trkpt lat="48.85144" lon="-0.83158">
        <ele>178</ele>
        <time>2020-09-12T11:37:07.274Z</time>
      </trkpt>
      <trkpt lat="48.8518" lon="-0.83111">
        <ele>176</ele>
        <time>2020-09-12T11:37:11.272Z</time>
      </trkpt>
      <trkpt lat="48.8522" lon="-0.8306">
        <ele>174</ele>
        <time>2020-09-12T11:37:15.274Z</time>
      </trkpt>
      <trkpt lat="48.85266" lon="-0.83007">
        <ele>171</ele>
        <time>2020-09-12T11:37:20.320Z</time>
      </trkpt>
      <trkpt lat="48.85327" lon="-0.8298">
        <ele>168</ele>
        <time>2020-09-12T11:37:26.334Z</time>
      </trkpt>
      <trkpt lat="48.85381" lon="-0.82966">
        <ele>165</ele>
        <time>2020-09-12T11:37:31.268Z</time>
      </trkpt>
      <trkpt lat="48.85439" lon="-0.82968">
        <ele>161</ele>
        <time>2020-09-12T11:37:37.272Z</time>
      </trkpt>
      <trkpt lat="48.85489" lon="-0.82997">
        <ele>157</ele>
        <time>2020-09-12T11:37:42.270Z</time>
      </trkpt>
      <trkpt lat="48.85538" lon="-0.83028">
        <ele>153</ele>
        <time>2020-09-12T11:37:47.270Z</time>
      </trkpt>
      <trkpt lat="48.85582" lon="-0.83071">
        <ele>149</ele>
        <time>2020-09-12T11:37:52.272Z</time>
      </trkpt>
      <trkpt lat="48.85624" lon="-0.83117">
        <ele>146</ele>
        <time>2020-09-12T11:37:57.269Z</time>
      </trkpt>
      <trkpt lat="48.85667" lon="-0.83155">
        <ele>142</ele>
        <time>2020-09-12T11:38:02.322Z</time>
      </trkpt>
      <trkpt lat="48.85716" lon="-0.83168">
        <ele>140</ele>
        <time>2020-09-12T11:38:07.272Z</time>
      </trkpt>
      <trkpt lat="48.8576" lon="-0.83183">
        <ele>137</ele>
        <time>2020-09-12T11:38:12.270Z</time>
      </trkpt>
      <trkpt lat="48.85803" lon="-0.83196">
        <ele>135</ele>
        <time>2020-09-12T11:38:17.257Z</time>
      </trkpt>
      <trkpt lat="48.85847" lon="-0.83209">
        <ele>132</ele>
        <time>2020-09-12T11:38:22.272Z</time>
      </trkpt>
      <trkpt lat="48.8589" lon="-0.83226">
        <ele>131</ele>
        <time>2020-09-12T11:38:27.268Z</time>
      </trkpt>
      <trkpt lat="48.85932" lon="-0.8324">
        <ele>130</ele>
        <time>2020-09-12T11:38:32.315Z</time>
      </trkpt>
      <trkpt lat="48.85976" lon="-0.83247">
        <ele>129</ele>
        <time>2020-09-12T11:38:37.272Z</time>
      </trkpt>
      <trkpt lat="48.86022" lon="-0.83251">
        <ele>129</ele>
        <time>2020-09-12T11:38:42.272Z</time>
      </trkpt>
      <trkpt lat="48.86068" lon="-0.83254">
        <ele>128</ele>
        <time>2020-09-12T11:38:47.270Z</time>
      </trkpt>
      <trkpt lat="48.86117" lon="-0.83256">
        <ele>128</ele>
        <time>2020-09-12T11:38:52.263Z</time>
      </trkpt>
      <trkpt lat="48.86162" lon="-0.83264">
        <ele>128</ele>
        <time>2020-09-12T11:38:57.274Z</time>
      </trkpt>
      <trkpt lat="48.86206" lon="-0.83286">
        <ele>127</ele>
        <time>2020-09-12T11:39:02.320Z</time>
      </trkpt>
      <trkpt lat="48.8625" lon="-0.83307">
        <ele>127</ele>
        <time>2020-09-12T11:39:07.269Z</time>
      </trkpt>
      <trkpt lat="48.8629" lon="-0.83322">
        <ele>126</ele>
        <time>2020-09-12T11:39:13.269Z</time>
      </trkpt>
      <trkpt lat="48.86285" lon="-0.83276">
        <ele>125</ele>
        <time>2020-09-12T11:39:19.272Z</time>
      </trkpt>
      <trkpt lat="48.86281" lon="-0.83226">
        <ele>125</ele>
        <time>2020-09-12T11:39:23.277Z</time>
      </trkpt>
      <trkpt lat="48.86279" lon="-0.83177">
        <ele>124</ele>
        <time>2020-09-12T11:39:27.269Z</time>
      </trkpt>
      <trkpt lat="48.86278" lon="-0.83117">
        <ele>123</ele>
        <time>2020-09-12T11:39:32.324Z</time>
      </trkpt>
      <trkpt lat="48.86283" lon="-0.83059">
        <ele>122</ele>
        <time>2020-09-12T11:39:37.270Z</time>
      </trkpt>
      <trkpt lat="48.86293" lon="-0.83005">
        <ele>122</ele>
        <time>2020-09-12T11:39:42.278Z</time>
      </trkpt>
      <trkpt lat="48.86305" lon="-0.82949">
        <ele>122</ele>
        <time>2020-09-12T11:39:47.270Z</time>
      </trkpt>
      <trkpt lat="48.86315" lon="-0.82895">
        <ele>122</ele>
        <time>2020-09-12T11:39:52.269Z</time>
      </trkpt>
      <trkpt lat="48.86326" lon="-0.82846">
        <ele>122</ele>
        <time>2020-09-12T11:39:57.270Z</time>
      </trkpt>
      <trkpt lat="48.86338" lon="-0.82795">
        <ele>122</ele>
        <time>2020-09-12T11:40:02.322Z</time>
      </trkpt>
      <trkpt lat="48.86348" lon="-0.82747">
        <ele>123</ele>
        <time>2020-09-12T11:40:07.270Z</time>
      </trkpt>
      <trkpt lat="48.86359" lon="-0.82701">
        <ele>124</ele>
        <time>2020-09-12T11:40:12.268Z</time>
      </trkpt>
      <trkpt lat="48.86369" lon="-0.82655">
        <ele>125</ele>
        <time>2020-09-12T11:40:17.271Z</time>
      </trkpt>
      <trkpt lat="48.86376" lon="-0.82606">
        <ele>127</ele>
        <time>2020-09-12T11:40:22.273Z</time>
      </trkpt>
      <trkpt lat="48.86379" lon="-0.82562">
        <ele>128</ele>
        <time>2020-09-12T11:40:26.321Z</time>
      </trkpt>
      <trkpt lat="48.86382" lon="-0.82505">
        <ele>129</ele>
        <time>2020-09-12T11:40:31.268Z</time>
      </trkpt>
      <trkpt lat="48.86386" lon="-0.82448">
        <ele>130</ele>
        <time>2020-09-12T11:40:36.271Z</time>
      </trkpt>
      <trkpt lat="48.86389" lon="-0.82391">
        <ele>131</ele>
        <time>2020-09-12T11:40:41.269Z</time>
      </trkpt>
      <trkpt lat="48.86392" lon="-0.8233">
        <ele>131</ele>
        <time>2020-09-12T11:40:46.270Z</time>
      </trkpt>
      <trkpt lat="48.86395" lon="-0.8227">
        <ele>132</ele>
        <time>2020-09-12T11:40:51.272Z</time>
      </trkpt>
      <trkpt lat="48.864" lon="-0.8221">
        <ele>132</ele>
        <time>2020-09-12T11:40:56.320Z</time>
      </trkpt>
      <trkpt lat="48.86402" lon="-0.82149">
        <ele>132</ele>
        <time>2020-09-12T11:41:01.274Z</time>
      </trkpt>
      <trkpt lat="48.864" lon="-0.82085">
        <ele>132</ele>
        <time>2020-09-12T11:41:06.279Z</time>
      </trkpt>
      <trkpt lat="48.86399" lon="-0.82022">
        <ele>132</ele>
        <time>2020-09-12T11:41:11.270Z</time>
      </trkpt>
      <trkpt lat="48.86404" lon="-0.81961">
        <ele>132</ele>
        <time>2020-09-12T11:41:16.271Z</time>
      </trkpt>
      <trkpt lat="48.86411" lon="-0.81903">
        <ele>132</ele>
        <time>2020-09-12T11:41:21.272Z</time>
      </trkpt>
      <trkpt lat="48.86414" lon="-0.81846">
        <ele>133</ele>
        <time>2020-09-12T11:41:26.316Z</time>
      </trkpt>
      <trkpt lat="48.86416" lon="-0.8179">
        <ele>133</ele>
        <time>2020-09-12T11:41:31.275Z</time>
      </trkpt>
      <trkpt lat="48.86421" lon="-0.81735">
        <ele>134</ele>
        <time>2020-09-12T11:41:36.271Z</time>
      </trkpt>
      <trkpt lat="48.86426" lon="-0.8168">
        <ele>135</ele>
        <time>2020-09-12T11:41:41.269Z</time>
      </trkpt>
      <trkpt lat="48.86431" lon="-0.81626">
        <ele>136</ele>
        <time>2020-09-12T11:41:46.273Z</time>
      </trkpt>
      <trkpt lat="48.86437" lon="-0.81571">
        <ele>137</ele>
        <time>2020-09-12T11:41:51.263Z</time>
      </trkpt>
      <trkpt lat="48.86445" lon="-0.81516">
        <ele>138</ele>
        <time>2020-09-12T11:41:56.314Z</time>
      </trkpt>
      <trkpt lat="48.86454" lon="-0.81459">
        <ele>139</ele>
        <time>2020-09-12T11:42:01.273Z</time>
      </trkpt>
      <trkpt lat="48.86463" lon="-0.81399">
        <ele>139</ele>
        <time>2020-09-12T11:42:06.272Z</time>
      </trkpt>
      <trkpt lat="48.86473" lon="-0.81335">
        <ele>140</ele>
        <time>2020-09-12T11:42:11.270Z</time>
      </trkpt>
      <trkpt lat="48.86483" lon="-0.8127">
        <ele>140</ele>
        <time>2020-09-12T11:42:16.270Z</time>
      </trkpt>
      <trkpt lat="48.86492" lon="-0.81209">
        <ele>140</ele>
        <time>2020-09-12T11:42:21.273Z</time>
      </trkpt>
      <trkpt lat="48.86501" lon="-0.8115">
        <ele>140</ele>
        <time>2020-09-12T11:42:26.334Z</time>
      </trkpt>
      <trkpt lat="48.8651" lon="-0.81091">
        <ele>139</ele>
        <time>2020-09-12T11:42:31.271Z</time>
      </trkpt>
      <trkpt lat="48.86519" lon="-0.81028">
        <ele>139</ele>
        <time>2020-09-12T11:42:36.268Z</time>
      </trkpt>
      <trkpt lat="48.86531" lon="-0.80961">
        <ele>138</ele>
        <time>2020-09-12T11:42:41.268Z</time>
      </trkpt>
      <trkpt lat="48.86543" lon="-0.80893">
        <ele>138</ele>
        <time>2020-09-12T11:42:46.270Z</time>
      </trkpt>
      <trkpt lat="48.86563" lon="-0.80823">
        <ele>137</ele>
        <time>2020-09-12T11:42:51.266Z</time>
      </trkpt>
      <trkpt lat="48.86583" lon="-0.8076">
        <ele>136</ele>
        <time>2020-09-12T11:42:56.343Z</time>
      </trkpt>
      <trkpt lat="48.86601" lon="-0.807">
        <ele>136</ele>
        <time>2020-09-12T11:43:01.270Z</time>
      </trkpt>
      <trkpt lat="48.8662" lon="-0.80639">
        <ele>135</ele>
        <time>2020-09-12T11:43:06.273Z</time>
      </trkpt>
      <trkpt lat="48.86639" lon="-0.80583">
        <ele>135</ele>
        <time>2020-09-12T11:43:11.272Z</time>
      </trkpt>
      <trkpt lat="48.8666" lon="-0.80528">
        <ele>135</ele>
        <time>2020-09-12T11:43:16.268Z</time>
      </trkpt>
      <trkpt lat="48.86682" lon="-0.80472">
        <ele>134</ele>
        <time>2020-09-12T11:43:21.272Z</time>
      </trkpt>
      <trkpt lat="48.867" lon="-0.80416">
        <ele>134</ele>
        <time>2020-09-12T11:43:26.294Z</time>
      </trkpt>
      <trkpt lat="48.86719" lon="-0.80362">
        <ele>134</ele>
        <time>2020-09-12T11:43:31.274Z</time>
      </trkpt>
      <trkpt lat="48.86742" lon="-0.80312">
        <ele>135</ele>
        <time>2020-09-12T11:43:36.273Z</time>
      </trkpt>
      <trkpt lat="48.8677" lon="-0.80259">
        <ele>135</ele>
        <time>2020-09-12T11:43:41.268Z</time>
      </trkpt>
      <trkpt lat="48.868" lon="-0.80223">
        <ele>135</ele>
        <time>2020-09-12T11:43:46.267Z</time>
      </trkpt>
      <trkpt lat="48.8683" lon="-0.80186">
        <ele>136</ele>
        <time>2020-09-12T11:43:52.269Z</time>
      </trkpt>
      <trkpt lat="48.86857" lon="-0.8015">
        <ele>137</ele>
        <time>2020-09-12T11:43:57.270Z</time>
      </trkpt>
      <trkpt lat="48.86881" lon="-0.80122">
        <ele>138</ele>
        <time>2020-09-12T11:44:02.313Z</time>
      </trkpt>
      <trkpt lat="48.86907" lon="-0.80096">
        <ele>140</ele>
        <time>2020-09-12T11:44:07.275Z</time>
      </trkpt>
      <trkpt lat="48.86931" lon="-0.80065">
        <ele>141</ele>
        <time>2020-09-12T11:44:12.271Z</time>
      </trkpt>
      <trkpt lat="48.86952" lon="-0.80027">
        <ele>143</ele>
        <time>2020-09-12T11:44:17.269Z</time>
      </trkpt>
      <trkpt lat="48.8697" lon="-0.79983">
        <ele>144</ele>
        <time>2020-09-12T11:44:22.284Z</time>
      </trkpt>
      <trkpt lat="48.86991" lon="-0.79938">
        <ele>145</ele>
        <time>2020-09-12T11:44:27.270Z</time>
      </trkpt>
      <trkpt lat="48.87014" lon="-0.79898">
        <ele>147</ele>
        <time>2020-09-12T11:44:32.302Z</time>
      </trkpt>
      <trkpt lat="48.8704" lon="-0.79865">
        <ele>147</ele>
        <time>2020-09-12T11:44:37.266Z</time>
      </trkpt>
      <trkpt lat="48.87067" lon="-0.79833">
        <ele>148</ele>
        <time>2020-09-12T11:44:42.275Z</time>
      </trkpt>
      <trkpt lat="48.87091" lon="-0.79799">
        <ele>149</ele>
        <time>2020-09-12T11:44:47.276Z</time>
      </trkpt>
      <trkpt lat="48.87112" lon="-0.79765">
        <ele>149</ele>
        <time>2020-09-12T11:44:52.271Z</time>
      </trkpt>
      <trkpt lat="48.87133" lon="-0.79726">
        <ele>150</ele>
        <time>2020-09-12T11:44:57.270Z</time>
      </trkpt>
      <trkpt lat="48.87152" lon="-0.7969">
        <ele>150</ele>
        <time>2020-09-12T11:45:02.325Z</time>
      </trkpt>
      <trkpt lat="48.8717" lon="-0.79656">
        <ele>151</ele>
        <time>2020-09-12T11:45:07.277Z</time>
      </trkpt>
      <trkpt lat="48.87188" lon="-0.79619">
        <ele>152</ele>
        <time>2020-09-12T11:45:12.271Z</time>
      </trkpt>
      <trkpt lat="48.87205" lon="-0.79579">
        <ele>153</ele>
        <time>2020-09-12T11:45:17.272Z</time>
      </trkpt>
      <trkpt lat="48.87217" lon="-0.79542">
        <ele>154</ele>
        <time>2020-09-12T11:45:21.269Z</time>
      </trkpt>
      <trkpt lat="48.87229" lon="-0.79491">
        <ele>154</ele>
        <time>2020-09-12T11:45:26.336Z</time>
      </trkpt>
      <trkpt lat="48.87242" lon="-0.7944">
        <ele>155</ele>
        <time>2020-09-12T11:45:31.272Z</time>
      </trkpt>
      <trkpt lat="48.87261" lon="-0.79396">
        <ele>156</ele>
        <time>2020-09-12T11:45:36.293Z</time>
      </trkpt>
      <trkpt lat="48.87283" lon="-0.79362">
        <ele>156</ele>
        <time>2020-09-12T11:45:41.253Z</time>
      </trkpt>
      <trkpt lat="48.87308" lon="-0.79333">
        <ele>157</ele>
        <time>2020-09-12T11:45:46.261Z</time>
      </trkpt>
      <trkpt lat="48.87333" lon="-0.79304">
        <ele>158</ele>
        <time>2020-09-12T11:45:51.267Z</time>
      </trkpt>
      <trkpt lat="48.87355" lon="-0.79274">
        <ele>159</ele>
        <time>2020-09-12T11:45:56.285Z</time>
      </trkpt>
      <trkpt lat="48.87372" lon="-0.79244">
        <ele>159</ele>
        <time>2020-09-12T11:46:01.271Z</time>
      </trkpt>
      <trkpt lat="48.87385" lon="-0.79213">
        <ele>161</ele>
        <time>2020-09-12T11:46:06.274Z</time>
      </trkpt>
      <trkpt lat="48.87398" lon="-0.79181">
        <ele>163</ele>
        <time>2020-09-12T11:46:11.270Z</time>
      </trkpt>
      <trkpt lat="48.87408" lon="-0.79153">
        <ele>164</ele>
        <time>2020-09-12T11:46:15.270Z</time>
      </trkpt>
      <trkpt lat="48.87418" lon="-0.79121">
        <ele>166</ele>
        <time>2020-09-12T11:46:19.270Z</time>
      </trkpt>
      <trkpt lat="48.87426" lon="-0.79084">
        <ele>167</ele>
        <time>2020-09-12T11:46:23.270Z</time>
      </trkpt>
      <trkpt lat="48.87436" lon="-0.79043">
        <ele>168</ele>
        <time>2020-09-12T11:46:27.271Z</time>
      </trkpt>
      <trkpt lat="48.87452" lon="-0.78994">
        <ele>168</ele>
        <time>2020-09-12T11:46:32.325Z</time>
      </trkpt>
      <trkpt lat="48.87472" lon="-0.78943">
        <ele>169</ele>
        <time>2020-09-12T11:46:37.268Z</time>
      </trkpt>
      <trkpt lat="48.87493" lon="-0.7889">
        <ele>169</ele>
        <time>2020-09-12T11:46:42.268Z</time>
      </trkpt>
      <trkpt lat="48.87517" lon="-0.78836">
        <ele>169</ele>
        <time>2020-09-12T11:46:47.270Z</time>
      </trkpt>
      <trkpt lat="48.87539" lon="-0.78782">
        <ele>169</ele>
        <time>2020-09-12T11:46:52.272Z</time>
      </trkpt>
      <trkpt lat="48.87556" lon="-0.78725">
        <ele>169</ele>
        <time>2020-09-12T11:46:57.266Z</time>
      </trkpt>
      <trkpt lat="48.87572" lon="-0.78663">
        <ele>168</ele>
        <time>2020-09-12T11:47:02.323Z</time>
      </trkpt>
      <trkpt lat="48.87577" lon="-0.78591">
        <ele>168</ele>
        <time>2020-09-12T11:47:07.272Z</time>
      </trkpt>
      <trkpt lat="48.87589" lon="-0.78528">
        <ele>167</ele>
        <time>2020-09-12T11:47:12.270Z</time>
      </trkpt>
      <trkpt lat="48.876" lon="-0.78467">
        <ele>167</ele>
        <time>2020-09-12T11:47:17.271Z</time>
      </trkpt>
      <trkpt lat="48.87609" lon="-0.78406">
        <ele>167</ele>
        <time>2020-09-12T11:47:22.265Z</time>
      </trkpt>
      <trkpt lat="48.8762" lon="-0.78346">
        <ele>166</ele>
        <time>2020-09-12T11:47:27.270Z</time>
      </trkpt>
      <trkpt lat="48.87633" lon="-0.78282">
        <ele>166</ele>
        <time>2020-09-12T11:47:32.318Z</time>
      </trkpt>
      <trkpt lat="48.87645" lon="-0.78219">
        <ele>166</ele>
        <time>2020-09-12T11:47:37.281Z</time>
      </trkpt>
      <trkpt lat="48.87662" lon="-0.78155">
        <ele>166</ele>
        <time>2020-09-12T11:47:42.270Z</time>
      </trkpt>
      <trkpt lat="48.8768" lon="-0.78094">
        <ele>165</ele>
        <time>2020-09-12T11:47:47.271Z</time>
      </trkpt>
      <trkpt lat="48.87689" lon="-0.78037">
        <ele>165</ele>
        <time>2020-09-12T11:47:53.271Z</time>
      </trkpt>
      <trkpt lat="48.87705" lon="-0.7798">
        <ele>164</ele>
        <time>2020-09-12T11:47:58.271Z</time>
      </trkpt>
      <trkpt lat="48.8772" lon="-0.77927">
        <ele>163</ele>
        <time>2020-09-12T11:48:02.324Z</time>
      </trkpt>
      <trkpt lat="48.87739" lon="-0.77869">
        <ele>162</ele>
        <time>2020-09-12T11:48:06.271Z</time>
      </trkpt>
      <trkpt lat="48.87761" lon="-0.7779">
        <ele>161</ele>
        <time>2020-09-12T11:48:11.260Z</time>
      </trkpt>
      <trkpt lat="48.87782" lon="-0.77716">
        <ele>159</ele>
        <time>2020-09-12T11:48:16.275Z</time>
      </trkpt>
      <trkpt lat="48.87803" lon="-0.77641">
        <ele>158</ele>
        <time>2020-09-12T11:48:22.278Z</time>
      </trkpt>
      <trkpt lat="48.8782" lon="-0.7758">
        <ele>157</ele>
        <time>2020-09-12T11:48:27.270Z</time>
      </trkpt>
      <trkpt lat="48.87838" lon="-0.77522">
        <ele>156</ele>
        <time>2020-09-12T11:48:32.321Z</time>
      </trkpt>
      <trkpt lat="48.87853" lon="-0.77462">
        <ele>156</ele>
        <time>2020-09-12T11:48:37.268Z</time>
      </trkpt>
      <trkpt lat="48.8786" lon="-0.77396">
        <ele>155</ele>
        <time>2020-09-12T11:48:42.267Z</time>
      </trkpt>
      <trkpt lat="48.8786" lon="-0.77329">
        <ele>154</ele>
        <time>2020-09-12T11:48:47.269Z</time>
      </trkpt>
      <trkpt lat="48.87856" lon="-0.77271">
        <ele>154</ele>
        <time>2020-09-12T11:48:52.268Z</time>
      </trkpt>
      <trkpt lat="48.87848" lon="-0.77217">
        <ele>155</ele>
        <time>2020-09-12T11:48:57.272Z</time>
      </trkpt>
      <trkpt lat="48.87842" lon="-0.77164">
        <ele>156</ele>
        <time>2020-09-12T11:49:02.316Z</time>
      </trkpt>
      <trkpt lat="48.87835" lon="-0.77113">
        <ele>156</ele>
        <time>2020-09-12T11:49:07.267Z</time>
      </trkpt>
      <trkpt lat="48.87828" lon="-0.77062">
        <ele>157</ele>
        <time>2020-09-12T11:49:12.268Z</time>
      </trkpt>
      <trkpt lat="48.87827" lon="-0.77015">
        <ele>158</ele>
        <time>2020-09-12T11:49:17.277Z</time>
      </trkpt>
      <trkpt lat="48.87827" lon="-0.76967">
        <ele>160</ele>
        <time>2020-09-12T11:49:22.268Z</time>
      </trkpt>
      <trkpt lat="48.87828" lon="-0.76919">
        <ele>161</ele>
        <time>2020-09-12T11:49:27.270Z</time>
      </trkpt>
      <trkpt lat="48.87831" lon="-0.76867">
        <ele>163</ele>
        <time>2020-09-12T11:49:32.334Z</time>
      </trkpt>
      <trkpt lat="48.87834" lon="-0.76822">
        <ele>165</ele>
        <time>2020-09-12T11:49:36.271Z</time>
      </trkpt>
      <trkpt lat="48.87824" lon="-0.76773">
        <ele>166</ele>
        <time>2020-09-12T11:49:40.267Z</time>
      </trkpt>
      <trkpt lat="48.87807" lon="-0.76721">
        <ele>166</ele>
        <time>2020-09-12T11:49:44.316Z</time>
      </trkpt>
      <trkpt lat="48.87787" lon="-0.76665">
        <ele>166</ele>
        <time>2020-09-12T11:49:48.271Z</time>
      </trkpt>
      <trkpt lat="48.87756" lon="-0.76593">
        <ele>166</ele>
        <time>2020-09-12T11:49:53.268Z</time>
      </trkpt>
      <trkpt lat="48.87722" lon="-0.76512">
        <ele>165</ele>
        <time>2020-09-12T11:49:58.270Z</time>
      </trkpt>
      <trkpt lat="48.87707" lon="-0.76417">
        <ele>164</ele>
        <time>2020-09-12T11:50:03.267Z</time>
      </trkpt>
      <trkpt lat="48.87666" lon="-0.76349">
        <ele>161</ele>
        <time>2020-09-12T11:50:08.323Z</time>
      </trkpt>
      <trkpt lat="48.87685" lon="-0.76268">
        <ele>158</ele>
        <time>2020-09-12T11:50:14.322Z</time>
      </trkpt>
      <trkpt lat="48.87691" lon="-0.76196">
        <ele>155</ele>
        <time>2020-09-12T11:50:19.269Z</time>
      </trkpt>
      <trkpt lat="48.87713" lon="-0.7613">
        <ele>153</ele>
        <time>2020-09-12T11:50:25.268Z</time>
      </trkpt>
      <trkpt lat="48.87721" lon="-0.76074">
        <ele>151</ele>
        <time>2020-09-12T11:50:30.268Z</time>
      </trkpt>
      <trkpt lat="48.87726" lon="-0.76021">
        <ele>150</ele>
        <time>2020-09-12T11:50:35.266Z</time>
      </trkpt>
      <trkpt lat="48.87743" lon="-0.75974">
        <ele>150</ele>
        <time>2020-09-12T11:50:40.268Z</time>
      </trkpt>
      <trkpt lat="48.87768" lon="-0.75927">
        <ele>150</ele>
        <time>2020-09-12T11:50:45.269Z</time>
      </trkpt>
      <trkpt lat="48.87791" lon="-0.75879">
        <ele>150</ele>
        <time>2020-09-12T11:50:50.319Z</time>
      </trkpt>
      <trkpt lat="48.87816" lon="-0.75832">
        <ele>151</ele>
        <time>2020-09-12T11:50:55.269Z</time>
      </trkpt>
      <trkpt lat="48.87838" lon="-0.75787">
        <ele>152</ele>
        <time>2020-09-12T11:51:00.268Z</time>
      </trkpt>
      <trkpt lat="48.87858" lon="-0.75741">
        <ele>153</ele>
        <time>2020-09-12T11:51:05.277Z</time>
      </trkpt>
      <trkpt lat="48.87872" lon="-0.75687">
        <ele>154</ele>
        <time>2020-09-12T11:51:10.269Z</time>
      </trkpt>
      <trkpt lat="48.87876" lon="-0.75636">
        <ele>155</ele>
        <time>2020-09-12T11:51:15.272Z</time>
      </trkpt>
      <trkpt lat="48.87881" lon="-0.75587">
        <ele>156</ele>
        <time>2020-09-12T11:51:20.340Z</time>
      </trkpt>
      <trkpt lat="48.87896" lon="-0.75541">
        <ele>157</ele>
        <time>2020-09-12T11:51:25.273Z</time>
      </trkpt>
      <trkpt lat="48.87914" lon="-0.75497">
        <ele>158</ele>
        <time>2020-09-12T11:51:30.268Z</time>
      </trkpt>
      <trkpt lat="48.87931" lon="-0.7545">
        <ele>159</ele>
        <time>2020-09-12T11:51:35.269Z</time>
      </trkpt>
      <trkpt lat="48.87948" lon="-0.75403">
        <ele>160</ele>
        <time>2020-09-12T11:51:40.270Z</time>
      </trkpt>
      <trkpt lat="48.87965" lon="-0.75353">
        <ele>162</ele>
        <time>2020-09-12T11:51:45.270Z</time>
      </trkpt>
      <trkpt lat="48.87979" lon="-0.75304">
        <ele>164</ele>
        <time>2020-09-12T11:51:50.322Z</time>
      </trkpt>
      <trkpt lat="48.87992" lon="-0.75253">
        <ele>165</ele>
        <time>2020-09-12T11:51:55.270Z</time>
      </trkpt>
      <trkpt lat="48.88006" lon="-0.75201">
        <ele>166</ele>
        <time>2020-09-12T11:52:00.271Z</time>
      </trkpt>
      <trkpt lat="48.8802" lon="-0.75147">
        <ele>167</ele>
        <time>2020-09-12T11:52:05.271Z</time>
      </trkpt>
      <trkpt lat="48.88036" lon="-0.75089">
        <ele>168</ele>
        <time>2020-09-12T11:52:10.267Z</time>
      </trkpt>
      <trkpt lat="48.8805" lon="-0.75029">
        <ele>169</ele>
        <time>2020-09-12T11:52:15.283Z</time>
      </trkpt>
      <trkpt lat="48.88055" lon="-0.74957">
        <ele>169</ele>
        <time>2020-09-12T11:52:20.316Z</time>
      </trkpt>
      <trkpt lat="48.88067" lon="-0.74896">
        <ele>168</ele>
        <time>2020-09-12T11:52:24.272Z</time>
      </trkpt>
      <trkpt lat="48.8809" lon="-0.74831">
        <ele>167</ele>
        <time>2020-09-12T11:52:28.270Z</time>
      </trkpt>
      <trkpt lat="48.88102" lon="-0.7475">
        <ele>166</ele>
        <time>2020-09-12T11:52:33.274Z</time>
      </trkpt>
      <trkpt lat="48.88079" lon="-0.74676">
        <ele>165</ele>
        <time>2020-09-12T11:52:40.274Z</time>
      </trkpt>
      <trkpt lat="48.88078" lon="-0.74616">
        <ele>164</ele>
        <time>2020-09-12T11:52:46.273Z</time>
      </trkpt>
      <trkpt lat="48.88076" lon="-0.74566">
        <ele>164</ele>
        <time>2020-09-12T11:52:51.271Z</time>
      </trkpt>
      <trkpt lat="48.88084" lon="-0.74522">
        <ele>164</ele>
        <time>2020-09-12T11:52:55.273Z</time>
      </trkpt>
      <trkpt lat="48.88094" lon="-0.74476">
        <ele>164</ele>
        <time>2020-09-12T11:52:59.271Z</time>
      </trkpt>
      <trkpt lat="48.88105" lon="-0.74418">
        <ele>164</ele>
        <time>2020-09-12T11:53:04.274Z</time>
      </trkpt>
      <trkpt lat="48.88111" lon="-0.74358">
        <ele>165</ele>
        <time>2020-09-12T11:53:09.307Z</time>
      </trkpt>
      <trkpt lat="48.88114" lon="-0.74298">
        <ele>166</ele>
        <time>2020-09-12T11:53:14.315Z</time>
      </trkpt>
      <trkpt lat="48.88126" lon="-0.74238">
        <ele>167</ele>
        <time>2020-09-12T11:53:19.269Z</time>
      </trkpt>
      <trkpt lat="48.88146" lon="-0.74177">
        <ele>168</ele>
        <time>2020-09-12T11:53:24.270Z</time>
      </trkpt>
      <trkpt lat="48.88165" lon="-0.74118">
        <ele>169</ele>
        <time>2020-09-12T11:53:29.279Z</time>
      </trkpt>
      <trkpt lat="48.88183" lon="-0.74063">
        <ele>169</ele>
        <time>2020-09-12T11:53:34.271Z</time>
      </trkpt>
      <trkpt lat="48.88202" lon="-0.74012">
        <ele>169</ele>
        <time>2020-09-12T11:53:39.271Z</time>
      </trkpt>
      <trkpt lat="48.88223" lon="-0.73961">
        <ele>168</ele>
        <time>2020-09-12T11:53:44.326Z</time>
      </trkpt>
      <trkpt lat="48.88245" lon="-0.7391">
        <ele>168</ele>
        <time>2020-09-12T11:53:49.268Z</time>
      </trkpt>
      <trkpt lat="48.88269" lon="-0.73858">
        <ele>168</ele>
        <time>2020-09-12T11:53:54.274Z</time>
      </trkpt>
      <trkpt lat="48.88287" lon="-0.73805">
        <ele>167</ele>
        <time>2020-09-12T11:53:59.272Z</time>
      </trkpt>
      <trkpt lat="48.88305" lon="-0.73753">
        <ele>167</ele>
        <time>2020-09-12T11:54:04.270Z</time>
      </trkpt>
      <trkpt lat="48.88325" lon="-0.737">
        <ele>167</ele>
        <time>2020-09-12T11:54:10.273Z</time>
      </trkpt>
      <trkpt lat="48.88338" lon="-0.73656">
        <ele>167</ele>
        <time>2020-09-12T11:54:15.273Z</time>
      </trkpt>
      <trkpt lat="48.8835" lon="-0.73617">
        <ele>167</ele>
        <time>2020-09-12T11:54:20.327Z</time>
      </trkpt>
      <trkpt lat="48.8834" lon="-0.73579">
        <ele>167</ele>
        <time>2020-09-12T11:54:26.322Z</time>
      </trkpt>
      <trkpt lat="48.88317" lon="-0.73572">
        <ele>168</ele>
        <time>2020-09-12T11:54:30.269Z</time>
      </trkpt>
      <trkpt lat="48.88293" lon="-0.73565">
        <ele>168</ele>
        <time>2020-09-12T11:54:34.269Z</time>
      </trkpt>
      <trkpt lat="48.88265" lon="-0.73555">
        <ele>169</ele>
        <time>2020-09-12T11:54:39.269Z</time>
      </trkpt>
      <trkpt lat="48.88239" lon="-0.73545">
        <ele>170</ele>
        <time>2020-09-12T11:54:44.327Z</time>
      </trkpt>
      <trkpt lat="48.88214" lon="-0.73538">
        <ele>171</ele>
        <time>2020-09-12T11:54:49.268Z</time>
      </trkpt>
      <trkpt lat="48.88188" lon="-0.73532">
        <ele>172</ele>
        <time>2020-09-12T11:54:54.269Z</time>
      </trkpt>
      <trkpt lat="48.88165" lon="-0.73532">
        <ele>173</ele>
        <time>2020-09-12T11:54:59.271Z</time>
      </trkpt>
      <trkpt lat="48.88145" lon="-0.73533">
        <ele>174</ele>
        <time>2020-09-12T11:55:04.271Z</time>
      </trkpt>
      <trkpt lat="48.88125" lon="-0.73536">
        <ele>175</ele>
        <time>2020-09-12T11:55:08.329Z</time>
      </trkpt>
      <trkpt lat="48.88105" lon="-0.73542">
        <ele>177</ele>
        <time>2020-09-12T11:55:12.273Z</time>
      </trkpt>
      <trkpt lat="48.88085" lon="-0.73551">
        <ele>178</ele>
        <time>2020-09-12T11:55:16.269Z</time>
      </trkpt>
      <trkpt lat="48.8806" lon="-0.73563">
        <ele>180</ele>
        <time>2020-09-12T11:55:21.273Z</time>
      </trkpt>
      <trkpt lat="48.88034" lon="-0.73575">
        <ele>182</ele>
        <time>2020-09-12T11:55:26.336Z</time>
      </trkpt>
      <trkpt lat="48.88009" lon="-0.73586">
        <ele>183</ele>
        <time>2020-09-12T11:55:31.273Z</time>
      </trkpt>
      <trkpt lat="48.87982" lon="-0.73598">
        <ele>185</ele>
        <time>2020-09-12T11:55:36.273Z</time>
      </trkpt>
      <trkpt lat="48.87956" lon="-0.73609">
        <ele>186</ele>
        <time>2020-09-12T11:55:41.270Z</time>
      </trkpt>
      <trkpt lat="48.8793" lon="-0.73625">
        <ele>187</ele>
        <time>2020-09-12T11:55:46.271Z</time>
      </trkpt>
      <trkpt lat="48.87908" lon="-0.7364">
        <ele>188</ele>
        <time>2020-09-12T11:55:50.318Z</time>
      </trkpt>
      <trkpt lat="48.87886" lon="-0.73658">
        <ele>189</ele>
        <time>2020-09-12T11:55:54.268Z</time>
      </trkpt>
      <trkpt lat="48.87863" lon="-0.73677">
        <ele>189</ele>
        <time>2020-09-12T11:55:58.270Z</time>
      </trkpt>
      <trkpt lat="48.87837" lon="-0.73699">
        <ele>190</ele>
        <time>2020-09-12T11:56:02.318Z</time>
      </trkpt>
      <trkpt lat="48.87811" lon="-0.73722">
        <ele>190</ele>
        <time>2020-09-12T11:56:06.270Z</time>
      </trkpt>
      <trkpt lat="48.87779" lon="-0.7375">
        <ele>190</ele>
        <time>2020-09-12T11:56:11.272Z</time>
      </trkpt>
      <trkpt lat="48.87748" lon="-0.73777">
        <ele>191</ele>
        <time>2020-09-12T11:56:16.271Z</time>
      </trkpt>
      <trkpt lat="48.87715" lon="-0.73804">
        <ele>191</ele>
        <time>2020-09-12T11:56:21.270Z</time>
      </trkpt>
      <trkpt lat="48.87685" lon="-0.73829">
        <ele>191</ele>
        <time>2020-09-12T11:56:26.334Z</time>
      </trkpt>
      <trkpt lat="48.87657" lon="-0.73854">
        <ele>192</ele>
        <time>2020-09-12T11:56:31.273Z</time>
      </trkpt>
      <trkpt lat="48.87628" lon="-0.73878">
        <ele>192</ele>
        <time>2020-09-12T11:56:36.270Z</time>
      </trkpt>
      <trkpt lat="48.876" lon="-0.73901">
        <ele>192</ele>
        <time>2020-09-12T11:56:41.272Z</time>
      </trkpt>
      <trkpt lat="48.8757" lon="-0.73919">
        <ele>192</ele>
        <time>2020-09-12T11:56:46.272Z</time>
      </trkpt>
      <trkpt lat="48.87541" lon="-0.73934">
        <ele>193</ele>
        <time>2020-09-12T11:56:51.272Z</time>
      </trkpt>
      <trkpt lat="48.87512" lon="-0.73945">
        <ele>193</ele>
        <time>2020-09-12T11:56:56.335Z</time>
      </trkpt>
      <trkpt lat="48.87485" lon="-0.7395">
        <ele>194</ele>
        <time>2020-09-12T11:57:01.256Z</time>
      </trkpt>
      <trkpt lat="48.87455" lon="-0.73956">
        <ele>195</ele>
        <time>2020-09-12T11:57:06.273Z</time>
      </trkpt>
      <trkpt lat="48.87429" lon="-0.73961">
        <ele>196</ele>
        <time>2020-09-12T11:57:10.270Z</time>
      </trkpt>
      <trkpt lat="48.87401" lon="-0.73963">
        <ele>196</ele>
        <time>2020-09-12T11:57:15.273Z</time>
      </trkpt>
      <trkpt lat="48.87375" lon="-0.73961">
        <ele>197</ele>
        <time>2020-09-12T11:57:20.323Z</time>
      </trkpt>
      <trkpt lat="48.87346" lon="-0.7396">
        <ele>198</ele>
        <time>2020-09-12T11:57:25.269Z</time>
      </trkpt>
      <trkpt lat="48.8732" lon="-0.73959">
        <ele>199</ele>
        <time>2020-09-12T11:57:30.270Z</time>
      </trkpt>
      <trkpt lat="48.87296" lon="-0.73959">
        <ele>200</ele>
        <time>2020-09-12T11:57:34.272Z</time>
      </trkpt>
      <trkpt lat="48.87271" lon="-0.73959">
        <ele>201</ele>
        <time>2020-09-12T11:57:38.328Z</time>
      </trkpt>
      <trkpt lat="48.87241" lon="-0.73958">
        <ele>202</ele>
        <time>2020-09-12T11:57:43.270Z</time>
      </trkpt>
      <trkpt lat="48.87209" lon="-0.73957">
        <ele>202</ele>
        <time>2020-09-12T11:57:48.271Z</time>
      </trkpt>
      <trkpt lat="48.87177" lon="-0.73956">
        <ele>202</ele>
        <time>2020-09-12T11:57:53.271Z</time>
      </trkpt>
      <trkpt lat="48.87145" lon="-0.73956">
        <ele>202</ele>
        <time>2020-09-12T11:57:58.272Z</time>
      </trkpt>
      <trkpt lat="48.87112" lon="-0.73956">
        <ele>203</ele>
        <time>2020-09-12T11:58:03.271Z</time>
      </trkpt>
      <trkpt lat="48.8708" lon="-0.73954">
        <ele>203</ele>
        <time>2020-09-12T11:58:08.326Z</time>
      </trkpt>
      <trkpt lat="48.87047" lon="-0.73952">
        <ele>203</ele>
        <time>2020-09-12T11:58:13.271Z</time>
      </trkpt>
      <trkpt lat="48.87014" lon="-0.73951">
        <ele>203</ele>
        <time>2020-09-12T11:58:18.272Z</time>
      </trkpt>
      <trkpt lat="48.86979" lon="-0.7395">
        <ele>203</ele>
        <time>2020-09-12T11:58:23.270Z</time>
      </trkpt>
      <trkpt lat="48.86944" lon="-0.73949">
        <ele>204</ele>
        <time>2020-09-12T11:58:28.274Z</time>
      </trkpt>
      <trkpt lat="48.86907" lon="-0.7395">
        <ele>204</ele>
        <time>2020-09-12T11:58:33.272Z</time>
      </trkpt>
      <trkpt lat="48.86874" lon="-0.73948">
        <ele>204</ele>
        <time>2020-09-12T11:58:38.316Z</time>
      </trkpt>
      <trkpt lat="48.86841" lon="-0.73948">
        <ele>205</ele>
        <time>2020-09-12T11:58:44.322Z</time>
      </trkpt>
      <trkpt lat="48.86813" lon="-0.73947">
        <ele>206</ele>
        <time>2020-09-12T11:58:49.260Z</time>
      </trkpt>
      <trkpt lat="48.86785" lon="-0.73946">
        <ele>207</ele>
        <time>2020-09-12T11:58:54.271Z</time>
      </trkpt>
      <trkpt lat="48.86759" lon="-0.73946">
        <ele>208</ele>
        <time>2020-09-12T11:58:59.269Z</time>
      </trkpt>
      <trkpt lat="48.86732" lon="-0.73945">
        <ele>209</ele>
        <time>2020-09-12T11:59:04.271Z</time>
      </trkpt>
      <trkpt lat="48.86706" lon="-0.73944">
        <ele>211</ele>
        <time>2020-09-12T11:59:09.273Z</time>
      </trkpt>
      <trkpt lat="48.86679" lon="-0.73944">
        <ele>213</ele>
        <time>2020-09-12T11:59:14.326Z</time>
      </trkpt>
      <trkpt lat="48.86654" lon="-0.73945">
        <ele>215</ele>
        <time>2020-09-12T11:59:19.272Z</time>
      </trkpt>
      <trkpt lat="48.86633" lon="-0.73948">
        <ele>216</ele>
        <time>2020-09-12T11:59:23.271Z</time>
      </trkpt>
      <trkpt lat="48.86612" lon="-0.73952">
        <ele>218</ele>
        <time>2020-09-12T11:59:27.270Z</time>
      </trkpt>
      <trkpt lat="48.86585" lon="-0.73958">
        <ele>220</ele>
        <time>2020-09-12T11:59:32.326Z</time>
      </trkpt>
      <trkpt lat="48.86558" lon="-0.73964">
        <ele>222</ele>
        <time>2020-09-12T11:59:37.275Z</time>
      </trkpt>
      <trkpt lat="48.86531" lon="-0.73973">
        <ele>223</ele>
        <time>2020-09-12T11:59:42.271Z</time>
      </trkpt>
      <trkpt lat="48.86508" lon="-0.73979">
        <ele>224</ele>
        <time>2020-09-12T11:59:46.270Z</time>
      </trkpt>
      <trkpt lat="48.8648" lon="-0.73987">
        <ele>226</ele>
        <time>2020-09-12T11:59:51.283Z</time>
      </trkpt>
      <trkpt lat="48.86452" lon="-0.73995">
        <ele>227</ele>
        <time>2020-09-12T11:59:56.334Z</time>
      </trkpt>
      <trkpt lat="48.86424" lon="-0.74004">
        <ele>228</ele>
        <time>2020-09-12T12:00:01.271Z</time>
      </trkpt>
      <trkpt lat="48.86395" lon="-0.74014">
        <ele>229</ele>
        <time>2020-09-12T12:00:06.275Z</time>
      </trkpt>
      <trkpt lat="48.86367" lon="-0.74023">
        <ele>230</ele>
        <time>2020-09-12T12:00:11.272Z</time>
      </trkpt>
      <trkpt lat="48.86337" lon="-0.74035">
        <ele>230</ele>
        <time>2020-09-12T12:00:16.270Z</time>
      </trkpt>
      <trkpt lat="48.86307" lon="-0.74045">
        <ele>231</ele>
        <time>2020-09-12T12:00:21.272Z</time>
      </trkpt>
      <trkpt lat="48.86277" lon="-0.74054">
        <ele>231</ele>
        <time>2020-09-12T12:00:26.334Z</time>
      </trkpt>
      <trkpt lat="48.86246" lon="-0.74063">
        <ele>232</ele>
        <time>2020-09-12T12:00:31.274Z</time>
      </trkpt>
      <trkpt lat="48.86213" lon="-0.7407">
        <ele>233</ele>
        <time>2020-09-12T12:00:36.270Z</time>
      </trkpt>
      <trkpt lat="48.86181" lon="-0.74079">
        <ele>233</ele>
        <time>2020-09-12T12:00:41.279Z</time>
      </trkpt>
      <trkpt lat="48.86149" lon="-0.74089">
        <ele>234</ele>
        <time>2020-09-12T12:00:46.256Z</time>
      </trkpt>
      <trkpt lat="48.86116" lon="-0.74103">
        <ele>235</ele>
        <time>2020-09-12T12:00:51.272Z</time>
      </trkpt>
      <trkpt lat="48.86084" lon="-0.74117">
        <ele>236</ele>
        <time>2020-09-12T12:00:56.336Z</time>
      </trkpt>
      <trkpt lat="48.86049" lon="-0.74129">
        <ele>236</ele>
        <time>2020-09-12T12:01:01.272Z</time>
      </trkpt>
      <trkpt lat="48.86012" lon="-0.74141">
        <ele>237</ele>
        <time>2020-09-12T12:01:06.270Z</time>
      </trkpt>
      <trkpt lat="48.85979" lon="-0.74151">
        <ele>237</ele>
        <time>2020-09-12T12:01:10.255Z</time>
      </trkpt>
      <trkpt lat="48.85937" lon="-0.74166">
        <ele>237</ele>
        <time>2020-09-12T12:01:15.270Z</time>
      </trkpt>
      <trkpt lat="48.8589" lon="-0.74187">
        <ele>237</ele>
        <time>2020-09-12T12:01:20.284Z</time>
      </trkpt>
      <trkpt lat="48.85847" lon="-0.742">
        <ele>236</ele>
        <time>2020-09-12T12:01:24.271Z</time>
      </trkpt>
      <trkpt lat="48.8579" lon="-0.74214">
        <ele>235</ele>
        <time>2020-09-12T12:01:29.270Z</time>
      </trkpt>
      <trkpt lat="48.85733" lon="-0.74212">
        <ele>233</ele>
        <time>2020-09-12T12:01:34.272Z</time>
      </trkpt>
      <trkpt lat="48.85677" lon="-0.74212">
        <ele>231</ele>
        <time>2020-09-12T12:01:39.271Z</time>
      </trkpt>
      <trkpt lat="48.85625" lon="-0.74216">
        <ele>229</ele>
        <time>2020-09-12T12:01:44.281Z</time>
      </trkpt>
      <trkpt lat="48.85577" lon="-0.74221">
        <ele>228</ele>
        <time>2020-09-12T12:01:49.268Z</time>
      </trkpt>
      <trkpt lat="48.85528" lon="-0.74227">
        <ele>226</ele>
        <time>2020-09-12T12:01:55.275Z</time>
      </trkpt>
      <trkpt lat="48.85483" lon="-0.74232">
        <ele>224</ele>
        <time>2020-09-12T12:02:01.271Z</time>
      </trkpt>
      <trkpt lat="48.85445" lon="-0.74234">
        <ele>224</ele>
        <time>2020-09-12T12:02:06.273Z</time>
      </trkpt>
      <trkpt lat="48.85409" lon="-0.74237">
        <ele>223</ele>
        <time>2020-09-12T12:02:11.269Z</time>
      </trkpt>
      <trkpt lat="48.85376" lon="-0.74246">
        <ele>224</ele>
        <time>2020-09-12T12:02:16.270Z</time>
      </trkpt>
      <trkpt lat="48.85343" lon="-0.74265">
        <ele>225</ele>
        <time>2020-09-12T12:02:21.272Z</time>
      </trkpt>
      <trkpt lat="48.8531" lon="-0.7429">
        <ele>226</ele>
        <time>2020-09-12T12:02:26.333Z</time>
      </trkpt>
      <trkpt lat="48.85279" lon="-0.74322">
        <ele>227</ele>
        <time>2020-09-12T12:02:31.274Z</time>
      </trkpt>
      <trkpt lat="48.85251" lon="-0.74366">
        <ele>228</ele>
        <time>2020-09-12T12:02:36.269Z</time>
      </trkpt>
      <trkpt lat="48.85227" lon="-0.74419">
        <ele>228</ele>
        <time>2020-09-12T12:02:41.275Z</time>
      </trkpt>
      <trkpt lat="48.85203" lon="-0.74475">
        <ele>229</ele>
        <time>2020-09-12T12:02:46.271Z</time>
      </trkpt>
      <trkpt lat="48.85177" lon="-0.74532">
        <ele>229</ele>
        <time>2020-09-12T12:02:51.274Z</time>
      </trkpt>
      <trkpt lat="48.8514" lon="-0.7458">
        <ele>229</ele>
        <time>2020-09-12T12:02:56.327Z</time>
      </trkpt>
      <trkpt lat="48.85097" lon="-0.74596">
        <ele>228</ele>
        <time>2020-09-12T12:03:01.272Z</time>
      </trkpt>
      <trkpt lat="48.85052" lon="-0.74579">
        <ele>227</ele>
        <time>2020-09-12T12:03:06.275Z</time>
      </trkpt>
      <trkpt lat="48.85007" lon="-0.7456">
        <ele>225</ele>
        <time>2020-09-12T12:03:11.270Z</time>
      </trkpt>
      <trkpt lat="48.84963" lon="-0.74538">
        <ele>224</ele>
        <time>2020-09-12T12:03:16.269Z</time>
      </trkpt>
      <trkpt lat="48.84918" lon="-0.74543">
        <ele>223</ele>
        <time>2020-09-12T12:03:21.273Z</time>
      </trkpt>
      <trkpt lat="48.84875" lon="-0.74566">
        <ele>222</ele>
        <time>2020-09-12T12:03:25.271Z</time>
      </trkpt>
      <trkpt lat="48.84828" lon="-0.74587">
        <ele>220</ele>
        <time>2020-09-12T12:03:30.275Z</time>
      </trkpt>
      <trkpt lat="48.84781" lon="-0.74604">
        <ele>219</ele>
        <time>2020-09-12T12:03:35.272Z</time>
      </trkpt>
      <trkpt lat="48.84735" lon="-0.74616">
        <ele>218</ele>
        <time>2020-09-12T12:03:40.273Z</time>
      </trkpt>
      <trkpt lat="48.84689" lon="-0.7463">
        <ele>218</ele>
        <time>2020-09-12T12:03:45.268Z</time>
      </trkpt>
      <trkpt lat="48.84642" lon="-0.74643">
        <ele>217</ele>
        <time>2020-09-12T12:03:50.283Z</time>
      </trkpt>
      <trkpt lat="48.84597" lon="-0.74652">
        <ele>217</ele>
        <time>2020-09-12T12:03:55.273Z</time>
      </trkpt>
      <trkpt lat="48.84553" lon="-0.74659">
        <ele>216</ele>
        <time>2020-09-12T12:04:00.273Z</time>
      </trkpt>
      <trkpt lat="48.84508" lon="-0.74666">
        <ele>216</ele>
        <time>2020-09-12T12:04:05.280Z</time>
      </trkpt>
      <trkpt lat="48.84469" lon="-0.74671">
        <ele>217</ele>
        <time>2020-09-12T12:04:10.268Z</time>
      </trkpt>
      <trkpt lat="48.84429" lon="-0.7468">
        <ele>217</ele>
        <time>2020-09-12T12:04:15.272Z</time>
      </trkpt>
      <trkpt lat="48.8439" lon="-0.74694">
        <ele>217</ele>
        <time>2020-09-12T12:04:20.282Z</time>
      </trkpt>
      <trkpt lat="48.84356" lon="-0.74714">
        <ele>218</ele>
        <time>2020-09-12T12:04:25.270Z</time>
      </trkpt>
      <trkpt lat="48.84326" lon="-0.74733">
        <ele>218</ele>
        <time>2020-09-12T12:04:30.269Z</time>
      </trkpt>
      <trkpt lat="48.84296" lon="-0.74749">
        <ele>219</ele>
        <time>2020-09-12T12:04:36.270Z</time>
      </trkpt>
      <trkpt lat="48.84277" lon="-0.74762">
        <ele>220</ele>
        <time>2020-09-12T12:04:43.286Z</time>
      </trkpt>
      <trkpt lat="48.84265" lon="-0.74776">
        <ele>220</ele>
        <time>2020-09-12T12:04:47.286Z</time>
      </trkpt>
      <trkpt lat="48.84251" lon="-0.74783">
        <ele>221</ele>
        <time>2020-09-12T12:04:50.288Z</time>
      </trkpt>
      <trkpt lat="48.84235" lon="-0.74789">
        <ele>222</ele>
        <time>2020-09-12T12:04:53.270Z</time>
      </trkpt>
      <trkpt lat="48.84212" lon="-0.748">
        <ele>222</ele>
        <time>2020-09-12T12:04:57.271Z</time>
      </trkpt>
      <trkpt lat="48.84189" lon="-0.74811">
        <ele>223</ele>
        <time>2020-09-12T12:05:01.273Z</time>
      </trkpt>
      <trkpt lat="48.84162" lon="-0.74823">
        <ele>224</ele>
        <time>2020-09-12T12:05:06.272Z</time>
      </trkpt>
      <trkpt lat="48.84134" lon="-0.74836">
        <ele>225</ele>
        <time>2020-09-12T12:05:11.273Z</time>
      </trkpt>
      <trkpt lat="48.84107" lon="-0.74849">
        <ele>226</ele>
        <time>2020-09-12T12:05:16.270Z</time>
      </trkpt>
      <trkpt lat="48.84079" lon="-0.74863">
        <ele>228</ele>
        <time>2020-09-12T12:05:21.271Z</time>
      </trkpt>
      <trkpt lat="48.84051" lon="-0.74879">
        <ele>229</ele>
        <time>2020-09-12T12:05:26.317Z</time>
      </trkpt>
      <trkpt lat="48.84022" lon="-0.74897">
        <ele>229</ele>
        <time>2020-09-12T12:05:31.268Z</time>
      </trkpt>
      <trkpt lat="48.83991" lon="-0.74915">
        <ele>230</ele>
        <time>2020-09-12T12:05:36.271Z</time>
      </trkpt>
      <trkpt lat="48.8396" lon="-0.74934">
        <ele>230</ele>
        <time>2020-09-12T12:05:41.277Z</time>
      </trkpt>
      <trkpt lat="48.83929" lon="-0.74954">
        <ele>231</ele>
        <time>2020-09-12T12:05:46.275Z</time>
      </trkpt>
      <trkpt lat="48.83896" lon="-0.74974">
        <ele>231</ele>
        <time>2020-09-12T12:05:51.272Z</time>
      </trkpt>
      <trkpt lat="48.83861" lon="-0.74995">
        <ele>231</ele>
        <time>2020-09-12T12:05:56.317Z</time>
      </trkpt>
      <trkpt lat="48.83826" lon="-0.75015">
        <ele>231</ele>
        <time>2020-09-12T12:06:01.272Z</time>
      </trkpt>
      <trkpt lat="48.8379" lon="-0.75036">
        <ele>231</ele>
        <time>2020-09-12T12:06:06.272Z</time>
      </trkpt>
      <trkpt lat="48.83752" lon="-0.75058">
        <ele>230</ele>
        <time>2020-09-12T12:06:11.273Z</time>
      </trkpt>
      <trkpt lat="48.83713" lon="-0.75079">
        <ele>230</ele>
        <time>2020-09-12T12:06:16.271Z</time>
      </trkpt>
      <trkpt lat="48.83675" lon="-0.75099">
        <ele>229</ele>
        <time>2020-09-12T12:06:21.276Z</time>
      </trkpt>
      <trkpt lat="48.83636" lon="-0.75119">
        <ele>229</ele>
        <time>2020-09-12T12:06:26.305Z</time>
      </trkpt>
      <trkpt lat="48.83597" lon="-0.75141">
        <ele>228</ele>
        <time>2020-09-12T12:06:31.270Z</time>
      </trkpt>
      <trkpt lat="48.83558" lon="-0.75162">
        <ele>227</ele>
        <time>2020-09-12T12:06:36.275Z</time>
      </trkpt>
      <trkpt lat="48.83519" lon="-0.75183">
        <ele>226</ele>
        <time>2020-09-12T12:06:41.272Z</time>
      </trkpt>
      <trkpt lat="48.8348" lon="-0.75204">
        <ele>225</ele>
        <time>2020-09-12T12:06:46.270Z</time>
      </trkpt>
      <trkpt lat="48.8344" lon="-0.75227">
        <ele>224</ele>
        <time>2020-09-12T12:06:51.272Z</time>
      </trkpt>
      <trkpt lat="48.834" lon="-0.75249">
        <ele>224</ele>
        <time>2020-09-12T12:06:56.317Z</time>
      </trkpt>
      <trkpt lat="48.83362" lon="-0.75276">
        <ele>224</ele>
        <time>2020-09-12T12:07:01.270Z</time>
      </trkpt>
      <trkpt lat="48.83325" lon="-0.75306">
        <ele>223</ele>
        <time>2020-09-12T12:07:06.273Z</time>
      </trkpt>
      <trkpt lat="48.83287" lon="-0.75334">
        <ele>223</ele>
        <time>2020-09-12T12:07:11.273Z</time>
      </trkpt>
      <trkpt lat="48.83251" lon="-0.75363">
        <ele>223</ele>
        <time>2020-09-12T12:07:16.271Z</time>
      </trkpt>
      <trkpt lat="48.83214" lon="-0.75393">
        <ele>222</ele>
        <time>2020-09-12T12:07:21.272Z</time>
      </trkpt>
      <trkpt lat="48.8318" lon="-0.7543">
        <ele>222</ele>
        <time>2020-09-12T12:07:26.334Z</time>
      </trkpt>
      <trkpt lat="48.83151" lon="-0.75474">
        <ele>222</ele>
        <time>2020-09-12T12:07:31.270Z</time>
      </trkpt>
      <trkpt lat="48.83126" lon="-0.7552">
        <ele>222</ele>
        <time>2020-09-12T12:07:36.269Z</time>
      </trkpt>
      <trkpt lat="48.83107" lon="-0.75572">
        <ele>222</ele>
        <time>2020-09-12T12:07:41.257Z</time>
      </trkpt>
      <trkpt lat="48.83091" lon="-0.75624">
        <ele>223</ele>
        <time>2020-09-12T12:07:46.282Z</time>
      </trkpt>
      <trkpt lat="48.83071" lon="-0.75672">
        <ele>223</ele>
        <time>2020-09-12T12:07:51.273Z</time>
      </trkpt>
      <trkpt lat="48.8305" lon="-0.75718">
        <ele>223</ele>
        <time>2020-09-12T12:07:56.334Z</time>
      </trkpt>
      <trkpt lat="48.83029" lon="-0.75763">
        <ele>224</ele>
        <time>2020-09-12T12:08:01.272Z</time>
      </trkpt>
      <trkpt lat="48.83008" lon="-0.75807">
        <ele>225</ele>
        <time>2020-09-12T12:08:06.273Z</time>
      </trkpt>
      <trkpt lat="48.82989" lon="-0.75851">
        <ele>225</ele>
        <time>2020-09-12T12:08:11.271Z</time>
      </trkpt>
      <trkpt lat="48.82969" lon="-0.75896">
        <ele>226</ele>
        <time>2020-09-12T12:08:16.271Z</time>
      </trkpt>
      <trkpt lat="48.82947" lon="-0.75943">
        <ele>226</ele>
        <time>2020-09-12T12:08:21.274Z</time>
      </trkpt>
      <trkpt lat="48.82922" lon="-0.7599">
        <ele>227</ele>
        <time>2020-09-12T12:08:26.313Z</time>
      </trkpt>
      <trkpt lat="48.82896" lon="-0.76033">
        <ele>227</ele>
        <time>2020-09-12T12:08:31.271Z</time>
      </trkpt>
      <trkpt lat="48.82871" lon="-0.76078">
        <ele>227</ele>
        <time>2020-09-12T12:08:36.270Z</time>
      </trkpt>
      <trkpt lat="48.8285" lon="-0.7613">
        <ele>227</ele>
        <time>2020-09-12T12:08:41.269Z</time>
      </trkpt>
      <trkpt lat="48.82833" lon="-0.76187">
        <ele>227</ele>
        <time>2020-09-12T12:08:46.267Z</time>
      </trkpt>
      <trkpt lat="48.82816" lon="-0.76243">
        <ele>227</ele>
        <time>2020-09-12T12:08:51.270Z</time>
      </trkpt>
      <trkpt lat="48.82794" lon="-0.76297">
        <ele>227</ele>
        <time>2020-09-12T12:08:56.336Z</time>
      </trkpt>
      <trkpt lat="48.8277" lon="-0.76351">
        <ele>227</ele>
        <time>2020-09-12T12:09:01.275Z</time>
      </trkpt>
      <trkpt lat="48.82744" lon="-0.76404">
        <ele>227</ele>
        <time>2020-09-12T12:09:06.278Z</time>
      </trkpt>
      <trkpt lat="48.8272" lon="-0.76456">
        <ele>227</ele>
        <time>2020-09-12T12:09:11.272Z</time>
      </trkpt>
      <trkpt lat="48.82696" lon="-0.76509">
        <ele>227</ele>
        <time>2020-09-12T12:09:16.273Z</time>
      </trkpt>
      <trkpt lat="48.82675" lon="-0.76565">
        <ele>227</ele>
        <time>2020-09-12T12:09:21.272Z</time>
      </trkpt>
      <trkpt lat="48.82659" lon="-0.76624">
        <ele>227</ele>
        <time>2020-09-12T12:09:26.335Z</time>
      </trkpt>
      <trkpt lat="48.82646" lon="-0.76687">
        <ele>227</ele>
        <time>2020-09-12T12:09:31.271Z</time>
      </trkpt>
      <trkpt lat="48.8263" lon="-0.76751">
        <ele>226</ele>
        <time>2020-09-12T12:09:36.271Z</time>
      </trkpt>
      <trkpt lat="48.82611" lon="-0.76815">
        <ele>226</ele>
        <time>2020-09-12T12:09:41.271Z</time>
      </trkpt>
      <trkpt lat="48.82586" lon="-0.76873">
        <ele>226</ele>
        <time>2020-09-12T12:09:46.272Z</time>
      </trkpt>
      <trkpt lat="48.82556" lon="-0.7693">
        <ele>226</ele>
        <time>2020-09-12T12:09:51.268Z</time>
      </trkpt>
      <trkpt lat="48.82527" lon="-0.76987">
        <ele>226</ele>
        <time>2020-09-12T12:09:56.339Z</time>
      </trkpt>
      <trkpt lat="48.82506" lon="-0.77046">
        <ele>225</ele>
        <time>2020-09-12T12:10:01.270Z</time>
      </trkpt>
      <trkpt lat="48.82483" lon="-0.77113">
        <ele>224</ele>
        <time>2020-09-12T12:10:06.272Z</time>
      </trkpt>
      <trkpt lat="48.82459" lon="-0.77176">
        <ele>223</ele>
        <time>2020-09-12T12:10:11.271Z</time>
      </trkpt>
      <trkpt lat="48.82435" lon="-0.77238">
        <ele>223</ele>
        <time>2020-09-12T12:10:16.271Z</time>
      </trkpt>
      <trkpt lat="48.82419" lon="-0.77306">
        <ele>222</ele>
        <time>2020-09-12T12:10:21.272Z</time>
      </trkpt>
      <trkpt lat="48.82388" lon="-0.77356">
        <ele>221</ele>
        <time>2020-09-12T12:10:26.336Z</time>
      </trkpt>
      <trkpt lat="48.82362" lon="-0.77407">
        <ele>221</ele>
        <time>2020-09-12T12:10:31.271Z</time>
      </trkpt>
      <trkpt lat="48.82337" lon="-0.77455">
        <ele>220</ele>
        <time>2020-09-12T12:10:36.270Z</time>
      </trkpt>
      <trkpt lat="48.82308" lon="-0.77495">
        <ele>220</ele>
        <time>2020-09-12T12:10:41.271Z</time>
      </trkpt>
      <trkpt lat="48.82278" lon="-0.77532">
        <ele>220</ele>
        <time>2020-09-12T12:10:46.267Z</time>
      </trkpt>
      <trkpt lat="48.82245" lon="-0.7756">
        <ele>220</ele>
        <time>2020-09-12T12:10:51.270Z</time>
      </trkpt>
      <trkpt lat="48.8221" lon="-0.77584">
        <ele>220</ele>
        <time>2020-09-12T12:10:56.318Z</time>
      </trkpt>
      <trkpt lat="48.82176" lon="-0.77604">
        <ele>220</ele>
        <time>2020-09-12T12:11:01.274Z</time>
      </trkpt>
      <trkpt lat="48.8214" lon="-0.77623">
        <ele>220</ele>
        <time>2020-09-12T12:11:06.272Z</time>
      </trkpt>
      <trkpt lat="48.82106" lon="-0.77643">
        <ele>220</ele>
        <time>2020-09-12T12:11:11.271Z</time>
      </trkpt>
      <trkpt lat="48.82074" lon="-0.7767">
        <ele>221</ele>
        <time>2020-09-12T12:11:16.268Z</time>
      </trkpt>
      <trkpt lat="48.82047" lon="-0.77703">
        <ele>221</ele>
        <time>2020-09-12T12:11:21.271Z</time>
      </trkpt>
      <trkpt lat="48.82021" lon="-0.77739">
        <ele>221</ele>
        <time>2020-09-12T12:11:26.338Z</time>
      </trkpt>
      <trkpt lat="48.81998" lon="-0.77771">
        <ele>222</ele>
        <time>2020-09-12T12:11:31.273Z</time>
      </trkpt>
      <trkpt lat="48.81973" lon="-0.77801">
        <ele>222</ele>
        <time>2020-09-12T12:11:36.273Z</time>
      </trkpt>
      <trkpt lat="48.81948" lon="-0.77831">
        <ele>223</ele>
        <time>2020-09-12T12:11:41.266Z</time>
      </trkpt>
      <trkpt lat="48.81921" lon="-0.77861">
        <ele>224</ele>
        <time>2020-09-12T12:11:46.270Z</time>
      </trkpt>
      <trkpt lat="48.81894" lon="-0.77888">
        <ele>225</ele>
        <time>2020-09-12T12:11:51.271Z</time>
      </trkpt>
      <trkpt lat="48.81868" lon="-0.77916">
        <ele>226</ele>
        <time>2020-09-12T12:11:56.342Z</time>
      </trkpt>
      <trkpt lat="48.81842" lon="-0.77941">
        <ele>227</ele>
        <time>2020-09-12T12:12:01.272Z</time>
      </trkpt>
      <trkpt lat="48.81816" lon="-0.77967">
        <ele>229</ele>
        <time>2020-09-12T12:12:06.271Z</time>
      </trkpt>
      <trkpt lat="48.81792" lon="-0.77995">
        <ele>230</ele>
        <time>2020-09-12T12:12:11.271Z</time>
      </trkpt>
      <trkpt lat="48.81772" lon="-0.78025">
        <ele>231</ele>
        <time>2020-09-12T12:12:16.270Z</time>
      </trkpt>
      <trkpt lat="48.81752" lon="-0.78055">
        <ele>233</ele>
        <time>2020-09-12T12:12:21.269Z</time>
      </trkpt>
      <trkpt lat="48.81734" lon="-0.78085">
        <ele>234</ele>
        <time>2020-09-12T12:12:26.336Z</time>
      </trkpt>
      <trkpt lat="48.81719" lon="-0.78113">
        <ele>235</ele>
        <time>2020-09-12T12:12:30.274Z</time>
      </trkpt>
      <trkpt lat="48.81704" lon="-0.78142">
        <ele>235</ele>
        <time>2020-09-12T12:12:34.286Z</time>
      </trkpt>
      <trkpt lat="48.81686" lon="-0.78178">
        <ele>236</ele>
        <time>2020-09-12T12:12:39.268Z</time>
      </trkpt>
      <trkpt lat="48.81671" lon="-0.78215">
        <ele>237</ele>
        <time>2020-09-12T12:12:44.310Z</time>
      </trkpt>
      <trkpt lat="48.81657" lon="-0.78253">
        <ele>239</ele>
        <time>2020-09-12T12:12:49.269Z</time>
      </trkpt>
      <trkpt lat="48.81645" lon="-0.78294">
        <ele>240</ele>
        <time>2020-09-12T12:12:54.273Z</time>
      </trkpt>
      <trkpt lat="48.81632" lon="-0.7833">
        <ele>241</ele>
        <time>2020-09-12T12:12:59.272Z</time>
      </trkpt>
      <trkpt lat="48.8162" lon="-0.78363">
        <ele>242</ele>
        <time>2020-09-12T12:13:04.272Z</time>
      </trkpt>
      <trkpt lat="48.81611" lon="-0.78395">
        <ele>243</ele>
        <time>2020-09-12T12:13:08.314Z</time>
      </trkpt>
      <trkpt lat="48.81602" lon="-0.78429">
        <ele>244</ele>
        <time>2020-09-12T12:13:12.270Z</time>
      </trkpt>
      <trkpt lat="48.81591" lon="-0.78472">
        <ele>245</ele>
        <time>2020-09-12T12:13:17.273Z</time>
      </trkpt>
      <trkpt lat="48.81581" lon="-0.7851">
        <ele>246</ele>
        <time>2020-09-12T12:13:21.274Z</time>
      </trkpt>
      <trkpt lat="48.81572" lon="-0.78555">
        <ele>247</ele>
        <time>2020-09-12T12:13:25.270Z</time>
      </trkpt>
      <trkpt lat="48.81565" lon="-0.78602">
        <ele>248</ele>
        <time>2020-09-12T12:13:29.268Z</time>
      </trkpt>
      <trkpt lat="48.81556" lon="-0.7866">
        <ele>248</ele>
        <time>2020-09-12T12:13:34.271Z</time>
      </trkpt>
      <trkpt lat="48.81539" lon="-0.78716">
        <ele>248</ele>
        <time>2020-09-12T12:13:39.271Z</time>
      </trkpt>
      <trkpt lat="48.81517" lon="-0.78769">
        <ele>248</ele>
        <time>2020-09-12T12:13:44.314Z</time>
      </trkpt>
      <trkpt lat="48.81494" lon="-0.7882">
        <ele>248</ele>
        <time>2020-09-12T12:13:49.273Z</time>
      </trkpt>
      <trkpt lat="48.81472" lon="-0.78874">
        <ele>247</ele>
        <time>2020-09-12T12:13:54.272Z</time>
      </trkpt>
      <trkpt lat="48.81455" lon="-0.78929">
        <ele>246</ele>
        <time>2020-09-12T12:13:59.271Z</time>
      </trkpt>
      <trkpt lat="48.81438" lon="-0.78982">
        <ele>245</ele>
        <time>2020-09-12T12:14:05.271Z</time>
      </trkpt>
      <trkpt lat="48.8142" lon="-0.79024">
        <ele>244</ele>
        <time>2020-09-12T12:14:11.272Z</time>
      </trkpt>
      <trkpt lat="48.81401" lon="-0.79055">
        <ele>245</ele>
        <time>2020-09-12T12:14:16.263Z</time>
      </trkpt>
      <trkpt lat="48.8138" lon="-0.79083">
        <ele>245</ele>
        <time>2020-09-12T12:14:21.272Z</time>
      </trkpt>
      <trkpt lat="48.81357" lon="-0.79108">
        <ele>246</ele>
        <time>2020-09-12T12:14:26.335Z</time>
      </trkpt>
      <trkpt lat="48.81334" lon="-0.79128">
        <ele>248</ele>
        <time>2020-09-12T12:14:31.272Z</time>
      </trkpt>
      <trkpt lat="48.81313" lon="-0.79144">
        <ele>249</ele>
        <time>2020-09-12T12:14:35.275Z</time>
      </trkpt>
      <trkpt lat="48.81288" lon="-0.79162">
        <ele>251</ele>
        <time>2020-09-12T12:14:40.268Z</time>
      </trkpt>
      <trkpt lat="48.81264" lon="-0.79183">
        <ele>254</ele>
        <time>2020-09-12T12:14:45.275Z</time>
      </trkpt>
      <trkpt lat="48.81241" lon="-0.7921">
        <ele>256</ele>
        <time>2020-09-12T12:14:50.311Z</time>
      </trkpt>
      <trkpt lat="48.81219" lon="-0.79238">
        <ele>258</ele>
        <time>2020-09-12T12:14:55.268Z</time>
      </trkpt>
      <trkpt lat="48.81197" lon="-0.79266">
        <ele>260</ele>
        <time>2020-09-12T12:15:00.276Z</time>
      </trkpt>
      <trkpt lat="48.81174" lon="-0.79294">
        <ele>261</ele>
        <time>2020-09-12T12:15:05.274Z</time>
      </trkpt>
      <trkpt lat="48.81154" lon="-0.7932">
        <ele>263</ele>
        <time>2020-09-12T12:15:10.268Z</time>
      </trkpt>
      <trkpt lat="48.81134" lon="-0.79346">
        <ele>265</ele>
        <time>2020-09-12T12:15:15.273Z</time>
      </trkpt>
      <trkpt lat="48.81115" lon="-0.79372">
        <ele>266</ele>
        <time>2020-09-12T12:15:20.301Z</time>
      </trkpt>
      <trkpt lat="48.81095" lon="-0.79399">
        <ele>267</ele>
        <time>2020-09-12T12:15:25.255Z</time>
      </trkpt>
      <trkpt lat="48.81075" lon="-0.79427">
        <ele>268</ele>
        <time>2020-09-12T12:15:30.269Z</time>
      </trkpt>
      <trkpt lat="48.81053" lon="-0.79454">
        <ele>270</ele>
        <time>2020-09-12T12:15:35.271Z</time>
      </trkpt>
      <trkpt lat="48.81032" lon="-0.79481">
        <ele>271</ele>
        <time>2020-09-12T12:15:40.284Z</time>
      </trkpt>
      <trkpt lat="48.81012" lon="-0.79508">
        <ele>273</ele>
        <time>2020-09-12T12:15:45.270Z</time>
      </trkpt>
      <trkpt lat="48.8099" lon="-0.79536">
        <ele>274</ele>
        <time>2020-09-12T12:15:50.311Z</time>
      </trkpt>
      <trkpt lat="48.80971" lon="-0.79559">
        <ele>276</ele>
        <time>2020-09-12T12:15:54.271Z</time>
      </trkpt>
      <trkpt lat="48.80948" lon="-0.79588">
        <ele>277</ele>
        <time>2020-09-12T12:15:59.272Z</time>
      </trkpt>
      <trkpt lat="48.80924" lon="-0.79617">
        <ele>279</ele>
        <time>2020-09-12T12:16:04.275Z</time>
      </trkpt>
      <trkpt lat="48.80901" lon="-0.79645">
        <ele>280</ele>
        <time>2020-09-12T12:16:09.264Z</time>
      </trkpt>
      <trkpt lat="48.80879" lon="-0.79674">
        <ele>281</ele>
        <time>2020-09-12T12:16:14.313Z</time>
      </trkpt>
      <trkpt lat="48.80856" lon="-0.79706">
        <ele>282</ele>
        <time>2020-09-12T12:16:19.274Z</time>
      </trkpt>
      <trkpt lat="48.80836" lon="-0.79734">
        <ele>283</ele>
        <time>2020-09-12T12:16:23.272Z</time>
      </trkpt>
      <trkpt lat="48.80814" lon="-0.79773">
        <ele>284</ele>
        <time>2020-09-12T12:16:28.273Z</time>
      </trkpt>
      <trkpt lat="48.80794" lon="-0.79808">
        <ele>284</ele>
        <time>2020-09-12T12:16:32.323Z</time>
      </trkpt>
      <trkpt lat="48.80769" lon="-0.79854">
        <ele>285</ele>
        <time>2020-09-12T12:16:37.269Z</time>
      </trkpt>
      <trkpt lat="48.80742" lon="-0.79902">
        <ele>285</ele>
        <time>2020-09-12T12:16:42.269Z</time>
      </trkpt>
      <trkpt lat="48.80714" lon="-0.79955">
        <ele>285</ele>
        <time>2020-09-12T12:16:47.273Z</time>
      </trkpt>
      <trkpt lat="48.80682" lon="-0.79995">
        <ele>284</ele>
        <time>2020-09-12T12:16:51.276Z</time>
      </trkpt>
      <trkpt lat="48.80635" lon="-0.80037">
        <ele>284</ele>
        <time>2020-09-12T12:16:56.325Z</time>
      </trkpt>
      <trkpt lat="48.80594" lon="-0.8008">
        <ele>283</ele>
        <time>2020-09-12T12:17:01.271Z</time>
      </trkpt>
      <trkpt lat="48.80554" lon="-0.80122">
        <ele>282</ele>
        <time>2020-09-12T12:17:06.270Z</time>
      </trkpt>
      <trkpt lat="48.8052" lon="-0.80177">
        <ele>281</ele>
        <time>2020-09-12T12:17:11.273Z</time>
      </trkpt>
      <trkpt lat="48.80494" lon="-0.80238">
        <ele>281</ele>
        <time>2020-09-12T12:17:16.272Z</time>
      </trkpt>
      <trkpt lat="48.8047" lon="-0.80291">
        <ele>280</ele>
        <time>2020-09-12T12:17:21.274Z</time>
      </trkpt>
      <trkpt lat="48.80445" lon="-0.80345">
        <ele>279</ele>
        <time>2020-09-12T12:17:26.335Z</time>
      </trkpt>
      <trkpt lat="48.80417" lon="-0.80399">
        <ele>278</ele>
        <time>2020-09-12T12:17:31.275Z</time>
      </trkpt>
      <trkpt lat="48.80392" lon="-0.80451">
        <ele>277</ele>
        <time>2020-09-12T12:17:36.272Z</time>
      </trkpt>
      <trkpt lat="48.80367" lon="-0.80499">
        <ele>277</ele>
        <time>2020-09-12T12:17:41.268Z</time>
      </trkpt>
      <trkpt lat="48.80344" lon="-0.80543">
        <ele>276</ele>
        <time>2020-09-12T12:17:47.273Z</time>
      </trkpt>
      <trkpt lat="48.80333" lon="-0.80569">
        <ele>276</ele>
        <time>2020-09-12T12:17:55.272Z</time>
      </trkpt>
      <trkpt lat="48.80327" lon="-0.80583">
        <ele>276</ele>
        <time>2020-09-12T12:17:58.273Z</time>
      </trkpt>
      <trkpt lat="48.8032" lon="-0.80596">
        <ele>276</ele>
        <time>2020-09-12T12:18:00.272Z</time>
      </trkpt>
      <trkpt lat="48.80308" lon="-0.80618">
        <ele>276</ele>
        <time>2020-09-12T12:18:03.275Z</time>
      </trkpt>
      <trkpt lat="48.80297" lon="-0.80644">
        <ele>276</ele>
        <time>2020-09-12T12:18:06.277Z</time>
      </trkpt>
      <trkpt lat="48.80281" lon="-0.80682">
        <ele>276</ele>
        <time>2020-09-12T12:18:10.271Z</time>
      </trkpt>
      <trkpt lat="48.8026" lon="-0.80728">
        <ele>276</ele>
        <time>2020-09-12T12:18:15.270Z</time>
      </trkpt>
      <trkpt lat="48.80235" lon="-0.80775">
        <ele>276</ele>
        <time>2020-09-12T12:18:20.312Z</time>
      </trkpt>
      <trkpt lat="48.80204" lon="-0.80815">
        <ele>277</ele>
        <time>2020-09-12T12:18:25.272Z</time>
      </trkpt>
      <trkpt lat="48.80168" lon="-0.80853">
        <ele>277</ele>
        <time>2020-09-12T12:18:30.273Z</time>
      </trkpt>
      <trkpt lat="48.80131" lon="-0.80894">
        <ele>277</ele>
        <time>2020-09-12T12:18:35.276Z</time>
      </trkpt>
      <trkpt lat="48.80093" lon="-0.80937">
        <ele>276</ele>
        <time>2020-09-12T12:18:40.268Z</time>
      </trkpt>
      <trkpt lat="48.80053" lon="-0.80982">
        <ele>276</ele>
        <time>2020-09-12T12:18:45.274Z</time>
      </trkpt>
      <trkpt lat="48.80018" lon="-0.81034">
        <ele>275</ele>
        <time>2020-09-12T12:18:50.313Z</time>
      </trkpt>
      <trkpt lat="48.79979" lon="-0.81068">
        <ele>275</ele>
        <time>2020-09-12T12:18:55.274Z</time>
      </trkpt>
      <trkpt lat="48.79937" lon="-0.8109">
        <ele>274</ele>
        <time>2020-09-12T12:19:00.273Z</time>
      </trkpt>
      <trkpt lat="48.79894" lon="-0.81102">
        <ele>273</ele>
        <time>2020-09-12T12:19:05.281Z</time>
      </trkpt>
      <trkpt lat="48.79849" lon="-0.81114">
        <ele>272</ele>
        <time>2020-09-12T12:19:10.269Z</time>
      </trkpt>
      <trkpt lat="48.79802" lon="-0.81126">
        <ele>272</ele>
        <time>2020-09-12T12:19:16.271Z</time>
      </trkpt>
      <trkpt lat="48.79764" lon="-0.81136">
        <ele>272</ele>
        <time>2020-09-12T12:19:21.274Z</time>
      </trkpt>
      <trkpt lat="48.79726" lon="-0.81147">
        <ele>272</ele>
        <time>2020-09-12T12:19:26.327Z</time>
      </trkpt>
      <trkpt lat="48.79688" lon="-0.81157">
        <ele>272</ele>
        <time>2020-09-12T12:19:31.272Z</time>
      </trkpt>
      <trkpt lat="48.79654" lon="-0.81167">
        <ele>273</ele>
        <time>2020-09-12T12:19:36.272Z</time>
      </trkpt>
      <trkpt lat="48.79621" lon="-0.81177">
        <ele>273</ele>
        <time>2020-09-12T12:19:41.272Z</time>
      </trkpt>
      <trkpt lat="48.79592" lon="-0.8119">
        <ele>274</ele>
        <time>2020-09-12T12:19:46.282Z</time>
      </trkpt>
      <trkpt lat="48.79561" lon="-0.81208">
        <ele>275</ele>
        <time>2020-09-12T12:19:51.263Z</time>
      </trkpt>
      <trkpt lat="48.79535" lon="-0.81227">
        <ele>276</ele>
        <time>2020-09-12T12:19:55.273Z</time>
      </trkpt>
      <trkpt lat="48.79507" lon="-0.81248">
        <ele>277</ele>
        <time>2020-09-12T12:19:59.273Z</time>
      </trkpt>
      <trkpt lat="48.79474" lon="-0.81267">
        <ele>277</ele>
        <time>2020-09-12T12:20:03.272Z</time>
      </trkpt>
      <trkpt lat="48.79434" lon="-0.81279">
        <ele>278</ele>
        <time>2020-09-12T12:20:07.272Z</time>
      </trkpt>
      <trkpt lat="48.7938" lon="-0.81288">
        <ele>278</ele>
        <time>2020-09-12T12:20:12.271Z</time>
      </trkpt>
      <trkpt lat="48.79327" lon="-0.81298">
        <ele>279</ele>
        <time>2020-09-12T12:20:17.272Z</time>
      </trkpt>
      <trkpt lat="48.79274" lon="-0.81308">
        <ele>279</ele>
        <time>2020-09-12T12:20:22.271Z</time>
      </trkpt>
      <trkpt lat="48.79224" lon="-0.8132">
        <ele>278</ele>
        <time>2020-09-12T12:20:27.278Z</time>
      </trkpt>
      <trkpt lat="48.79176" lon="-0.81337">
        <ele>278</ele>
        <time>2020-09-12T12:20:32.325Z</time>
      </trkpt>
      <trkpt lat="48.79131" lon="-0.81358">
        <ele>277</ele>
        <time>2020-09-12T12:20:37.275Z</time>
      </trkpt>
      <trkpt lat="48.79082" lon="-0.81374">
        <ele>277</ele>
        <time>2020-09-12T12:20:42.272Z</time>
      </trkpt>
      <trkpt lat="48.7904" lon="-0.81391">
        <ele>277</ele>
        <time>2020-09-12T12:20:47.279Z</time>
      </trkpt>
      <trkpt lat="48.78997" lon="-0.8141">
        <ele>277</ele>
        <time>2020-09-12T12:20:52.272Z</time>
      </trkpt>
      <trkpt lat="48.78952" lon="-0.81429">
        <ele>277</ele>
        <time>2020-09-12T12:20:57.277Z</time>
      </trkpt>
      <trkpt lat="48.78911" lon="-0.81458">
        <ele>277</ele>
        <time>2020-09-12T12:21:02.325Z</time>
      </trkpt>
      <trkpt lat="48.78869" lon="-0.81487">
        <ele>277</ele>
        <time>2020-09-12T12:21:07.276Z</time>
      </trkpt>
      <trkpt lat="48.78828" lon="-0.81523">
        <ele>278</ele>
        <time>2020-09-12T12:21:12.276Z</time>
      </trkpt>
      <trkpt lat="48.7879" lon="-0.81565">
        <ele>278</ele>
        <time>2020-09-12T12:21:17.272Z</time>
      </trkpt>
      <trkpt lat="48.78754" lon="-0.81606">
        <ele>278</ele>
        <time>2020-09-12T12:21:22.274Z</time>
      </trkpt>
      <trkpt lat="48.78717" lon="-0.81644">
        <ele>279</ele>
        <time>2020-09-12T12:21:27.275Z</time>
      </trkpt>
      <trkpt lat="48.78677" lon="-0.8168">
        <ele>279</ele>
        <time>2020-09-12T12:21:32.317Z</time>
      </trkpt>
      <trkpt lat="48.78633" lon="-0.8171">
        <ele>279</ele>
        <time>2020-09-12T12:21:37.272Z</time>
      </trkpt>
      <trkpt lat="48.78583" lon="-0.81733">
        <ele>279</ele>
        <time>2020-09-12T12:21:42.273Z</time>
      </trkpt>
      <trkpt lat="48.78535" lon="-0.81741">
        <ele>279</ele>
        <time>2020-09-12T12:21:47.272Z</time>
      </trkpt>
      <trkpt lat="48.78489" lon="-0.81747">
        <ele>279</ele>
        <time>2020-09-12T12:21:52.274Z</time>
      </trkpt>
      <trkpt lat="48.78444" lon="-0.81755">
        <ele>278</ele>
        <time>2020-09-12T12:21:57.271Z</time>
      </trkpt>
      <trkpt lat="48.78397" lon="-0.81763">
        <ele>278</ele>
        <time>2020-09-12T12:22:02.319Z</time>
      </trkpt>
      <trkpt lat="48.78346" lon="-0.81771">
        <ele>278</ele>
        <time>2020-09-12T12:22:07.278Z</time>
      </trkpt>
      <trkpt lat="48.78299" lon="-0.8178">
        <ele>278</ele>
        <time>2020-09-12T12:22:12.274Z</time>
      </trkpt>
      <trkpt lat="48.78254" lon="-0.81791">
        <ele>277</ele>
        <time>2020-09-12T12:22:17.274Z</time>
      </trkpt>
      <trkpt lat="48.78213" lon="-0.81804">
        <ele>277</ele>
        <time>2020-09-12T12:22:22.272Z</time>
      </trkpt>
      <trkpt lat="48.78173" lon="-0.81816">
        <ele>276</ele>
        <time>2020-09-12T12:22:27.275Z</time>
      </trkpt>
      <trkpt lat="48.78136" lon="-0.81835">
        <ele>276</ele>
        <time>2020-09-12T12:22:32.321Z</time>
      </trkpt>
      <trkpt lat="48.78111" lon="-0.81884">
        <ele>275</ele>
        <time>2020-09-12T12:22:37.274Z</time>
      </trkpt>
      <trkpt lat="48.7809" lon="-0.81944">
        <ele>274</ele>
        <time>2020-09-12T12:22:42.268Z</time>
      </trkpt>
      <trkpt lat="48.78074" lon="-0.82012">
        <ele>273</ele>
        <time>2020-09-12T12:22:47.279Z</time>
      </trkpt>
      <trkpt lat="48.78056" lon="-0.82077">
        <ele>272</ele>
        <time>2020-09-12T12:22:52.275Z</time>
      </trkpt>
      <trkpt lat="48.78029" lon="-0.82132">
        <ele>271</ele>
        <time>2020-09-12T12:22:57.269Z</time>
      </trkpt>
      <trkpt lat="48.77992" lon="-0.82184">
        <ele>270</ele>
        <time>2020-09-12T12:23:02.316Z</time>
      </trkpt>
      <trkpt lat="48.77945" lon="-0.82222">
        <ele>269</ele>
        <time>2020-09-12T12:23:07.271Z</time>
      </trkpt>
      <trkpt lat="48.77905" lon="-0.82271">
        <ele>268</ele>
        <time>2020-09-12T12:23:12.272Z</time>
      </trkpt>
      <trkpt lat="48.77873" lon="-0.82328">
        <ele>267</ele>
        <time>2020-09-12T12:23:17.270Z</time>
      </trkpt>
      <trkpt lat="48.77843" lon="-0.82389">
        <ele>266</ele>
        <time>2020-09-12T12:23:22.275Z</time>
      </trkpt>
      <trkpt lat="48.77798" lon="-0.82437">
        <ele>265</ele>
        <time>2020-09-12T12:23:27.272Z</time>
      </trkpt>
      <trkpt lat="48.77748" lon="-0.82479">
        <ele>265</ele>
        <time>2020-09-12T12:23:32.326Z</time>
      </trkpt>
      <trkpt lat="48.77695" lon="-0.82522">
        <ele>264</ele>
        <time>2020-09-12T12:23:37.279Z</time>
      </trkpt>
      <trkpt lat="48.77642" lon="-0.82577">
        <ele>263</ele>
        <time>2020-09-12T12:23:42.275Z</time>
      </trkpt>
      <trkpt lat="48.77593" lon="-0.82628">
        <ele>263</ele>
        <time>2020-09-12T12:23:47.273Z</time>
      </trkpt>
      <trkpt lat="48.7755" lon="-0.82688">
        <ele>262</ele>
        <time>2020-09-12T12:23:53.276Z</time>
      </trkpt>
      <trkpt lat="48.77516" lon="-0.82744">
        <ele>261</ele>
        <time>2020-09-12T12:23:59.272Z</time>
      </trkpt>
      <trkpt lat="48.77486" lon="-0.82787">
        <ele>260</ele>
        <time>2020-09-12T12:24:05.276Z</time>
      </trkpt>
      <trkpt lat="48.77453" lon="-0.82804">
        <ele>260</ele>
        <time>2020-09-12T12:24:10.270Z</time>
      </trkpt>
      <trkpt lat="48.77415" lon="-0.82811">
        <ele>260</ele>
        <time>2020-09-12T12:24:15.274Z</time>
      </trkpt>
      <trkpt lat="48.77377" lon="-0.82819">
        <ele>260</ele>
        <time>2020-09-12T12:24:20.322Z</time>
      </trkpt>
      <trkpt lat="48.77343" lon="-0.82834">
        <ele>261</ele>
        <time>2020-09-12T12:24:25.274Z</time>
      </trkpt>
      <trkpt lat="48.77309" lon="-0.8286">
        <ele>261</ele>
        <time>2020-09-12T12:24:30.270Z</time>
      </trkpt>
      <trkpt lat="48.77277" lon="-0.82888">
        <ele>262</ele>
        <time>2020-09-12T12:24:35.271Z</time>
      </trkpt>
      <trkpt lat="48.77247" lon="-0.82918">
        <ele>263</ele>
        <time>2020-09-12T12:24:40.270Z</time>
      </trkpt>
      <trkpt lat="48.77217" lon="-0.8295">
        <ele>263</ele>
        <time>2020-09-12T12:24:45.273Z</time>
      </trkpt>
      <trkpt lat="48.77192" lon="-0.82983">
        <ele>263</ele>
        <time>2020-09-12T12:24:50.323Z</time>
      </trkpt>
      <trkpt lat="48.77166" lon="-0.83014">
        <ele>264</ele>
        <time>2020-09-12T12:24:56.337Z</time>
      </trkpt>
      <trkpt lat="48.77146" lon="-0.83038">
        <ele>265</ele>
        <time>2020-09-12T12:25:01.268Z</time>
      </trkpt>
      <trkpt lat="48.77132" lon="-0.83066">
        <ele>265</ele>
        <time>2020-09-12T12:25:05.273Z</time>
      </trkpt>
      <trkpt lat="48.77117" lon="-0.83094">
        <ele>266</ele>
        <time>2020-09-12T12:25:09.274Z</time>
      </trkpt>
      <trkpt lat="48.771" lon="-0.83129">
        <ele>267</ele>
        <time>2020-09-12T12:25:14.325Z</time>
      </trkpt>
      <trkpt lat="48.77086" lon="-0.83161">
        <ele>268</ele>
        <time>2020-09-12T12:25:19.270Z</time>
      </trkpt>
      <trkpt lat="48.77074" lon="-0.83196">
        <ele>270</ele>
        <time>2020-09-12T12:25:24.273Z</time>
      </trkpt>
      <trkpt lat="48.77065" lon="-0.83226">
        <ele>272</ele>
        <time>2020-09-12T12:25:28.275Z</time>
      </trkpt>
      <trkpt lat="48.77055" lon="-0.83257">
        <ele>274</ele>
        <time>2020-09-12T12:25:32.325Z</time>
      </trkpt>
      <trkpt lat="48.77039" lon="-0.8329">
        <ele>276</ele>
        <time>2020-09-12T12:25:37.271Z</time>
      </trkpt>
      <trkpt lat="48.77021" lon="-0.83317">
        <ele>277</ele>
        <time>2020-09-12T12:25:41.273Z</time>
      </trkpt>
      <trkpt lat="48.77002" lon="-0.83347">
        <ele>278</ele>
        <time>2020-09-12T12:25:45.270Z</time>
      </trkpt>
      <trkpt lat="48.76982" lon="-0.83376">
        <ele>280</ele>
        <time>2020-09-12T12:25:49.270Z</time>
      </trkpt>
      <trkpt lat="48.76958" lon="-0.83415">
        <ele>281</ele>
        <time>2020-09-12T12:25:54.274Z</time>
      </trkpt>
      <trkpt lat="48.76934" lon="-0.83454">
        <ele>282</ele>
        <time>2020-09-12T12:25:59.273Z</time>
      </trkpt>
      <trkpt lat="48.76907" lon="-0.83492">
        <ele>284</ele>
        <time>2020-09-12T12:26:04.272Z</time>
      </trkpt>
      <trkpt lat="48.76876" lon="-0.83532">
        <ele>285</ele>
        <time>2020-09-12T12:26:09.271Z</time>
      </trkpt>
      <trkpt lat="48.76842" lon="-0.83563">
        <ele>285</ele>
        <time>2020-09-12T12:26:14.321Z</time>
      </trkpt>
      <trkpt lat="48.76811" lon="-0.8359">
        <ele>286</ele>
        <time>2020-09-12T12:26:19.270Z</time>
      </trkpt>
      <trkpt lat="48.7678" lon="-0.83618">
        <ele>286</ele>
        <time>2020-09-12T12:26:24.274Z</time>
      </trkpt>
      <trkpt lat="48.76751" lon="-0.83639">
        <ele>286</ele>
        <time>2020-09-12T12:26:29.272Z</time>
      </trkpt>
      <trkpt lat="48.76719" lon="-0.83658">
        <ele>286</ele>
        <time>2020-09-12T12:26:34.272Z</time>
      </trkpt>
      <trkpt lat="48.76691" lon="-0.83675">
        <ele>286</ele>
        <time>2020-09-12T12:26:38.322Z</time>
      </trkpt>
      <trkpt lat="48.76658" lon="-0.83694">
        <ele>286</ele>
        <time>2020-09-12T12:26:43.272Z</time>
      </trkpt>
      <trkpt lat="48.76626" lon="-0.83712">
        <ele>285</ele>
        <time>2020-09-12T12:26:48.271Z</time>
      </trkpt>
      <trkpt lat="48.76592" lon="-0.83732">
        <ele>285</ele>
        <time>2020-09-12T12:26:53.270Z</time>
      </trkpt>
      <trkpt lat="48.76556" lon="-0.83748">
        <ele>285</ele>
        <time>2020-09-12T12:26:58.273Z</time>
      </trkpt>
      <trkpt lat="48.76516" lon="-0.83763">
        <ele>285</ele>
        <time>2020-09-12T12:27:03.270Z</time>
      </trkpt>
      <trkpt lat="48.76473" lon="-0.83779">
        <ele>285</ele>
        <time>2020-09-12T12:27:08.325Z</time>
      </trkpt>
      <trkpt lat="48.76431" lon="-0.83796">
        <ele>286</ele>
        <time>2020-09-12T12:27:13.276Z</time>
      </trkpt>
      <trkpt lat="48.76392" lon="-0.8381">
        <ele>287</ele>
        <time>2020-09-12T12:27:18.275Z</time>
      </trkpt>
      <trkpt lat="48.76348" lon="-0.83827">
        <ele>288</ele>
        <time>2020-09-12T12:27:23.269Z</time>
      </trkpt>
      <trkpt lat="48.76303" lon="-0.83842">
        <ele>288</ele>
        <time>2020-09-12T12:27:28.277Z</time>
      </trkpt>
      <trkpt lat="48.76262" lon="-0.83861">
        <ele>289</ele>
        <time>2020-09-12T12:27:33.272Z</time>
      </trkpt>
      <trkpt lat="48.76226" lon="-0.83892">
        <ele>289</ele>
        <time>2020-09-12T12:27:38.320Z</time>
      </trkpt>
      <trkpt lat="48.76195" lon="-0.83926">
        <ele>289</ele>
        <time>2020-09-12T12:27:43.276Z</time>
      </trkpt>
      <trkpt lat="48.76164" lon="-0.83958">
        <ele>289</ele>
        <time>2020-09-12T12:27:48.272Z</time>
      </trkpt>
      <trkpt lat="48.76133" lon="-0.83989">
        <ele>289</ele>
        <time>2020-09-12T12:27:53.257Z</time>
      </trkpt>
      <trkpt lat="48.76103" lon="-0.84017">
        <ele>289</ele>
        <time>2020-09-12T12:27:58.262Z</time>
      </trkpt>
      <trkpt lat="48.76069" lon="-0.84031">
        <ele>289</ele>
        <time>2020-09-12T12:28:03.271Z</time>
      </trkpt>
      <trkpt lat="48.76035" lon="-0.84032">
        <ele>290</ele>
        <time>2020-09-12T12:28:08.324Z</time>
      </trkpt>
      <trkpt lat="48.75998" lon="-0.84032">
        <ele>291</ele>
        <time>2020-09-12T12:28:13.272Z</time>
      </trkpt>
      <trkpt lat="48.75959" lon="-0.84041">
        <ele>291</ele>
        <time>2020-09-12T12:28:18.271Z</time>
      </trkpt>
      <trkpt lat="48.75923" lon="-0.84061">
        <ele>292</ele>
        <time>2020-09-12T12:28:23.271Z</time>
      </trkpt>
      <trkpt lat="48.75888" lon="-0.84087">
        <ele>293</ele>
        <time>2020-09-12T12:28:28.268Z</time>
      </trkpt>
      <trkpt lat="48.75853" lon="-0.84117">
        <ele>293</ele>
        <time>2020-09-12T12:28:33.275Z</time>
      </trkpt>
      <trkpt lat="48.75817" lon="-0.84144">
        <ele>293</ele>
        <time>2020-09-12T12:28:38.329Z</time>
      </trkpt>
      <trkpt lat="48.7578" lon="-0.84175">
        <ele>293</ele>
        <time>2020-09-12T12:28:43.273Z</time>
      </trkpt>
      <trkpt lat="48.75749" lon="-0.84214">
        <ele>293</ele>
        <time>2020-09-12T12:28:48.272Z</time>
      </trkpt>
      <trkpt lat="48.75722" lon="-0.84253">
        <ele>293</ele>
        <time>2020-09-12T12:28:53.273Z</time>
      </trkpt>
      <trkpt lat="48.75694" lon="-0.84287">
        <ele>293</ele>
        <time>2020-09-12T12:28:58.271Z</time>
      </trkpt>
      <trkpt lat="48.75664" lon="-0.84317">
        <ele>293</ele>
        <time>2020-09-12T12:29:03.270Z</time>
      </trkpt>
      <trkpt lat="48.75635" lon="-0.84345">
        <ele>293</ele>
        <time>2020-09-12T12:29:08.318Z</time>
      </trkpt>
      <trkpt lat="48.75605" lon="-0.84376">
        <ele>293</ele>
        <time>2020-09-12T12:29:13.276Z</time>
      </trkpt>
      <trkpt lat="48.75575" lon="-0.84414">
        <ele>294</ele>
        <time>2020-09-12T12:29:18.270Z</time>
      </trkpt>
      <trkpt lat="48.75547" lon="-0.84454">
        <ele>295</ele>
        <time>2020-09-12T12:29:23.275Z</time>
      </trkpt>
      <trkpt lat="48.7552" lon="-0.84492">
        <ele>296</ele>
        <time>2020-09-12T12:29:28.271Z</time>
      </trkpt>
      <trkpt lat="48.75494" lon="-0.84529">
        <ele>297</ele>
        <time>2020-09-12T12:29:33.271Z</time>
      </trkpt>
      <trkpt lat="48.75472" lon="-0.84561">
        <ele>298</ele>
        <time>2020-09-12T12:29:38.319Z</time>
      </trkpt>
      <trkpt lat="48.75451" lon="-0.84595">
        <ele>300</ele>
        <time>2020-09-12T12:29:44.319Z</time>
      </trkpt>
      <trkpt lat="48.7546" lon="-0.84631">
        <ele>300</ele>
        <time>2020-09-12T12:29:48.275Z</time>
      </trkpt>
      <trkpt lat="48.75472" lon="-0.84675">
        <ele>300</ele>
        <time>2020-09-12T12:29:52.272Z</time>
      </trkpt>
      <trkpt lat="48.75485" lon="-0.84722">
        <ele>300</ele>
        <time>2020-09-12T12:29:56.335Z</time>
      </trkpt>
      <trkpt lat="48.75498" lon="-0.84775">
        <ele>300</ele>
        <time>2020-09-12T12:30:00.275Z</time>
      </trkpt>
      <trkpt lat="48.75495" lon="-0.84849">
        <ele>300</ele>
        <time>2020-09-12T12:30:05.270Z</time>
      </trkpt>
      <trkpt lat="48.75466" lon="-0.84906">
        <ele>300</ele>
        <time>2020-09-12T12:30:10.270Z</time>
      </trkpt>
      <trkpt lat="48.75424" lon="-0.84951">
        <ele>300</ele>
        <time>2020-09-12T12:30:15.271Z</time>
      </trkpt>
      <trkpt lat="48.75382" lon="-0.84995">
        <ele>299</ele>
        <time>2020-09-12T12:30:20.320Z</time>
      </trkpt>
      <trkpt lat="48.75337" lon="-0.85038">
        <ele>298</ele>
        <time>2020-09-12T12:30:25.273Z</time>
      </trkpt>
      <trkpt lat="48.75294" lon="-0.85084">
        <ele>297</ele>
        <time>2020-09-12T12:30:30.267Z</time>
      </trkpt>
      <trkpt lat="48.75255" lon="-0.85128">
        <ele>296</ele>
        <time>2020-09-12T12:30:35.272Z</time>
      </trkpt>
      <trkpt lat="48.75216" lon="-0.85169">
        <ele>294</ele>
        <time>2020-09-12T12:30:41.278Z</time>
      </trkpt>
      <trkpt lat="48.75182" lon="-0.85204">
        <ele>294</ele>
        <time>2020-09-12T12:30:46.273Z</time>
      </trkpt>
      <trkpt lat="48.75146" lon="-0.85241">
        <ele>293</ele>
        <time>2020-09-12T12:30:51.269Z</time>
      </trkpt>
      <trkpt lat="48.75109" lon="-0.85278">
        <ele>293</ele>
        <time>2020-09-12T12:30:56.317Z</time>
      </trkpt>
      <trkpt lat="48.75075" lon="-0.85315">
        <ele>293</ele>
        <time>2020-09-12T12:31:01.269Z</time>
      </trkpt>
      <trkpt lat="48.75062" lon="-0.85375">
        <ele>293</ele>
        <time>2020-09-12T12:31:06.273Z</time>
      </trkpt>
      <trkpt lat="48.75087" lon="-0.85433">
        <ele>294</ele>
        <time>2020-09-12T12:31:11.274Z</time>
      </trkpt>
      <trkpt lat="48.7513" lon="-0.85444">
        <ele>294</ele>
        <time>2020-09-12T12:31:15.272Z</time>
      </trkpt>
      <trkpt lat="48.75166" lon="-0.8549">
        <ele>295</ele>
        <time>2020-09-12T12:31:21.275Z</time>
      </trkpt>
      <trkpt lat="48.75173" lon="-0.85546">
        <ele>296</ele>
        <time>2020-09-12T12:31:26.307Z</time>
      </trkpt>
      <trkpt lat="48.75174" lon="-0.85601">
        <ele>297</ele>
        <time>2020-09-12T12:31:31.272Z</time>
      </trkpt>
      <trkpt lat="48.75175" lon="-0.8565">
        <ele>298</ele>
        <time>2020-09-12T12:31:36.277Z</time>
      </trkpt>
      <trkpt lat="48.75175" lon="-0.85697">
        <ele>298</ele>
        <time>2020-09-12T12:31:41.271Z</time>
      </trkpt>
      <trkpt lat="48.75173" lon="-0.85744">
        <ele>299</ele>
        <time>2020-09-12T12:31:46.272Z</time>
      </trkpt>
      <trkpt lat="48.75168" lon="-0.85794">
        <ele>299</ele>
        <time>2020-09-12T12:31:51.272Z</time>
      </trkpt>
      <trkpt lat="48.75159" lon="-0.8584">
        <ele>300</ele>
        <time>2020-09-12T12:31:56.321Z</time>
      </trkpt>
      <trkpt lat="48.75149" lon="-0.85887">
        <ele>301</ele>
        <time>2020-09-12T12:32:01.271Z</time>
      </trkpt>
      <trkpt lat="48.75139" lon="-0.85931">
        <ele>303</ele>
        <time>2020-09-12T12:32:06.273Z</time>
      </trkpt>
      <trkpt lat="48.75127" lon="-0.85975">
        <ele>304</ele>
        <time>2020-09-12T12:32:11.272Z</time>
      </trkpt>
      <trkpt lat="48.75122" lon="-0.86019">
        <ele>305</ele>
        <time>2020-09-12T12:32:16.279Z</time>
      </trkpt>
      <trkpt lat="48.75126" lon="-0.86065">
        <ele>306</ele>
        <time>2020-09-12T12:32:21.272Z</time>
      </trkpt>
      <trkpt lat="48.75138" lon="-0.8611">
        <ele>307</ele>
        <time>2020-09-12T12:32:26.337Z</time>
      </trkpt>
      <trkpt lat="48.7515" lon="-0.86156">
        <ele>308</ele>
        <time>2020-09-12T12:32:31.271Z</time>
      </trkpt>
      <trkpt lat="48.75153" lon="-0.86208">
        <ele>309</ele>
        <time>2020-09-12T12:32:36.277Z</time>
      </trkpt>
      <trkpt lat="48.75146" lon="-0.86261">
        <ele>310</ele>
        <time>2020-09-12T12:32:41.274Z</time>
      </trkpt>
      <trkpt lat="48.75129" lon="-0.86312">
        <ele>312</ele>
        <time>2020-09-12T12:32:46.280Z</time>
      </trkpt>
      <trkpt lat="48.75105" lon="-0.8636">
        <ele>312</ele>
        <time>2020-09-12T12:32:51.269Z</time>
      </trkpt>
      <trkpt lat="48.7508" lon="-0.86415">
        <ele>313</ele>
        <time>2020-09-12T12:32:56.339Z</time>
      </trkpt>
      <trkpt lat="48.75058" lon="-0.86465">
        <ele>313</ele>
        <time>2020-09-12T12:33:00.275Z</time>
      </trkpt>
      <trkpt lat="48.7503" lon="-0.8653">
        <ele>313</ele>
        <time>2020-09-12T12:33:05.270Z</time>
      </trkpt>
      <trkpt lat="48.75001" lon="-0.86593">
        <ele>313</ele>
        <time>2020-09-12T12:33:10.271Z</time>
      </trkpt>
      <trkpt lat="48.74972" lon="-0.86655">
        <ele>313</ele>
        <time>2020-09-12T12:33:15.273Z</time>
      </trkpt>
      <trkpt lat="48.74942" lon="-0.8672">
        <ele>312</ele>
        <time>2020-09-12T12:33:20.320Z</time>
      </trkpt>
      <trkpt lat="48.74912" lon="-0.86783">
        <ele>311</ele>
        <time>2020-09-12T12:33:25.270Z</time>
      </trkpt>
      <trkpt lat="48.74886" lon="-0.86845">
        <ele>310</ele>
        <time>2020-09-12T12:33:30.273Z</time>
      </trkpt>
      <trkpt lat="48.74855" lon="-0.86905">
        <ele>310</ele>
        <time>2020-09-12T12:33:35.273Z</time>
      </trkpt>
      <trkpt lat="48.74828" lon="-0.86966">
        <ele>309</ele>
        <time>2020-09-12T12:33:40.269Z</time>
      </trkpt>
      <trkpt lat="48.74802" lon="-0.87022">
        <ele>309</ele>
        <time>2020-09-12T12:33:45.273Z</time>
      </trkpt>
      <trkpt lat="48.74775" lon="-0.87068">
        <ele>308</ele>
        <time>2020-09-12T12:33:50.318Z</time>
      </trkpt>
      <trkpt lat="48.74741" lon="-0.87107">
        <ele>308</ele>
        <time>2020-09-12T12:33:55.270Z</time>
      </trkpt>
      <trkpt lat="48.74706" lon="-0.87142">
        <ele>308</ele>
        <time>2020-09-12T12:33:59.272Z</time>
      </trkpt>
      <trkpt lat="48.74661" lon="-0.87183">
        <ele>308</ele>
        <time>2020-09-12T12:34:04.272Z</time>
      </trkpt>
      <trkpt lat="48.74616" lon="-0.87229">
        <ele>308</ele>
        <time>2020-09-12T12:34:10.270Z</time>
      </trkpt>
      <trkpt lat="48.7458" lon="-0.87265">
        <ele>308</ele>
        <time>2020-09-12T12:34:15.270Z</time>
      </trkpt>
      <trkpt lat="48.74541" lon="-0.87307">
        <ele>308</ele>
        <time>2020-09-12T12:34:20.319Z</time>
      </trkpt>
      <trkpt lat="48.745" lon="-0.87349">
        <ele>308</ele>
        <time>2020-09-12T12:34:25.275Z</time>
      </trkpt>
      <trkpt lat="48.74459" lon="-0.87391">
        <ele>307</ele>
        <time>2020-09-12T12:34:30.275Z</time>
      </trkpt>
      <trkpt lat="48.7442" lon="-0.8743">
        <ele>307</ele>
        <time>2020-09-12T12:34:35.275Z</time>
      </trkpt>
      <trkpt lat="48.74382" lon="-0.87469">
        <ele>307</ele>
        <time>2020-09-12T12:34:40.268Z</time>
      </trkpt>
      <trkpt lat="48.74345" lon="-0.87505">
        <ele>307</ele>
        <time>2020-09-12T12:34:45.273Z</time>
      </trkpt>
      <trkpt lat="48.74311" lon="-0.87539">
        <ele>307</ele>
        <time>2020-09-12T12:34:50.320Z</time>
      </trkpt>
      <trkpt lat="48.74278" lon="-0.87572">
        <ele>307</ele>
        <time>2020-09-12T12:34:55.271Z</time>
      </trkpt>
      <trkpt lat="48.74247" lon="-0.87603">
        <ele>307</ele>
        <time>2020-09-12T12:35:00.273Z</time>
      </trkpt>
      <trkpt lat="48.74215" lon="-0.87637">
        <ele>308</ele>
        <time>2020-09-12T12:35:05.287Z</time>
      </trkpt>
      <trkpt lat="48.7418" lon="-0.87666">
        <ele>309</ele>
        <time>2020-09-12T12:35:10.270Z</time>
      </trkpt>
      <trkpt lat="48.74143" lon="-0.87681">
        <ele>309</ele>
        <time>2020-09-12T12:35:15.277Z</time>
      </trkpt>
      <trkpt lat="48.74105" lon="-0.87682">
        <ele>310</ele>
        <time>2020-09-12T12:35:20.318Z</time>
      </trkpt>
      <trkpt lat="48.74069" lon="-0.87683">
        <ele>311</ele>
        <time>2020-09-12T12:35:25.272Z</time>
      </trkpt>
      <trkpt lat="48.74031" lon="-0.87699">
        <ele>312</ele>
        <time>2020-09-12T12:35:30.270Z</time>
      </trkpt>
      <trkpt lat="48.74" lon="-0.87722">
        <ele>313</ele>
        <time>2020-09-12T12:35:34.273Z</time>
      </trkpt>
      <trkpt lat="48.73966" lon="-0.87763">
        <ele>314</ele>
        <time>2020-09-12T12:35:39.274Z</time>
      </trkpt>
      <trkpt lat="48.73937" lon="-0.87812">
        <ele>315</ele>
        <time>2020-09-12T12:35:44.317Z</time>
      </trkpt>
      <trkpt lat="48.73913" lon="-0.87861">
        <ele>316</ele>
        <time>2020-09-12T12:35:49.270Z</time>
      </trkpt>
      <trkpt lat="48.73887" lon="-0.87909">
        <ele>316</ele>
        <time>2020-09-12T12:35:54.280Z</time>
      </trkpt>
      <trkpt lat="48.73862" lon="-0.87958">
        <ele>317</ele>
        <time>2020-09-12T12:35:59.269Z</time>
      </trkpt>
      <trkpt lat="48.73835" lon="-0.88006">
        <ele>317</ele>
        <time>2020-09-12T12:36:04.273Z</time>
      </trkpt>
      <trkpt lat="48.73808" lon="-0.88056">
        <ele>317</ele>
        <time>2020-09-12T12:36:09.274Z</time>
      </trkpt>
      <trkpt lat="48.73781" lon="-0.88104">
        <ele>318</ele>
        <time>2020-09-12T12:36:14.321Z</time>
      </trkpt>
      <trkpt lat="48.73754" lon="-0.88153">
        <ele>318</ele>
        <time>2020-09-12T12:36:19.273Z</time>
      </trkpt>
      <trkpt lat="48.73727" lon="-0.88205">
        <ele>318</ele>
        <time>2020-09-12T12:36:24.278Z</time>
      </trkpt>
      <trkpt lat="48.73697" lon="-0.88258">
        <ele>318</ele>
        <time>2020-09-12T12:36:29.274Z</time>
      </trkpt>
      <trkpt lat="48.73668" lon="-0.88316">
        <ele>319</ele>
        <time>2020-09-12T12:36:34.277Z</time>
      </trkpt>
      <trkpt lat="48.73644" lon="-0.88376">
        <ele>319</ele>
        <time>2020-09-12T12:36:39.273Z</time>
      </trkpt>
      <trkpt lat="48.73625" lon="-0.88439">
        <ele>319</ele>
        <time>2020-09-12T12:36:44.318Z</time>
      </trkpt>
      <trkpt lat="48.7361" lon="-0.88507">
        <ele>320</ele>
        <time>2020-09-12T12:36:49.271Z</time>
      </trkpt>
      <trkpt lat="48.73595" lon="-0.88577">
        <ele>319</ele>
        <time>2020-09-12T12:36:54.276Z</time>
      </trkpt>
      <trkpt lat="48.73577" lon="-0.88647">
        <ele>319</ele>
        <time>2020-09-12T12:36:59.273Z</time>
      </trkpt>
      <trkpt lat="48.73563" lon="-0.88715">
        <ele>319</ele>
        <time>2020-09-12T12:37:04.274Z</time>
      </trkpt>
      <trkpt lat="48.73546" lon="-0.88783">
        <ele>318</ele>
        <time>2020-09-12T12:37:09.272Z</time>
      </trkpt>
      <trkpt lat="48.73531" lon="-0.88847">
        <ele>318</ele>
        <time>2020-09-12T12:37:14.321Z</time>
      </trkpt>
      <trkpt lat="48.73525" lon="-0.88918">
        <ele>317</ele>
        <time>2020-09-12T12:37:19.274Z</time>
      </trkpt>
      <trkpt lat="48.73525" lon="-0.88989">
        <ele>317</ele>
        <time>2020-09-12T12:37:24.275Z</time>
      </trkpt>
      <trkpt lat="48.73534" lon="-0.89058">
        <ele>316</ele>
        <time>2020-09-12T12:37:29.274Z</time>
      </trkpt>
      <trkpt lat="48.73555" lon="-0.89122">
        <ele>316</ele>
        <time>2020-09-12T12:37:34.272Z</time>
      </trkpt>
      <trkpt lat="48.73579" lon="-0.89182">
        <ele>315</ele>
        <time>2020-09-12T12:37:39.271Z</time>
      </trkpt>
      <trkpt lat="48.73603" lon="-0.89244">
        <ele>315</ele>
        <time>2020-09-12T12:37:44.318Z</time>
      </trkpt>
      <trkpt lat="48.73614" lon="-0.89311">
        <ele>314</ele>
        <time>2020-09-12T12:37:49.271Z</time>
      </trkpt>
      <trkpt lat="48.7361" lon="-0.89383">
        <ele>314</ele>
        <time>2020-09-12T12:37:54.272Z</time>
      </trkpt>
      <trkpt lat="48.73591" lon="-0.89449">
        <ele>313</ele>
        <time>2020-09-12T12:37:59.272Z</time>
      </trkpt>
      <trkpt lat="48.73562" lon="-0.89507">
        <ele>313</ele>
        <time>2020-09-12T12:38:04.272Z</time>
      </trkpt>
      <trkpt lat="48.73527" lon="-0.89556">
        <ele>312</ele>
        <time>2020-09-12T12:38:08.318Z</time>
      </trkpt>
      <trkpt lat="48.73485" lon="-0.89616">
        <ele>312</ele>
        <time>2020-09-12T12:38:13.274Z</time>
      </trkpt>
      <trkpt lat="48.73446" lon="-0.89681">
        <ele>311</ele>
        <time>2020-09-12T12:38:18.269Z</time>
      </trkpt>
      <trkpt lat="48.73405" lon="-0.89748">
        <ele>311</ele>
        <time>2020-09-12T12:38:23.273Z</time>
      </trkpt>
      <trkpt lat="48.73368" lon="-0.8981">
        <ele>310</ele>
        <time>2020-09-12T12:38:28.271Z</time>
      </trkpt>
      <trkpt lat="48.73331" lon="-0.89868">
        <ele>309</ele>
        <time>2020-09-12T12:38:33.272Z</time>
      </trkpt>
      <trkpt lat="48.73293" lon="-0.89928">
        <ele>307</ele>
        <time>2020-09-12T12:38:38.319Z</time>
      </trkpt>
      <trkpt lat="48.73265" lon="-0.89999">
        <ele>305</ele>
        <time>2020-09-12T12:38:43.273Z</time>
      </trkpt>
      <trkpt lat="48.73246" lon="-0.90086">
        <ele>304</ele>
        <time>2020-09-12T12:38:48.275Z</time>
      </trkpt>
      <trkpt lat="48.7324" lon="-0.90183">
        <ele>302</ele>
        <time>2020-09-12T12:38:53.273Z</time>
      </trkpt>
      <trkpt lat="48.73238" lon="-0.9028">
        <ele>300</ele>
        <time>2020-09-12T12:38:58.272Z</time>
      </trkpt>
      <trkpt lat="48.73233" lon="-0.90379">
        <ele>298</ele>
        <time>2020-09-12T12:39:03.274Z</time>
      </trkpt>
      <trkpt lat="48.7323" lon="-0.90478">
        <ele>296</ele>
        <time>2020-09-12T12:39:08.320Z</time>
      </trkpt>
      <trkpt lat="48.73226" lon="-0.90579">
        <ele>293</ele>
        <time>2020-09-12T12:39:13.276Z</time>
      </trkpt>
      <trkpt lat="48.73222" lon="-0.90685">
        <ele>291</ele>
        <time>2020-09-12T12:39:18.274Z</time>
      </trkpt>
      <trkpt lat="48.73196" lon="-0.90786">
        <ele>288</ele>
        <time>2020-09-12T12:39:23.273Z</time>
      </trkpt>
      <trkpt lat="48.73149" lon="-0.90865">
        <ele>285</ele>
        <time>2020-09-12T12:39:28.297Z</time>
      </trkpt>
      <trkpt lat="48.73085" lon="-0.90922">
        <ele>283</ele>
        <time>2020-09-12T12:39:33.272Z</time>
      </trkpt>
      <trkpt lat="48.73025" lon="-0.90987">
        <ele>279</ele>
        <time>2020-09-12T12:39:38.319Z</time>
      </trkpt>
      <trkpt lat="48.72961" lon="-0.9105">
        <ele>276</ele>
        <time>2020-09-12T12:39:43.274Z</time>
      </trkpt>
      <trkpt lat="48.729" lon="-0.91114">
        <ele>273</ele>
        <time>2020-09-12T12:39:48.272Z</time>
      </trkpt>
      <trkpt lat="48.72837" lon="-0.91181">
        <ele>269</ele>
        <time>2020-09-12T12:39:53.266Z</time>
      </trkpt>
      <trkpt lat="48.72776" lon="-0.91247">
        <ele>266</ele>
        <time>2020-09-12T12:39:58.270Z</time>
      </trkpt>
      <trkpt lat="48.72709" lon="-0.91318">
        <ele>262</ele>
        <time>2020-09-12T12:40:04.269Z</time>
      </trkpt>
      <trkpt lat="48.72653" lon="-0.91378">
        <ele>258</ele>
        <time>2020-09-12T12:40:09.270Z</time>
      </trkpt>
      <trkpt lat="48.726" lon="-0.91433">
        <ele>254</ele>
        <time>2020-09-12T12:40:14.321Z</time>
      </trkpt>
      <trkpt lat="48.7255" lon="-0.91486">
        <ele>250</ele>
        <time>2020-09-12T12:40:19.273Z</time>
      </trkpt>
      <trkpt lat="48.72506" lon="-0.91545">
        <ele>247</ele>
        <time>2020-09-12T12:40:24.278Z</time>
      </trkpt>
      <trkpt lat="48.72484" lon="-0.91636">
        <ele>243</ele>
        <time>2020-09-12T12:40:30.272Z</time>
      </trkpt>
      <trkpt lat="48.72485" lon="-0.9172">
        <ele>240</ele>
        <time>2020-09-12T12:40:35.276Z</time>
      </trkpt>
      <trkpt lat="48.72489" lon="-0.91809">
        <ele>236</ele>
        <time>2020-09-12T12:40:41.272Z</time>
      </trkpt>
      <trkpt lat="48.72486" lon="-0.91887">
        <ele>233</ele>
        <time>2020-09-12T12:40:46.272Z</time>
      </trkpt>
      <trkpt lat="48.72487" lon="-0.91952">
        <ele>229</ele>
        <time>2020-09-12T12:40:53.270Z</time>
      </trkpt>
      <trkpt lat="48.72484" lon="-0.91994">
        <ele>227</ele>
        <time>2020-09-12T12:40:58.272Z</time>
      </trkpt>
      <trkpt lat="48.72478" lon="-0.92037">
        <ele>226</ele>
        <time>2020-09-12T12:41:02.320Z</time>
      </trkpt>
      <trkpt lat="48.72466" lon="-0.92087">
        <ele>224</ele>
        <time>2020-09-12T12:41:06.286Z</time>
      </trkpt>
      <trkpt lat="48.72447" lon="-0.9214">
        <ele>223</ele>
        <time>2020-09-12T12:41:11.272Z</time>
      </trkpt>
      <trkpt lat="48.72429" lon="-0.92192">
        <ele>221</ele>
        <time>2020-09-12T12:41:16.270Z</time>
      </trkpt>
      <trkpt lat="48.72436" lon="-0.92244">
        <ele>220</ele>
        <time>2020-09-12T12:41:21.270Z</time>
      </trkpt>
      <trkpt lat="48.72455" lon="-0.92296">
        <ele>219</ele>
        <time>2020-09-12T12:41:26.321Z</time>
      </trkpt>
      <trkpt lat="48.72472" lon="-0.92342">
        <ele>218</ele>
        <time>2020-09-12T12:41:31.274Z</time>
      </trkpt>
      <trkpt lat="48.72491" lon="-0.92387">
        <ele>216</ele>
        <time>2020-09-12T12:41:37.275Z</time>
      </trkpt>
      <trkpt lat="48.72504" lon="-0.92421">
        <ele>215</ele>
        <time>2020-09-12T12:41:42.273Z</time>
      </trkpt>
      <trkpt lat="48.72517" lon="-0.92457">
        <ele>214</ele>
        <time>2020-09-12T12:41:47.272Z</time>
      </trkpt>
      <trkpt lat="48.72527" lon="-0.92484">
        <ele>212</ele>
        <time>2020-09-12T12:41:54.274Z</time>
      </trkpt>
      <trkpt lat="48.72532" lon="-0.92496">
        <ele>211</ele>
        <time>2020-09-12T12:41:59.274Z</time>
      </trkpt>
      <trkpt lat="48.72537" lon="-0.92508">
        <ele>210</ele>
        <time>2020-09-12T12:42:02.322Z</time>
      </trkpt>
      <trkpt lat="48.72541" lon="-0.9252">
        <ele>209</ele>
        <time>2020-09-12T12:42:04.274Z</time>
      </trkpt>
      <trkpt lat="48.72547" lon="-0.92534">
        <ele>209</ele>
        <time>2020-09-12T12:42:06.272Z</time>
      </trkpt>
      <trkpt lat="48.72558" lon="-0.92553">
        <ele>208</ele>
        <time>2020-09-12T12:42:09.270Z</time>
      </trkpt>
      <trkpt lat="48.72578" lon="-0.92576">
        <ele>207</ele>
        <time>2020-09-12T12:42:13.276Z</time>
      </trkpt>
      <trkpt lat="48.72602" lon="-0.92608">
        <ele>207</ele>
        <time>2020-09-12T12:42:17.276Z</time>
      </trkpt>
      <trkpt lat="48.72624" lon="-0.92655">
        <ele>206</ele>
        <time>2020-09-12T12:42:21.277Z</time>
      </trkpt>
      <trkpt lat="48.72651" lon="-0.92715">
        <ele>205</ele>
        <time>2020-09-12T12:42:26.338Z</time>
      </trkpt>
      <trkpt lat="48.7267" lon="-0.92778">
        <ele>204</ele>
        <time>2020-09-12T12:42:31.274Z</time>
      </trkpt>
      <trkpt lat="48.72668" lon="-0.92843">
        <ele>203</ele>
        <time>2020-09-12T12:42:37.263Z</time>
      </trkpt>
      <trkpt lat="48.7267" lon="-0.92895">
        <ele>203</ele>
        <time>2020-09-12T12:42:42.273Z</time>
      </trkpt>
      <trkpt lat="48.72686" lon="-0.92937">
        <ele>203</ele>
        <time>2020-09-12T12:42:47.273Z</time>
      </trkpt>
      <trkpt lat="48.72708" lon="-0.92965">
        <ele>203</ele>
        <time>2020-09-12T12:42:53.273Z</time>
      </trkpt>
      <trkpt lat="48.72731" lon="-0.92978">
        <ele>204</ele>
        <time>2020-09-12T12:42:59.272Z</time>
      </trkpt>
      <trkpt lat="48.72751" lon="-0.9298">
        <ele>205</ele>
        <time>2020-09-12T12:43:04.272Z</time>
      </trkpt>
      <trkpt lat="48.72769" lon="-0.92981">
        <ele>206</ele>
        <time>2020-09-12T12:43:08.319Z</time>
      </trkpt>
      <trkpt lat="48.72787" lon="-0.92982">
        <ele>208</ele>
        <time>2020-09-12T12:43:12.272Z</time>
      </trkpt>
      <trkpt lat="48.72806" lon="-0.92984">
        <ele>209</ele>
        <time>2020-09-12T12:43:16.272Z</time>
      </trkpt>
      <trkpt lat="48.72824" lon="-0.92985">
        <ele>211</ele>
        <time>2020-09-12T12:43:20.320Z</time>
      </trkpt>
      <trkpt lat="48.72843" lon="-0.92986">
        <ele>213</ele>
        <time>2020-09-12T12:43:24.272Z</time>
      </trkpt>
      <trkpt lat="48.72862" lon="-0.92986">
        <ele>215</ele>
        <time>2020-09-12T12:43:28.273Z</time>
      </trkpt>
      <trkpt lat="48.72885" lon="-0.92988">
        <ele>217</ele>
        <time>2020-09-12T12:43:33.281Z</time>
      </trkpt>
      <trkpt lat="48.72905" lon="-0.9299">
        <ele>219</ele>
        <time>2020-09-12T12:43:38.319Z</time>
      </trkpt>
      <trkpt lat="48.72923" lon="-0.92993">
        <ele>220</ele>
        <time>2020-09-12T12:43:42.273Z</time>
      </trkpt>
      <trkpt lat="48.7294" lon="-0.92992">
        <ele>222</ele>
        <time>2020-09-12T12:43:46.274Z</time>
      </trkpt>
      <trkpt lat="48.72961" lon="-0.92986">
        <ele>224</ele>
        <time>2020-09-12T12:43:51.271Z</time>
      </trkpt>
      <trkpt lat="48.72978" lon="-0.92981">
        <ele>225</ele>
        <time>2020-09-12T12:43:55.273Z</time>
      </trkpt>
      <trkpt lat="48.72999" lon="-0.92971">
        <ele>226</ele>
        <time>2020-09-12T12:44:00.271Z</time>
      </trkpt>
      <trkpt lat="48.73016" lon="-0.92964">
        <ele>228</ele>
        <time>2020-09-12T12:44:04.270Z</time>
      </trkpt>
      <trkpt lat="48.73033" lon="-0.92955">
        <ele>229</ele>
        <time>2020-09-12T12:44:08.320Z</time>
      </trkpt>
      <trkpt lat="48.73051" lon="-0.92949">
        <ele>230</ele>
        <time>2020-09-12T12:44:12.275Z</time>
      </trkpt>
      <trkpt lat="48.73068" lon="-0.92945">
        <ele>231</ele>
        <time>2020-09-12T12:44:16.271Z</time>
      </trkpt>
      <trkpt lat="48.73086" lon="-0.92943">
        <ele>232</ele>
        <time>2020-09-12T12:44:20.320Z</time>
      </trkpt>
      <trkpt lat="48.73104" lon="-0.92944">
        <ele>233</ele>
        <time>2020-09-12T12:44:24.272Z</time>
      </trkpt>
      <trkpt lat="48.73122" lon="-0.92947">
        <ele>234</ele>
        <time>2020-09-12T12:44:28.273Z</time>
      </trkpt>
      <trkpt lat="48.7314" lon="-0.92954">
        <ele>235</ele>
        <time>2020-09-12T12:44:32.324Z</time>
      </trkpt>
      <trkpt lat="48.73161" lon="-0.92967">
        <ele>237</ele>
        <time>2020-09-12T12:44:37.274Z</time>
      </trkpt>
      <trkpt lat="48.73176" lon="-0.92982">
        <ele>238</ele>
        <time>2020-09-12T12:44:41.273Z</time>
      </trkpt>
      <trkpt lat="48.73193" lon="-0.93004">
        <ele>240</ele>
        <time>2020-09-12T12:44:46.275Z</time>
      </trkpt>
      <trkpt lat="48.73206" lon="-0.9303">
        <ele>242</ele>
        <time>2020-09-12T12:44:51.270Z</time>
      </trkpt>
      <trkpt lat="48.73216" lon="-0.93053">
        <ele>243</ele>
        <time>2020-09-12T12:44:55.274Z</time>
      </trkpt>
      <trkpt lat="48.73225" lon="-0.93082">
        <ele>245</ele>
        <time>2020-09-12T12:45:00.271Z</time>
      </trkpt>
      <trkpt lat="48.73231" lon="-0.93107">
        <ele>246</ele>
        <time>2020-09-12T12:45:04.271Z</time>
      </trkpt>
      <trkpt lat="48.73235" lon="-0.93133">
        <ele>247</ele>
        <time>2020-09-12T12:45:08.321Z</time>
      </trkpt>
      <trkpt lat="48.73239" lon="-0.9316">
        <ele>248</ele>
        <time>2020-09-12T12:45:12.269Z</time>
      </trkpt>
      <trkpt lat="48.73244" lon="-0.93187">
        <ele>249</ele>
        <time>2020-09-12T12:45:16.275Z</time>
      </trkpt>
      <trkpt lat="48.73248" lon="-0.93214">
        <ele>250</ele>
        <time>2020-09-12T12:45:20.320Z</time>
      </trkpt>
      <trkpt lat="48.73252" lon="-0.93242">
        <ele>251</ele>
        <time>2020-09-12T12:45:24.276Z</time>
      </trkpt>
      <trkpt lat="48.73257" lon="-0.9327">
        <ele>252</ele>
        <time>2020-09-12T12:45:28.287Z</time>
      </trkpt>
      <trkpt lat="48.73263" lon="-0.93304">
        <ele>253</ele>
        <time>2020-09-12T12:45:33.270Z</time>
      </trkpt>
      <trkpt lat="48.73269" lon="-0.93337">
        <ele>255</ele>
        <time>2020-09-12T12:45:38.318Z</time>
      </trkpt>
      <trkpt lat="48.73274" lon="-0.9337">
        <ele>256</ele>
        <time>2020-09-12T12:45:43.292Z</time>
      </trkpt>
      <trkpt lat="48.73278" lon="-0.93398">
        <ele>257</ele>
        <time>2020-09-12T12:45:47.275Z</time>
      </trkpt>
      <trkpt lat="48.73283" lon="-0.93425">
        <ele>258</ele>
        <time>2020-09-12T12:45:51.273Z</time>
      </trkpt>
      <trkpt lat="48.73288" lon="-0.9346">
        <ele>260</ele>
        <time>2020-09-12T12:45:56.303Z</time>
      </trkpt>
      <trkpt lat="48.73293" lon="-0.93488">
        <ele>261</ele>
        <time>2020-09-12T12:46:00.269Z</time>
      </trkpt>
      <trkpt lat="48.73298" lon="-0.93517">
        <ele>262</ele>
        <time>2020-09-12T12:46:04.271Z</time>
      </trkpt>
      <trkpt lat="48.73303" lon="-0.93549">
        <ele>264</ele>
        <time>2020-09-12T12:46:08.325Z</time>
      </trkpt>
      <trkpt lat="48.73309" lon="-0.93588">
        <ele>266</ele>
        <time>2020-09-12T12:46:13.270Z</time>
      </trkpt>
      <trkpt lat="48.73316" lon="-0.93629">
        <ele>267</ele>
        <time>2020-09-12T12:46:18.272Z</time>
      </trkpt>
      <trkpt lat="48.73323" lon="-0.93669">
        <ele>269</ele>
        <time>2020-09-12T12:46:23.270Z</time>
      </trkpt>
      <trkpt lat="48.7333" lon="-0.9371">
        <ele>270</ele>
        <time>2020-09-12T12:46:28.279Z</time>
      </trkpt>
      <trkpt lat="48.73337" lon="-0.9375">
        <ele>272</ele>
        <time>2020-09-12T12:46:33.269Z</time>
      </trkpt>
      <trkpt lat="48.73346" lon="-0.93787">
        <ele>273</ele>
        <time>2020-09-12T12:46:38.325Z</time>
      </trkpt>
      <trkpt lat="48.7336" lon="-0.93823">
        <ele>274</ele>
        <time>2020-09-12T12:46:43.271Z</time>
      </trkpt>
      <trkpt lat="48.73379" lon="-0.93855">
        <ele>276</ele>
        <time>2020-09-12T12:46:48.272Z</time>
      </trkpt>
      <trkpt lat="48.73401" lon="-0.93879">
        <ele>277</ele>
        <time>2020-09-12T12:46:53.268Z</time>
      </trkpt>
      <trkpt lat="48.73426" lon="-0.93893">
        <ele>278</ele>
        <time>2020-09-12T12:46:58.272Z</time>
      </trkpt>
      <trkpt lat="48.73452" lon="-0.93894">
        <ele>279</ele>
        <time>2020-09-12T12:47:03.272Z</time>
      </trkpt>
      <trkpt lat="48.73477" lon="-0.93883">
        <ele>281</ele>
        <time>2020-09-12T12:47:08.329Z</time>
      </trkpt>
      <trkpt lat="48.73496" lon="-0.93866">
        <ele>282</ele>
        <time>2020-09-12T12:47:12.277Z</time>
      </trkpt>
      <trkpt lat="48.73518" lon="-0.9384">
        <ele>283</ele>
        <time>2020-09-12T12:47:17.265Z</time>
      </trkpt>
      <trkpt lat="48.73539" lon="-0.93813">
        <ele>285</ele>
        <time>2020-09-12T12:47:22.268Z</time>
      </trkpt>
      <trkpt lat="48.73558" lon="-0.93789">
        <ele>287</ele>
        <time>2020-09-12T12:47:27.272Z</time>
      </trkpt>
      <trkpt lat="48.73576" lon="-0.93767">
        <ele>289</ele>
        <time>2020-09-12T12:47:32.322Z</time>
      </trkpt>
      <trkpt lat="48.73595" lon="-0.93742">
        <ele>291</ele>
        <time>2020-09-12T12:47:37.272Z</time>
      </trkpt>
      <trkpt lat="48.7361" lon="-0.93721">
        <ele>293</ele>
        <time>2020-09-12T12:47:41.272Z</time>
      </trkpt>
      <trkpt lat="48.73626" lon="-0.937">
        <ele>295</ele>
        <time>2020-09-12T12:47:45.271Z</time>
      </trkpt>
      <trkpt lat="48.73646" lon="-0.93675">
        <ele>296</ele>
        <time>2020-09-12T12:47:49.269Z</time>
      </trkpt>
      <trkpt lat="48.73665" lon="-0.93648">
        <ele>297</ele>
        <time>2020-09-12T12:47:54.270Z</time>
      </trkpt>
      <trkpt lat="48.73685" lon="-0.93625">
        <ele>299</ele>
        <time>2020-09-12T12:47:58.272Z</time>
      </trkpt>
      <trkpt lat="48.73707" lon="-0.93607">
        <ele>300</ele>
        <time>2020-09-12T12:48:02.326Z</time>
      </trkpt>
      <trkpt lat="48.73733" lon="-0.93596">
        <ele>301</ele>
        <time>2020-09-12T12:48:06.284Z</time>
      </trkpt>
      <trkpt lat="48.73766" lon="-0.93594">
        <ele>302</ele>
        <time>2020-09-12T12:48:11.272Z</time>
      </trkpt>
      <trkpt lat="48.73798" lon="-0.93593">
        <ele>303</ele>
        <time>2020-09-12T12:48:16.272Z</time>
      </trkpt>
      <trkpt lat="48.73831" lon="-0.93594">
        <ele>304</ele>
        <time>2020-09-12T12:48:21.274Z</time>
      </trkpt>
      <trkpt lat="48.73866" lon="-0.93596">
        <ele>305</ele>
        <time>2020-09-12T12:48:26.303Z</time>
      </trkpt>
      <trkpt lat="48.739" lon="-0.93597">
        <ele>307</ele>
        <time>2020-09-12T12:48:31.273Z</time>
      </trkpt>
      <trkpt lat="48.73935" lon="-0.93597">
        <ele>308</ele>
        <time>2020-09-12T12:48:36.272Z</time>
      </trkpt>
      <trkpt lat="48.73968" lon="-0.93598">
        <ele>309</ele>
        <time>2020-09-12T12:48:41.273Z</time>
      </trkpt>
      <trkpt lat="48.74" lon="-0.93592">
        <ele>311</ele>
        <time>2020-09-12T12:48:46.272Z</time>
      </trkpt>
      <trkpt lat="48.74033" lon="-0.93583">
        <ele>312</ele>
        <time>2020-09-12T12:48:51.271Z</time>
      </trkpt>
      <trkpt lat="48.74068" lon="-0.93578">
        <ele>313</ele>
        <time>2020-09-12T12:48:56.336Z</time>
      </trkpt>
      <trkpt lat="48.74103" lon="-0.93577">
        <ele>315</ele>
        <time>2020-09-12T12:49:01.274Z</time>
      </trkpt>
      <trkpt lat="48.7414" lon="-0.93573">
        <ele>316</ele>
        <time>2020-09-12T12:49:06.288Z</time>
      </trkpt>
      <trkpt lat="48.74177" lon="-0.93566">
        <ele>317</ele>
        <time>2020-09-12T12:49:11.277Z</time>
      </trkpt>
      <trkpt lat="48.74211" lon="-0.93558">
        <ele>318</ele>
        <time>2020-09-12T12:49:15.275Z</time>
      </trkpt>
      <trkpt lat="48.74248" lon="-0.93547">
        <ele>318</ele>
        <time>2020-09-12T12:49:19.276Z</time>
      </trkpt>
      <trkpt lat="48.74295" lon="-0.93537">
        <ele>319</ele>
        <time>2020-09-12T12:49:24.274Z</time>
      </trkpt>
      <trkpt lat="48.74346" lon="-0.93528">
        <ele>319</ele>
        <time>2020-09-12T12:49:29.273Z</time>
      </trkpt>
      <trkpt lat="48.74394" lon="-0.93514">
        <ele>318</ele>
        <time>2020-09-12T12:49:33.302Z</time>
      </trkpt>
      <trkpt lat="48.74457" lon="-0.93497">
        <ele>317</ele>
        <time>2020-09-12T12:49:38.315Z</time>
      </trkpt>
      <trkpt lat="48.74516" lon="-0.93502">
        <ele>316</ele>
        <time>2020-09-12T12:49:43.271Z</time>
      </trkpt>
      <trkpt lat="48.7458" lon="-0.93524">
        <ele>314</ele>
        <time>2020-09-12T12:49:49.274Z</time>
      </trkpt>
      <trkpt lat="48.74637" lon="-0.93544">
        <ele>312</ele>
        <time>2020-09-12T12:49:54.274Z</time>
      </trkpt>
      <trkpt lat="48.74691" lon="-0.93562">
        <ele>310</ele>
        <time>2020-09-12T12:49:59.273Z</time>
      </trkpt>
      <trkpt lat="48.74746" lon="-0.93582">
        <ele>308</ele>
        <time>2020-09-12T12:50:04.269Z</time>
      </trkpt>
      <trkpt lat="48.748" lon="-0.93606">
        <ele>306</ele>
        <time>2020-09-12T12:50:09.271Z</time>
      </trkpt>
      <trkpt lat="48.74853" lon="-0.93633">
        <ele>304</ele>
        <time>2020-09-12T12:50:14.318Z</time>
      </trkpt>
      <trkpt lat="48.74904" lon="-0.93659">
        <ele>303</ele>
        <time>2020-09-12T12:50:19.274Z</time>
      </trkpt>
      <trkpt lat="48.74952" lon="-0.93681">
        <ele>302</ele>
        <time>2020-09-12T12:50:24.272Z</time>
      </trkpt>
      <trkpt lat="48.74997" lon="-0.93704">
        <ele>302</ele>
        <time>2020-09-12T12:50:29.271Z</time>
      </trkpt>
      <trkpt lat="48.75042" lon="-0.93729">
        <ele>301</ele>
        <time>2020-09-12T12:50:34.274Z</time>
      </trkpt>
      <trkpt lat="48.7508" lon="-0.9376">
        <ele>301</ele>
        <time>2020-09-12T12:50:39.273Z</time>
      </trkpt>
      <trkpt lat="48.75116" lon="-0.93788">
        <ele>301</ele>
        <time>2020-09-12T12:50:44.320Z</time>
      </trkpt>
      <trkpt lat="48.7515" lon="-0.93819">
        <ele>301</ele>
        <time>2020-09-12T12:50:49.273Z</time>
      </trkpt>
      <trkpt lat="48.75187" lon="-0.93851">
        <ele>302</ele>
        <time>2020-09-12T12:50:54.269Z</time>
      </trkpt>
      <trkpt lat="48.75224" lon="-0.93887">
        <ele>303</ele>
        <time>2020-09-12T12:50:59.274Z</time>
      </trkpt>
      <trkpt lat="48.75251" lon="-0.93945">
        <ele>304</ele>
        <time>2020-09-12T12:51:04.271Z</time>
      </trkpt>
      <trkpt lat="48.75259" lon="-0.94013">
        <ele>305</ele>
        <time>2020-09-12T12:51:10.281Z</time>
      </trkpt>
      <trkpt lat="48.75264" lon="-0.94065">
        <ele>306</ele>
        <time>2020-09-12T12:51:15.269Z</time>
      </trkpt>
      <trkpt lat="48.7527" lon="-0.94116">
        <ele>307</ele>
        <time>2020-09-12T12:51:20.320Z</time>
      </trkpt>
      <trkpt lat="48.75274" lon="-0.94165">
        <ele>309</ele>
        <time>2020-09-12T12:51:25.270Z</time>
      </trkpt>
      <trkpt lat="48.75278" lon="-0.94213">
        <ele>310</ele>
        <time>2020-09-12T12:51:30.275Z</time>
      </trkpt>
      <trkpt lat="48.75284" lon="-0.94257">
        <ele>311</ele>
        <time>2020-09-12T12:51:34.273Z</time>
      </trkpt>
      <trkpt lat="48.7529" lon="-0.94307">
        <ele>313</ele>
        <time>2020-09-12T12:51:39.273Z</time>
      </trkpt>
      <trkpt lat="48.75298" lon="-0.94359">
        <ele>314</ele>
        <time>2020-09-12T12:51:44.321Z</time>
      </trkpt>
      <trkpt lat="48.75307" lon="-0.9441">
        <ele>316</ele>
        <time>2020-09-12T12:51:49.273Z</time>
      </trkpt>
      <trkpt lat="48.75323" lon="-0.9446">
        <ele>318</ele>
        <time>2020-09-12T12:51:54.274Z</time>
      </trkpt>
      <trkpt lat="48.75345" lon="-0.945">
        <ele>319</ele>
        <time>2020-09-12T12:51:59.271Z</time>
      </trkpt>
      <trkpt lat="48.7537" lon="-0.94535">
        <ele>321</ele>
        <time>2020-09-12T12:52:04.270Z</time>
      </trkpt>
      <trkpt lat="48.75395" lon="-0.94569">
        <ele>322</ele>
        <time>2020-09-12T12:52:09.269Z</time>
      </trkpt>
      <trkpt lat="48.75418" lon="-0.94603">
        <ele>323</ele>
        <time>2020-09-12T12:52:14.322Z</time>
      </trkpt>
      <trkpt lat="48.75444" lon="-0.94638">
        <ele>324</ele>
        <time>2020-09-12T12:52:19.270Z</time>
      </trkpt>
      <trkpt lat="48.75468" lon="-0.94672">
        <ele>326</ele>
        <time>2020-09-12T12:52:24.272Z</time>
      </trkpt>
      <trkpt lat="48.75489" lon="-0.94704">
        <ele>327</ele>
        <time>2020-09-12T12:52:29.277Z</time>
      </trkpt>
      <trkpt lat="48.75507" lon="-0.94735">
        <ele>328</ele>
        <time>2020-09-12T12:52:34.272Z</time>
      </trkpt>
      <trkpt lat="48.75513" lon="-0.94778">
        <ele>329</ele>
        <time>2020-09-12T12:52:39.273Z</time>
      </trkpt>
      <trkpt lat="48.75516" lon="-0.9482">
        <ele>330</ele>
        <time>2020-09-12T12:52:43.269Z</time>
      </trkpt>
      <trkpt lat="48.75519" lon="-0.94861">
        <ele>331</ele>
        <time>2020-09-12T12:52:47.271Z</time>
      </trkpt>
      <trkpt lat="48.75526" lon="-0.94914">
        <ele>332</ele>
        <time>2020-09-12T12:52:52.271Z</time>
      </trkpt>
      <trkpt lat="48.75531" lon="-0.9497">
        <ele>332</ele>
        <time>2020-09-12T12:52:57.270Z</time>
      </trkpt>
      <trkpt lat="48.75538" lon="-0.95026">
        <ele>333</ele>
        <time>2020-09-12T12:53:02.318Z</time>
      </trkpt>
      <trkpt lat="48.75542" lon="-0.95076">
        <ele>334</ele>
        <time>2020-09-12T12:53:07.271Z</time>
      </trkpt>
      <trkpt lat="48.75546" lon="-0.95122">
        <ele>335</ele>
        <time>2020-09-12T12:53:12.274Z</time>
      </trkpt>
      <trkpt lat="48.7555" lon="-0.95164">
        <ele>336</ele>
        <time>2020-09-12T12:53:16.272Z</time>
      </trkpt>
      <trkpt lat="48.75554" lon="-0.95209">
        <ele>336</ele>
        <time>2020-09-12T12:53:20.316Z</time>
      </trkpt>
      <trkpt lat="48.7556" lon="-0.95268">
        <ele>337</ele>
        <time>2020-09-12T12:53:25.272Z</time>
      </trkpt>
      <trkpt lat="48.75567" lon="-0.9533">
        <ele>337</ele>
        <time>2020-09-12T12:53:30.270Z</time>
      </trkpt>
      <trkpt lat="48.75573" lon="-0.95392">
        <ele>338</ele>
        <time>2020-09-12T12:53:35.272Z</time>
      </trkpt>
      <trkpt lat="48.75582" lon="-0.95452">
        <ele>338</ele>
        <time>2020-09-12T12:53:40.269Z</time>
      </trkpt>
      <trkpt lat="48.75591" lon="-0.95509">
        <ele>338</ele>
        <time>2020-09-12T12:53:45.270Z</time>
      </trkpt>
      <trkpt lat="48.75603" lon="-0.95568">
        <ele>338</ele>
        <time>2020-09-12T12:53:50.318Z</time>
      </trkpt>
      <trkpt lat="48.75615" lon="-0.95623">
        <ele>338</ele>
        <time>2020-09-12T12:53:55.271Z</time>
      </trkpt>
      <trkpt lat="48.75631" lon="-0.95674">
        <ele>338</ele>
        <time>2020-09-12T12:54:00.271Z</time>
      </trkpt>
      <trkpt lat="48.75653" lon="-0.95721">
        <ele>338</ele>
        <time>2020-09-12T12:54:05.272Z</time>
      </trkpt>
      <trkpt lat="48.75674" lon="-0.95764">
        <ele>338</ele>
        <time>2020-09-12T12:54:10.284Z</time>
      </trkpt>
      <trkpt lat="48.75695" lon="-0.95808">
        <ele>338</ele>
        <time>2020-09-12T12:54:15.269Z</time>
      </trkpt>
      <trkpt lat="48.75715" lon="-0.95849">
        <ele>339</ele>
        <time>2020-09-12T12:54:20.319Z</time>
      </trkpt>
      <trkpt lat="48.75737" lon="-0.95894">
        <ele>340</ele>
        <time>2020-09-12T12:54:25.269Z</time>
      </trkpt>
      <trkpt lat="48.75761" lon="-0.9594">
        <ele>341</ele>
        <time>2020-09-12T12:54:30.271Z</time>
      </trkpt>
      <trkpt lat="48.75787" lon="-0.95987">
        <ele>342</ele>
        <time>2020-09-12T12:54:35.272Z</time>
      </trkpt>
      <trkpt lat="48.75812" lon="-0.96037">
        <ele>343</ele>
        <time>2020-09-12T12:54:40.274Z</time>
      </trkpt>
      <trkpt lat="48.75835" lon="-0.96087">
        <ele>344</ele>
        <time>2020-09-12T12:54:45.270Z</time>
      </trkpt>
      <trkpt lat="48.75856" lon="-0.96136">
        <ele>344</ele>
        <time>2020-09-12T12:54:50.320Z</time>
      </trkpt>
      <trkpt lat="48.75874" lon="-0.96179">
        <ele>345</ele>
        <time>2020-09-12T12:54:55.272Z</time>
      </trkpt>
      <trkpt lat="48.75891" lon="-0.9622">
        <ele>345</ele>
        <time>2020-09-12T12:55:00.275Z</time>
      </trkpt>
      <trkpt lat="48.75909" lon="-0.96263">
        <ele>346</ele>
        <time>2020-09-12T12:55:05.271Z</time>
      </trkpt>
      <trkpt lat="48.75929" lon="-0.96308">
        <ele>347</ele>
        <time>2020-09-12T12:55:10.278Z</time>
      </trkpt>
      <trkpt lat="48.75949" lon="-0.96353">
        <ele>347</ele>
        <time>2020-09-12T12:55:15.274Z</time>
      </trkpt>
      <trkpt lat="48.75969" lon="-0.96401">
        <ele>348</ele>
        <time>2020-09-12T12:55:20.317Z</time>
      </trkpt>
      <trkpt lat="48.75991" lon="-0.96446">
        <ele>350</ele>
        <time>2020-09-12T12:55:25.271Z</time>
      </trkpt>
      <trkpt lat="48.76012" lon="-0.96498">
        <ele>351</ele>
        <time>2020-09-12T12:55:30.272Z</time>
      </trkpt>
      <trkpt lat="48.76033" lon="-0.96553">
        <ele>353</ele>
        <time>2020-09-12T12:55:35.272Z</time>
      </trkpt>
      <trkpt lat="48.76056" lon="-0.96609">
        <ele>354</ele>
        <time>2020-09-12T12:55:40.272Z</time>
      </trkpt>
      <trkpt lat="48.76078" lon="-0.96662">
        <ele>355</ele>
        <time>2020-09-12T12:55:45.271Z</time>
      </trkpt>
      <trkpt lat="48.76099" lon="-0.96714">
        <ele>356</ele>
        <time>2020-09-12T12:55:50.320Z</time>
      </trkpt>
      <trkpt lat="48.76123" lon="-0.9677">
        <ele>357</ele>
        <time>2020-09-12T12:55:55.272Z</time>
      </trkpt>
      <trkpt lat="48.76146" lon="-0.96819">
        <ele>357</ele>
        <time>2020-09-12T12:55:59.271Z</time>
      </trkpt>
      <trkpt lat="48.76173" lon="-0.96878">
        <ele>358</ele>
        <time>2020-09-12T12:56:04.273Z</time>
      </trkpt>
      <trkpt lat="48.762" lon="-0.96936">
        <ele>358</ele>
        <time>2020-09-12T12:56:09.270Z</time>
      </trkpt>
      <trkpt lat="48.76226" lon="-0.96992">
        <ele>358</ele>
        <time>2020-09-12T12:56:14.320Z</time>
      </trkpt>
      <trkpt lat="48.76254" lon="-0.9705">
        <ele>358</ele>
        <time>2020-09-12T12:56:19.273Z</time>
      </trkpt>
      <trkpt lat="48.76282" lon="-0.97107">
        <ele>358</ele>
        <time>2020-09-12T12:56:24.274Z</time>
      </trkpt>
      <trkpt lat="48.76312" lon="-0.97153">
        <ele>358</ele>
        <time>2020-09-12T12:56:28.271Z</time>
      </trkpt>
      <trkpt lat="48.76349" lon="-0.97206">
        <ele>357</ele>
        <time>2020-09-12T12:56:32.321Z</time>
      </trkpt>
      <trkpt lat="48.76393" lon="-0.97277">
        <ele>356</ele>
        <time>2020-09-12T12:56:37.274Z</time>
      </trkpt>
      <trkpt lat="48.76433" lon="-0.97357">
        <ele>354</ele>
        <time>2020-09-12T12:56:42.280Z</time>
      </trkpt>
      <trkpt lat="48.7647" lon="-0.97443">
        <ele>352</ele>
        <time>2020-09-12T12:56:47.286Z</time>
      </trkpt>
      <trkpt lat="48.76492" lon="-0.97543">
        <ele>349</ele>
        <time>2020-09-12T12:56:53.275Z</time>
      </trkpt>
      <trkpt lat="48.76511" lon="-0.97631">
        <ele>347</ele>
        <time>2020-09-12T12:56:59.274Z</time>
      </trkpt>
      <trkpt lat="48.76522" lon="-0.97704">
        <ele>345</ele>
        <time>2020-09-12T12:57:04.279Z</time>
      </trkpt>
      <trkpt lat="48.7653" lon="-0.9778">
        <ele>344</ele>
        <time>2020-09-12T12:57:10.296Z</time>
      </trkpt>
      <trkpt lat="48.76535" lon="-0.97837">
        <ele>343</ele>
        <time>2020-09-12T12:57:15.287Z</time>
      </trkpt>
      <trkpt lat="48.76541" lon="-0.97896">
        <ele>342</ele>
        <time>2020-09-12T12:57:20.320Z</time>
      </trkpt>
      <trkpt lat="48.76548" lon="-0.97956">
        <ele>342</ele>
        <time>2020-09-12T12:57:25.290Z</time>
      </trkpt>
      <trkpt lat="48.76555" lon="-0.98017">
        <ele>343</ele>
        <time>2020-09-12T12:57:30.272Z</time>
      </trkpt>
      <trkpt lat="48.76563" lon="-0.98084">
        <ele>344</ele>
        <time>2020-09-12T12:57:35.275Z</time>
      </trkpt>
      <trkpt lat="48.76571" lon="-0.9815">
        <ele>344</ele>
        <time>2020-09-12T12:57:40.274Z</time>
      </trkpt>
      <trkpt lat="48.76579" lon="-0.98219">
        <ele>345</ele>
        <time>2020-09-12T12:57:45.274Z</time>
      </trkpt>
      <trkpt lat="48.76589" lon="-0.98288">
        <ele>346</ele>
        <time>2020-09-12T12:57:50.320Z</time>
      </trkpt>
      <trkpt lat="48.76599" lon="-0.98356">
        <ele>346</ele>
        <time>2020-09-12T12:57:55.275Z</time>
      </trkpt>
      <trkpt lat="48.76607" lon="-0.98423">
        <ele>346</ele>
        <time>2020-09-12T12:58:00.274Z</time>
      </trkpt>
      <trkpt lat="48.76612" lon="-0.98489">
        <ele>347</ele>
        <time>2020-09-12T12:58:05.271Z</time>
      </trkpt>
      <trkpt lat="48.76607" lon="-0.98555">
        <ele>347</ele>
        <time>2020-09-12T12:58:10.272Z</time>
      </trkpt>
      <trkpt lat="48.76598" lon="-0.98615">
        <ele>346</ele>
        <time>2020-09-12T12:58:14.323Z</time>
      </trkpt>
      <trkpt lat="48.76585" lon="-0.98679">
        <ele>346</ele>
        <time>2020-09-12T12:58:18.274Z</time>
      </trkpt>
      <trkpt lat="48.76569" lon="-0.98766">
        <ele>344</ele>
        <time>2020-09-12T12:58:23.269Z</time>
      </trkpt>
      <trkpt lat="48.76552" lon="-0.98856">
        <ele>342</ele>
        <time>2020-09-12T12:58:28.270Z</time>
      </trkpt>
      <trkpt lat="48.76534" lon="-0.98948">
        <ele>340</ele>
        <time>2020-09-12T12:58:33.272Z</time>
      </trkpt>
      <trkpt lat="48.76522" lon="-0.99043">
        <ele>338</ele>
        <time>2020-09-12T12:58:38.315Z</time>
      </trkpt>
      <trkpt lat="48.76505" lon="-0.99143">
        <ele>335</ele>
        <time>2020-09-12T12:58:44.322Z</time>
      </trkpt>
      <trkpt lat="48.76491" lon="-0.99231">
        <ele>332</ele>
        <time>2020-09-12T12:58:50.313Z</time>
      </trkpt>
      <trkpt lat="48.76493" lon="-0.99311">
        <ele>330</ele>
        <time>2020-09-12T12:58:55.272Z</time>
      </trkpt>
      <trkpt lat="48.76484" lon="-0.99384">
        <ele>329</ele>
        <time>2020-09-12T12:59:00.275Z</time>
      </trkpt>
      <trkpt lat="48.76481" lon="-0.99462">
        <ele>328</ele>
        <time>2020-09-12T12:59:06.275Z</time>
      </trkpt>
      <trkpt lat="48.76475" lon="-0.99521">
        <ele>329</ele>
        <time>2020-09-12T12:59:11.272Z</time>
      </trkpt>
      <trkpt lat="48.7647" lon="-0.99579">
        <ele>329</ele>
        <time>2020-09-12T12:59:16.273Z</time>
      </trkpt>
      <trkpt lat="48.76466" lon="-0.99634">
        <ele>330</ele>
        <time>2020-09-12T12:59:21.270Z</time>
      </trkpt>
      <trkpt lat="48.76463" lon="-0.99689">
        <ele>332</ele>
        <time>2020-09-12T12:59:26.335Z</time>
      </trkpt>
      <trkpt lat="48.7646" lon="-0.99744">
        <ele>334</ele>
        <time>2020-09-12T12:59:31.260Z</time>
      </trkpt>
      <trkpt lat="48.76453" lon="-0.998">
        <ele>335</ele>
        <time>2020-09-12T12:59:36.275Z</time>
      </trkpt>
      <trkpt lat="48.76447" lon="-0.99849">
        <ele>336</ele>
        <time>2020-09-12T12:59:40.271Z</time>
      </trkpt>
      <trkpt lat="48.76437" lon="-0.99914">
        <ele>338</ele>
        <time>2020-09-12T12:59:45.273Z</time>
      </trkpt>
      <trkpt lat="48.76432" lon="-0.99985">
        <ele>339</ele>
        <time>2020-09-12T12:59:50.318Z</time>
      </trkpt>
      <trkpt lat="48.7643" lon="-1.00053">
        <ele>340</ele>
        <time>2020-09-12T12:59:55.274Z</time>
      </trkpt>
      <trkpt lat="48.76433" lon="-1.0012">
        <ele>341</ele>
        <time>2020-09-12T13:00:00.270Z</time>
      </trkpt>
      <trkpt lat="48.76436" lon="-1.00187">
        <ele>342</ele>
        <time>2020-09-12T13:00:05.274Z</time>
      </trkpt>
      <trkpt lat="48.76441" lon="-1.00256">
        <ele>342</ele>
        <time>2020-09-12T13:00:10.271Z</time>
      </trkpt>
      <trkpt lat="48.76444" lon="-1.00323">
        <ele>342</ele>
        <time>2020-09-12T13:00:15.268Z</time>
      </trkpt>
      <trkpt lat="48.76447" lon="-1.00386">
        <ele>342</ele>
        <time>2020-09-12T13:00:20.317Z</time>
      </trkpt>
      <trkpt lat="48.7645" lon="-1.00445">
        <ele>342</ele>
        <time>2020-09-12T13:00:25.274Z</time>
      </trkpt>
      <trkpt lat="48.76452" lon="-1.00503">
        <ele>343</ele>
        <time>2020-09-12T13:00:30.275Z</time>
      </trkpt>
      <trkpt lat="48.76455" lon="-1.00563">
        <ele>343</ele>
        <time>2020-09-12T13:00:35.273Z</time>
      </trkpt>
      <trkpt lat="48.76456" lon="-1.00627">
        <ele>343</ele>
        <time>2020-09-12T13:00:40.272Z</time>
      </trkpt>
      <trkpt lat="48.76457" lon="-1.00693">
        <ele>344</ele>
        <time>2020-09-12T13:00:45.271Z</time>
      </trkpt>
      <trkpt lat="48.76458" lon="-1.00759">
        <ele>344</ele>
        <time>2020-09-12T13:00:50.318Z</time>
      </trkpt>
      <trkpt lat="48.76459" lon="-1.00824">
        <ele>345</ele>
        <time>2020-09-12T13:00:55.255Z</time>
      </trkpt>
      <trkpt lat="48.76464" lon="-1.00894">
        <ele>345</ele>
        <time>2020-09-12T13:01:00.271Z</time>
      </trkpt>
      <trkpt lat="48.76478" lon="-1.00965">
        <ele>346</ele>
        <time>2020-09-12T13:01:05.274Z</time>
      </trkpt>
      <trkpt lat="48.76491" lon="-1.0104">
        <ele>345</ele>
        <time>2020-09-12T13:01:10.276Z</time>
      </trkpt>
      <trkpt lat="48.76497" lon="-1.01117">
        <ele>345</ele>
        <time>2020-09-12T13:01:15.262Z</time>
      </trkpt>
      <trkpt lat="48.76501" lon="-1.01195">
        <ele>344</ele>
        <time>2020-09-12T13:01:20.320Z</time>
      </trkpt>
      <trkpt lat="48.76508" lon="-1.01271">
        <ele>343</ele>
        <time>2020-09-12T13:01:25.272Z</time>
      </trkpt>
      <trkpt lat="48.76515" lon="-1.01346">
        <ele>342</ele>
        <time>2020-09-12T13:01:30.278Z</time>
      </trkpt>
      <trkpt lat="48.76521" lon="-1.01422">
        <ele>341</ele>
        <time>2020-09-12T13:01:35.264Z</time>
      </trkpt>
      <trkpt lat="48.76531" lon="-1.01498">
        <ele>339</ele>
        <time>2020-09-12T13:01:40.275Z</time>
      </trkpt>
      <trkpt lat="48.76541" lon="-1.01572">
        <ele>338</ele>
        <time>2020-09-12T13:01:45.271Z</time>
      </trkpt>
      <trkpt lat="48.76547" lon="-1.01647">
        <ele>336</ele>
        <time>2020-09-12T13:01:50.321Z</time>
      </trkpt>
      <trkpt lat="48.76554" lon="-1.01724">
        <ele>335</ele>
        <time>2020-09-12T13:01:55.274Z</time>
      </trkpt>
      <trkpt lat="48.76561" lon="-1.01801">
        <ele>333</ele>
        <time>2020-09-12T13:02:01.274Z</time>
      </trkpt>
      <trkpt lat="48.76566" lon="-1.01845">
        <ele>332</ele>
        <time>2020-09-12T13:02:09.280Z</time>
      </trkpt>
      <trkpt lat="48.7657" lon="-1.0185">
        <ele>330</ele>
        <time>2020-09-12T13:02:28.273Z</time>
      </trkpt>
      <trkpt lat="48.7657" lon="-1.0185">
        <ele>330</ele>
        <time>2020-09-12T13:08:40.272Z</time>
      </trkpt>
      <trkpt lat="48.76569" lon="-1.01887">
        <ele>331</ele>
        <time>2020-09-12T13:08:41.279Z</time>
      </trkpt>
      <trkpt lat="48.7657" lon="-1.019">
        <ele>331</ele>
        <time>2020-09-12T13:08:43.275Z</time>
      </trkpt>
      <trkpt lat="48.76571" lon="-1.01916">
        <ele>331</ele>
        <time>2020-09-12T13:08:45.270Z</time>
      </trkpt>
      <trkpt lat="48.76572" lon="-1.01943">
        <ele>331</ele>
        <time>2020-09-12T13:08:48.272Z</time>
      </trkpt>
      <trkpt lat="48.76575" lon="-1.01982">
        <ele>330</ele>
        <time>2020-09-12T13:08:52.269Z</time>
      </trkpt>
      <trkpt lat="48.7658" lon="-1.02024">
        <ele>330</ele>
        <time>2020-09-12T13:08:56.316Z</time>
      </trkpt>
      <trkpt lat="48.76579" lon="-1.02077">
        <ele>329</ele>
        <time>2020-09-12T13:09:01.272Z</time>
      </trkpt>
      <trkpt lat="48.76566" lon="-1.0213">
        <ele>328</ele>
        <time>2020-09-12T13:09:06.276Z</time>
      </trkpt>
      <trkpt lat="48.76542" lon="-1.02171">
        <ele>328</ele>
        <time>2020-09-12T13:09:11.276Z</time>
      </trkpt>
      <trkpt lat="48.76513" lon="-1.02203">
        <ele>327</ele>
        <time>2020-09-12T13:09:16.274Z</time>
      </trkpt>
      <trkpt lat="48.76483" lon="-1.02234">
        <ele>327</ele>
        <time>2020-09-12T13:09:21.278Z</time>
      </trkpt>
      <trkpt lat="48.76452" lon="-1.02266">
        <ele>326</ele>
        <time>2020-09-12T13:09:26.326Z</time>
      </trkpt>
      <trkpt lat="48.7642" lon="-1.02299">
        <ele>326</ele>
        <time>2020-09-12T13:09:31.273Z</time>
      </trkpt>
      <trkpt lat="48.76389" lon="-1.02331">
        <ele>326</ele>
        <time>2020-09-12T13:09:36.276Z</time>
      </trkpt>
      <trkpt lat="48.76359" lon="-1.02365">
        <ele>327</ele>
        <time>2020-09-12T13:09:41.276Z</time>
      </trkpt>
      <trkpt lat="48.76329" lon="-1.024">
        <ele>328</ele>
        <time>2020-09-12T13:09:46.275Z</time>
      </trkpt>
      <trkpt lat="48.76305" lon="-1.02441">
        <ele>329</ele>
        <time>2020-09-12T13:09:51.269Z</time>
      </trkpt>
      <trkpt lat="48.76282" lon="-1.02487">
        <ele>330</ele>
        <time>2020-09-12T13:09:56.336Z</time>
      </trkpt>
      <trkpt lat="48.76262" lon="-1.02541">
        <ele>330</ele>
        <time>2020-09-12T13:10:01.272Z</time>
      </trkpt>
      <trkpt lat="48.76246" lon="-1.02592">
        <ele>330</ele>
        <time>2020-09-12T13:10:05.271Z</time>
      </trkpt>
      <trkpt lat="48.76233" lon="-1.02664">
        <ele>329</ele>
        <time>2020-09-12T13:10:10.271Z</time>
      </trkpt>
      <trkpt lat="48.76228" lon="-1.02736">
        <ele>328</ele>
        <time>2020-09-12T13:10:15.273Z</time>
      </trkpt>
      <trkpt lat="48.76218" lon="-1.02807">
        <ele>327</ele>
        <time>2020-09-12T13:10:20.329Z</time>
      </trkpt>
      <trkpt lat="48.76205" lon="-1.02881">
        <ele>325</ele>
        <time>2020-09-12T13:10:25.269Z</time>
      </trkpt>
      <trkpt lat="48.76194" lon="-1.02949">
        <ele>322</ele>
        <time>2020-09-12T13:10:30.275Z</time>
      </trkpt>
      <trkpt lat="48.76187" lon="-1.03016">
        <ele>319</ele>
        <time>2020-09-12T13:10:36.274Z</time>
      </trkpt>
      <trkpt lat="48.76193" lon="-1.0306">
        <ele>315</ele>
        <time>2020-09-12T13:10:43.269Z</time>
      </trkpt>
      <trkpt lat="48.76216" lon="-1.03072">
        <ele>313</ele>
        <time>2020-09-12T13:10:48.273Z</time>
      </trkpt>
      <trkpt lat="48.76235" lon="-1.03085">
        <ele>311</ele>
        <time>2020-09-12T13:10:52.273Z</time>
      </trkpt>
      <trkpt lat="48.76254" lon="-1.031">
        <ele>311</ele>
        <time>2020-09-12T13:10:56.307Z</time>
      </trkpt>
      <trkpt lat="48.76271" lon="-1.03122">
        <ele>310</ele>
        <time>2020-09-12T13:11:00.273Z</time>
      </trkpt>
      <trkpt lat="48.76288" lon="-1.03147">
        <ele>310</ele>
        <time>2020-09-12T13:11:04.272Z</time>
      </trkpt>
      <trkpt lat="48.76307" lon="-1.03172">
        <ele>310</ele>
        <time>2020-09-12T13:11:08.320Z</time>
      </trkpt>
      <trkpt lat="48.7633" lon="-1.03199">
        <ele>310</ele>
        <time>2020-09-12T13:11:12.282Z</time>
      </trkpt>
      <trkpt lat="48.76356" lon="-1.03228">
        <ele>310</ele>
        <time>2020-09-12T13:11:17.274Z</time>
      </trkpt>
      <trkpt lat="48.76382" lon="-1.03252">
        <ele>311</ele>
        <time>2020-09-12T13:11:22.275Z</time>
      </trkpt>
      <trkpt lat="48.76408" lon="-1.03272">
        <ele>312</ele>
        <time>2020-09-12T13:11:27.274Z</time>
      </trkpt>
      <trkpt lat="48.76439" lon="-1.03288">
        <ele>312</ele>
        <time>2020-09-12T13:11:32.323Z</time>
      </trkpt>
      <trkpt lat="48.76467" lon="-1.03298">
        <ele>313</ele>
        <time>2020-09-12T13:11:36.273Z</time>
      </trkpt>
      <trkpt lat="48.76498" lon="-1.03304">
        <ele>313</ele>
        <time>2020-09-12T13:11:41.271Z</time>
      </trkpt>
      <trkpt lat="48.76529" lon="-1.03307">
        <ele>314</ele>
        <time>2020-09-12T13:11:46.268Z</time>
      </trkpt>
      <trkpt lat="48.76556" lon="-1.03311">
        <ele>315</ele>
        <time>2020-09-12T13:11:50.319Z</time>
      </trkpt>
      <trkpt lat="48.76588" lon="-1.0332">
        <ele>316</ele>
        <time>2020-09-12T13:11:55.271Z</time>
      </trkpt>
      <trkpt lat="48.76616" lon="-1.03328">
        <ele>317</ele>
        <time>2020-09-12T13:12:00.274Z</time>
      </trkpt>
      <trkpt lat="48.76643" lon="-1.03333">
        <ele>319</ele>
        <time>2020-09-12T13:12:05.275Z</time>
      </trkpt>
      <trkpt lat="48.76667" lon="-1.03338">
        <ele>320</ele>
        <time>2020-09-12T13:12:10.268Z</time>
      </trkpt>
      <trkpt lat="48.76691" lon="-1.03339">
        <ele>322</ele>
        <time>2020-09-12T13:12:15.272Z</time>
      </trkpt>
      <trkpt lat="48.76713" lon="-1.03339">
        <ele>323</ele>
        <time>2020-09-12T13:12:20.319Z</time>
      </trkpt>
      <trkpt lat="48.76733" lon="-1.03342">
        <ele>324</ele>
        <time>2020-09-12T13:12:24.277Z</time>
      </trkpt>
      <trkpt lat="48.76752" lon="-1.03345">
        <ele>326</ele>
        <time>2020-09-12T13:12:28.272Z</time>
      </trkpt>
      <trkpt lat="48.76776" lon="-1.03351">
        <ele>327</ele>
        <time>2020-09-12T13:12:33.270Z</time>
      </trkpt>
      <trkpt lat="48.76796" lon="-1.03356">
        <ele>329</ele>
        <time>2020-09-12T13:12:37.270Z</time>
      </trkpt>
      <trkpt lat="48.76821" lon="-1.03359">
        <ele>331</ele>
        <time>2020-09-12T13:12:42.271Z</time>
      </trkpt>
      <trkpt lat="48.76844" lon="-1.03365">
        <ele>333</ele>
        <time>2020-09-12T13:12:46.270Z</time>
      </trkpt>
      <trkpt lat="48.76869" lon="-1.03369">
        <ele>335</ele>
        <time>2020-09-12T13:12:50.309Z</time>
      </trkpt>
      <trkpt lat="48.76899" lon="-1.03377">
        <ele>338</ele>
        <time>2020-09-12T13:12:55.273Z</time>
      </trkpt>
      <trkpt lat="48.76927" lon="-1.03384">
        <ele>341</ele>
        <time>2020-09-12T13:12:59.274Z</time>
      </trkpt>
      <trkpt lat="48.76962" lon="-1.03398">
        <ele>343</ele>
        <time>2020-09-12T13:13:03.272Z</time>
      </trkpt>
      <trkpt lat="48.76998" lon="-1.03417">
        <ele>346</ele>
        <time>2020-09-12T13:13:07.279Z</time>
      </trkpt>
      <trkpt lat="48.77037" lon="-1.03452">
        <ele>349</ele>
        <time>2020-09-12T13:13:12.271Z</time>
      </trkpt>
      <trkpt lat="48.77069" lon="-1.03514">
        <ele>351</ele>
        <time>2020-09-12T13:13:17.268Z</time>
      </trkpt>
      <trkpt lat="48.77095" lon="-1.0359">
        <ele>353</ele>
        <time>2020-09-12T13:13:22.273Z</time>
      </trkpt>
      <trkpt lat="48.77125" lon="-1.03649">
        <ele>354</ele>
        <time>2020-09-12T13:13:27.273Z</time>
      </trkpt>
      <trkpt lat="48.77166" lon="-1.03696">
        <ele>353</ele>
        <time>2020-09-12T13:13:32.320Z</time>
      </trkpt>
      <trkpt lat="48.77204" lon="-1.03748">
        <ele>351</ele>
        <time>2020-09-12T13:13:37.272Z</time>
      </trkpt>
      <trkpt lat="48.77246" lon="-1.03803">
        <ele>348</ele>
        <time>2020-09-12T13:13:42.272Z</time>
      </trkpt>
      <trkpt lat="48.77285" lon="-1.03864">
        <ele>343</ele>
        <time>2020-09-12T13:13:47.274Z</time>
      </trkpt>
      <trkpt lat="48.77325" lon="-1.03924">
        <ele>338</ele>
        <time>2020-09-12T13:13:52.270Z</time>
      </trkpt>
      <trkpt lat="48.77367" lon="-1.03987">
        <ele>334</ele>
        <time>2020-09-12T13:13:57.272Z</time>
      </trkpt>
      <trkpt lat="48.77407" lon="-1.04051">
        <ele>329</ele>
        <time>2020-09-12T13:14:02.319Z</time>
      </trkpt>
      <trkpt lat="48.77453" lon="-1.04114">
        <ele>324</ele>
        <time>2020-09-12T13:14:07.272Z</time>
      </trkpt>
      <trkpt lat="48.77499" lon="-1.0418">
        <ele>320</ele>
        <time>2020-09-12T13:14:12.274Z</time>
      </trkpt>
      <trkpt lat="48.77546" lon="-1.04255">
        <ele>317</ele>
        <time>2020-09-12T13:14:18.271Z</time>
      </trkpt>
      <trkpt lat="48.77585" lon="-1.04316">
        <ele>316</ele>
        <time>2020-09-12T13:14:23.274Z</time>
      </trkpt>
      <trkpt lat="48.77623" lon="-1.04377">
        <ele>315</ele>
        <time>2020-09-12T13:14:28.270Z</time>
      </trkpt>
      <trkpt lat="48.77656" lon="-1.0446">
        <ele>314</ele>
        <time>2020-09-12T13:14:33.271Z</time>
      </trkpt>
      <trkpt lat="48.77682" lon="-1.04561">
        <ele>312</ele>
        <time>2020-09-12T13:14:38.317Z</time>
      </trkpt>
      <trkpt lat="48.77709" lon="-1.04653">
        <ele>307</ele>
        <time>2020-09-12T13:14:43.274Z</time>
      </trkpt>
      <trkpt lat="48.77733" lon="-1.04748">
        <ele>303</ele>
        <time>2020-09-12T13:14:48.274Z</time>
      </trkpt>
      <trkpt lat="48.77764" lon="-1.04843">
        <ele>298</ele>
        <time>2020-09-12T13:14:53.274Z</time>
      </trkpt>
      <trkpt lat="48.77797" lon="-1.04936">
        <ele>292</ele>
        <time>2020-09-12T13:14:58.270Z</time>
      </trkpt>
      <trkpt lat="48.77852" lon="-1.04994">
        <ele>286</ele>
        <time>2020-09-12T13:15:03.272Z</time>
      </trkpt>
      <trkpt lat="48.77892" lon="-1.05088">
        <ele>279</ele>
        <time>2020-09-12T13:15:09.274Z</time>
      </trkpt>
      <trkpt lat="48.7791" lon="-1.05173">
        <ele>273</ele>
        <time>2020-09-12T13:15:14.318Z</time>
      </trkpt>
      <trkpt lat="48.77908" lon="-1.05248">
        <ele>267</ele>
        <time>2020-09-12T13:15:20.315Z</time>
      </trkpt>
      <trkpt lat="48.77887" lon="-1.05294">
        <ele>263</ele>
        <time>2020-09-12T13:15:26.334Z</time>
      </trkpt>
      <trkpt lat="48.77857" lon="-1.05322">
        <ele>261</ele>
        <time>2020-09-12T13:15:31.271Z</time>
      </trkpt>
      <trkpt lat="48.77831" lon="-1.05363">
        <ele>260</ele>
        <time>2020-09-12T13:15:36.272Z</time>
      </trkpt>
      <trkpt lat="48.77818" lon="-1.05417">
        <ele>259</ele>
        <time>2020-09-12T13:15:41.272Z</time>
      </trkpt>
      <trkpt lat="48.77809" lon="-1.05471">
        <ele>258</ele>
        <time>2020-09-12T13:15:46.270Z</time>
      </trkpt>
      <trkpt lat="48.77802" lon="-1.05519">
        <ele>257</ele>
        <time>2020-09-12T13:15:51.280Z</time>
      </trkpt>
      <trkpt lat="48.77797" lon="-1.05565">
        <ele>257</ele>
        <time>2020-09-12T13:15:56.334Z</time>
      </trkpt>
      <trkpt lat="48.77794" lon="-1.05614">
        <ele>257</ele>
        <time>2020-09-12T13:16:01.270Z</time>
      </trkpt>
      <trkpt lat="48.77794" lon="-1.05656">
        <ele>257</ele>
        <time>2020-09-12T13:16:05.273Z</time>
      </trkpt>
      <trkpt lat="48.77804" lon="-1.05709">
        <ele>258</ele>
        <time>2020-09-12T13:16:10.266Z</time>
      </trkpt>
      <trkpt lat="48.77825" lon="-1.05757">
        <ele>258</ele>
        <time>2020-09-12T13:16:15.270Z</time>
      </trkpt>
      <trkpt lat="48.77849" lon="-1.05802">
        <ele>258</ele>
        <time>2020-09-12T13:16:20.320Z</time>
      </trkpt>
      <trkpt lat="48.77875" lon="-1.05844">
        <ele>259</ele>
        <time>2020-09-12T13:16:25.272Z</time>
      </trkpt>
      <trkpt lat="48.77905" lon="-1.05872">
        <ele>260</ele>
        <time>2020-09-12T13:16:30.272Z</time>
      </trkpt>
      <trkpt lat="48.77935" lon="-1.05896">
        <ele>261</ele>
        <time>2020-09-12T13:16:36.271Z</time>
      </trkpt>
      <trkpt lat="48.7796" lon="-1.05915">
        <ele>262</ele>
        <time>2020-09-12T13:16:41.275Z</time>
      </trkpt>
      <trkpt lat="48.77985" lon="-1.05938">
        <ele>263</ele>
        <time>2020-09-12T13:16:46.272Z</time>
      </trkpt>
      <trkpt lat="48.78006" lon="-1.05968">
        <ele>264</ele>
        <time>2020-09-12T13:16:51.276Z</time>
      </trkpt>
      <trkpt lat="48.78022" lon="-1.06006">
        <ele>265</ele>
        <time>2020-09-12T13:16:56.335Z</time>
      </trkpt>
      <trkpt lat="48.78035" lon="-1.06039">
        <ele>266</ele>
        <time>2020-09-12T13:17:00.276Z</time>
      </trkpt>
      <trkpt lat="48.7805" lon="-1.06083">
        <ele>267</ele>
        <time>2020-09-12T13:17:05.271Z</time>
      </trkpt>
      <trkpt lat="48.78067" lon="-1.06124">
        <ele>268</ele>
        <time>2020-09-12T13:17:10.272Z</time>
      </trkpt>
      <trkpt lat="48.78092" lon="-1.06151">
        <ele>268</ele>
        <time>2020-09-12T13:17:15.273Z</time>
      </trkpt>
      <trkpt lat="48.78121" lon="-1.06165">
        <ele>269</ele>
        <time>2020-09-12T13:17:20.317Z</time>
      </trkpt>
      <trkpt lat="48.78149" lon="-1.06178">
        <ele>270</ele>
        <time>2020-09-12T13:17:25.270Z</time>
      </trkpt>
      <trkpt lat="48.78179" lon="-1.06191">
        <ele>271</ele>
        <time>2020-09-12T13:17:30.275Z</time>
      </trkpt>
      <trkpt lat="48.78209" lon="-1.06205">
        <ele>272</ele>
        <time>2020-09-12T13:17:35.272Z</time>
      </trkpt>
      <trkpt lat="48.78241" lon="-1.06219">
        <ele>273</ele>
        <time>2020-09-12T13:17:40.279Z</time>
      </trkpt>
      <trkpt lat="48.78269" lon="-1.06234">
        <ele>273</ele>
        <time>2020-09-12T13:17:44.319Z</time>
      </trkpt>
      <trkpt lat="48.78299" lon="-1.06252">
        <ele>274</ele>
        <time>2020-09-12T13:17:48.271Z</time>
      </trkpt>
      <trkpt lat="48.78332" lon="-1.06271">
        <ele>274</ele>
        <time>2020-09-12T13:17:52.270Z</time>
      </trkpt>
      <trkpt lat="48.78367" lon="-1.0632">
        <ele>274</ele>
        <time>2020-09-12T13:17:57.273Z</time>
      </trkpt>
      <trkpt lat="48.78397" lon="-1.06373">
        <ele>273</ele>
        <time>2020-09-12T13:18:02.319Z</time>
      </trkpt>
      <trkpt lat="48.78428" lon="-1.06429">
        <ele>272</ele>
        <time>2020-09-12T13:18:08.318Z</time>
      </trkpt>
      <trkpt lat="48.78451" lon="-1.06481">
        <ele>271</ele>
        <time>2020-09-12T13:18:14.319Z</time>
      </trkpt>
      <trkpt lat="48.78469" lon="-1.06523">
        <ele>270</ele>
        <time>2020-09-12T13:18:19.272Z</time>
      </trkpt>
      <trkpt lat="48.78482" lon="-1.06566">
        <ele>269</ele>
        <time>2020-09-12T13:18:24.270Z</time>
      </trkpt>
      <trkpt lat="48.7848" lon="-1.06616">
        <ele>269</ele>
        <time>2020-09-12T13:18:29.272Z</time>
      </trkpt>
      <trkpt lat="48.78471" lon="-1.06658">
        <ele>269</ele>
        <time>2020-09-12T13:18:33.272Z</time>
      </trkpt>
      <trkpt lat="48.7846" lon="-1.06708">
        <ele>269</ele>
        <time>2020-09-12T13:18:38.320Z</time>
      </trkpt>
      <trkpt lat="48.78447" lon="-1.06757">
        <ele>269</ele>
        <time>2020-09-12T13:18:43.272Z</time>
      </trkpt>
      <trkpt lat="48.7843" lon="-1.06805">
        <ele>269</ele>
        <time>2020-09-12T13:18:48.275Z</time>
      </trkpt>
      <trkpt lat="48.78406" lon="-1.06852">
        <ele>270</ele>
        <time>2020-09-12T13:18:53.274Z</time>
      </trkpt>
      <trkpt lat="48.78387" lon="-1.06901">
        <ele>271</ele>
        <time>2020-09-12T13:18:58.273Z</time>
      </trkpt>
      <trkpt lat="48.78388" lon="-1.06956">
        <ele>271</ele>
        <time>2020-09-12T13:19:03.273Z</time>
      </trkpt>
      <trkpt lat="48.78398" lon="-1.07005">
        <ele>271</ele>
        <time>2020-09-12T13:19:08.319Z</time>
      </trkpt>
      <trkpt lat="48.78413" lon="-1.07045">
        <ele>272</ele>
        <time>2020-09-12T13:19:13.274Z</time>
      </trkpt>
      <trkpt lat="48.78437" lon="-1.07067">
        <ele>273</ele>
        <time>2020-09-12T13:19:18.277Z</time>
      </trkpt>
      <trkpt lat="48.78464" lon="-1.07088">
        <ele>274</ele>
        <time>2020-09-12T13:19:23.275Z</time>
      </trkpt>
      <trkpt lat="48.78487" lon="-1.0711">
        <ele>274</ele>
        <time>2020-09-12T13:19:27.280Z</time>
      </trkpt>
      <trkpt lat="48.78515" lon="-1.07143">
        <ele>275</ele>
        <time>2020-09-12T13:19:32.318Z</time>
      </trkpt>
      <trkpt lat="48.78539" lon="-1.07173">
        <ele>276</ele>
        <time>2020-09-12T13:19:36.274Z</time>
      </trkpt>
      <trkpt lat="48.78569" lon="-1.07211">
        <ele>276</ele>
        <time>2020-09-12T13:19:41.274Z</time>
      </trkpt>
      <trkpt lat="48.78599" lon="-1.0725">
        <ele>276</ele>
        <time>2020-09-12T13:19:46.272Z</time>
      </trkpt>
      <trkpt lat="48.78619" lon="-1.07301">
        <ele>276</ele>
        <time>2020-09-12T13:19:51.276Z</time>
      </trkpt>
      <trkpt lat="48.78625" lon="-1.07352">
        <ele>277</ele>
        <time>2020-09-12T13:19:56.337Z</time>
      </trkpt>
      <trkpt lat="48.78629" lon="-1.07399">
        <ele>277</ele>
        <time>2020-09-12T13:20:01.276Z</time>
      </trkpt>
      <trkpt lat="48.78633" lon="-1.07446">
        <ele>277</ele>
        <time>2020-09-12T13:20:06.274Z</time>
      </trkpt>
      <trkpt lat="48.78637" lon="-1.07489">
        <ele>277</ele>
        <time>2020-09-12T13:20:11.270Z</time>
      </trkpt>
      <trkpt lat="48.78639" lon="-1.07525">
        <ele>277</ele>
        <time>2020-09-12T13:20:17.271Z</time>
      </trkpt>
      <trkpt lat="48.78621" lon="-1.07542">
        <ele>277</ele>
        <time>2020-09-12T13:20:22.274Z</time>
      </trkpt>
      <trkpt lat="48.78601" lon="-1.07554">
        <ele>278</ele>
        <time>2020-09-12T13:20:26.321Z</time>
      </trkpt>
      <trkpt lat="48.7858" lon="-1.07566">
        <ele>279</ele>
        <time>2020-09-12T13:20:30.273Z</time>
      </trkpt>
      <trkpt lat="48.78554" lon="-1.07581">
        <ele>280</ele>
        <time>2020-09-12T13:20:35.270Z</time>
      </trkpt>
      <trkpt lat="48.78527" lon="-1.07596">
        <ele>281</ele>
        <time>2020-09-12T13:20:40.274Z</time>
      </trkpt>
      <trkpt lat="48.78502" lon="-1.07611">
        <ele>282</ele>
        <time>2020-09-12T13:20:45.273Z</time>
      </trkpt>
      <trkpt lat="48.78477" lon="-1.07626">
        <ele>283</ele>
        <time>2020-09-12T13:20:50.318Z</time>
      </trkpt>
      <trkpt lat="48.78456" lon="-1.07637">
        <ele>283</ele>
        <time>2020-09-12T13:20:54.287Z</time>
      </trkpt>
      <trkpt lat="48.78429" lon="-1.07652">
        <ele>283</ele>
        <time>2020-09-12T13:20:59.273Z</time>
      </trkpt>
      <trkpt lat="48.78406" lon="-1.07661">
        <ele>283</ele>
        <time>2020-09-12T13:21:03.274Z</time>
      </trkpt>
      <trkpt lat="48.7838" lon="-1.0767">
        <ele>283</ele>
        <time>2020-09-12T13:21:07.274Z</time>
      </trkpt>
      <trkpt lat="48.78351" lon="-1.0768">
        <ele>283</ele>
        <time>2020-09-12T13:21:11.272Z</time>
      </trkpt>
      <trkpt lat="48.7832" lon="-1.07692">
        <ele>282</ele>
        <time>2020-09-12T13:21:15.269Z</time>
      </trkpt>
      <trkpt lat="48.7828" lon="-1.07703">
        <ele>281</ele>
        <time>2020-09-12T13:21:20.318Z</time>
      </trkpt>
      <trkpt lat="48.78239" lon="-1.07713">
        <ele>280</ele>
        <time>2020-09-12T13:21:25.272Z</time>
      </trkpt>
      <trkpt lat="48.78197" lon="-1.07723">
        <ele>279</ele>
        <time>2020-09-12T13:21:30.273Z</time>
      </trkpt>
      <trkpt lat="48.78154" lon="-1.07736">
        <ele>278</ele>
        <time>2020-09-12T13:21:35.273Z</time>
      </trkpt>
      <trkpt lat="48.7811" lon="-1.07744">
        <ele>277</ele>
        <time>2020-09-12T13:21:40.274Z</time>
      </trkpt>
      <trkpt lat="48.78071" lon="-1.0774">
        <ele>276</ele>
        <time>2020-09-12T13:21:45.274Z</time>
      </trkpt>
      <trkpt lat="48.78035" lon="-1.07734">
        <ele>275</ele>
        <time>2020-09-12T13:21:50.317Z</time>
      </trkpt>
      <trkpt lat="48.78" lon="-1.07732">
        <ele>275</ele>
        <time>2020-09-12T13:21:55.272Z</time>
      </trkpt>
      <trkpt lat="48.77964" lon="-1.07731">
        <ele>275</ele>
        <time>2020-09-12T13:22:00.270Z</time>
      </trkpt>
      <trkpt lat="48.77928" lon="-1.07728">
        <ele>276</ele>
        <time>2020-09-12T13:22:05.274Z</time>
      </trkpt>
      <trkpt lat="48.77891" lon="-1.07727">
        <ele>277</ele>
        <time>2020-09-12T13:22:10.268Z</time>
      </trkpt>
      <trkpt lat="48.77853" lon="-1.07725">
        <ele>278</ele>
        <time>2020-09-12T13:22:15.273Z</time>
      </trkpt>
      <trkpt lat="48.77818" lon="-1.0772">
        <ele>279</ele>
        <time>2020-09-12T13:22:20.323Z</time>
      </trkpt>
      <trkpt lat="48.77782" lon="-1.07718">
        <ele>280</ele>
        <time>2020-09-12T13:22:25.278Z</time>
      </trkpt>
      <trkpt lat="48.77746" lon="-1.07713">
        <ele>281</ele>
        <time>2020-09-12T13:22:30.287Z</time>
      </trkpt>
      <trkpt lat="48.7771" lon="-1.07699">
        <ele>282</ele>
        <time>2020-09-12T13:22:35.273Z</time>
      </trkpt>
      <trkpt lat="48.77677" lon="-1.07682">
        <ele>283</ele>
        <time>2020-09-12T13:22:40.271Z</time>
      </trkpt>
      <trkpt lat="48.77642" lon="-1.07664">
        <ele>283</ele>
        <time>2020-09-12T13:22:45.276Z</time>
      </trkpt>
      <trkpt lat="48.77604" lon="-1.07646">
        <ele>283</ele>
        <time>2020-09-12T13:22:50.317Z</time>
      </trkpt>
      <trkpt lat="48.77561" lon="-1.07633">
        <ele>282</ele>
        <time>2020-09-12T13:22:55.273Z</time>
      </trkpt>
      <trkpt lat="48.77521" lon="-1.07624">
        <ele>281</ele>
        <time>2020-09-12T13:22:59.276Z</time>
      </trkpt>
      <trkpt lat="48.77479" lon="-1.07612">
        <ele>280</ele>
        <time>2020-09-12T13:23:03.273Z</time>
      </trkpt>
      <trkpt lat="48.77427" lon="-1.07598">
        <ele>279</ele>
        <time>2020-09-12T13:23:08.321Z</time>
      </trkpt>
      <trkpt lat="48.77369" lon="-1.07584">
        <ele>277</ele>
        <time>2020-09-12T13:23:13.270Z</time>
      </trkpt>
      <trkpt lat="48.77308" lon="-1.07571">
        <ele>276</ele>
        <time>2020-09-12T13:23:18.272Z</time>
      </trkpt>
      <trkpt lat="48.7725" lon="-1.07566">
        <ele>274</ele>
        <time>2020-09-12T13:23:23.272Z</time>
      </trkpt>
      <trkpt lat="48.77196" lon="-1.07582">
        <ele>273</ele>
        <time>2020-09-12T13:23:28.272Z</time>
      </trkpt>
      <trkpt lat="48.77146" lon="-1.07628">
        <ele>271</ele>
        <time>2020-09-12T13:23:33.273Z</time>
      </trkpt>
      <trkpt lat="48.771" lon="-1.07679">
        <ele>269</ele>
        <time>2020-09-12T13:23:38.319Z</time>
      </trkpt>
      <trkpt lat="48.77055" lon="-1.07741">
        <ele>267</ele>
        <time>2020-09-12T13:23:43.276Z</time>
      </trkpt>
      <trkpt lat="48.77052" lon="-1.0783">
        <ele>265</ele>
        <time>2020-09-12T13:23:48.273Z</time>
      </trkpt>
      <trkpt lat="48.77065" lon="-1.07923">
        <ele>262</ele>
        <time>2020-09-12T13:23:54.274Z</time>
      </trkpt>
      <trkpt lat="48.77075" lon="-1.08004">
        <ele>260</ele>
        <time>2020-09-12T13:24:00.272Z</time>
      </trkpt>
      <trkpt lat="48.77084" lon="-1.08057">
        <ele>257</ele>
        <time>2020-09-12T13:24:07.271Z</time>
      </trkpt>
      <trkpt lat="48.77111" lon="-1.08058">
        <ele>256</ele>
        <time>2020-09-12T13:24:13.274Z</time>
      </trkpt>
      <trkpt lat="48.77131" lon="-1.08064">
        <ele>256</ele>
        <time>2020-09-12T13:24:17.276Z</time>
      </trkpt>
      <trkpt lat="48.77151" lon="-1.08081">
        <ele>256</ele>
        <time>2020-09-12T13:24:21.275Z</time>
      </trkpt>
      <trkpt lat="48.7717" lon="-1.08104">
        <ele>257</ele>
        <time>2020-09-12T13:24:25.275Z</time>
      </trkpt>
      <trkpt lat="48.7719" lon="-1.08131">
        <ele>258</ele>
        <time>2020-09-12T13:24:29.273Z</time>
      </trkpt>
      <trkpt lat="48.77215" lon="-1.08166">
        <ele>260</ele>
        <time>2020-09-12T13:24:34.272Z</time>
      </trkpt>
      <trkpt lat="48.7724" lon="-1.08199">
        <ele>262</ele>
        <time>2020-09-12T13:24:39.272Z</time>
      </trkpt>
      <trkpt lat="48.77266" lon="-1.08231">
        <ele>264</ele>
        <time>2020-09-12T13:24:44.317Z</time>
      </trkpt>
      <trkpt lat="48.77291" lon="-1.08261">
        <ele>265</ele>
        <time>2020-09-12T13:24:49.274Z</time>
      </trkpt>
      <trkpt lat="48.77316" lon="-1.08288">
        <ele>267</ele>
        <time>2020-09-12T13:24:54.274Z</time>
      </trkpt>
      <trkpt lat="48.77345" lon="-1.08313">
        <ele>267</ele>
        <time>2020-09-12T13:24:59.272Z</time>
      </trkpt>
      <trkpt lat="48.77372" lon="-1.08338">
        <ele>267</ele>
        <time>2020-09-12T13:25:04.276Z</time>
      </trkpt>
      <trkpt lat="48.77402" lon="-1.08366">
        <ele>267</ele>
        <time>2020-09-12T13:25:09.275Z</time>
      </trkpt>
      <trkpt lat="48.77433" lon="-1.08398">
        <ele>267</ele>
        <time>2020-09-12T13:25:14.308Z</time>
      </trkpt>
      <trkpt lat="48.77462" lon="-1.0843">
        <ele>266</ele>
        <time>2020-09-12T13:25:19.270Z</time>
      </trkpt>
      <trkpt lat="48.77489" lon="-1.0846">
        <ele>265</ele>
        <time>2020-09-12T13:25:24.272Z</time>
      </trkpt>
      <trkpt lat="48.77513" lon="-1.0849">
        <ele>265</ele>
        <time>2020-09-12T13:25:29.274Z</time>
      </trkpt>
      <trkpt lat="48.77537" lon="-1.08518">
        <ele>265</ele>
        <time>2020-09-12T13:25:34.273Z</time>
      </trkpt>
      <trkpt lat="48.77561" lon="-1.08546">
        <ele>266</ele>
        <time>2020-09-12T13:25:39.273Z</time>
      </trkpt>
      <trkpt lat="48.77583" lon="-1.08577">
        <ele>267</ele>
        <time>2020-09-12T13:25:44.319Z</time>
      </trkpt>
      <trkpt lat="48.77605" lon="-1.08607">
        <ele>268</ele>
        <time>2020-09-12T13:25:49.271Z</time>
      </trkpt>
      <trkpt lat="48.77626" lon="-1.08635">
        <ele>269</ele>
        <time>2020-09-12T13:25:54.274Z</time>
      </trkpt>
      <trkpt lat="48.77643" lon="-1.08665">
        <ele>270</ele>
        <time>2020-09-12T13:25:58.276Z</time>
      </trkpt>
      <trkpt lat="48.77662" lon="-1.08704">
        <ele>271</ele>
        <time>2020-09-12T13:26:02.327Z</time>
      </trkpt>
      <trkpt lat="48.7768" lon="-1.08748">
        <ele>272</ele>
        <time>2020-09-12T13:26:06.281Z</time>
      </trkpt>
      <trkpt lat="48.77706" lon="-1.08808">
        <ele>272</ele>
        <time>2020-09-12T13:26:11.279Z</time>
      </trkpt>
      <trkpt lat="48.77732" lon="-1.0886">
        <ele>272</ele>
        <time>2020-09-12T13:26:15.274Z</time>
      </trkpt>
      <trkpt lat="48.77765" lon="-1.08927">
        <ele>272</ele>
        <time>2020-09-12T13:26:20.319Z</time>
      </trkpt>
      <trkpt lat="48.77795" lon="-1.09003">
        <ele>271</ele>
        <time>2020-09-12T13:26:26.337Z</time>
      </trkpt>
      <trkpt lat="48.77801" lon="-1.09075">
        <ele>270</ele>
        <time>2020-09-12T13:26:32.331Z</time>
      </trkpt>
      <trkpt lat="48.77807" lon="-1.09134">
        <ele>269</ele>
        <time>2020-09-12T13:26:38.321Z</time>
      </trkpt>
      <trkpt lat="48.77817" lon="-1.09179">
        <ele>268</ele>
        <time>2020-09-12T13:26:43.275Z</time>
      </trkpt>
      <trkpt lat="48.77833" lon="-1.09222">
        <ele>268</ele>
        <time>2020-09-12T13:26:48.292Z</time>
      </trkpt>
      <trkpt lat="48.77854" lon="-1.0926">
        <ele>268</ele>
        <time>2020-09-12T13:26:53.274Z</time>
      </trkpt>
      <trkpt lat="48.77877" lon="-1.09292">
        <ele>269</ele>
        <time>2020-09-12T13:26:58.272Z</time>
      </trkpt>
      <trkpt lat="48.77904" lon="-1.09317">
        <ele>270</ele>
        <time>2020-09-12T13:27:03.277Z</time>
      </trkpt>
      <trkpt lat="48.77931" lon="-1.09342">
        <ele>272</ele>
        <time>2020-09-12T13:27:08.316Z</time>
      </trkpt>
      <trkpt lat="48.77955" lon="-1.09365">
        <ele>274</ele>
        <time>2020-09-12T13:27:12.275Z</time>
      </trkpt>
      <trkpt lat="48.7798" lon="-1.09387">
        <ele>275</ele>
        <time>2020-09-12T13:27:16.276Z</time>
      </trkpt>
      <trkpt lat="48.7801" lon="-1.09414">
        <ele>277</ele>
        <time>2020-09-12T13:27:21.274Z</time>
      </trkpt>
      <trkpt lat="48.78039" lon="-1.09443">
        <ele>279</ele>
        <time>2020-09-12T13:27:26.334Z</time>
      </trkpt>
      <trkpt lat="48.78067" lon="-1.09475">
        <ele>280</ele>
        <time>2020-09-12T13:27:31.274Z</time>
      </trkpt>
      <trkpt lat="48.78095" lon="-1.09509">
        <ele>281</ele>
        <time>2020-09-12T13:27:36.276Z</time>
      </trkpt>
      <trkpt lat="48.78122" lon="-1.09541">
        <ele>282</ele>
        <time>2020-09-12T13:27:41.273Z</time>
      </trkpt>
      <trkpt lat="48.78145" lon="-1.09572">
        <ele>283</ele>
        <time>2020-09-12T13:27:46.275Z</time>
      </trkpt>
      <trkpt lat="48.78166" lon="-1.09607">
        <ele>284</ele>
        <time>2020-09-12T13:27:51.263Z</time>
      </trkpt>
      <trkpt lat="48.78184" lon="-1.09647">
        <ele>284</ele>
        <time>2020-09-12T13:27:56.331Z</time>
      </trkpt>
      <trkpt lat="48.78199" lon="-1.0969">
        <ele>285</ele>
        <time>2020-09-12T13:28:01.271Z</time>
      </trkpt>
      <trkpt lat="48.78214" lon="-1.09732">
        <ele>285</ele>
        <time>2020-09-12T13:28:06.271Z</time>
      </trkpt>
      <trkpt lat="48.78228" lon="-1.09773">
        <ele>286</ele>
        <time>2020-09-12T13:28:11.264Z</time>
      </trkpt>
      <trkpt lat="48.78243" lon="-1.09813">
        <ele>287</ele>
        <time>2020-09-12T13:28:16.275Z</time>
      </trkpt>
      <trkpt lat="48.78262" lon="-1.09854">
        <ele>288</ele>
        <time>2020-09-12T13:28:21.275Z</time>
      </trkpt>
      <trkpt lat="48.78279" lon="-1.09889">
        <ele>288</ele>
        <time>2020-09-12T13:28:25.277Z</time>
      </trkpt>
      <trkpt lat="48.78298" lon="-1.09928">
        <ele>288</ele>
        <time>2020-09-12T13:28:29.275Z</time>
      </trkpt>
      <trkpt lat="48.78317" lon="-1.0997">
        <ele>289</ele>
        <time>2020-09-12T13:28:33.275Z</time>
      </trkpt>
      <trkpt lat="48.7834" lon="-1.10017">
        <ele>288</ele>
        <time>2020-09-12T13:28:37.278Z</time>
      </trkpt>
      <trkpt lat="48.78369" lon="-1.10079">
        <ele>288</ele>
        <time>2020-09-12T13:28:42.278Z</time>
      </trkpt>
      <trkpt lat="48.78401" lon="-1.10147">
        <ele>287</ele>
        <time>2020-09-12T13:28:47.273Z</time>
      </trkpt>
      <trkpt lat="48.78434" lon="-1.10217">
        <ele>287</ele>
        <time>2020-09-12T13:28:52.272Z</time>
      </trkpt>
      <trkpt lat="48.78467" lon="-1.10288">
        <ele>285</ele>
        <time>2020-09-12T13:28:57.274Z</time>
      </trkpt>
      <trkpt lat="48.785" lon="-1.10359">
        <ele>284</ele>
        <time>2020-09-12T13:29:02.322Z</time>
      </trkpt>
      <trkpt lat="48.78532" lon="-1.10435">
        <ele>282</ele>
        <time>2020-09-12T13:29:07.273Z</time>
      </trkpt>
      <trkpt lat="48.78558" lon="-1.10511">
        <ele>280</ele>
        <time>2020-09-12T13:29:12.277Z</time>
      </trkpt>
      <trkpt lat="48.78581" lon="-1.10581">
        <ele>279</ele>
        <time>2020-09-12T13:29:17.308Z</time>
      </trkpt>
      <trkpt lat="48.78606" lon="-1.10649">
        <ele>277</ele>
        <time>2020-09-12T13:29:22.276Z</time>
      </trkpt>
      <trkpt lat="48.78626" lon="-1.10711">
        <ele>275</ele>
        <time>2020-09-12T13:29:27.272Z</time>
      </trkpt>
      <trkpt lat="48.78646" lon="-1.10767">
        <ele>274</ele>
        <time>2020-09-12T13:29:32.334Z</time>
      </trkpt>
      <trkpt lat="48.78663" lon="-1.10818">
        <ele>273</ele>
        <time>2020-09-12T13:29:37.272Z</time>
      </trkpt>
      <trkpt lat="48.78682" lon="-1.10869">
        <ele>273</ele>
        <time>2020-09-12T13:29:43.277Z</time>
      </trkpt>
      <trkpt lat="48.78693" lon="-1.10908">
        <ele>273</ele>
        <time>2020-09-12T13:29:48.276Z</time>
      </trkpt>
      <trkpt lat="48.78698" lon="-1.10949">
        <ele>274</ele>
        <time>2020-09-12T13:29:53.272Z</time>
      </trkpt>
      <trkpt lat="48.78711" lon="-1.10984">
        <ele>275</ele>
        <time>2020-09-12T13:29:57.285Z</time>
      </trkpt>
      <trkpt lat="48.78721" lon="-1.11021">
        <ele>276</ele>
        <time>2020-09-12T13:30:01.273Z</time>
      </trkpt>
      <trkpt lat="48.78737" lon="-1.11069">
        <ele>276</ele>
        <time>2020-09-12T13:30:06.275Z</time>
      </trkpt>
      <trkpt lat="48.78762" lon="-1.11109">
        <ele>277</ele>
        <time>2020-09-12T13:30:11.273Z</time>
      </trkpt>
      <trkpt lat="48.78789" lon="-1.11142">
        <ele>278</ele>
        <time>2020-09-12T13:30:15.276Z</time>
      </trkpt>
      <trkpt lat="48.7882" lon="-1.1118">
        <ele>278</ele>
        <time>2020-09-12T13:30:19.274Z</time>
      </trkpt>
      <trkpt lat="48.78857" lon="-1.11229">
        <ele>278</ele>
        <time>2020-09-12T13:30:24.279Z</time>
      </trkpt>
      <trkpt lat="48.78895" lon="-1.11282">
        <ele>278</ele>
        <time>2020-09-12T13:30:29.273Z</time>
      </trkpt>
      <trkpt lat="48.78933" lon="-1.11332">
        <ele>277</ele>
        <time>2020-09-12T13:30:34.277Z</time>
      </trkpt>
      <trkpt lat="48.78968" lon="-1.11386">
        <ele>275</ele>
        <time>2020-09-12T13:30:39.277Z</time>
      </trkpt>
      <trkpt lat="48.79" lon="-1.1144">
        <ele>275</ele>
        <time>2020-09-12T13:30:44.317Z</time>
      </trkpt>
      <trkpt lat="48.79025" lon="-1.11494">
        <ele>274</ele>
        <time>2020-09-12T13:30:49.276Z</time>
      </trkpt>
      <trkpt lat="48.79047" lon="-1.11546">
        <ele>274</ele>
        <time>2020-09-12T13:30:54.275Z</time>
      </trkpt>
      <trkpt lat="48.79069" lon="-1.11602">
        <ele>273</ele>
        <time>2020-09-12T13:30:59.275Z</time>
      </trkpt>
      <trkpt lat="48.79088" lon="-1.11663">
        <ele>273</ele>
        <time>2020-09-12T13:31:04.272Z</time>
      </trkpt>
      <trkpt lat="48.79101" lon="-1.11735">
        <ele>272</ele>
        <time>2020-09-12T13:31:09.273Z</time>
      </trkpt>
      <trkpt lat="48.79121" lon="-1.11812">
        <ele>272</ele>
        <time>2020-09-12T13:31:14.323Z</time>
      </trkpt>
      <trkpt lat="48.79154" lon="-1.1187">
        <ele>272</ele>
        <time>2020-09-12T13:31:18.258Z</time>
      </trkpt>
      <trkpt lat="48.79208" lon="-1.11928">
        <ele>271</ele>
        <time>2020-09-12T13:31:23.284Z</time>
      </trkpt>
      <trkpt lat="48.79259" lon="-1.12003">
        <ele>270</ele>
        <time>2020-09-12T13:31:28.274Z</time>
      </trkpt>
      <trkpt lat="48.79288" lon="-1.12092">
        <ele>267</ele>
        <time>2020-09-12T13:31:33.271Z</time>
      </trkpt>
      <trkpt lat="48.79299" lon="-1.12196">
        <ele>264</ele>
        <time>2020-09-12T13:31:39.273Z</time>
      </trkpt>
      <trkpt lat="48.79306" lon="-1.12278">
        <ele>262</ele>
        <time>2020-09-12T13:31:44.314Z</time>
      </trkpt>
      <trkpt lat="48.79315" lon="-1.12362">
        <ele>259</ele>
        <time>2020-09-12T13:31:49.272Z</time>
      </trkpt>
      <trkpt lat="48.79338" lon="-1.12446">
        <ele>256</ele>
        <time>2020-09-12T13:31:54.277Z</time>
      </trkpt>
      <trkpt lat="48.79378" lon="-1.1251">
        <ele>254</ele>
        <time>2020-09-12T13:31:59.275Z</time>
      </trkpt>
      <trkpt lat="48.79421" lon="-1.12564">
        <ele>252</ele>
        <time>2020-09-12T13:32:04.272Z</time>
      </trkpt>
      <trkpt lat="48.79469" lon="-1.12617">
        <ele>250</ele>
        <time>2020-09-12T13:32:09.274Z</time>
      </trkpt>
      <trkpt lat="48.79511" lon="-1.12671">
        <ele>248</ele>
        <time>2020-09-12T13:32:14.314Z</time>
      </trkpt>
      <trkpt lat="48.79553" lon="-1.12731">
        <ele>247</ele>
        <time>2020-09-12T13:32:19.279Z</time>
      </trkpt>
      <trkpt lat="48.79571" lon="-1.12818">
        <ele>246</ele>
        <time>2020-09-12T13:32:24.274Z</time>
      </trkpt>
      <trkpt lat="48.79576" lon="-1.12901">
        <ele>244</ele>
        <time>2020-09-12T13:32:29.273Z</time>
      </trkpt>
      <trkpt lat="48.79582" lon="-1.12983">
        <ele>243</ele>
        <time>2020-09-12T13:32:34.272Z</time>
      </trkpt>
      <trkpt lat="48.79597" lon="-1.13064">
        <ele>242</ele>
        <time>2020-09-12T13:32:39.271Z</time>
      </trkpt>
      <trkpt lat="48.7962" lon="-1.13145">
        <ele>241</ele>
        <time>2020-09-12T13:32:44.317Z</time>
      </trkpt>
      <trkpt lat="48.79646" lon="-1.13225">
        <ele>240</ele>
        <time>2020-09-12T13:32:49.274Z</time>
      </trkpt>
      <trkpt lat="48.79668" lon="-1.13304">
        <ele>239</ele>
        <time>2020-09-12T13:32:54.276Z</time>
      </trkpt>
      <trkpt lat="48.79687" lon="-1.13381">
        <ele>237</ele>
        <time>2020-09-12T13:32:59.276Z</time>
      </trkpt>
      <trkpt lat="48.79703" lon="-1.13458">
        <ele>236</ele>
        <time>2020-09-12T13:33:04.274Z</time>
      </trkpt>
      <trkpt lat="48.79716" lon="-1.13535">
        <ele>235</ele>
        <time>2020-09-12T13:33:09.275Z</time>
      </trkpt>
      <trkpt lat="48.79731" lon="-1.13619">
        <ele>234</ele>
        <time>2020-09-12T13:33:14.315Z</time>
      </trkpt>
      <trkpt lat="48.79739" lon="-1.13703">
        <ele>233</ele>
        <time>2020-09-12T13:33:19.274Z</time>
      </trkpt>
      <trkpt lat="48.79721" lon="-1.13778">
        <ele>232</ele>
        <time>2020-09-12T13:33:24.274Z</time>
      </trkpt>
      <trkpt lat="48.79711" lon="-1.1386">
        <ele>230</ele>
        <time>2020-09-12T13:33:29.274Z</time>
      </trkpt>
      <trkpt lat="48.7969" lon="-1.13937">
        <ele>229</ele>
        <time>2020-09-12T13:33:34.277Z</time>
      </trkpt>
      <trkpt lat="48.79676" lon="-1.14014">
        <ele>228</ele>
        <time>2020-09-12T13:33:39.276Z</time>
      </trkpt>
      <trkpt lat="48.79664" lon="-1.14088">
        <ele>226</ele>
        <time>2020-09-12T13:33:44.316Z</time>
      </trkpt>
      <trkpt lat="48.79651" lon="-1.14163">
        <ele>225</ele>
        <time>2020-09-12T13:33:49.275Z</time>
      </trkpt>
      <trkpt lat="48.79638" lon="-1.14233">
        <ele>224</ele>
        <time>2020-09-12T13:33:54.275Z</time>
      </trkpt>
      <trkpt lat="48.79628" lon="-1.14303">
        <ele>223</ele>
        <time>2020-09-12T13:33:59.278Z</time>
      </trkpt>
      <trkpt lat="48.79617" lon="-1.14371">
        <ele>222</ele>
        <time>2020-09-12T13:34:04.274Z</time>
      </trkpt>
      <trkpt lat="48.79606" lon="-1.14434">
        <ele>222</ele>
        <time>2020-09-12T13:34:09.273Z</time>
      </trkpt>
      <trkpt lat="48.796" lon="-1.14497">
        <ele>222</ele>
        <time>2020-09-12T13:34:14.316Z</time>
      </trkpt>
      <trkpt lat="48.79597" lon="-1.14558">
        <ele>222</ele>
        <time>2020-09-12T13:34:19.270Z</time>
      </trkpt>
      <trkpt lat="48.796" lon="-1.14617">
        <ele>223</ele>
        <time>2020-09-12T13:34:24.271Z</time>
      </trkpt>
      <trkpt lat="48.79616" lon="-1.14674">
        <ele>224</ele>
        <time>2020-09-12T13:34:29.272Z</time>
      </trkpt>
      <trkpt lat="48.79659" lon="-1.14703">
        <ele>226</ele>
        <time>2020-09-12T13:34:34.271Z</time>
      </trkpt>
      <trkpt lat="48.79703" lon="-1.14724">
        <ele>227</ele>
        <time>2020-09-12T13:34:39.275Z</time>
      </trkpt>
      <trkpt lat="48.79746" lon="-1.14743">
        <ele>228</ele>
        <time>2020-09-12T13:34:44.313Z</time>
      </trkpt>
      <trkpt lat="48.79787" lon="-1.1476">
        <ele>229</ele>
        <time>2020-09-12T13:34:49.268Z</time>
      </trkpt>
      <trkpt lat="48.79829" lon="-1.14782">
        <ele>230</ele>
        <time>2020-09-12T13:34:54.281Z</time>
      </trkpt>
      <trkpt lat="48.79872" lon="-1.14801">
        <ele>230</ele>
        <time>2020-09-12T13:34:59.274Z</time>
      </trkpt>
      <trkpt lat="48.79914" lon="-1.14823">
        <ele>230</ele>
        <time>2020-09-12T13:35:04.277Z</time>
      </trkpt>
      <trkpt lat="48.79962" lon="-1.14842">
        <ele>230</ele>
        <time>2020-09-12T13:35:09.264Z</time>
      </trkpt>
      <trkpt lat="48.80007" lon="-1.14867">
        <ele>230</ele>
        <time>2020-09-12T13:35:14.301Z</time>
      </trkpt>
      <trkpt lat="48.80046" lon="-1.14893">
        <ele>229</ele>
        <time>2020-09-12T13:35:19.273Z</time>
      </trkpt>
      <trkpt lat="48.80086" lon="-1.14923">
        <ele>228</ele>
        <time>2020-09-12T13:35:24.290Z</time>
      </trkpt>
      <trkpt lat="48.80127" lon="-1.14951">
        <ele>228</ele>
        <time>2020-09-12T13:35:29.275Z</time>
      </trkpt>
      <trkpt lat="48.8017" lon="-1.14974">
        <ele>227</ele>
        <time>2020-09-12T13:35:34.273Z</time>
      </trkpt>
      <trkpt lat="48.80212" lon="-1.14994">
        <ele>227</ele>
        <time>2020-09-12T13:35:39.272Z</time>
      </trkpt>
      <trkpt lat="48.80251" lon="-1.15006">
        <ele>227</ele>
        <time>2020-09-12T13:35:44.311Z</time>
      </trkpt>
      <trkpt lat="48.80285" lon="-1.15017">
        <ele>228</ele>
        <time>2020-09-12T13:35:49.277Z</time>
      </trkpt>
      <trkpt lat="48.80324" lon="-1.15026">
        <ele>228</ele>
        <time>2020-09-12T13:35:54.272Z</time>
      </trkpt>
      <trkpt lat="48.80357" lon="-1.15034">
        <ele>228</ele>
        <time>2020-09-12T13:35:58.270Z</time>
      </trkpt>
      <trkpt lat="48.80398" lon="-1.15046">
        <ele>229</ele>
        <time>2020-09-12T13:36:03.272Z</time>
      </trkpt>
      <trkpt lat="48.80439" lon="-1.1506">
        <ele>230</ele>
        <time>2020-09-12T13:36:08.314Z</time>
      </trkpt>
      <trkpt lat="48.80475" lon="-1.15078">
        <ele>230</ele>
        <time>2020-09-12T13:36:13.271Z</time>
      </trkpt>
      <trkpt lat="48.8051" lon="-1.15108">
        <ele>231</ele>
        <time>2020-09-12T13:36:18.269Z</time>
      </trkpt>
      <trkpt lat="48.80544" lon="-1.15144">
        <ele>231</ele>
        <time>2020-09-12T13:36:23.274Z</time>
      </trkpt>
      <trkpt lat="48.80578" lon="-1.1518">
        <ele>232</ele>
        <time>2020-09-12T13:36:28.272Z</time>
      </trkpt>
      <trkpt lat="48.80608" lon="-1.15216">
        <ele>233</ele>
        <time>2020-09-12T13:36:33.274Z</time>
      </trkpt>
      <trkpt lat="48.80639" lon="-1.15251">
        <ele>234</ele>
        <time>2020-09-12T13:36:38.303Z</time>
      </trkpt>
      <trkpt lat="48.80672" lon="-1.15288">
        <ele>235</ele>
        <time>2020-09-12T13:36:43.274Z</time>
      </trkpt>
      <trkpt lat="48.80708" lon="-1.15327">
        <ele>235</ele>
        <time>2020-09-12T13:36:48.269Z</time>
      </trkpt>
      <trkpt lat="48.80748" lon="-1.15369">
        <ele>236</ele>
        <time>2020-09-12T13:36:53.274Z</time>
      </trkpt>
      <trkpt lat="48.80784" lon="-1.15411">
        <ele>236</ele>
        <time>2020-09-12T13:36:58.267Z</time>
      </trkpt>
      <trkpt lat="48.80822" lon="-1.15449">
        <ele>236</ele>
        <time>2020-09-12T13:37:03.275Z</time>
      </trkpt>
      <trkpt lat="48.80864" lon="-1.15476">
        <ele>237</ele>
        <time>2020-09-12T13:37:08.314Z</time>
      </trkpt>
      <trkpt lat="48.80906" lon="-1.15505">
        <ele>237</ele>
        <time>2020-09-12T13:37:13.279Z</time>
      </trkpt>
      <trkpt lat="48.80946" lon="-1.15542">
        <ele>237</ele>
        <time>2020-09-12T13:37:18.261Z</time>
      </trkpt>
      <trkpt lat="48.80983" lon="-1.15584">
        <ele>237</ele>
        <time>2020-09-12T13:37:23.271Z</time>
      </trkpt>
      <trkpt lat="48.81015" lon="-1.15633">
        <ele>237</ele>
        <time>2020-09-12T13:37:28.272Z</time>
      </trkpt>
      <trkpt lat="48.81049" lon="-1.15692">
        <ele>236</ele>
        <time>2020-09-12T13:37:33.272Z</time>
      </trkpt>
      <trkpt lat="48.81066" lon="-1.15765">
        <ele>236</ele>
        <time>2020-09-12T13:37:38.305Z</time>
      </trkpt>
      <trkpt lat="48.81069" lon="-1.15838">
        <ele>236</ele>
        <time>2020-09-12T13:37:43.270Z</time>
      </trkpt>
      <trkpt lat="48.81074" lon="-1.15913">
        <ele>237</ele>
        <time>2020-09-12T13:37:49.271Z</time>
      </trkpt>
      <trkpt lat="48.81081" lon="-1.15971">
        <ele>237</ele>
        <time>2020-09-12T13:37:54.273Z</time>
      </trkpt>
      <trkpt lat="48.81089" lon="-1.16027">
        <ele>237</ele>
        <time>2020-09-12T13:37:59.270Z</time>
      </trkpt>
      <trkpt lat="48.81097" lon="-1.16086">
        <ele>237</ele>
        <time>2020-09-12T13:38:04.273Z</time>
      </trkpt>
      <trkpt lat="48.81106" lon="-1.16146">
        <ele>237</ele>
        <time>2020-09-12T13:38:09.270Z</time>
      </trkpt>
      <trkpt lat="48.81119" lon="-1.16204">
        <ele>237</ele>
        <time>2020-09-12T13:38:14.310Z</time>
      </trkpt>
      <trkpt lat="48.81132" lon="-1.16263">
        <ele>237</ele>
        <time>2020-09-12T13:38:19.272Z</time>
      </trkpt>
      <trkpt lat="48.81142" lon="-1.16334">
        <ele>237</ele>
        <time>2020-09-12T13:38:24.271Z</time>
      </trkpt>
      <trkpt lat="48.81149" lon="-1.16398">
        <ele>237</ele>
        <time>2020-09-12T13:38:28.277Z</time>
      </trkpt>
      <trkpt lat="48.81158" lon="-1.16471">
        <ele>236</ele>
        <time>2020-09-12T13:38:32.320Z</time>
      </trkpt>
      <trkpt lat="48.81168" lon="-1.1656">
        <ele>235</ele>
        <time>2020-09-12T13:38:37.271Z</time>
      </trkpt>
      <trkpt lat="48.81176" lon="-1.16645">
        <ele>233</ele>
        <time>2020-09-12T13:38:43.274Z</time>
      </trkpt>
      <trkpt lat="48.81211" lon="-1.16682">
        <ele>231</ele>
        <time>2020-09-12T13:38:50.314Z</time>
      </trkpt>
      <trkpt lat="48.81248" lon="-1.1667">
        <ele>229</ele>
        <time>2020-09-12T13:38:55.272Z</time>
      </trkpt>
      <trkpt lat="48.81279" lon="-1.16684">
        <ele>227</ele>
        <time>2020-09-12T13:39:00.272Z</time>
      </trkpt>
      <trkpt lat="48.81307" lon="-1.16728">
        <ele>225</ele>
        <time>2020-09-12T13:39:05.270Z</time>
      </trkpt>
      <trkpt lat="48.81328" lon="-1.16782">
        <ele>224</ele>
        <time>2020-09-12T13:39:10.275Z</time>
      </trkpt>
      <trkpt lat="48.81334" lon="-1.16839">
        <ele>222</ele>
        <time>2020-09-12T13:39:14.320Z</time>
      </trkpt>
      <trkpt lat="48.81337" lon="-1.16909">
        <ele>221</ele>
        <time>2020-09-12T13:39:19.272Z</time>
      </trkpt>
      <trkpt lat="48.81345" lon="-1.1698">
        <ele>220</ele>
        <time>2020-09-12T13:39:24.272Z</time>
      </trkpt>
      <trkpt lat="48.81362" lon="-1.17049">
        <ele>219</ele>
        <time>2020-09-12T13:39:29.274Z</time>
      </trkpt>
      <trkpt lat="48.81381" lon="-1.17126">
        <ele>218</ele>
        <time>2020-09-12T13:39:34.272Z</time>
      </trkpt>
      <trkpt lat="48.81416" lon="-1.17203">
        <ele>216</ele>
        <time>2020-09-12T13:39:39.272Z</time>
      </trkpt>
      <trkpt lat="48.81462" lon="-1.17254">
        <ele>214</ele>
        <time>2020-09-12T13:39:44.315Z</time>
      </trkpt>
      <trkpt lat="48.81513" lon="-1.17299">
        <ele>212</ele>
        <time>2020-09-12T13:39:50.314Z</time>
      </trkpt>
      <trkpt lat="48.81558" lon="-1.17349">
        <ele>210</ele>
        <time>2020-09-12T13:39:55.274Z</time>
      </trkpt>
      <trkpt lat="48.81604" lon="-1.17388">
        <ele>207</ele>
        <time>2020-09-12T13:39:59.272Z</time>
      </trkpt>
      <trkpt lat="48.81663" lon="-1.17429">
        <ele>204</ele>
        <time>2020-09-12T13:40:04.277Z</time>
      </trkpt>
      <trkpt lat="48.81702" lon="-1.17503">
        <ele>201</ele>
        <time>2020-09-12T13:40:11.264Z</time>
      </trkpt>
      <trkpt lat="48.81731" lon="-1.17561">
        <ele>198</ele>
        <time>2020-09-12T13:40:17.272Z</time>
      </trkpt>
      <trkpt lat="48.81761" lon="-1.176">
        <ele>197</ele>
        <time>2020-09-12T13:40:22.274Z</time>
      </trkpt>
      <trkpt lat="48.81786" lon="-1.17636">
        <ele>196</ele>
        <time>2020-09-12T13:40:27.274Z</time>
      </trkpt>
      <trkpt lat="48.81811" lon="-1.1767">
        <ele>196</ele>
        <time>2020-09-12T13:40:32.323Z</time>
      </trkpt>
      <trkpt lat="48.8183" lon="-1.1772">
        <ele>196</ele>
        <time>2020-09-12T13:40:37.272Z</time>
      </trkpt>
      <trkpt lat="48.81852" lon="-1.1776">
        <ele>196</ele>
        <time>2020-09-12T13:40:41.272Z</time>
      </trkpt>
      <trkpt lat="48.81892" lon="-1.1779">
        <ele>197</ele>
        <time>2020-09-12T13:40:46.271Z</time>
      </trkpt>
      <trkpt lat="48.81932" lon="-1.17817">
        <ele>199</ele>
        <time>2020-09-12T13:40:51.274Z</time>
      </trkpt>
      <trkpt lat="48.81969" lon="-1.17857">
        <ele>200</ele>
        <time>2020-09-12T13:40:56.337Z</time>
      </trkpt>
      <trkpt lat="48.8201" lon="-1.17878">
        <ele>200</ele>
        <time>2020-09-12T13:41:00.268Z</time>
      </trkpt>
      <trkpt lat="48.8206" lon="-1.17889">
        <ele>200</ele>
        <time>2020-09-12T13:41:04.272Z</time>
      </trkpt>
      <trkpt lat="48.82122" lon="-1.17911">
        <ele>199</ele>
        <time>2020-09-12T13:41:09.272Z</time>
      </trkpt>
      <trkpt lat="48.82175" lon="-1.1796">
        <ele>197</ele>
        <time>2020-09-12T13:41:15.272Z</time>
      </trkpt>
      <trkpt lat="48.82214" lon="-1.18">
        <ele>195</ele>
        <time>2020-09-12T13:41:21.273Z</time>
      </trkpt>
      <trkpt lat="48.82248" lon="-1.18028">
        <ele>194</ele>
        <time>2020-09-12T13:41:27.274Z</time>
      </trkpt>
      <trkpt lat="48.8228" lon="-1.18047">
        <ele>192</ele>
        <time>2020-09-12T13:41:32.322Z</time>
      </trkpt>
      <trkpt lat="48.82312" lon="-1.18066">
        <ele>190</ele>
        <time>2020-09-12T13:41:37.272Z</time>
      </trkpt>
      <trkpt lat="48.82338" lon="-1.18081">
        <ele>188</ele>
        <time>2020-09-12T13:41:43.275Z</time>
      </trkpt>
      <trkpt lat="48.8236" lon="-1.18098">
        <ele>187</ele>
        <time>2020-09-12T13:41:47.277Z</time>
      </trkpt>
      <trkpt lat="48.82383" lon="-1.18117">
        <ele>187</ele>
        <time>2020-09-12T13:41:51.271Z</time>
      </trkpt>
      <trkpt lat="48.82407" lon="-1.1814">
        <ele>186</ele>
        <time>2020-09-12T13:41:55.270Z</time>
      </trkpt>
      <trkpt lat="48.82434" lon="-1.18175">
        <ele>186</ele>
        <time>2020-09-12T13:42:00.271Z</time>
      </trkpt>
      <trkpt lat="48.82458" lon="-1.18213">
        <ele>186</ele>
        <time>2020-09-12T13:42:05.274Z</time>
      </trkpt>
      <trkpt lat="48.82477" lon="-1.18252">
        <ele>185</ele>
        <time>2020-09-12T13:42:10.272Z</time>
      </trkpt>
      <trkpt lat="48.82497" lon="-1.18291">
        <ele>185</ele>
        <time>2020-09-12T13:42:15.274Z</time>
      </trkpt>
      <trkpt lat="48.8252" lon="-1.18324">
        <ele>185</ele>
        <time>2020-09-12T13:42:20.317Z</time>
      </trkpt>
      <trkpt lat="48.8255" lon="-1.18338">
        <ele>185</ele>
        <time>2020-09-12T13:42:25.270Z</time>
      </trkpt>
      <trkpt lat="48.82581" lon="-1.18355">
        <ele>185</ele>
        <time>2020-09-12T13:42:30.273Z</time>
      </trkpt>
      <trkpt lat="48.82608" lon="-1.1837">
        <ele>185</ele>
        <time>2020-09-12T13:42:35.280Z</time>
      </trkpt>
      <trkpt lat="48.82635" lon="-1.18388">
        <ele>186</ele>
        <time>2020-09-12T13:42:40.270Z</time>
      </trkpt>
      <trkpt lat="48.82661" lon="-1.1841">
        <ele>186</ele>
        <time>2020-09-12T13:42:45.275Z</time>
      </trkpt>
      <trkpt lat="48.82685" lon="-1.18434">
        <ele>187</ele>
        <time>2020-09-12T13:42:50.316Z</time>
      </trkpt>
      <trkpt lat="48.82708" lon="-1.18456">
        <ele>188</ele>
        <time>2020-09-12T13:42:55.273Z</time>
      </trkpt>
      <trkpt lat="48.82732" lon="-1.18479">
        <ele>190</ele>
        <time>2020-09-12T13:43:00.271Z</time>
      </trkpt>
      <trkpt lat="48.82754" lon="-1.18501">
        <ele>191</ele>
        <time>2020-09-12T13:43:05.274Z</time>
      </trkpt>
      <trkpt lat="48.82774" lon="-1.18531">
        <ele>193</ele>
        <time>2020-09-12T13:43:10.272Z</time>
      </trkpt>
      <trkpt lat="48.82787" lon="-1.18564">
        <ele>194</ele>
        <time>2020-09-12T13:43:14.315Z</time>
      </trkpt>
      <trkpt lat="48.82803" lon="-1.18599">
        <ele>195</ele>
        <time>2020-09-12T13:43:18.276Z</time>
      </trkpt>
      <trkpt lat="48.82824" lon="-1.18643">
        <ele>196</ele>
        <time>2020-09-12T13:43:23.275Z</time>
      </trkpt>
      <trkpt lat="48.82846" lon="-1.1869">
        <ele>196</ele>
        <time>2020-09-12T13:43:28.273Z</time>
      </trkpt>
      <trkpt lat="48.82859" lon="-1.18745">
        <ele>197</ele>
        <time>2020-09-12T13:43:33.276Z</time>
      </trkpt>
      <trkpt lat="48.82881" lon="-1.18794">
        <ele>197</ele>
        <time>2020-09-12T13:43:38.314Z</time>
      </trkpt>
      <trkpt lat="48.82915" lon="-1.18812">
        <ele>196</ele>
        <time>2020-09-12T13:43:42.277Z</time>
      </trkpt>
      <trkpt lat="48.82954" lon="-1.18829">
        <ele>196</ele>
        <time>2020-09-12T13:43:46.275Z</time>
      </trkpt>
      <trkpt lat="48.83003" lon="-1.18835">
        <ele>195</ele>
        <time>2020-09-12T13:43:51.272Z</time>
      </trkpt>
      <trkpt lat="48.83052" lon="-1.18841">
        <ele>193</ele>
        <time>2020-09-12T13:43:56.325Z</time>
      </trkpt>
      <trkpt lat="48.83105" lon="-1.18846">
        <ele>192</ele>
        <time>2020-09-12T13:44:01.276Z</time>
      </trkpt>
      <trkpt lat="48.83152" lon="-1.18867">
        <ele>190</ele>
        <time>2020-09-12T13:44:06.281Z</time>
      </trkpt>
      <trkpt lat="48.83202" lon="-1.18872">
        <ele>188</ele>
        <time>2020-09-12T13:44:11.279Z</time>
      </trkpt>
      <trkpt lat="48.83253" lon="-1.18872">
        <ele>186</ele>
        <time>2020-09-12T13:44:16.273Z</time>
      </trkpt>
      <trkpt lat="48.83299" lon="-1.18874">
        <ele>184</ele>
        <time>2020-09-12T13:44:21.280Z</time>
      </trkpt>
      <trkpt lat="48.83328" lon="-1.18915">
        <ele>180</ele>
        <time>2020-09-12T13:44:28.272Z</time>
      </trkpt>
      <trkpt lat="48.83339" lon="-1.18965">
        <ele>178</ele>
        <time>2020-09-12T13:44:33.274Z</time>
      </trkpt>
      <trkpt lat="48.83373" lon="-1.18983">
        <ele>176</ele>
        <time>2020-09-12T13:44:38.316Z</time>
      </trkpt>
      <trkpt lat="48.83405" lon="-1.18986">
        <ele>175</ele>
        <time>2020-09-12T13:44:42.275Z</time>
      </trkpt>
      <trkpt lat="48.83447" lon="-1.19007">
        <ele>173</ele>
        <time>2020-09-12T13:44:47.273Z</time>
      </trkpt>
      <trkpt lat="48.83488" lon="-1.19039">
        <ele>171</ele>
        <time>2020-09-12T13:44:52.277Z</time>
      </trkpt>
      <trkpt lat="48.83527" lon="-1.19066">
        <ele>168</ele>
        <time>2020-09-12T13:44:58.271Z</time>
      </trkpt>
      <trkpt lat="48.83547" lon="-1.19034">
        <ele>164</ele>
        <time>2020-09-12T13:45:05.278Z</time>
      </trkpt>
      <trkpt lat="48.83551" lon="-1.18991">
        <ele>161</ele>
        <time>2020-09-12T13:45:10.272Z</time>
      </trkpt>
      <trkpt lat="48.83577" lon="-1.18987">
        <ele>158</ele>
        <time>2020-09-12T13:45:14.316Z</time>
      </trkpt>
      <trkpt lat="48.83603" lon="-1.19017">
        <ele>156</ele>
        <time>2020-09-12T13:45:18.273Z</time>
      </trkpt>
      <trkpt lat="48.83611" lon="-1.19077">
        <ele>153</ele>
        <time>2020-09-12T13:45:22.271Z</time>
      </trkpt>
      <trkpt lat="48.83642" lon="-1.19127">
        <ele>149</ele>
        <time>2020-09-12T13:45:28.279Z</time>
      </trkpt>
      <trkpt lat="48.83635" lon="-1.19187">
        <ele>145</ele>
        <time>2020-09-12T13:45:33.274Z</time>
      </trkpt>
      <trkpt lat="48.83623" lon="-1.19244">
        <ele>143</ele>
        <time>2020-09-12T13:45:37.272Z</time>
      </trkpt>
      <trkpt lat="48.83635" lon="-1.19308">
        <ele>141</ele>
        <time>2020-09-12T13:45:42.276Z</time>
      </trkpt>
      <trkpt lat="48.83679" lon="-1.19326">
        <ele>139</ele>
        <time>2020-09-12T13:45:46.275Z</time>
      </trkpt>
      <trkpt lat="48.8373" lon="-1.19346">
        <ele>138</ele>
        <time>2020-09-12T13:45:50.314Z</time>
      </trkpt>
      <trkpt lat="48.83793" lon="-1.1937">
        <ele>137</ele>
        <time>2020-09-12T13:45:55.273Z</time>
      </trkpt>
      <trkpt lat="48.83857" lon="-1.19399">
        <ele>134</ele>
        <time>2020-09-12T13:46:00.280Z</time>
      </trkpt>
      <trkpt lat="48.83924" lon="-1.19435">
        <ele>131</ele>
        <time>2020-09-12T13:46:06.275Z</time>
      </trkpt>
      <trkpt lat="48.83972" lon="-1.19495">
        <ele>128</ele>
        <time>2020-09-12T13:46:12.278Z</time>
      </trkpt>
      <trkpt lat="48.84021" lon="-1.19529">
        <ele>126</ele>
        <time>2020-09-12T13:46:18.272Z</time>
      </trkpt>
      <trkpt lat="48.84067" lon="-1.19544">
        <ele>124</ele>
        <time>2020-09-12T13:46:23.276Z</time>
      </trkpt>
      <trkpt lat="48.84115" lon="-1.19556">
        <ele>123</ele>
        <time>2020-09-12T13:46:28.275Z</time>
      </trkpt>
      <trkpt lat="48.8416" lon="-1.19577">
        <ele>121</ele>
        <time>2020-09-12T13:46:33.271Z</time>
      </trkpt>
      <trkpt lat="48.842" lon="-1.19603">
        <ele>119</ele>
        <time>2020-09-12T13:46:38.315Z</time>
      </trkpt>
      <trkpt lat="48.84238" lon="-1.19636">
        <ele>118</ele>
        <time>2020-09-12T13:46:44.318Z</time>
      </trkpt>
      <trkpt lat="48.8426" lon="-1.19685">
        <ele>118</ele>
        <time>2020-09-12T13:46:50.315Z</time>
      </trkpt>
      <trkpt lat="48.84276" lon="-1.19728">
        <ele>119</ele>
        <time>2020-09-12T13:46:55.274Z</time>
      </trkpt>
      <trkpt lat="48.84292" lon="-1.19762">
        <ele>119</ele>
        <time>2020-09-12T13:47:00.270Z</time>
      </trkpt>
      <trkpt lat="48.84319" lon="-1.19739">
        <ele>120</ele>
        <time>2020-09-12T13:47:05.276Z</time>
      </trkpt>
      <trkpt lat="48.84344" lon="-1.19714">
        <ele>120</ele>
        <time>2020-09-12T13:47:09.285Z</time>
      </trkpt>
      <trkpt lat="48.84377" lon="-1.1969">
        <ele>121</ele>
        <time>2020-09-12T13:47:14.315Z</time>
      </trkpt>
      <trkpt lat="48.84412" lon="-1.19672">
        <ele>122</ele>
        <time>2020-09-12T13:47:19.272Z</time>
      </trkpt>
      <trkpt lat="48.8445" lon="-1.19667">
        <ele>124</ele>
        <time>2020-09-12T13:47:24.274Z</time>
      </trkpt>
      <trkpt lat="48.84489" lon="-1.19656">
        <ele>125</ele>
        <time>2020-09-12T13:47:29.272Z</time>
      </trkpt>
      <trkpt lat="48.84523" lon="-1.19628">
        <ele>126</ele>
        <time>2020-09-12T13:47:34.272Z</time>
      </trkpt>
      <trkpt lat="48.84539" lon="-1.1958">
        <ele>126</ele>
        <time>2020-09-12T13:47:38.314Z</time>
      </trkpt>
      <trkpt lat="48.84555" lon="-1.19517">
        <ele>126</ele>
        <time>2020-09-12T13:47:43.265Z</time>
      </trkpt>
      <trkpt lat="48.84545" lon="-1.19452">
        <ele>126</ele>
        <time>2020-09-12T13:47:48.274Z</time>
      </trkpt>
      <trkpt lat="48.8452" lon="-1.19391">
        <ele>125</ele>
        <time>2020-09-12T13:47:53.266Z</time>
      </trkpt>
      <trkpt lat="48.84514" lon="-1.19319">
        <ele>124</ele>
        <time>2020-09-12T13:47:59.275Z</time>
      </trkpt>
      <trkpt lat="48.84512" lon="-1.19255">
        <ele>123</ele>
        <time>2020-09-12T13:48:05.273Z</time>
      </trkpt>
      <trkpt lat="48.8451" lon="-1.19201">
        <ele>123</ele>
        <time>2020-09-12T13:48:10.274Z</time>
      </trkpt>
      <trkpt lat="48.8452" lon="-1.19151">
        <ele>123</ele>
        <time>2020-09-12T13:48:15.275Z</time>
      </trkpt>
      <trkpt lat="48.84549" lon="-1.19122">
        <ele>124</ele>
        <time>2020-09-12T13:48:20.322Z</time>
      </trkpt>
      <trkpt lat="48.84581" lon="-1.19098">
        <ele>125</ele>
        <time>2020-09-12T13:48:25.276Z</time>
      </trkpt>
      <trkpt lat="48.84607" lon="-1.19066">
        <ele>127</ele>
        <time>2020-09-12T13:48:30.273Z</time>
      </trkpt>
      <trkpt lat="48.84611" lon="-1.19015">
        <ele>128</ele>
        <time>2020-09-12T13:48:34.275Z</time>
      </trkpt>
      <trkpt lat="48.84601" lon="-1.18953">
        <ele>129</ele>
        <time>2020-09-12T13:48:38.305Z</time>
      </trkpt>
      <trkpt lat="48.8459" lon="-1.18881">
        <ele>130</ele>
        <time>2020-09-12T13:48:42.274Z</time>
      </trkpt>
      <trkpt lat="48.84577" lon="-1.18798">
        <ele>131</ele>
        <time>2020-09-12T13:48:47.285Z</time>
      </trkpt>
      <trkpt lat="48.84564" lon="-1.18718">
        <ele>130</ele>
        <time>2020-09-12T13:48:52.272Z</time>
      </trkpt>
      <trkpt lat="48.84551" lon="-1.18642">
        <ele>130</ele>
        <time>2020-09-12T13:48:58.271Z</time>
      </trkpt>
      <trkpt lat="48.84542" lon="-1.18573">
        <ele>128</ele>
        <time>2020-09-12T13:49:04.274Z</time>
      </trkpt>
      <trkpt lat="48.84533" lon="-1.18516">
        <ele>127</ele>
        <time>2020-09-12T13:49:09.283Z</time>
      </trkpt>
      <trkpt lat="48.84523" lon="-1.18459">
        <ele>126</ele>
        <time>2020-09-12T13:49:14.316Z</time>
      </trkpt>
      <trkpt lat="48.84516" lon="-1.18398">
        <ele>126</ele>
        <time>2020-09-12T13:49:19.275Z</time>
      </trkpt>
      <trkpt lat="48.8452" lon="-1.18333">
        <ele>126</ele>
        <time>2020-09-12T13:49:24.277Z</time>
      </trkpt>
      <trkpt lat="48.8453" lon="-1.18267">
        <ele>127</ele>
        <time>2020-09-12T13:49:29.274Z</time>
      </trkpt>
      <trkpt lat="48.84539" lon="-1.18196">
        <ele>128</ele>
        <time>2020-09-12T13:49:34.275Z</time>
      </trkpt>
      <trkpt lat="48.84552" lon="-1.18124">
        <ele>129</ele>
        <time>2020-09-12T13:49:39.275Z</time>
      </trkpt>
      <trkpt lat="48.84565" lon="-1.18051">
        <ele>129</ele>
        <time>2020-09-12T13:49:44.322Z</time>
      </trkpt>
      <trkpt lat="48.8458" lon="-1.17977">
        <ele>130</ele>
        <time>2020-09-12T13:49:49.273Z</time>
      </trkpt>
      <trkpt lat="48.84595" lon="-1.17904">
        <ele>130</ele>
        <time>2020-09-12T13:49:54.275Z</time>
      </trkpt>
      <trkpt lat="48.84609" lon="-1.17832">
        <ele>130</ele>
        <time>2020-09-12T13:49:59.275Z</time>
      </trkpt>
      <trkpt lat="48.84623" lon="-1.17753">
        <ele>130</ele>
        <time>2020-09-12T13:50:04.274Z</time>
      </trkpt>
      <trkpt lat="48.84636" lon="-1.1768">
        <ele>129</ele>
        <time>2020-09-12T13:50:09.289Z</time>
      </trkpt>
      <trkpt lat="48.84651" lon="-1.17607">
        <ele>129</ele>
        <time>2020-09-12T13:50:15.273Z</time>
      </trkpt>
      <trkpt lat="48.84662" lon="-1.1755">
        <ele>129</ele>
        <time>2020-09-12T13:50:20.320Z</time>
      </trkpt>
      <trkpt lat="48.84673" lon="-1.17493">
        <ele>130</ele>
        <time>2020-09-12T13:50:25.279Z</time>
      </trkpt>
      <trkpt lat="48.84685" lon="-1.17436">
        <ele>131</ele>
        <time>2020-09-12T13:50:30.275Z</time>
      </trkpt>
      <trkpt lat="48.84694" lon="-1.17374">
        <ele>131</ele>
        <time>2020-09-12T13:50:35.274Z</time>
      </trkpt>
      <trkpt lat="48.8469" lon="-1.17316">
        <ele>132</ele>
        <time>2020-09-12T13:50:39.275Z</time>
      </trkpt>
      <trkpt lat="48.84682" lon="-1.17251">
        <ele>132</ele>
        <time>2020-09-12T13:50:43.274Z</time>
      </trkpt>
      <trkpt lat="48.84672" lon="-1.17165">
        <ele>132</ele>
        <time>2020-09-12T13:50:48.273Z</time>
      </trkpt>
      <trkpt lat="48.84666" lon="-1.17074">
        <ele>131</ele>
        <time>2020-09-12T13:50:53.277Z</time>
      </trkpt>
      <trkpt lat="48.84654" lon="-1.16998">
        <ele>131</ele>
        <time>2020-09-12T13:50:59.274Z</time>
      </trkpt>
      <trkpt lat="48.84613" lon="-1.16959">
        <ele>130</ele>
        <time>2020-09-12T13:51:04.278Z</time>
      </trkpt>
      <trkpt lat="48.8457" lon="-1.16918">
        <ele>128</ele>
        <time>2020-09-12T13:51:09.274Z</time>
      </trkpt>
      <trkpt lat="48.84553" lon="-1.1685">
        <ele>126</ele>
        <time>2020-09-12T13:51:14.315Z</time>
      </trkpt>
      <trkpt lat="48.84529" lon="-1.16782">
        <ele>125</ele>
        <time>2020-09-12T13:51:19.278Z</time>
      </trkpt>
      <trkpt lat="48.84492" lon="-1.16737">
        <ele>123</ele>
        <time>2020-09-12T13:51:24.272Z</time>
      </trkpt>
      <trkpt lat="48.84466" lon="-1.16673">
        <ele>122</ele>
        <time>2020-09-12T13:51:30.265Z</time>
      </trkpt>
      <trkpt lat="48.84446" lon="-1.16614">
        <ele>121</ele>
        <time>2020-09-12T13:51:35.272Z</time>
      </trkpt>
      <trkpt lat="48.84426" lon="-1.16561">
        <ele>120</ele>
        <time>2020-09-12T13:51:40.257Z</time>
      </trkpt>
      <trkpt lat="48.84411" lon="-1.16504">
        <ele>120</ele>
        <time>2020-09-12T13:51:45.281Z</time>
      </trkpt>
      <trkpt lat="48.84419" lon="-1.16448">
        <ele>120</ele>
        <time>2020-09-12T13:51:50.321Z</time>
      </trkpt>
      <trkpt lat="48.84444" lon="-1.16403">
        <ele>121</ele>
        <time>2020-09-12T13:51:55.274Z</time>
      </trkpt>
      <trkpt lat="48.84474" lon="-1.16363">
        <ele>122</ele>
        <time>2020-09-12T13:52:00.277Z</time>
      </trkpt>
      <trkpt lat="48.84503" lon="-1.1632">
        <ele>124</ele>
        <time>2020-09-12T13:52:05.275Z</time>
      </trkpt>
      <trkpt lat="48.84533" lon="-1.16277">
        <ele>125</ele>
        <time>2020-09-12T13:52:10.273Z</time>
      </trkpt>
      <trkpt lat="48.84562" lon="-1.16235">
        <ele>127</ele>
        <time>2020-09-12T13:52:15.273Z</time>
      </trkpt>
      <trkpt lat="48.84588" lon="-1.16192">
        <ele>128</ele>
        <time>2020-09-12T13:52:20.316Z</time>
      </trkpt>
      <trkpt lat="48.84612" lon="-1.1615">
        <ele>129</ele>
        <time>2020-09-12T13:52:25.275Z</time>
      </trkpt>
      <trkpt lat="48.84638" lon="-1.16108">
        <ele>131</ele>
        <time>2020-09-12T13:52:30.274Z</time>
      </trkpt>
      <trkpt lat="48.84666" lon="-1.16068">
        <ele>132</ele>
        <time>2020-09-12T13:52:35.275Z</time>
      </trkpt>
      <trkpt lat="48.84693" lon="-1.1603">
        <ele>132</ele>
        <time>2020-09-12T13:52:40.272Z</time>
      </trkpt>
      <trkpt lat="48.84717" lon="-1.15991">
        <ele>133</ele>
        <time>2020-09-12T13:52:45.277Z</time>
      </trkpt>
      <trkpt lat="48.84738" lon="-1.15949">
        <ele>134</ele>
        <time>2020-09-12T13:52:50.313Z</time>
      </trkpt>
      <trkpt lat="48.8476" lon="-1.15907">
        <ele>135</ele>
        <time>2020-09-12T13:52:55.276Z</time>
      </trkpt>
      <trkpt lat="48.84783" lon="-1.15865">
        <ele>136</ele>
        <time>2020-09-12T13:53:00.271Z</time>
      </trkpt>
      <trkpt lat="48.84804" lon="-1.15823">
        <ele>137</ele>
        <time>2020-09-12T13:53:05.273Z</time>
      </trkpt>
      <trkpt lat="48.84821" lon="-1.1578">
        <ele>137</ele>
        <time>2020-09-12T13:53:10.300Z</time>
      </trkpt>
      <trkpt lat="48.84837" lon="-1.15735">
        <ele>138</ele>
        <time>2020-09-12T13:53:15.276Z</time>
      </trkpt>
      <trkpt lat="48.84855" lon="-1.15696">
        <ele>140</ele>
        <time>2020-09-12T13:53:20.317Z</time>
      </trkpt>
      <trkpt lat="48.84876" lon="-1.15659">
        <ele>141</ele>
        <time>2020-09-12T13:53:25.274Z</time>
      </trkpt>
      <trkpt lat="48.84897" lon="-1.15631">
        <ele>142</ele>
        <time>2020-09-12T13:53:29.277Z</time>
      </trkpt>
      <trkpt lat="48.84923" lon="-1.15592">
        <ele>144</ele>
        <time>2020-09-12T13:53:34.276Z</time>
      </trkpt>
      <trkpt lat="48.8495" lon="-1.15552">
        <ele>145</ele>
        <time>2020-09-12T13:53:39.279Z</time>
      </trkpt>
      <trkpt lat="48.84977" lon="-1.15514">
        <ele>146</ele>
        <time>2020-09-12T13:53:44.315Z</time>
      </trkpt>
      <trkpt lat="48.85005" lon="-1.15478">
        <ele>148</ele>
        <time>2020-09-12T13:53:49.271Z</time>
      </trkpt>
      <trkpt lat="48.85034" lon="-1.15444">
        <ele>149</ele>
        <time>2020-09-12T13:53:54.272Z</time>
      </trkpt>
      <trkpt lat="48.85062" lon="-1.15407">
        <ele>150</ele>
        <time>2020-09-12T13:53:59.271Z</time>
      </trkpt>
      <trkpt lat="48.85091" lon="-1.1537">
        <ele>150</ele>
        <time>2020-09-12T13:54:04.267Z</time>
      </trkpt>
      <trkpt lat="48.85119" lon="-1.15332">
        <ele>151</ele>
        <time>2020-09-12T13:54:09.273Z</time>
      </trkpt>
      <trkpt lat="48.85146" lon="-1.15293">
        <ele>152</ele>
        <time>2020-09-12T13:54:14.311Z</time>
      </trkpt>
      <trkpt lat="48.8517" lon="-1.15253">
        <ele>152</ele>
        <time>2020-09-12T13:54:19.275Z</time>
      </trkpt>
      <trkpt lat="48.85187" lon="-1.15223">
        <ele>152</ele>
        <time>2020-09-12T13:54:25.274Z</time>
      </trkpt>
      <trkpt lat="48.85206" lon="-1.15196">
        <ele>153</ele>
        <time>2020-09-12T13:54:29.274Z</time>
      </trkpt>
      <trkpt lat="48.85227" lon="-1.15167">
        <ele>153</ele>
        <time>2020-09-12T13:54:33.274Z</time>
      </trkpt>
      <trkpt lat="48.85251" lon="-1.15136">
        <ele>153</ele>
        <time>2020-09-12T13:54:37.276Z</time>
      </trkpt>
      <trkpt lat="48.85283" lon="-1.15097">
        <ele>154</ele>
        <time>2020-09-12T13:54:42.273Z</time>
      </trkpt>
      <trkpt lat="48.85315" lon="-1.15059">
        <ele>154</ele>
        <time>2020-09-12T13:54:47.273Z</time>
      </trkpt>
      <trkpt lat="48.85346" lon="-1.15022">
        <ele>155</ele>
        <time>2020-09-12T13:54:52.278Z</time>
      </trkpt>
      <trkpt lat="48.85377" lon="-1.14981">
        <ele>155</ele>
        <time>2020-09-12T13:54:57.273Z</time>
      </trkpt>
      <trkpt lat="48.85403" lon="-1.14932">
        <ele>156</ele>
        <time>2020-09-12T13:55:02.319Z</time>
      </trkpt>
      <trkpt lat="48.85427" lon="-1.14884">
        <ele>156</ele>
        <time>2020-09-12T13:55:07.270Z</time>
      </trkpt>
      <trkpt lat="48.85452" lon="-1.14839">
        <ele>157</ele>
        <time>2020-09-12T13:55:12.273Z</time>
      </trkpt>
      <trkpt lat="48.85476" lon="-1.14793">
        <ele>157</ele>
        <time>2020-09-12T13:55:17.272Z</time>
      </trkpt>
      <trkpt lat="48.85503" lon="-1.14749">
        <ele>157</ele>
        <time>2020-09-12T13:55:22.274Z</time>
      </trkpt>
      <trkpt lat="48.85537" lon="-1.14718">
        <ele>157</ele>
        <time>2020-09-12T13:55:27.287Z</time>
      </trkpt>
      <trkpt lat="48.85562" lon="-1.14669">
        <ele>158</ele>
        <time>2020-09-12T13:55:32.324Z</time>
      </trkpt>
      <trkpt lat="48.8559" lon="-1.14622">
        <ele>158</ele>
        <time>2020-09-12T13:55:37.274Z</time>
      </trkpt>
      <trkpt lat="48.85621" lon="-1.14578">
        <ele>159</ele>
        <time>2020-09-12T13:55:42.275Z</time>
      </trkpt>
      <trkpt lat="48.85649" lon="-1.14533">
        <ele>159</ele>
        <time>2020-09-12T13:55:47.273Z</time>
      </trkpt>
      <trkpt lat="48.85676" lon="-1.14487">
        <ele>160</ele>
        <time>2020-09-12T13:55:52.274Z</time>
      </trkpt>
      <trkpt lat="48.85704" lon="-1.14442">
        <ele>161</ele>
        <time>2020-09-12T13:55:57.272Z</time>
      </trkpt>
      <trkpt lat="48.85732" lon="-1.14395">
        <ele>161</ele>
        <time>2020-09-12T13:56:02.324Z</time>
      </trkpt>
      <trkpt lat="48.85759" lon="-1.14348">
        <ele>162</ele>
        <time>2020-09-12T13:56:07.273Z</time>
      </trkpt>
      <trkpt lat="48.85785" lon="-1.14299">
        <ele>162</ele>
        <time>2020-09-12T13:56:12.276Z</time>
      </trkpt>
      <trkpt lat="48.85813" lon="-1.14248">
        <ele>163</ele>
        <time>2020-09-12T13:56:17.275Z</time>
      </trkpt>
      <trkpt lat="48.85841" lon="-1.14201">
        <ele>163</ele>
        <time>2020-09-12T13:56:22.274Z</time>
      </trkpt>
      <trkpt lat="48.8587" lon="-1.14156">
        <ele>164</ele>
        <time>2020-09-12T13:56:27.300Z</time>
      </trkpt>
      <trkpt lat="48.85899" lon="-1.14111">
        <ele>164</ele>
        <time>2020-09-12T13:56:32.319Z</time>
      </trkpt>
      <trkpt lat="48.85931" lon="-1.14063">
        <ele>164</ele>
        <time>2020-09-12T13:56:37.273Z</time>
      </trkpt>
      <trkpt lat="48.8596" lon="-1.1402">
        <ele>164</ele>
        <time>2020-09-12T13:56:41.276Z</time>
      </trkpt>
      <trkpt lat="48.85995" lon="-1.13957">
        <ele>164</ele>
        <time>2020-09-12T13:56:46.274Z</time>
      </trkpt>
      <trkpt lat="48.86024" lon="-1.1389">
        <ele>163</ele>
        <time>2020-09-12T13:56:51.272Z</time>
      </trkpt>
      <trkpt lat="48.86037" lon="-1.13808">
        <ele>162</ele>
        <time>2020-09-12T13:56:56.319Z</time>
      </trkpt>
      <trkpt lat="48.86049" lon="-1.1373">
        <ele>161</ele>
        <time>2020-09-12T13:57:01.276Z</time>
      </trkpt>
      <trkpt lat="48.86071" lon="-1.13656">
        <ele>160</ele>
        <time>2020-09-12T13:57:06.272Z</time>
      </trkpt>
      <trkpt lat="48.86091" lon="-1.1358">
        <ele>159</ele>
        <time>2020-09-12T13:57:11.273Z</time>
      </trkpt>
      <trkpt lat="48.8611" lon="-1.13513">
        <ele>157</ele>
        <time>2020-09-12T13:57:16.272Z</time>
      </trkpt>
      <trkpt lat="48.86127" lon="-1.13447">
        <ele>156</ele>
        <time>2020-09-12T13:57:21.274Z</time>
      </trkpt>
      <trkpt lat="48.86144" lon="-1.13384">
        <ele>156</ele>
        <time>2020-09-12T13:57:26.338Z</time>
      </trkpt>
      <trkpt lat="48.8617" lon="-1.13329">
        <ele>155</ele>
        <time>2020-09-12T13:57:31.273Z</time>
      </trkpt>
      <trkpt lat="48.86204" lon="-1.13284">
        <ele>155</ele>
        <time>2020-09-12T13:57:36.273Z</time>
      </trkpt>
      <trkpt lat="48.86239" lon="-1.13231">
        <ele>155</ele>
        <time>2020-09-12T13:57:41.276Z</time>
      </trkpt>
      <trkpt lat="48.86272" lon="-1.13181">
        <ele>155</ele>
        <time>2020-09-12T13:57:46.274Z</time>
      </trkpt>
      <trkpt lat="48.86305" lon="-1.13139">
        <ele>154</ele>
        <time>2020-09-12T13:57:52.273Z</time>
      </trkpt>
      <trkpt lat="48.86333" lon="-1.13099">
        <ele>154</ele>
        <time>2020-09-12T13:57:57.274Z</time>
      </trkpt>
      <trkpt lat="48.86364" lon="-1.13058">
        <ele>153</ele>
        <time>2020-09-12T13:58:02.325Z</time>
      </trkpt>
      <trkpt lat="48.86396" lon="-1.13017">
        <ele>153</ele>
        <time>2020-09-12T13:58:07.272Z</time>
      </trkpt>
      <trkpt lat="48.86426" lon="-1.12972">
        <ele>153</ele>
        <time>2020-09-12T13:58:12.275Z</time>
      </trkpt>
      <trkpt lat="48.86456" lon="-1.1292">
        <ele>153</ele>
        <time>2020-09-12T13:58:17.275Z</time>
      </trkpt>
      <trkpt lat="48.86489" lon="-1.12863">
        <ele>153</ele>
        <time>2020-09-12T13:58:22.274Z</time>
      </trkpt>
      <trkpt lat="48.86529" lon="-1.12812">
        <ele>152</ele>
        <time>2020-09-12T13:58:27.273Z</time>
      </trkpt>
      <trkpt lat="48.86573" lon="-1.12766">
        <ele>152</ele>
        <time>2020-09-12T13:58:32.319Z</time>
      </trkpt>
      <trkpt lat="48.86622" lon="-1.12738">
        <ele>152</ele>
        <time>2020-09-12T13:58:37.272Z</time>
      </trkpt>
      <trkpt lat="48.86672" lon="-1.1271">
        <ele>152</ele>
        <time>2020-09-12T13:58:42.276Z</time>
      </trkpt>
      <trkpt lat="48.86725" lon="-1.1269">
        <ele>151</ele>
        <time>2020-09-12T13:58:47.275Z</time>
      </trkpt>
      <trkpt lat="48.86775" lon="-1.12661">
        <ele>150</ele>
        <time>2020-09-12T13:58:52.276Z</time>
      </trkpt>
      <trkpt lat="48.86827" lon="-1.1263">
        <ele>149</ele>
        <time>2020-09-12T13:58:57.277Z</time>
      </trkpt>
      <trkpt lat="48.86877" lon="-1.12585">
        <ele>147</ele>
        <time>2020-09-12T13:59:02.321Z</time>
      </trkpt>
      <trkpt lat="48.86922" lon="-1.12525">
        <ele>145</ele>
        <time>2020-09-12T13:59:07.271Z</time>
      </trkpt>
      <trkpt lat="48.86967" lon="-1.12454">
        <ele>144</ele>
        <time>2020-09-12T13:59:12.273Z</time>
      </trkpt>
      <trkpt lat="48.87002" lon="-1.12375">
        <ele>141</ele>
        <time>2020-09-12T13:59:17.271Z</time>
      </trkpt>
      <trkpt lat="48.87045" lon="-1.12296">
        <ele>138</ele>
        <time>2020-09-12T13:59:22.272Z</time>
      </trkpt>
      <trkpt lat="48.87091" lon="-1.12217">
        <ele>134</ele>
        <time>2020-09-12T13:59:27.273Z</time>
      </trkpt>
      <trkpt lat="48.87133" lon="-1.12122">
        <ele>130</ele>
        <time>2020-09-12T13:59:33.277Z</time>
      </trkpt>
      <trkpt lat="48.87171" lon="-1.12045">
        <ele>126</ele>
        <time>2020-09-12T13:59:39.272Z</time>
      </trkpt>
      <trkpt lat="48.87215" lon="-1.12005">
        <ele>123</ele>
        <time>2020-09-12T13:59:45.273Z</time>
      </trkpt>
      <trkpt lat="48.87253" lon="-1.11963">
        <ele>120</ele>
        <time>2020-09-12T13:59:51.272Z</time>
      </trkpt>
      <trkpt lat="48.87283" lon="-1.11928">
        <ele>119</ele>
        <time>2020-09-12T13:59:56.337Z</time>
      </trkpt>
      <trkpt lat="48.87313" lon="-1.11892">
        <ele>118</ele>
        <time>2020-09-12T14:00:01.271Z</time>
      </trkpt>
      <trkpt lat="48.8734" lon="-1.11855">
        <ele>118</ele>
        <time>2020-09-12T14:00:06.272Z</time>
      </trkpt>
      <trkpt lat="48.87362" lon="-1.11816">
        <ele>119</ele>
        <time>2020-09-12T14:00:11.271Z</time>
      </trkpt>
      <trkpt lat="48.87383" lon="-1.11781">
        <ele>121</ele>
        <time>2020-09-12T14:00:16.272Z</time>
      </trkpt>
      <trkpt lat="48.87404" lon="-1.11744">
        <ele>123</ele>
        <time>2020-09-12T14:00:21.272Z</time>
      </trkpt>
      <trkpt lat="48.87423" lon="-1.11707">
        <ele>125</ele>
        <time>2020-09-12T14:00:26.335Z</time>
      </trkpt>
      <trkpt lat="48.87439" lon="-1.11668">
        <ele>127</ele>
        <time>2020-09-12T14:00:31.272Z</time>
      </trkpt>
      <trkpt lat="48.8745" lon="-1.11629">
        <ele>129</ele>
        <time>2020-09-12T14:00:36.280Z</time>
      </trkpt>
      <trkpt lat="48.87464" lon="-1.11588">
        <ele>131</ele>
        <time>2020-09-12T14:00:41.273Z</time>
      </trkpt>
      <trkpt lat="48.87475" lon="-1.11544">
        <ele>133</ele>
        <time>2020-09-12T14:00:46.273Z</time>
      </trkpt>
      <trkpt lat="48.87486" lon="-1.115">
        <ele>135</ele>
        <time>2020-09-12T14:00:51.273Z</time>
      </trkpt>
      <trkpt lat="48.87495" lon="-1.11451">
        <ele>136</ele>
        <time>2020-09-12T14:00:56.314Z</time>
      </trkpt>
      <trkpt lat="48.87504" lon="-1.11407">
        <ele>137</ele>
        <time>2020-09-12T14:01:00.270Z</time>
      </trkpt>
      <trkpt lat="48.87514" lon="-1.11358">
        <ele>138</ele>
        <time>2020-09-12T14:01:04.276Z</time>
      </trkpt>
      <trkpt lat="48.87525" lon="-1.11295">
        <ele>139</ele>
        <time>2020-09-12T14:01:09.272Z</time>
      </trkpt>
      <trkpt lat="48.87538" lon="-1.11231">
        <ele>140</ele>
        <time>2020-09-12T14:01:14.280Z</time>
      </trkpt>
      <trkpt lat="48.87547" lon="-1.11172">
        <ele>140</ele>
        <time>2020-09-12T14:01:18.274Z</time>
      </trkpt>
      <trkpt lat="48.87558" lon="-1.11098">
        <ele>139</ele>
        <time>2020-09-12T14:01:23.273Z</time>
      </trkpt>
      <trkpt lat="48.87566" lon="-1.11015">
        <ele>138</ele>
        <time>2020-09-12T14:01:28.276Z</time>
      </trkpt>
      <trkpt lat="48.8757" lon="-1.10924">
        <ele>137</ele>
        <time>2020-09-12T14:01:33.272Z</time>
      </trkpt>
      <trkpt lat="48.87585" lon="-1.10839">
        <ele>135</ele>
        <time>2020-09-12T14:01:38.285Z</time>
      </trkpt>
      <trkpt lat="48.87602" lon="-1.10758">
        <ele>133</ele>
        <time>2020-09-12T14:01:43.272Z</time>
      </trkpt>
      <trkpt lat="48.87616" lon="-1.10682">
        <ele>131</ele>
        <time>2020-09-12T14:01:48.285Z</time>
      </trkpt>
      <trkpt lat="48.87635" lon="-1.10604">
        <ele>129</ele>
        <time>2020-09-12T14:01:53.278Z</time>
      </trkpt>
      <trkpt lat="48.87657" lon="-1.10528">
        <ele>127</ele>
        <time>2020-09-12T14:01:58.271Z</time>
      </trkpt>
      <trkpt lat="48.87687" lon="-1.10459">
        <ele>125</ele>
        <time>2020-09-12T14:02:03.277Z</time>
      </trkpt>
      <trkpt lat="48.87717" lon="-1.10381">
        <ele>124</ele>
        <time>2020-09-12T14:02:08.284Z</time>
      </trkpt>
      <trkpt lat="48.8774" lon="-1.10304">
        <ele>122</ele>
        <time>2020-09-12T14:02:13.276Z</time>
      </trkpt>
      <trkpt lat="48.87769" lon="-1.10233">
        <ele>121</ele>
        <time>2020-09-12T14:02:18.272Z</time>
      </trkpt>
      <trkpt lat="48.87815" lon="-1.10167">
        <ele>120</ele>
        <time>2020-09-12T14:02:23.277Z</time>
      </trkpt>
      <trkpt lat="48.8786" lon="-1.10113">
        <ele>118</ele>
        <time>2020-09-12T14:02:28.272Z</time>
      </trkpt>
      <trkpt lat="48.87914" lon="-1.10075">
        <ele>116</ele>
        <time>2020-09-12T14:02:34.274Z</time>
      </trkpt>
      <trkpt lat="48.87939" lon="-1.10013">
        <ele>114</ele>
        <time>2020-09-12T14:02:40.274Z</time>
      </trkpt>
      <trkpt lat="48.87949" lon="-1.09951">
        <ele>113</ele>
        <time>2020-09-12T14:02:45.276Z</time>
      </trkpt>
      <trkpt lat="48.87961" lon="-1.09885">
        <ele>112</ele>
        <time>2020-09-12T14:02:50.286Z</time>
      </trkpt>
      <trkpt lat="48.87977" lon="-1.09818">
        <ele>111</ele>
        <time>2020-09-12T14:02:55.289Z</time>
      </trkpt>
      <trkpt lat="48.87994" lon="-1.09753">
        <ele>110</ele>
        <time>2020-09-12T14:03:00.275Z</time>
      </trkpt>
      <trkpt lat="48.8801" lon="-1.0969">
        <ele>109</ele>
        <time>2020-09-12T14:03:05.273Z</time>
      </trkpt>
      <trkpt lat="48.88015" lon="-1.09628">
        <ele>109</ele>
        <time>2020-09-12T14:03:10.277Z</time>
      </trkpt>
      <trkpt lat="48.88003" lon="-1.09566">
        <ele>109</ele>
        <time>2020-09-12T14:03:15.277Z</time>
      </trkpt>
      <trkpt lat="48.88002" lon="-1.09514">
        <ele>109</ele>
        <time>2020-09-12T14:03:23.272Z</time>
      </trkpt>
      <trkpt lat="48.88034" lon="-1.09501">
        <ele>109</ele>
        <time>2020-09-12T14:03:27.277Z</time>
      </trkpt>
      <trkpt lat="48.88068" lon="-1.09486">
        <ele>108</ele>
        <time>2020-09-12T14:03:31.274Z</time>
      </trkpt>
      <trkpt lat="48.88103" lon="-1.09455">
        <ele>108</ele>
        <time>2020-09-12T14:03:36.273Z</time>
      </trkpt>
      <trkpt lat="48.88136" lon="-1.09413">
        <ele>108</ele>
        <time>2020-09-12T14:03:41.273Z</time>
      </trkpt>
      <trkpt lat="48.88167" lon="-1.09369">
        <ele>108</ele>
        <time>2020-09-12T14:03:46.272Z</time>
      </trkpt>
      <trkpt lat="48.88195" lon="-1.09323">
        <ele>108</ele>
        <time>2020-09-12T14:03:51.274Z</time>
      </trkpt>
      <trkpt lat="48.88215" lon="-1.09275">
        <ele>108</ele>
        <time>2020-09-12T14:03:56.338Z</time>
      </trkpt>
      <trkpt lat="48.88236" lon="-1.09234">
        <ele>108</ele>
        <time>2020-09-12T14:04:01.273Z</time>
      </trkpt>
      <trkpt lat="48.88255" lon="-1.09194">
        <ele>109</ele>
        <time>2020-09-12T14:04:06.276Z</time>
      </trkpt>
      <trkpt lat="48.88274" lon="-1.0915">
        <ele>110</ele>
        <time>2020-09-12T14:04:11.279Z</time>
      </trkpt>
      <trkpt lat="48.88289" lon="-1.09101">
        <ele>111</ele>
        <time>2020-09-12T14:04:16.274Z</time>
      </trkpt>
      <trkpt lat="48.88303" lon="-1.09049">
        <ele>111</ele>
        <time>2020-09-12T14:04:21.287Z</time>
      </trkpt>
      <trkpt lat="48.88316" lon="-1.08996">
        <ele>112</ele>
        <time>2020-09-12T14:04:26.334Z</time>
      </trkpt>
      <trkpt lat="48.8833" lon="-1.08939">
        <ele>112</ele>
        <time>2020-09-12T14:04:31.275Z</time>
      </trkpt>
      <trkpt lat="48.88341" lon="-1.08873">
        <ele>113</ele>
        <time>2020-09-12T14:04:36.276Z</time>
      </trkpt>
      <trkpt lat="48.8836" lon="-1.08807">
        <ele>113</ele>
        <time>2020-09-12T14:04:41.277Z</time>
      </trkpt>
      <trkpt lat="48.88392" lon="-1.08743">
        <ele>114</ele>
        <time>2020-09-12T14:04:46.277Z</time>
      </trkpt>
      <trkpt lat="48.88424" lon="-1.08676">
        <ele>114</ele>
        <time>2020-09-12T14:04:51.274Z</time>
      </trkpt>
      <trkpt lat="48.88456" lon="-1.08606">
        <ele>113</ele>
        <time>2020-09-12T14:04:56.334Z</time>
      </trkpt>
      <trkpt lat="48.88473" lon="-1.0852">
        <ele>113</ele>
        <time>2020-09-12T14:05:01.274Z</time>
      </trkpt>
      <trkpt lat="48.88498" lon="-1.08428">
        <ele>111</ele>
        <time>2020-09-12T14:05:06.278Z</time>
      </trkpt>
      <trkpt lat="48.88526" lon="-1.08339">
        <ele>110</ele>
        <time>2020-09-12T14:05:11.273Z</time>
      </trkpt>
      <trkpt lat="48.88556" lon="-1.08255">
        <ele>108</ele>
        <time>2020-09-12T14:05:16.278Z</time>
      </trkpt>
      <trkpt lat="48.88595" lon="-1.08177">
        <ele>106</ele>
        <time>2020-09-12T14:05:22.273Z</time>
      </trkpt>
      <trkpt lat="48.88624" lon="-1.08108">
        <ele>105</ele>
        <time>2020-09-12T14:05:27.276Z</time>
      </trkpt>
      <trkpt lat="48.8865" lon="-1.08038">
        <ele>104</ele>
        <time>2020-09-12T14:05:32.317Z</time>
      </trkpt>
      <trkpt lat="48.88684" lon="-1.07967">
        <ele>103</ele>
        <time>2020-09-12T14:05:37.278Z</time>
      </trkpt>
      <trkpt lat="48.8872" lon="-1.07901">
        <ele>101</ele>
        <time>2020-09-12T14:05:43.278Z</time>
      </trkpt>
      <trkpt lat="48.88749" lon="-1.07852">
        <ele>101</ele>
        <time>2020-09-12T14:05:49.266Z</time>
      </trkpt>
      <trkpt lat="48.88775" lon="-1.07816">
        <ele>101</ele>
        <time>2020-09-12T14:05:54.275Z</time>
      </trkpt>
      <trkpt lat="48.88799" lon="-1.07779">
        <ele>103</ele>
        <time>2020-09-12T14:05:59.272Z</time>
      </trkpt>
      <trkpt lat="48.88825" lon="-1.07743">
        <ele>104</ele>
        <time>2020-09-12T14:06:04.272Z</time>
      </trkpt>
      <trkpt lat="48.88854" lon="-1.07711">
        <ele>105</ele>
        <time>2020-09-12T14:06:09.278Z</time>
      </trkpt>
      <trkpt lat="48.88886" lon="-1.07687">
        <ele>106</ele>
        <time>2020-09-12T14:06:14.285Z</time>
      </trkpt>
      <trkpt lat="48.88919" lon="-1.07666">
        <ele>108</ele>
        <time>2020-09-12T14:06:19.277Z</time>
      </trkpt>
      <trkpt lat="48.88943" lon="-1.07626">
        <ele>109</ele>
        <time>2020-09-12T14:06:24.272Z</time>
      </trkpt>
      <trkpt lat="48.88957" lon="-1.07575">
        <ele>111</ele>
        <time>2020-09-12T14:06:29.265Z</time>
      </trkpt>
      <trkpt lat="48.88971" lon="-1.07525">
        <ele>112</ele>
        <time>2020-09-12T14:06:34.272Z</time>
      </trkpt>
      <trkpt lat="48.88987" lon="-1.07472">
        <ele>113</ele>
        <time>2020-09-12T14:06:39.271Z</time>
      </trkpt>
      <trkpt lat="48.89007" lon="-1.07416">
        <ele>114</ele>
        <time>2020-09-12T14:06:44.291Z</time>
      </trkpt>
      <trkpt lat="48.89033" lon="-1.07362">
        <ele>115</ele>
        <time>2020-09-12T14:06:49.278Z</time>
      </trkpt>
      <trkpt lat="48.89063" lon="-1.07304">
        <ele>115</ele>
        <time>2020-09-12T14:06:54.278Z</time>
      </trkpt>
      <trkpt lat="48.89089" lon="-1.07237">
        <ele>115</ele>
        <time>2020-09-12T14:06:59.271Z</time>
      </trkpt>
      <trkpt lat="48.89108" lon="-1.07157">
        <ele>114</ele>
        <time>2020-09-12T14:07:04.272Z</time>
      </trkpt>
      <trkpt lat="48.89129" lon="-1.07065">
        <ele>113</ele>
        <time>2020-09-12T14:07:09.274Z</time>
      </trkpt>
      <trkpt lat="48.89146" lon="-1.0697">
        <ele>111</ele>
        <time>2020-09-12T14:07:14.291Z</time>
      </trkpt>
      <trkpt lat="48.89156" lon="-1.06871">
        <ele>109</ele>
        <time>2020-09-12T14:07:19.274Z</time>
      </trkpt>
      <trkpt lat="48.89167" lon="-1.06771">
        <ele>106</ele>
        <time>2020-09-12T14:07:24.273Z</time>
      </trkpt>
      <trkpt lat="48.89181" lon="-1.0667">
        <ele>103</ele>
        <time>2020-09-12T14:07:29.290Z</time>
      </trkpt>
      <trkpt lat="48.89195" lon="-1.06561">
        <ele>100</ele>
        <time>2020-09-12T14:07:34.272Z</time>
      </trkpt>
      <trkpt lat="48.89223" lon="-1.06451">
        <ele>95</ele>
        <time>2020-09-12T14:07:40.274Z</time>
      </trkpt>
      <trkpt lat="48.89184" lon="-1.0638">
        <ele>91</ele>
        <time>2020-09-12T14:07:46.276Z</time>
      </trkpt>
      <trkpt lat="48.89146" lon="-1.06313">
        <ele>88</ele>
        <time>2020-09-12T14:07:51.275Z</time>
      </trkpt>
      <trkpt lat="48.89123" lon="-1.06238">
        <ele>84</ele>
        <time>2020-09-12T14:07:56.317Z</time>
      </trkpt>
      <trkpt lat="48.89111" lon="-1.06156">
        <ele>82</ele>
        <time>2020-09-12T14:08:02.318Z</time>
      </trkpt>
      <trkpt lat="48.89097" lon="-1.06093">
        <ele>80</ele>
        <time>2020-09-12T14:08:08.291Z</time>
      </trkpt>
      <trkpt lat="48.89088" lon="-1.06041">
        <ele>79</ele>
        <time>2020-09-12T14:08:13.279Z</time>
      </trkpt>
      <trkpt lat="48.89086" lon="-1.05989">
        <ele>79</ele>
        <time>2020-09-12T14:08:18.272Z</time>
      </trkpt>
      <trkpt lat="48.89086" lon="-1.05938">
        <ele>80</ele>
        <time>2020-09-12T14:08:23.275Z</time>
      </trkpt>
      <trkpt lat="48.89069" lon="-1.05893">
        <ele>80</ele>
        <time>2020-09-12T14:08:28.272Z</time>
      </trkpt>
      <trkpt lat="48.8907" lon="-1.05846">
        <ele>82</ele>
        <time>2020-09-12T14:08:33.274Z</time>
      </trkpt>
      <trkpt lat="48.89081" lon="-1.05799">
        <ele>83</ele>
        <time>2020-09-12T14:08:37.272Z</time>
      </trkpt>
      <trkpt lat="48.89091" lon="-1.05748">
        <ele>85</ele>
        <time>2020-09-12T14:08:41.274Z</time>
      </trkpt>
      <trkpt lat="48.89103" lon="-1.05677">
        <ele>86</ele>
        <time>2020-09-12T14:08:46.273Z</time>
      </trkpt>
      <trkpt lat="48.89118" lon="-1.05603">
        <ele>87</ele>
        <time>2020-09-12T14:08:51.274Z</time>
      </trkpt>
      <trkpt lat="48.89136" lon="-1.05528">
        <ele>87</ele>
        <time>2020-09-12T14:08:56.321Z</time>
      </trkpt>
      <trkpt lat="48.89154" lon="-1.05451">
        <ele>87</ele>
        <time>2020-09-12T14:09:01.272Z</time>
      </trkpt>
      <trkpt lat="48.89177" lon="-1.05376">
        <ele>87</ele>
        <time>2020-09-12T14:09:06.274Z</time>
      </trkpt>
      <trkpt lat="48.89204" lon="-1.05296">
        <ele>86</ele>
        <time>2020-09-12T14:09:11.271Z</time>
      </trkpt>
      <trkpt lat="48.89228" lon="-1.05214">
        <ele>85</ele>
        <time>2020-09-12T14:09:16.273Z</time>
      </trkpt>
      <trkpt lat="48.89247" lon="-1.05124">
        <ele>84</ele>
        <time>2020-09-12T14:09:21.277Z</time>
      </trkpt>
      <trkpt lat="48.89266" lon="-1.05032">
        <ele>82</ele>
        <time>2020-09-12T14:09:26.320Z</time>
      </trkpt>
      <trkpt lat="48.8928" lon="-1.04944">
        <ele>81</ele>
        <time>2020-09-12T14:09:31.279Z</time>
      </trkpt>
      <trkpt lat="48.89303" lon="-1.04861">
        <ele>79</ele>
        <time>2020-09-12T14:09:37.274Z</time>
      </trkpt>
      <trkpt lat="48.89309" lon="-1.04783">
        <ele>78</ele>
        <time>2020-09-12T14:09:43.274Z</time>
      </trkpt>
      <trkpt lat="48.8931" lon="-1.04717">
        <ele>78</ele>
        <time>2020-09-12T14:09:47.273Z</time>
      </trkpt>
      <trkpt lat="48.89315" lon="-1.04649">
        <ele>77</ele>
        <time>2020-09-12T14:09:51.275Z</time>
      </trkpt>
      <trkpt lat="48.8933" lon="-1.04569">
        <ele>76</ele>
        <time>2020-09-12T14:09:56.331Z</time>
      </trkpt>
      <trkpt lat="48.89348" lon="-1.04497">
        <ele>76</ele>
        <time>2020-09-12T14:10:01.276Z</time>
      </trkpt>
      <trkpt lat="48.89361" lon="-1.04424">
        <ele>76</ele>
        <time>2020-09-12T14:10:06.270Z</time>
      </trkpt>
      <trkpt lat="48.8938" lon="-1.04356">
        <ele>76</ele>
        <time>2020-09-12T14:10:11.272Z</time>
      </trkpt>
      <trkpt lat="48.89387" lon="-1.04279">
        <ele>76</ele>
        <time>2020-09-12T14:10:16.276Z</time>
      </trkpt>
      <trkpt lat="48.89388" lon="-1.04205">
        <ele>77</ele>
        <time>2020-09-12T14:10:21.273Z</time>
      </trkpt>
      <trkpt lat="48.89397" lon="-1.0413">
        <ele>77</ele>
        <time>2020-09-12T14:10:26.324Z</time>
      </trkpt>
      <trkpt lat="48.89413" lon="-1.04054">
        <ele>77</ele>
        <time>2020-09-12T14:10:31.274Z</time>
      </trkpt>
      <trkpt lat="48.89428" lon="-1.03974">
        <ele>78</ele>
        <time>2020-09-12T14:10:36.275Z</time>
      </trkpt>
      <trkpt lat="48.89445" lon="-1.0389">
        <ele>78</ele>
        <time>2020-09-12T14:10:41.274Z</time>
      </trkpt>
      <trkpt lat="48.8948" lon="-1.03816">
        <ele>78</ele>
        <time>2020-09-12T14:10:46.275Z</time>
      </trkpt>
      <trkpt lat="48.89507" lon="-1.0373">
        <ele>78</ele>
        <time>2020-09-12T14:10:52.272Z</time>
      </trkpt>
      <trkpt lat="48.89537" lon="-1.03657">
        <ele>78</ele>
        <time>2020-09-12T14:10:57.271Z</time>
      </trkpt>
      <trkpt lat="48.8957" lon="-1.03591">
        <ele>78</ele>
        <time>2020-09-12T14:11:02.320Z</time>
      </trkpt>
      <trkpt lat="48.896" lon="-1.03524">
        <ele>78</ele>
        <time>2020-09-12T14:11:07.274Z</time>
      </trkpt>
      <trkpt lat="48.89628" lon="-1.03454">
        <ele>77</ele>
        <time>2020-09-12T14:11:12.274Z</time>
      </trkpt>
      <trkpt lat="48.89653" lon="-1.03377">
        <ele>77</ele>
        <time>2020-09-12T14:11:17.271Z</time>
      </trkpt>
      <trkpt lat="48.89677" lon="-1.03295">
        <ele>77</ele>
        <time>2020-09-12T14:11:22.273Z</time>
      </trkpt>
      <trkpt lat="48.89702" lon="-1.03218">
        <ele>77</ele>
        <time>2020-09-12T14:11:27.276Z</time>
      </trkpt>
      <trkpt lat="48.89726" lon="-1.03141">
        <ele>77</ele>
        <time>2020-09-12T14:11:32.322Z</time>
      </trkpt>
      <trkpt lat="48.89752" lon="-1.03067">
        <ele>78</ele>
        <time>2020-09-12T14:11:37.273Z</time>
      </trkpt>
      <trkpt lat="48.8978" lon="-1.02993">
        <ele>78</ele>
        <time>2020-09-12T14:11:42.272Z</time>
      </trkpt>
      <trkpt lat="48.89816" lon="-1.02922">
        <ele>77</ele>
        <time>2020-09-12T14:11:47.273Z</time>
      </trkpt>
      <trkpt lat="48.8985" lon="-1.02844">
        <ele>76</ele>
        <time>2020-09-12T14:11:52.259Z</time>
      </trkpt>
      <trkpt lat="48.89877" lon="-1.02756">
        <ele>75</ele>
        <time>2020-09-12T14:11:57.275Z</time>
      </trkpt>
      <trkpt lat="48.89896" lon="-1.02668">
        <ele>74</ele>
        <time>2020-09-12T14:12:02.323Z</time>
      </trkpt>
      <trkpt lat="48.89915" lon="-1.02586">
        <ele>72</ele>
        <time>2020-09-12T14:12:07.275Z</time>
      </trkpt>
      <trkpt lat="48.89903" lon="-1.02509">
        <ele>70</ele>
        <time>2020-09-12T14:12:13.273Z</time>
      </trkpt>
      <trkpt lat="48.89929" lon="-1.02467">
        <ele>69</ele>
        <time>2020-09-12T14:12:19.276Z</time>
      </trkpt>
      <trkpt lat="48.89965" lon="-1.02449">
        <ele>68</ele>
        <time>2020-09-12T14:12:23.272Z</time>
      </trkpt>
      <trkpt lat="48.9001" lon="-1.02426">
        <ele>66</ele>
        <time>2020-09-12T14:12:28.273Z</time>
      </trkpt>
      <trkpt lat="48.90052" lon="-1.02395">
        <ele>65</ele>
        <time>2020-09-12T14:12:33.272Z</time>
      </trkpt>
      <trkpt lat="48.90085" lon="-1.0235">
        <ele>65</ele>
        <time>2020-09-12T14:12:38.309Z</time>
      </trkpt>
      <trkpt lat="48.90115" lon="-1.02298">
        <ele>65</ele>
        <time>2020-09-12T14:12:43.273Z</time>
      </trkpt>
      <trkpt lat="48.90143" lon="-1.02248">
        <ele>66</ele>
        <time>2020-09-12T14:12:48.274Z</time>
      </trkpt>
      <trkpt lat="48.90172" lon="-1.02198">
        <ele>66</ele>
        <time>2020-09-12T14:12:53.273Z</time>
      </trkpt>
      <trkpt lat="48.902" lon="-1.0214">
        <ele>67</ele>
        <time>2020-09-12T14:12:58.277Z</time>
      </trkpt>
      <trkpt lat="48.9022" lon="-1.02074">
        <ele>68</ele>
        <time>2020-09-12T14:13:03.274Z</time>
      </trkpt>
      <trkpt lat="48.90233" lon="-1.0201">
        <ele>68</ele>
        <time>2020-09-12T14:13:08.308Z</time>
      </trkpt>
      <trkpt lat="48.90242" lon="-1.01948">
        <ele>69</ele>
        <time>2020-09-12T14:13:13.277Z</time>
      </trkpt>
      <trkpt lat="48.9025" lon="-1.01887">
        <ele>69</ele>
        <time>2020-09-12T14:13:18.275Z</time>
      </trkpt>
      <trkpt lat="48.90269" lon="-1.0183">
        <ele>70</ele>
        <time>2020-09-12T14:13:23.272Z</time>
      </trkpt>
      <trkpt lat="48.90292" lon="-1.01788">
        <ele>71</ele>
        <time>2020-09-12T14:13:28.276Z</time>
      </trkpt>
      <trkpt lat="48.90314" lon="-1.01746">
        <ele>71</ele>
        <time>2020-09-12T14:13:33.280Z</time>
      </trkpt>
      <trkpt lat="48.90325" lon="-1.01696">
        <ele>72</ele>
        <time>2020-09-12T14:13:38.311Z</time>
      </trkpt>
      <trkpt lat="48.90336" lon="-1.0165">
        <ele>73</ele>
        <time>2020-09-12T14:13:43.275Z</time>
      </trkpt>
      <trkpt lat="48.90349" lon="-1.01607">
        <ele>74</ele>
        <time>2020-09-12T14:13:49.273Z</time>
      </trkpt>
      <trkpt lat="48.90358" lon="-1.01581">
        <ele>75</ele>
        <time>2020-09-12T14:13:55.277Z</time>
      </trkpt>
      <trkpt lat="48.90363" lon="-1.0156">
        <ele>76</ele>
        <time>2020-09-12T14:14:00.276Z</time>
      </trkpt>
      <trkpt lat="48.90366" lon="-1.01539">
        <ele>76</ele>
        <time>2020-09-12T14:14:04.274Z</time>
      </trkpt>
      <trkpt lat="48.90369" lon="-1.0152">
        <ele>77</ele>
        <time>2020-09-12T14:14:07.275Z</time>
      </trkpt>
      <trkpt lat="48.90375" lon="-1.01497">
        <ele>77</ele>
        <time>2020-09-12T14:14:10.271Z</time>
      </trkpt>
      <trkpt lat="48.9038" lon="-1.0147">
        <ele>77</ele>
        <time>2020-09-12T14:14:13.275Z</time>
      </trkpt>
      <trkpt lat="48.90382" lon="-1.01426">
        <ele>77</ele>
        <time>2020-09-12T14:14:17.275Z</time>
      </trkpt>
      <trkpt lat="48.90371" lon="-1.01373">
        <ele>77</ele>
        <time>2020-09-12T14:14:21.272Z</time>
      </trkpt>
      <trkpt lat="48.9036" lon="-1.01315">
        <ele>76</ele>
        <time>2020-09-12T14:14:25.274Z</time>
      </trkpt>
      <trkpt lat="48.90392" lon="-1.0125">
        <ele>75</ele>
        <time>2020-09-12T14:14:30.273Z</time>
      </trkpt>
      <trkpt lat="48.90406" lon="-1.01178">
        <ele>74</ele>
        <time>2020-09-12T14:14:35.275Z</time>
      </trkpt>
      <trkpt lat="48.90396" lon="-1.01108">
        <ele>72</ele>
        <time>2020-09-12T14:14:41.284Z</time>
      </trkpt>
      <trkpt lat="48.90379" lon="-1.01057">
        <ele>71</ele>
        <time>2020-09-12T14:14:47.279Z</time>
      </trkpt>
      <trkpt lat="48.90376" lon="-1.01012">
        <ele>70</ele>
        <time>2020-09-12T14:14:52.277Z</time>
      </trkpt>
      <trkpt lat="48.90376" lon="-1.00964">
        <ele>70</ele>
        <time>2020-09-12T14:14:57.272Z</time>
      </trkpt>
      <trkpt lat="48.90375" lon="-1.00916">
        <ele>69</ele>
        <time>2020-09-12T14:15:02.322Z</time>
      </trkpt>
      <trkpt lat="48.90373" lon="-1.00868">
        <ele>69</ele>
        <time>2020-09-12T14:15:07.275Z</time>
      </trkpt>
      <trkpt lat="48.90365" lon="-1.00826">
        <ele>69</ele>
        <time>2020-09-12T14:15:11.273Z</time>
      </trkpt>
      <trkpt lat="48.90363" lon="-1.00781">
        <ele>70</ele>
        <time>2020-09-12T14:15:15.275Z</time>
      </trkpt>
      <trkpt lat="48.90368" lon="-1.00721">
        <ele>70</ele>
        <time>2020-09-12T14:15:20.307Z</time>
      </trkpt>
      <trkpt lat="48.90378" lon="-1.00662">
        <ele>71</ele>
        <time>2020-09-12T14:15:25.265Z</time>
      </trkpt>
      <trkpt lat="48.9038" lon="-1.00604">
        <ele>71</ele>
        <time>2020-09-12T14:15:30.283Z</time>
      </trkpt>
      <trkpt lat="48.90381" lon="-1.00549">
        <ele>71</ele>
        <time>2020-09-12T14:15:35.279Z</time>
      </trkpt>
      <trkpt lat="48.90382" lon="-1.00494">
        <ele>71</ele>
        <time>2020-09-12T14:15:40.271Z</time>
      </trkpt>
      <trkpt lat="48.90374" lon="-1.0044">
        <ele>70</ele>
        <time>2020-09-12T14:15:45.275Z</time>
      </trkpt>
      <trkpt lat="48.90359" lon="-1.0039">
        <ele>70</ele>
        <time>2020-09-12T14:15:50.310Z</time>
      </trkpt>
      <trkpt lat="48.90345" lon="-1.0034">
        <ele>70</ele>
        <time>2020-09-12T14:15:55.273Z</time>
      </trkpt>
      <trkpt lat="48.90324" lon="-1.00295">
        <ele>69</ele>
        <time>2020-09-12T14:16:00.278Z</time>
      </trkpt>
      <trkpt lat="48.9029" lon="-1.00263">
        <ele>69</ele>
        <time>2020-09-12T14:16:05.276Z</time>
      </trkpt>
      <trkpt lat="48.90257" lon="-1.00235">
        <ele>69</ele>
        <time>2020-09-12T14:16:10.274Z</time>
      </trkpt>
      <trkpt lat="48.90229" lon="-1.00203">
        <ele>69</ele>
        <time>2020-09-12T14:16:15.274Z</time>
      </trkpt>
      <trkpt lat="48.90202" lon="-1.00168">
        <ele>69</ele>
        <time>2020-09-12T14:16:20.313Z</time>
      </trkpt>
      <trkpt lat="48.90179" lon="-1.00133">
        <ele>69</ele>
        <time>2020-09-12T14:16:25.275Z</time>
      </trkpt>
      <trkpt lat="48.90155" lon="-1.00098">
        <ele>69</ele>
        <time>2020-09-12T14:16:30.276Z</time>
      </trkpt>
      <trkpt lat="48.90133" lon="-1.00062">
        <ele>70</ele>
        <time>2020-09-12T14:16:35.274Z</time>
      </trkpt>
      <trkpt lat="48.90115" lon="-1.00027">
        <ele>71</ele>
        <time>2020-09-12T14:16:40.273Z</time>
      </trkpt>
      <trkpt lat="48.901" lon="-0.99987">
        <ele>72</ele>
        <time>2020-09-12T14:16:45.285Z</time>
      </trkpt>
      <trkpt lat="48.9009" lon="-0.99943">
        <ele>73</ele>
        <time>2020-09-12T14:16:50.308Z</time>
      </trkpt>
      <trkpt lat="48.90086" lon="-0.99904">
        <ele>74</ele>
        <time>2020-09-12T14:16:55.273Z</time>
      </trkpt>
      <trkpt lat="48.90106" lon="-0.99878">
        <ele>75</ele>
        <time>2020-09-12T14:17:01.276Z</time>
      </trkpt>
      <trkpt lat="48.90129" lon="-0.99867">
        <ele>76</ele>
        <time>2020-09-12T14:17:06.283Z</time>
      </trkpt>
      <trkpt lat="48.90151" lon="-0.99855">
        <ele>78</ele>
        <time>2020-09-12T14:17:11.265Z</time>
      </trkpt>
      <trkpt lat="48.90168" lon="-0.99842">
        <ele>80</ele>
        <time>2020-09-12T14:17:17.274Z</time>
      </trkpt>
      <trkpt lat="48.90164" lon="-0.99819">
        <ele>82</ele>
        <time>2020-09-12T14:17:23.274Z</time>
      </trkpt>
      <trkpt lat="48.90155" lon="-0.99807">
        <ele>82</ele>
        <time>2020-09-12T14:17:25.273Z</time>
      </trkpt>
      <trkpt lat="48.90142" lon="-0.99784">
        <ele>83</ele>
        <time>2020-09-12T14:17:28.276Z</time>
      </trkpt>
      <trkpt lat="48.90129" lon="-0.99758">
        <ele>83</ele>
        <time>2020-09-12T14:17:31.266Z</time>
      </trkpt>
      <trkpt lat="48.90112" lon="-0.99714">
        <ele>84</ele>
        <time>2020-09-12T14:17:35.275Z</time>
      </trkpt>
      <trkpt lat="48.90088" lon="-0.99662">
        <ele>84</ele>
        <time>2020-09-12T14:17:39.279Z</time>
      </trkpt>
      <trkpt lat="48.90055" lon="-0.99613">
        <ele>84</ele>
        <time>2020-09-12T14:17:43.274Z</time>
      </trkpt>
      <trkpt lat="48.90016" lon="-0.99564">
        <ele>83</ele>
        <time>2020-09-12T14:17:48.274Z</time>
      </trkpt>
      <trkpt lat="48.89973" lon="-0.99516">
        <ele>82</ele>
        <time>2020-09-12T14:17:54.274Z</time>
      </trkpt>
      <trkpt lat="48.89938" lon="-0.99475">
        <ele>81</ele>
        <time>2020-09-12T14:18:00.275Z</time>
      </trkpt>
      <trkpt lat="48.89912" lon="-0.99442">
        <ele>79</ele>
        <time>2020-09-12T14:18:05.277Z</time>
      </trkpt>
      <trkpt lat="48.89888" lon="-0.9941">
        <ele>78</ele>
        <time>2020-09-12T14:18:10.281Z</time>
      </trkpt>
      <trkpt lat="48.89865" lon="-0.99379">
        <ele>78</ele>
        <time>2020-09-12T14:18:15.277Z</time>
      </trkpt>
      <trkpt lat="48.89841" lon="-0.99348">
        <ele>77</ele>
        <time>2020-09-12T14:18:20.309Z</time>
      </trkpt>
      <trkpt lat="48.89816" lon="-0.99317">
        <ele>78</ele>
        <time>2020-09-12T14:18:25.275Z</time>
      </trkpt>
      <trkpt lat="48.89791" lon="-0.99285">
        <ele>78</ele>
        <time>2020-09-12T14:18:30.275Z</time>
      </trkpt>
      <trkpt lat="48.89766" lon="-0.99255">
        <ele>79</ele>
        <time>2020-09-12T14:18:35.276Z</time>
      </trkpt>
      <trkpt lat="48.89742" lon="-0.99224">
        <ele>80</ele>
        <time>2020-09-12T14:18:40.275Z</time>
      </trkpt>
      <trkpt lat="48.89722" lon="-0.99188">
        <ele>82</ele>
        <time>2020-09-12T14:18:45.285Z</time>
      </trkpt>
      <trkpt lat="48.89706" lon="-0.99145">
        <ele>83</ele>
        <time>2020-09-12T14:18:50.311Z</time>
      </trkpt>
      <trkpt lat="48.8969" lon="-0.99106">
        <ele>84</ele>
        <time>2020-09-12T14:18:55.274Z</time>
      </trkpt>
      <trkpt lat="48.89672" lon="-0.99071">
        <ele>85</ele>
        <time>2020-09-12T14:19:00.276Z</time>
      </trkpt>
      <trkpt lat="48.89651" lon="-0.99037">
        <ele>87</ele>
        <time>2020-09-12T14:19:05.275Z</time>
      </trkpt>
      <trkpt lat="48.89629" lon="-0.99003">
        <ele>88</ele>
        <time>2020-09-12T14:19:10.276Z</time>
      </trkpt>
      <trkpt lat="48.89606" lon="-0.98969">
        <ele>90</ele>
        <time>2020-09-12T14:19:15.274Z</time>
      </trkpt>
      <trkpt lat="48.89583" lon="-0.98939">
        <ele>91</ele>
        <time>2020-09-12T14:19:20.310Z</time>
      </trkpt>
      <trkpt lat="48.89558" lon="-0.9891">
        <ele>93</ele>
        <time>2020-09-12T14:19:25.274Z</time>
      </trkpt>
      <trkpt lat="48.89534" lon="-0.98884">
        <ele>94</ele>
        <time>2020-09-12T14:19:30.275Z</time>
      </trkpt>
      <trkpt lat="48.89511" lon="-0.98855">
        <ele>95</ele>
        <time>2020-09-12T14:19:35.276Z</time>
      </trkpt>
      <trkpt lat="48.89493" lon="-0.98816">
        <ele>97</ele>
        <time>2020-09-12T14:19:40.275Z</time>
      </trkpt>
      <trkpt lat="48.89478" lon="-0.98771">
        <ele>98</ele>
        <time>2020-09-12T14:19:45.289Z</time>
      </trkpt>
      <trkpt lat="48.89459" lon="-0.98727">
        <ele>99</ele>
        <time>2020-09-12T14:19:50.309Z</time>
      </trkpt>
      <trkpt lat="48.89437" lon="-0.98684">
        <ele>100</ele>
        <time>2020-09-12T14:19:55.276Z</time>
      </trkpt>
      <trkpt lat="48.89412" lon="-0.98647">
        <ele>102</ele>
        <time>2020-09-12T14:20:00.277Z</time>
      </trkpt>
      <trkpt lat="48.89388" lon="-0.98611">
        <ele>103</ele>
        <time>2020-09-12T14:20:05.276Z</time>
      </trkpt>
      <trkpt lat="48.89369" lon="-0.98571">
        <ele>104</ele>
        <time>2020-09-12T14:20:10.275Z</time>
      </trkpt>
      <trkpt lat="48.89355" lon="-0.98528">
        <ele>105</ele>
        <time>2020-09-12T14:20:15.275Z</time>
      </trkpt>
      <trkpt lat="48.89363" lon="-0.98482">
        <ele>106</ele>
        <time>2020-09-12T14:20:20.313Z</time>
      </trkpt>
      <trkpt lat="48.89372" lon="-0.98432">
        <ele>107</ele>
        <time>2020-09-12T14:20:25.274Z</time>
      </trkpt>
      <trkpt lat="48.89379" lon="-0.98378">
        <ele>108</ele>
        <time>2020-09-12T14:20:30.276Z</time>
      </trkpt>
      <trkpt lat="48.89388" lon="-0.98323">
        <ele>109</ele>
        <time>2020-09-12T14:20:35.276Z</time>
      </trkpt>
      <trkpt lat="48.894" lon="-0.98267">
        <ele>110</ele>
        <time>2020-09-12T14:20:40.275Z</time>
      </trkpt>
      <trkpt lat="48.89409" lon="-0.9821">
        <ele>111</ele>
        <time>2020-09-12T14:20:45.275Z</time>
      </trkpt>
      <trkpt lat="48.89419" lon="-0.98154">
        <ele>112</ele>
        <time>2020-09-12T14:20:50.309Z</time>
      </trkpt>
      <trkpt lat="48.89427" lon="-0.98099">
        <ele>114</ele>
        <time>2020-09-12T14:20:55.271Z</time>
      </trkpt>
      <trkpt lat="48.89436" lon="-0.98044">
        <ele>115</ele>
        <time>2020-09-12T14:21:00.276Z</time>
      </trkpt>
      <trkpt lat="48.89445" lon="-0.97989">
        <ele>116</ele>
        <time>2020-09-12T14:21:05.273Z</time>
      </trkpt>
      <trkpt lat="48.89454" lon="-0.97934">
        <ele>117</ele>
        <time>2020-09-12T14:21:10.276Z</time>
      </trkpt>
      <trkpt lat="48.8946" lon="-0.97878">
        <ele>118</ele>
        <time>2020-09-12T14:21:15.276Z</time>
      </trkpt>
      <trkpt lat="48.89466" lon="-0.97823">
        <ele>119</ele>
        <time>2020-09-12T14:21:20.307Z</time>
      </trkpt>
      <trkpt lat="48.89471" lon="-0.97766">
        <ele>120</ele>
        <time>2020-09-12T14:21:25.274Z</time>
      </trkpt>
      <trkpt lat="48.89475" lon="-0.9771">
        <ele>120</ele>
        <time>2020-09-12T14:21:30.278Z</time>
      </trkpt>
      <trkpt lat="48.89481" lon="-0.97654">
        <ele>121</ele>
        <time>2020-09-12T14:21:35.273Z</time>
      </trkpt>
      <trkpt lat="48.89486" lon="-0.97597">
        <ele>122</ele>
        <time>2020-09-12T14:21:40.275Z</time>
      </trkpt>
      <trkpt lat="48.89491" lon="-0.97538">
        <ele>123</ele>
        <time>2020-09-12T14:21:45.274Z</time>
      </trkpt>
      <trkpt lat="48.89496" lon="-0.97478">
        <ele>123</ele>
        <time>2020-09-12T14:21:50.308Z</time>
      </trkpt>
      <trkpt lat="48.89501" lon="-0.97417">
        <ele>124</ele>
        <time>2020-09-12T14:21:55.274Z</time>
      </trkpt>
      <trkpt lat="48.89506" lon="-0.97356">
        <ele>125</ele>
        <time>2020-09-12T14:22:00.277Z</time>
      </trkpt>
      <trkpt lat="48.89511" lon="-0.97296">
        <ele>125</ele>
        <time>2020-09-12T14:22:05.275Z</time>
      </trkpt>
      <trkpt lat="48.89516" lon="-0.97237">
        <ele>126</ele>
        <time>2020-09-12T14:22:10.276Z</time>
      </trkpt>
      <trkpt lat="48.89521" lon="-0.97177">
        <ele>127</ele>
        <time>2020-09-12T14:22:15.276Z</time>
      </trkpt>
      <trkpt lat="48.89526" lon="-0.97118">
        <ele>127</ele>
        <time>2020-09-12T14:22:20.307Z</time>
      </trkpt>
      <trkpt lat="48.89531" lon="-0.9706">
        <ele>127</ele>
        <time>2020-09-12T14:22:25.272Z</time>
      </trkpt>
      <trkpt lat="48.89536" lon="-0.97002">
        <ele>128</ele>
        <time>2020-09-12T14:22:30.279Z</time>
      </trkpt>
      <trkpt lat="48.89543" lon="-0.96943">
        <ele>128</ele>
        <time>2020-09-12T14:22:35.273Z</time>
      </trkpt>
      <trkpt lat="48.8955" lon="-0.96882">
        <ele>129</ele>
        <time>2020-09-12T14:22:40.271Z</time>
      </trkpt>
      <trkpt lat="48.89558" lon="-0.96822">
        <ele>129</ele>
        <time>2020-09-12T14:22:45.278Z</time>
      </trkpt>
      <trkpt lat="48.89566" lon="-0.96764">
        <ele>130</ele>
        <time>2020-09-12T14:22:50.315Z</time>
      </trkpt>
      <trkpt lat="48.89575" lon="-0.96704">
        <ele>130</ele>
        <time>2020-09-12T14:22:55.274Z</time>
      </trkpt>
      <trkpt lat="48.89583" lon="-0.96639">
        <ele>131</ele>
        <time>2020-09-12T14:23:00.278Z</time>
      </trkpt>
      <trkpt lat="48.89592" lon="-0.96578">
        <ele>131</ele>
        <time>2020-09-12T14:23:05.273Z</time>
      </trkpt>
      <trkpt lat="48.89603" lon="-0.96522">
        <ele>132</ele>
        <time>2020-09-12T14:23:10.274Z</time>
      </trkpt>
      <trkpt lat="48.89616" lon="-0.96471">
        <ele>133</ele>
        <time>2020-09-12T14:23:15.278Z</time>
      </trkpt>
      <trkpt lat="48.89631" lon="-0.96421">
        <ele>133</ele>
        <time>2020-09-12T14:23:20.313Z</time>
      </trkpt>
      <trkpt lat="48.89646" lon="-0.96373">
        <ele>134</ele>
        <time>2020-09-12T14:23:25.273Z</time>
      </trkpt>
      <trkpt lat="48.8966" lon="-0.96325">
        <ele>135</ele>
        <time>2020-09-12T14:23:30.274Z</time>
      </trkpt>
      <trkpt lat="48.89675" lon="-0.96278">
        <ele>137</ele>
        <time>2020-09-12T14:23:35.274Z</time>
      </trkpt>
      <trkpt lat="48.89688" lon="-0.96229">
        <ele>138</ele>
        <time>2020-09-12T14:23:40.274Z</time>
      </trkpt>
      <trkpt lat="48.897" lon="-0.96178">
        <ele>139</ele>
        <time>2020-09-12T14:23:45.274Z</time>
      </trkpt>
      <trkpt lat="48.8971" lon="-0.96131">
        <ele>141</ele>
        <time>2020-09-12T14:23:50.309Z</time>
      </trkpt>
      <trkpt lat="48.8972" lon="-0.96079">
        <ele>142</ele>
        <time>2020-09-12T14:23:55.275Z</time>
      </trkpt>
      <trkpt lat="48.89731" lon="-0.96026">
        <ele>143</ele>
        <time>2020-09-12T14:24:00.275Z</time>
      </trkpt>
      <trkpt lat="48.89751" lon="-0.95977">
        <ele>145</ele>
        <time>2020-09-12T14:24:05.272Z</time>
      </trkpt>
      <trkpt lat="48.89776" lon="-0.95935">
        <ele>146</ele>
        <time>2020-09-12T14:24:10.273Z</time>
      </trkpt>
      <trkpt lat="48.89797" lon="-0.95888">
        <ele>147</ele>
        <time>2020-09-12T14:24:15.279Z</time>
      </trkpt>
      <trkpt lat="48.89816" lon="-0.95834">
        <ele>148</ele>
        <time>2020-09-12T14:24:20.311Z</time>
      </trkpt>
      <trkpt lat="48.89834" lon="-0.95775">
        <ele>149</ele>
        <time>2020-09-12T14:24:25.273Z</time>
      </trkpt>
      <trkpt lat="48.89851" lon="-0.95719">
        <ele>149</ele>
        <time>2020-09-12T14:24:30.273Z</time>
      </trkpt>
      <trkpt lat="48.89869" lon="-0.95663">
        <ele>150</ele>
        <time>2020-09-12T14:24:35.273Z</time>
      </trkpt>
      <trkpt lat="48.89884" lon="-0.95606">
        <ele>150</ele>
        <time>2020-09-12T14:24:40.274Z</time>
      </trkpt>
      <trkpt lat="48.89892" lon="-0.95543">
        <ele>150</ele>
        <time>2020-09-12T14:24:45.289Z</time>
      </trkpt>
      <trkpt lat="48.89902" lon="-0.95478">
        <ele>150</ele>
        <time>2020-09-12T14:24:50.310Z</time>
      </trkpt>
      <trkpt lat="48.89909" lon="-0.95419">
        <ele>150</ele>
        <time>2020-09-12T14:24:54.274Z</time>
      </trkpt>
      <trkpt lat="48.89913" lon="-0.95346">
        <ele>150</ele>
        <time>2020-09-12T14:24:59.269Z</time>
      </trkpt>
      <trkpt lat="48.89922" lon="-0.95271">
        <ele>149</ele>
        <time>2020-09-12T14:25:04.275Z</time>
      </trkpt>
      <trkpt lat="48.89942" lon="-0.95201">
        <ele>149</ele>
        <time>2020-09-12T14:25:09.279Z</time>
      </trkpt>
      <trkpt lat="48.89967" lon="-0.95132">
        <ele>148</ele>
        <time>2020-09-12T14:25:14.319Z</time>
      </trkpt>
      <trkpt lat="48.89992" lon="-0.95065">
        <ele>148</ele>
        <time>2020-09-12T14:25:19.272Z</time>
      </trkpt>
      <trkpt lat="48.9002" lon="-0.95001">
        <ele>147</ele>
        <time>2020-09-12T14:25:24.278Z</time>
      </trkpt>
      <trkpt lat="48.9005" lon="-0.94936">
        <ele>146</ele>
        <time>2020-09-12T14:25:29.277Z</time>
      </trkpt>
      <trkpt lat="48.90074" lon="-0.94863">
        <ele>145</ele>
        <time>2020-09-12T14:25:34.274Z</time>
      </trkpt>
      <trkpt lat="48.90099" lon="-0.94793">
        <ele>144</ele>
        <time>2020-09-12T14:25:39.275Z</time>
      </trkpt>
      <trkpt lat="48.90133" lon="-0.94739">
        <ele>143</ele>
        <time>2020-09-12T14:25:44.312Z</time>
      </trkpt>
      <trkpt lat="48.90147" lon="-0.94664">
        <ele>143</ele>
        <time>2020-09-12T14:25:50.309Z</time>
      </trkpt>
      <trkpt lat="48.90133" lon="-0.94599">
        <ele>142</ele>
        <time>2020-09-12T14:25:54.277Z</time>
      </trkpt>
      <trkpt lat="48.90122" lon="-0.94524">
        <ele>142</ele>
        <time>2020-09-12T14:25:59.272Z</time>
      </trkpt>
      <trkpt lat="48.90113" lon="-0.94442">
        <ele>141</ele>
        <time>2020-09-12T14:26:04.272Z</time>
      </trkpt>
      <trkpt lat="48.90102" lon="-0.94368">
        <ele>140</ele>
        <time>2020-09-12T14:26:09.274Z</time>
      </trkpt>
      <trkpt lat="48.90085" lon="-0.9429">
        <ele>140</ele>
        <time>2020-09-12T14:26:15.276Z</time>
      </trkpt>
      <trkpt lat="48.90075" lon="-0.94228">
        <ele>139</ele>
        <time>2020-09-12T14:26:20.309Z</time>
      </trkpt>
      <trkpt lat="48.90067" lon="-0.94171">
        <ele>139</ele>
        <time>2020-09-12T14:26:25.275Z</time>
      </trkpt>
      <trkpt lat="48.90063" lon="-0.94119">
        <ele>139</ele>
        <time>2020-09-12T14:26:30.276Z</time>
      </trkpt>
      <trkpt lat="48.90062" lon="-0.9407">
        <ele>139</ele>
        <time>2020-09-12T14:26:35.275Z</time>
      </trkpt>
      <trkpt lat="48.90062" lon="-0.94023">
        <ele>139</ele>
        <time>2020-09-12T14:26:40.273Z</time>
      </trkpt>
      <trkpt lat="48.9006" lon="-0.93976">
        <ele>139</ele>
        <time>2020-09-12T14:26:45.287Z</time>
      </trkpt>
      <trkpt lat="48.90053" lon="-0.93927">
        <ele>140</ele>
        <time>2020-09-12T14:26:50.312Z</time>
      </trkpt>
      <trkpt lat="48.90049" lon="-0.93881">
        <ele>141</ele>
        <time>2020-09-12T14:26:55.275Z</time>
      </trkpt>
      <trkpt lat="48.9005" lon="-0.93838">
        <ele>142</ele>
        <time>2020-09-12T14:27:00.277Z</time>
      </trkpt>
      <trkpt lat="48.90053" lon="-0.93795">
        <ele>144</ele>
        <time>2020-09-12T14:27:05.276Z</time>
      </trkpt>
      <trkpt lat="48.90056" lon="-0.93755">
        <ele>145</ele>
        <time>2020-09-12T14:27:10.276Z</time>
      </trkpt>
      <trkpt lat="48.9006" lon="-0.9372">
        <ele>147</ele>
        <time>2020-09-12T14:27:14.309Z</time>
      </trkpt>
      <trkpt lat="48.90065" lon="-0.93683">
        <ele>148</ele>
        <time>2020-09-12T14:27:18.273Z</time>
      </trkpt>
      <trkpt lat="48.9007" lon="-0.93645">
        <ele>149</ele>
        <time>2020-09-12T14:27:22.276Z</time>
      </trkpt>
      <trkpt lat="48.90076" lon="-0.93603">
        <ele>150</ele>
        <time>2020-09-12T14:27:26.339Z</time>
      </trkpt>
      <trkpt lat="48.90086" lon="-0.9355">
        <ele>152</ele>
        <time>2020-09-12T14:27:31.275Z</time>
      </trkpt>
      <trkpt lat="48.901" lon="-0.93495">
        <ele>153</ele>
        <time>2020-09-12T14:27:36.275Z</time>
      </trkpt>
      <trkpt lat="48.90115" lon="-0.93436">
        <ele>155</ele>
        <time>2020-09-12T14:27:41.276Z</time>
      </trkpt>
      <trkpt lat="48.90118" lon="-0.93368">
        <ele>156</ele>
        <time>2020-09-12T14:27:46.275Z</time>
      </trkpt>
      <trkpt lat="48.90123" lon="-0.93301">
        <ele>156</ele>
        <time>2020-09-12T14:27:51.274Z</time>
      </trkpt>
      <trkpt lat="48.9013" lon="-0.93233">
        <ele>157</ele>
        <time>2020-09-12T14:27:56.341Z</time>
      </trkpt>
      <trkpt lat="48.90125" lon="-0.93166">
        <ele>157</ele>
        <time>2020-09-12T14:28:01.273Z</time>
      </trkpt>
      <trkpt lat="48.9011" lon="-0.93102">
        <ele>157</ele>
        <time>2020-09-12T14:28:06.277Z</time>
      </trkpt>
      <trkpt lat="48.90098" lon="-0.93037">
        <ele>157</ele>
        <time>2020-09-12T14:28:11.273Z</time>
      </trkpt>
      <trkpt lat="48.90091" lon="-0.92969">
        <ele>157</ele>
        <time>2020-09-12T14:28:16.273Z</time>
      </trkpt>
      <trkpt lat="48.90086" lon="-0.92902">
        <ele>156</ele>
        <time>2020-09-12T14:28:21.278Z</time>
      </trkpt>
      <trkpt lat="48.9007" lon="-0.92837">
        <ele>156</ele>
        <time>2020-09-12T14:28:26.317Z</time>
      </trkpt>
      <trkpt lat="48.90056" lon="-0.92772">
        <ele>155</ele>
        <time>2020-09-12T14:28:31.268Z</time>
      </trkpt>
      <trkpt lat="48.90036" lon="-0.92706">
        <ele>155</ele>
        <time>2020-09-12T14:28:36.276Z</time>
      </trkpt>
      <trkpt lat="48.9001" lon="-0.92635">
        <ele>154</ele>
        <time>2020-09-12T14:28:41.276Z</time>
      </trkpt>
      <trkpt lat="48.89982" lon="-0.92566">
        <ele>154</ele>
        <time>2020-09-12T14:28:46.274Z</time>
      </trkpt>
      <trkpt lat="48.89943" lon="-0.92505">
        <ele>153</ele>
        <time>2020-09-12T14:28:51.281Z</time>
      </trkpt>
      <trkpt lat="48.89911" lon="-0.92439">
        <ele>152</ele>
        <time>2020-09-12T14:28:56.340Z</time>
      </trkpt>
      <trkpt lat="48.89884" lon="-0.92375">
        <ele>151</ele>
        <time>2020-09-12T14:29:01.280Z</time>
      </trkpt>
      <trkpt lat="48.89854" lon="-0.92314">
        <ele>150</ele>
        <time>2020-09-12T14:29:06.275Z</time>
      </trkpt>
      <trkpt lat="48.89813" lon="-0.92277">
        <ele>150</ele>
        <time>2020-09-12T14:29:11.276Z</time>
      </trkpt>
      <trkpt lat="48.89763" lon="-0.92297">
        <ele>149</ele>
        <time>2020-09-12T14:29:16.274Z</time>
      </trkpt>
      <trkpt lat="48.89717" lon="-0.9229">
        <ele>148</ele>
        <time>2020-09-12T14:29:21.276Z</time>
      </trkpt>
      <trkpt lat="48.89668" lon="-0.92276">
        <ele>148</ele>
        <time>2020-09-12T14:29:26.339Z</time>
      </trkpt>
      <trkpt lat="48.89618" lon="-0.9228">
        <ele>147</ele>
        <time>2020-09-12T14:29:31.280Z</time>
      </trkpt>
      <trkpt lat="48.89566" lon="-0.9229">
        <ele>146</ele>
        <time>2020-09-12T14:29:36.273Z</time>
      </trkpt>
      <trkpt lat="48.89518" lon="-0.92295">
        <ele>146</ele>
        <time>2020-09-12T14:29:41.277Z</time>
      </trkpt>
      <trkpt lat="48.89466" lon="-0.92292">
        <ele>145</ele>
        <time>2020-09-12T14:29:46.279Z</time>
      </trkpt>
      <trkpt lat="48.89417" lon="-0.92292">
        <ele>144</ele>
        <time>2020-09-12T14:29:51.276Z</time>
      </trkpt>
      <trkpt lat="48.89369" lon="-0.92295">
        <ele>144</ele>
        <time>2020-09-12T14:29:56.337Z</time>
      </trkpt>
      <trkpt lat="48.89321" lon="-0.92303">
        <ele>143</ele>
        <time>2020-09-12T14:30:01.276Z</time>
      </trkpt>
      <trkpt lat="48.89277" lon="-0.92315">
        <ele>142</ele>
        <time>2020-09-12T14:30:06.280Z</time>
      </trkpt>
      <trkpt lat="48.89231" lon="-0.92325">
        <ele>142</ele>
        <time>2020-09-12T14:30:11.274Z</time>
      </trkpt>
      <trkpt lat="48.89185" lon="-0.92333">
        <ele>141</ele>
        <time>2020-09-12T14:30:16.272Z</time>
      </trkpt>
      <trkpt lat="48.89141" lon="-0.92326">
        <ele>141</ele>
        <time>2020-09-12T14:30:21.272Z</time>
      </trkpt>
      <trkpt lat="48.89097" lon="-0.92329">
        <ele>141</ele>
        <time>2020-09-12T14:30:26.338Z</time>
      </trkpt>
      <trkpt lat="48.89063" lon="-0.92372">
        <ele>141</ele>
        <time>2020-09-12T14:30:31.277Z</time>
      </trkpt>
      <trkpt lat="48.89037" lon="-0.92428">
        <ele>141</ele>
        <time>2020-09-12T14:30:36.277Z</time>
      </trkpt>
      <trkpt lat="48.88993" lon="-0.92459">
        <ele>141</ele>
        <time>2020-09-12T14:30:41.274Z</time>
      </trkpt>
      <trkpt lat="48.88942" lon="-0.92473">
        <ele>141</ele>
        <time>2020-09-12T14:30:46.272Z</time>
      </trkpt>
      <trkpt lat="48.88891" lon="-0.92488">
        <ele>141</ele>
        <time>2020-09-12T14:30:51.277Z</time>
      </trkpt>
      <trkpt lat="48.88842" lon="-0.92503">
        <ele>141</ele>
        <time>2020-09-12T14:30:56.341Z</time>
      </trkpt>
      <trkpt lat="48.88795" lon="-0.9252">
        <ele>141</ele>
        <time>2020-09-12T14:31:01.274Z</time>
      </trkpt>
      <trkpt lat="48.88748" lon="-0.92531">
        <ele>140</ele>
        <time>2020-09-12T14:31:06.277Z</time>
      </trkpt>
      <trkpt lat="48.88704" lon="-0.92516">
        <ele>139</ele>
        <time>2020-09-12T14:31:11.275Z</time>
      </trkpt>
      <trkpt lat="48.88666" lon="-0.92475">
        <ele>139</ele>
        <time>2020-09-12T14:31:16.275Z</time>
      </trkpt>
      <trkpt lat="48.88626" lon="-0.92437">
        <ele>138</ele>
        <time>2020-09-12T14:31:21.275Z</time>
      </trkpt>
      <trkpt lat="48.8858" lon="-0.92408">
        <ele>137</ele>
        <time>2020-09-12T14:31:26.340Z</time>
      </trkpt>
      <trkpt lat="48.88537" lon="-0.92378">
        <ele>136</ele>
        <time>2020-09-12T14:31:30.277Z</time>
      </trkpt>
      <trkpt lat="48.88489" lon="-0.92335">
        <ele>135</ele>
        <time>2020-09-12T14:31:35.274Z</time>
      </trkpt>
      <trkpt lat="48.88441" lon="-0.92289">
        <ele>135</ele>
        <time>2020-09-12T14:31:40.274Z</time>
      </trkpt>
      <trkpt lat="48.88391" lon="-0.92245">
        <ele>134</ele>
        <time>2020-09-12T14:31:45.279Z</time>
      </trkpt>
      <trkpt lat="48.88352" lon="-0.92185">
        <ele>133</ele>
        <time>2020-09-12T14:31:50.316Z</time>
      </trkpt>
      <trkpt lat="48.88327" lon="-0.92107">
        <ele>132</ele>
        <time>2020-09-12T14:31:55.274Z</time>
      </trkpt>
      <trkpt lat="48.88284" lon="-0.92037">
        <ele>130</ele>
        <time>2020-09-12T14:32:01.275Z</time>
      </trkpt>
      <trkpt lat="48.88242" lon="-0.91986">
        <ele>129</ele>
        <time>2020-09-12T14:32:06.277Z</time>
      </trkpt>
      <trkpt lat="48.88203" lon="-0.91939">
        <ele>127</ele>
        <time>2020-09-12T14:32:11.275Z</time>
      </trkpt>
      <trkpt lat="48.88164" lon="-0.91893">
        <ele>125</ele>
        <time>2020-09-12T14:32:16.275Z</time>
      </trkpt>
      <trkpt lat="48.88137" lon="-0.91837">
        <ele>123</ele>
        <time>2020-09-12T14:32:23.278Z</time>
      </trkpt>
      <trkpt lat="48.8811" lon="-0.91794">
        <ele>122</ele>
        <time>2020-09-12T14:32:28.273Z</time>
      </trkpt>
      <trkpt lat="48.8808" lon="-0.91774">
        <ele>121</ele>
        <time>2020-09-12T14:32:32.315Z</time>
      </trkpt>
      <trkpt lat="48.88045" lon="-0.9175">
        <ele>120</ele>
        <time>2020-09-12T14:32:37.275Z</time>
      </trkpt>
      <trkpt lat="48.88008" lon="-0.91726">
        <ele>119</ele>
        <time>2020-09-12T14:32:42.277Z</time>
      </trkpt>
      <trkpt lat="48.87974" lon="-0.91699">
        <ele>119</ele>
        <time>2020-09-12T14:32:47.277Z</time>
      </trkpt>
      <trkpt lat="48.87942" lon="-0.9167">
        <ele>119</ele>
        <time>2020-09-12T14:32:51.272Z</time>
      </trkpt>
      <trkpt lat="48.87909" lon="-0.91631">
        <ele>118</ele>
        <time>2020-09-12T14:32:55.275Z</time>
      </trkpt>
      <trkpt lat="48.87868" lon="-0.91595">
        <ele>118</ele>
        <time>2020-09-12T14:32:59.283Z</time>
      </trkpt>
      <trkpt lat="48.87814" lon="-0.91556">
        <ele>118</ele>
        <time>2020-09-12T14:33:04.274Z</time>
      </trkpt>
      <trkpt lat="48.87752" lon="-0.91526">
        <ele>117</ele>
        <time>2020-09-12T14:33:09.277Z</time>
      </trkpt>
      <trkpt lat="48.8769" lon="-0.9147">
        <ele>115</ele>
        <time>2020-09-12T14:33:14.321Z</time>
      </trkpt>
      <trkpt lat="48.87622" lon="-0.91429">
        <ele>111</ele>
        <time>2020-09-12T14:33:20.317Z</time>
      </trkpt>
      <trkpt lat="48.87564" lon="-0.91457">
        <ele>109</ele>
        <time>2020-09-12T14:33:26.327Z</time>
      </trkpt>
      <trkpt lat="48.87517" lon="-0.91458">
        <ele>107</ele>
        <time>2020-09-12T14:33:32.331Z</time>
      </trkpt>
      <trkpt lat="48.87482" lon="-0.91434">
        <ele>106</ele>
        <time>2020-09-12T14:33:38.310Z</time>
      </trkpt>
      <trkpt lat="48.87454" lon="-0.91413">
        <ele>106</ele>
        <time>2020-09-12T14:33:43.276Z</time>
      </trkpt>
      <trkpt lat="48.87428" lon="-0.91396">
        <ele>106</ele>
        <time>2020-09-12T14:33:48.270Z</time>
      </trkpt>
      <trkpt lat="48.87404" lon="-0.91378">
        <ele>107</ele>
        <time>2020-09-12T14:33:53.282Z</time>
      </trkpt>
      <trkpt lat="48.87398" lon="-0.91343">
        <ele>109</ele>
        <time>2020-09-12T14:33:58.275Z</time>
      </trkpt>
      <trkpt lat="48.87407" lon="-0.91307">
        <ele>111</ele>
        <time>2020-09-12T14:34:02.326Z</time>
      </trkpt>
      <trkpt lat="48.87414" lon="-0.9127">
        <ele>113</ele>
        <time>2020-09-12T14:34:06.275Z</time>
      </trkpt>
      <trkpt lat="48.87427" lon="-0.91221">
        <ele>115</ele>
        <time>2020-09-12T14:34:11.278Z</time>
      </trkpt>
      <trkpt lat="48.87438" lon="-0.9117">
        <ele>116</ele>
        <time>2020-09-12T14:34:16.277Z</time>
      </trkpt>
      <trkpt lat="48.87451" lon="-0.91118">
        <ele>117</ele>
        <time>2020-09-12T14:34:21.275Z</time>
      </trkpt>
      <trkpt lat="48.87463" lon="-0.91063">
        <ele>118</ele>
        <time>2020-09-12T14:34:26.331Z</time>
      </trkpt>
      <trkpt lat="48.87476" lon="-0.9101">
        <ele>118</ele>
        <time>2020-09-12T14:34:31.279Z</time>
      </trkpt>
      <trkpt lat="48.87487" lon="-0.90958">
        <ele>119</ele>
        <time>2020-09-12T14:34:36.276Z</time>
      </trkpt>
      <trkpt lat="48.87499" lon="-0.90904">
        <ele>119</ele>
        <time>2020-09-12T14:34:41.279Z</time>
      </trkpt>
      <trkpt lat="48.87512" lon="-0.90844">
        <ele>119</ele>
        <time>2020-09-12T14:34:46.276Z</time>
      </trkpt>
      <trkpt lat="48.87521" lon="-0.90779">
        <ele>118</ele>
        <time>2020-09-12T14:34:51.275Z</time>
      </trkpt>
      <trkpt lat="48.87506" lon="-0.90707">
        <ele>118</ele>
        <time>2020-09-12T14:34:56.339Z</time>
      </trkpt>
      <trkpt lat="48.87505" lon="-0.90635">
        <ele>117</ele>
        <time>2020-09-12T14:35:01.274Z</time>
      </trkpt>
      <trkpt lat="48.87529" lon="-0.90567">
        <ele>115</ele>
        <time>2020-09-12T14:35:06.274Z</time>
      </trkpt>
      <trkpt lat="48.8754" lon="-0.90492">
        <ele>114</ele>
        <time>2020-09-12T14:35:11.272Z</time>
      </trkpt>
      <trkpt lat="48.87559" lon="-0.90421">
        <ele>112</ele>
        <time>2020-09-12T14:35:16.275Z</time>
      </trkpt>
      <trkpt lat="48.87582" lon="-0.9035">
        <ele>111</ele>
        <time>2020-09-12T14:35:21.278Z</time>
      </trkpt>
      <trkpt lat="48.87558" lon="-0.90278">
        <ele>110</ele>
        <time>2020-09-12T14:35:26.332Z</time>
      </trkpt>
      <trkpt lat="48.8752" lon="-0.90215">
        <ele>108</ele>
        <time>2020-09-12T14:35:31.280Z</time>
      </trkpt>
      <trkpt lat="48.87489" lon="-0.90137">
        <ele>107</ele>
        <time>2020-09-12T14:35:36.279Z</time>
      </trkpt>
      <trkpt lat="48.87476" lon="-0.90052">
        <ele>105</ele>
        <time>2020-09-12T14:35:41.275Z</time>
      </trkpt>
      <trkpt lat="48.87467" lon="-0.89968">
        <ele>104</ele>
        <time>2020-09-12T14:35:46.277Z</time>
      </trkpt>
      <trkpt lat="48.87456" lon="-0.89882">
        <ele>103</ele>
        <time>2020-09-12T14:35:52.279Z</time>
      </trkpt>
      <trkpt lat="48.87462" lon="-0.89808">
        <ele>103</ele>
        <time>2020-09-12T14:35:58.277Z</time>
      </trkpt>
      <trkpt lat="48.87475" lon="-0.89751">
        <ele>103</ele>
        <time>2020-09-12T14:36:03.276Z</time>
      </trkpt>
      <trkpt lat="48.87488" lon="-0.89694">
        <ele>103</ele>
        <time>2020-09-12T14:36:08.323Z</time>
      </trkpt>
      <trkpt lat="48.87501" lon="-0.89636">
        <ele>103</ele>
        <time>2020-09-12T14:36:13.280Z</time>
      </trkpt>
      <trkpt lat="48.87503" lon="-0.89574">
        <ele>104</ele>
        <time>2020-09-12T14:36:18.274Z</time>
      </trkpt>
      <trkpt lat="48.87502" lon="-0.89512">
        <ele>105</ele>
        <time>2020-09-12T14:36:23.276Z</time>
      </trkpt>
      <trkpt lat="48.875" lon="-0.89451">
        <ele>106</ele>
        <time>2020-09-12T14:36:28.283Z</time>
      </trkpt>
      <trkpt lat="48.87498" lon="-0.8939">
        <ele>107</ele>
        <time>2020-09-12T14:36:33.278Z</time>
      </trkpt>
      <trkpt lat="48.87497" lon="-0.89327">
        <ele>108</ele>
        <time>2020-09-12T14:36:38.317Z</time>
      </trkpt>
      <trkpt lat="48.87504" lon="-0.89263">
        <ele>109</ele>
        <time>2020-09-12T14:36:43.275Z</time>
      </trkpt>
      <trkpt lat="48.87515" lon="-0.89194">
        <ele>109</ele>
        <time>2020-09-12T14:36:48.273Z</time>
      </trkpt>
      <trkpt lat="48.87527" lon="-0.89119">
        <ele>108</ele>
        <time>2020-09-12T14:36:53.282Z</time>
      </trkpt>
      <trkpt lat="48.8754" lon="-0.8904">
        <ele>107</ele>
        <time>2020-09-12T14:36:58.276Z</time>
      </trkpt>
      <trkpt lat="48.87554" lon="-0.88962">
        <ele>106</ele>
        <time>2020-09-12T14:37:03.277Z</time>
      </trkpt>
      <trkpt lat="48.87528" lon="-0.88906">
        <ele>103</ele>
        <time>2020-09-12T14:37:10.277Z</time>
      </trkpt>
      <trkpt lat="48.87486" lon="-0.88903">
        <ele>101</ele>
        <time>2020-09-12T14:37:15.272Z</time>
      </trkpt>
      <trkpt lat="48.87446" lon="-0.88905">
        <ele>100</ele>
        <time>2020-09-12T14:37:20.312Z</time>
      </trkpt>
      <trkpt lat="48.87406" lon="-0.8891">
        <ele>98</ele>
        <time>2020-09-12T14:37:25.279Z</time>
      </trkpt>
      <trkpt lat="48.87366" lon="-0.88916">
        <ele>97</ele>
        <time>2020-09-12T14:37:30.279Z</time>
      </trkpt>
      <trkpt lat="48.87328" lon="-0.88921">
        <ele>96</ele>
        <time>2020-09-12T14:37:35.279Z</time>
      </trkpt>
      <trkpt lat="48.8729" lon="-0.88926">
        <ele>95</ele>
        <time>2020-09-12T14:37:40.276Z</time>
      </trkpt>
      <trkpt lat="48.87252" lon="-0.88933">
        <ele>94</ele>
        <time>2020-09-12T14:37:45.276Z</time>
      </trkpt>
      <trkpt lat="48.87213" lon="-0.88939">
        <ele>94</ele>
        <time>2020-09-12T14:37:50.316Z</time>
      </trkpt>
      <trkpt lat="48.87175" lon="-0.88939">
        <ele>95</ele>
        <time>2020-09-12T14:37:55.281Z</time>
      </trkpt>
      <trkpt lat="48.87136" lon="-0.88928">
        <ele>95</ele>
        <time>2020-09-12T14:38:00.276Z</time>
      </trkpt>
      <trkpt lat="48.87094" lon="-0.88916">
        <ele>95</ele>
        <time>2020-09-12T14:38:05.278Z</time>
      </trkpt>
      <trkpt lat="48.87051" lon="-0.88903">
        <ele>94</ele>
        <time>2020-09-12T14:38:10.277Z</time>
      </trkpt>
      <trkpt lat="48.87011" lon="-0.88899">
        <ele>94</ele>
        <time>2020-09-12T14:38:15.285Z</time>
      </trkpt>
      <trkpt lat="48.86973" lon="-0.88907">
        <ele>94</ele>
        <time>2020-09-12T14:38:20.319Z</time>
      </trkpt>
      <trkpt lat="48.86936" lon="-0.88914">
        <ele>94</ele>
        <time>2020-09-12T14:38:25.276Z</time>
      </trkpt>
      <trkpt lat="48.86904" lon="-0.88922">
        <ele>94</ele>
        <time>2020-09-12T14:38:30.276Z</time>
      </trkpt>
      <trkpt lat="48.86874" lon="-0.88928">
        <ele>94</ele>
        <time>2020-09-12T14:38:35.278Z</time>
      </trkpt>
      <trkpt lat="48.86846" lon="-0.88934">
        <ele>95</ele>
        <time>2020-09-12T14:38:40.275Z</time>
      </trkpt>
      <trkpt lat="48.8682" lon="-0.88937">
        <ele>95</ele>
        <time>2020-09-12T14:38:44.318Z</time>
      </trkpt>
      <trkpt lat="48.86791" lon="-0.88943">
        <ele>97</ele>
        <time>2020-09-12T14:38:48.274Z</time>
      </trkpt>
      <trkpt lat="48.86756" lon="-0.88947">
        <ele>99</ele>
        <time>2020-09-12T14:38:53.275Z</time>
      </trkpt>
      <trkpt lat="48.86721" lon="-0.88953">
        <ele>101</ele>
        <time>2020-09-12T14:38:58.275Z</time>
      </trkpt>
      <trkpt lat="48.86684" lon="-0.88962">
        <ele>103</ele>
        <time>2020-09-12T14:39:03.274Z</time>
      </trkpt>
      <trkpt lat="48.86644" lon="-0.8897">
        <ele>106</ele>
        <time>2020-09-12T14:39:08.318Z</time>
      </trkpt>
      <trkpt lat="48.86603" lon="-0.88977">
        <ele>108</ele>
        <time>2020-09-12T14:39:13.274Z</time>
      </trkpt>
      <trkpt lat="48.86565" lon="-0.88984">
        <ele>110</ele>
        <time>2020-09-12T14:39:17.283Z</time>
      </trkpt>
      <trkpt lat="48.86517" lon="-0.88992">
        <ele>111</ele>
        <time>2020-09-12T14:39:22.277Z</time>
      </trkpt>
      <trkpt lat="48.86473" lon="-0.8899">
        <ele>111</ele>
        <time>2020-09-12T14:39:27.277Z</time>
      </trkpt>
      <trkpt lat="48.86426" lon="-0.88983">
        <ele>111</ele>
        <time>2020-09-12T14:39:32.331Z</time>
      </trkpt>
      <trkpt lat="48.86377" lon="-0.88967">
        <ele>110</ele>
        <time>2020-09-12T14:39:37.275Z</time>
      </trkpt>
      <trkpt lat="48.86328" lon="-0.88958">
        <ele>108</ele>
        <time>2020-09-12T14:39:42.278Z</time>
      </trkpt>
      <trkpt lat="48.86281" lon="-0.88959">
        <ele>106</ele>
        <time>2020-09-12T14:39:47.278Z</time>
      </trkpt>
      <trkpt lat="48.86238" lon="-0.88968">
        <ele>103</ele>
        <time>2020-09-12T14:39:52.279Z</time>
      </trkpt>
      <trkpt lat="48.86195" lon="-0.88983">
        <ele>101</ele>
        <time>2020-09-12T14:39:57.280Z</time>
      </trkpt>
      <trkpt lat="48.86154" lon="-0.88972">
        <ele>99</ele>
        <time>2020-09-12T14:40:02.325Z</time>
      </trkpt>
      <trkpt lat="48.86116" lon="-0.88944">
        <ele>97</ele>
        <time>2020-09-12T14:40:07.278Z</time>
      </trkpt>
      <trkpt lat="48.86089" lon="-0.88902">
        <ele>95</ele>
        <time>2020-09-12T14:40:12.278Z</time>
      </trkpt>
      <trkpt lat="48.86059" lon="-0.88863">
        <ele>94</ele>
        <time>2020-09-12T14:40:18.291Z</time>
      </trkpt>
      <trkpt lat="48.86033" lon="-0.88838">
        <ele>94</ele>
        <time>2020-09-12T14:40:24.276Z</time>
      </trkpt>
      <trkpt lat="48.86012" lon="-0.88815">
        <ele>96</ele>
        <time>2020-09-12T14:40:29.277Z</time>
      </trkpt>
      <trkpt lat="48.85992" lon="-0.88794">
        <ele>97</ele>
        <time>2020-09-12T14:40:33.279Z</time>
      </trkpt>
      <trkpt lat="48.85969" lon="-0.88765">
        <ele>100</ele>
        <time>2020-09-12T14:40:38.321Z</time>
      </trkpt>
      <trkpt lat="48.85952" lon="-0.88738">
        <ele>103</ele>
        <time>2020-09-12T14:40:43.277Z</time>
      </trkpt>
      <trkpt lat="48.85934" lon="-0.88727">
        <ele>106</ele>
        <time>2020-09-12T14:40:49.277Z</time>
      </trkpt>
      <trkpt lat="48.85919" lon="-0.88726">
        <ele>107</ele>
        <time>2020-09-12T14:40:53.278Z</time>
      </trkpt>
      <trkpt lat="48.85906" lon="-0.88723">
        <ele>109</ele>
        <time>2020-09-12T14:40:56.317Z</time>
      </trkpt>
      <trkpt lat="48.85886" lon="-0.88718">
        <ele>111</ele>
        <time>2020-09-12T14:41:00.275Z</time>
      </trkpt>
      <trkpt lat="48.85866" lon="-0.88712">
        <ele>112</ele>
        <time>2020-09-12T14:41:04.275Z</time>
      </trkpt>
      <trkpt lat="48.85845" lon="-0.88703">
        <ele>113</ele>
        <time>2020-09-12T14:41:08.317Z</time>
      </trkpt>
      <trkpt lat="48.85821" lon="-0.88695">
        <ele>114</ele>
        <time>2020-09-12T14:41:12.275Z</time>
      </trkpt>
      <trkpt lat="48.85792" lon="-0.88687">
        <ele>114</ele>
        <time>2020-09-12T14:41:17.277Z</time>
      </trkpt>
      <trkpt lat="48.85764" lon="-0.88679">
        <ele>114</ele>
        <time>2020-09-12T14:41:22.277Z</time>
      </trkpt>
      <trkpt lat="48.85736" lon="-0.88673">
        <ele>113</ele>
        <time>2020-09-12T14:41:27.275Z</time>
      </trkpt>
      <trkpt lat="48.85709" lon="-0.88667">
        <ele>113</ele>
        <time>2020-09-12T14:41:32.326Z</time>
      </trkpt>
      <trkpt lat="48.85681" lon="-0.88661">
        <ele>113</ele>
        <time>2020-09-12T14:41:37.277Z</time>
      </trkpt>
      <trkpt lat="48.85653" lon="-0.88656">
        <ele>114</ele>
        <time>2020-09-12T14:41:42.278Z</time>
      </trkpt>
      <trkpt lat="48.85627" lon="-0.88649">
        <ele>114</ele>
        <time>2020-09-12T14:41:47.276Z</time>
      </trkpt>
      <trkpt lat="48.85605" lon="-0.88633">
        <ele>115</ele>
        <time>2020-09-12T14:41:53.276Z</time>
      </trkpt>
      <trkpt lat="48.85606" lon="-0.88606">
        <ele>116</ele>
        <time>2020-09-12T14:41:57.278Z</time>
      </trkpt>
      <trkpt lat="48.8561" lon="-0.88572">
        <ele>117</ele>
        <time>2020-09-12T14:42:01.277Z</time>
      </trkpt>
      <trkpt lat="48.85615" lon="-0.88537">
        <ele>118</ele>
        <time>2020-09-12T14:42:05.278Z</time>
      </trkpt>
      <trkpt lat="48.85619" lon="-0.88499">
        <ele>120</ele>
        <time>2020-09-12T14:42:09.278Z</time>
      </trkpt>
      <trkpt lat="48.85625" lon="-0.88452">
        <ele>121</ele>
        <time>2020-09-12T14:42:14.316Z</time>
      </trkpt>
      <trkpt lat="48.8563" lon="-0.88403">
        <ele>122</ele>
        <time>2020-09-12T14:42:19.276Z</time>
      </trkpt>
      <trkpt lat="48.85635" lon="-0.88355">
        <ele>123</ele>
        <time>2020-09-12T14:42:24.276Z</time>
      </trkpt>
      <trkpt lat="48.85639" lon="-0.88308">
        <ele>123</ele>
        <time>2020-09-12T14:42:29.277Z</time>
      </trkpt>
      <trkpt lat="48.85645" lon="-0.88259">
        <ele>124</ele>
        <time>2020-09-12T14:42:34.276Z</time>
      </trkpt>
      <trkpt lat="48.8565" lon="-0.88212">
        <ele>124</ele>
        <time>2020-09-12T14:42:39.266Z</time>
      </trkpt>
      <trkpt lat="48.85657" lon="-0.88165">
        <ele>125</ele>
        <time>2020-09-12T14:42:44.323Z</time>
      </trkpt>
      <trkpt lat="48.85663" lon="-0.88114">
        <ele>125</ele>
        <time>2020-09-12T14:42:49.269Z</time>
      </trkpt>
      <trkpt lat="48.85669" lon="-0.8806">
        <ele>125</ele>
        <time>2020-09-12T14:42:54.278Z</time>
      </trkpt>
      <trkpt lat="48.85671" lon="-0.88011">
        <ele>125</ele>
        <time>2020-09-12T14:42:59.281Z</time>
      </trkpt>
      <trkpt lat="48.85658" lon="-0.8797">
        <ele>125</ele>
        <time>2020-09-12T14:43:04.274Z</time>
      </trkpt>
      <trkpt lat="48.85671" lon="-0.87928">
        <ele>125</ele>
        <time>2020-09-12T14:43:10.275Z</time>
      </trkpt>
      <trkpt lat="48.85695" lon="-0.87914">
        <ele>124</ele>
        <time>2020-09-12T14:43:13.274Z</time>
      </trkpt>
      <trkpt lat="48.85733" lon="-0.87896">
        <ele>124</ele>
        <time>2020-09-12T14:43:17.274Z</time>
      </trkpt>
      <trkpt lat="48.85771" lon="-0.87851">
        <ele>123</ele>
        <time>2020-09-12T14:43:22.291Z</time>
      </trkpt>
      <trkpt lat="48.85774" lon="-0.87785">
        <ele>122</ele>
        <time>2020-09-12T14:43:27.274Z</time>
      </trkpt>
      <trkpt lat="48.85768" lon="-0.87733">
        <ele>119</ele>
        <time>2020-09-12T14:43:35.275Z</time>
      </trkpt>
      <trkpt lat="48.85759" lon="-0.877">
        <ele>118</ele>
        <time>2020-09-12T14:43:40.278Z</time>
      </trkpt>
      <trkpt lat="48.85756" lon="-0.87673">
        <ele>117</ele>
        <time>2020-09-12T14:43:43.277Z</time>
      </trkpt>
      <trkpt lat="48.85747" lon="-0.87643">
        <ele>117</ele>
        <time>2020-09-12T14:43:46.276Z</time>
      </trkpt>
      <trkpt lat="48.85734" lon="-0.87601">
        <ele>116</ele>
        <time>2020-09-12T14:43:50.329Z</time>
      </trkpt>
      <trkpt lat="48.85722" lon="-0.87554">
        <ele>116</ele>
        <time>2020-09-12T14:43:54.277Z</time>
      </trkpt>
      <trkpt lat="48.85705" lon="-0.87492">
        <ele>116</ele>
        <time>2020-09-12T14:43:59.276Z</time>
      </trkpt>
      <trkpt lat="48.85688" lon="-0.87425">
        <ele>116</ele>
        <time>2020-09-12T14:44:04.280Z</time>
      </trkpt>
      <trkpt lat="48.85676" lon="-0.8736">
        <ele>116</ele>
        <time>2020-09-12T14:44:09.280Z</time>
      </trkpt>
      <trkpt lat="48.85666" lon="-0.87299">
        <ele>116</ele>
        <time>2020-09-12T14:44:14.323Z</time>
      </trkpt>
      <trkpt lat="48.85659" lon="-0.87242">
        <ele>117</ele>
        <time>2020-09-12T14:44:19.277Z</time>
      </trkpt>
      <trkpt lat="48.85653" lon="-0.87185">
        <ele>117</ele>
        <time>2020-09-12T14:44:24.278Z</time>
      </trkpt>
      <trkpt lat="48.85647" lon="-0.87136">
        <ele>117</ele>
        <time>2020-09-12T14:44:29.278Z</time>
      </trkpt>
      <trkpt lat="48.85642" lon="-0.8709">
        <ele>118</ele>
        <time>2020-09-12T14:44:34.280Z</time>
      </trkpt>
      <trkpt lat="48.85635" lon="-0.87048">
        <ele>118</ele>
        <time>2020-09-12T14:44:38.322Z</time>
      </trkpt>
      <trkpt lat="48.85621" lon="-0.86997">
        <ele>118</ele>
        <time>2020-09-12T14:44:43.277Z</time>
      </trkpt>
      <trkpt lat="48.85604" lon="-0.86946">
        <ele>118</ele>
        <time>2020-09-12T14:44:48.278Z</time>
      </trkpt>
      <trkpt lat="48.85586" lon="-0.86895">
        <ele>118</ele>
        <time>2020-09-12T14:44:53.279Z</time>
      </trkpt>
      <trkpt lat="48.85567" lon="-0.86844">
        <ele>118</ele>
        <time>2020-09-12T14:44:58.275Z</time>
      </trkpt>
      <trkpt lat="48.85548" lon="-0.86793">
        <ele>118</ele>
        <time>2020-09-12T14:45:03.276Z</time>
      </trkpt>
      <trkpt lat="48.8553" lon="-0.8674">
        <ele>119</ele>
        <time>2020-09-12T14:45:08.320Z</time>
      </trkpt>
      <trkpt lat="48.85511" lon="-0.8669">
        <ele>119</ele>
        <time>2020-09-12T14:45:13.273Z</time>
      </trkpt>
      <trkpt lat="48.85493" lon="-0.86637">
        <ele>119</ele>
        <time>2020-09-12T14:45:18.276Z</time>
      </trkpt>
      <trkpt lat="48.85472" lon="-0.86588">
        <ele>120</ele>
        <time>2020-09-12T14:45:23.276Z</time>
      </trkpt>
      <trkpt lat="48.85445" lon="-0.86546">
        <ele>120</ele>
        <time>2020-09-12T14:45:28.279Z</time>
      </trkpt>
      <trkpt lat="48.85418" lon="-0.86504">
        <ele>120</ele>
        <time>2020-09-12T14:45:33.277Z</time>
      </trkpt>
      <trkpt lat="48.85391" lon="-0.86467">
        <ele>121</ele>
        <time>2020-09-12T14:45:38.327Z</time>
      </trkpt>
      <trkpt lat="48.85364" lon="-0.86433">
        <ele>121</ele>
        <time>2020-09-12T14:45:43.278Z</time>
      </trkpt>
      <trkpt lat="48.85335" lon="-0.86397">
        <ele>122</ele>
        <time>2020-09-12T14:45:48.278Z</time>
      </trkpt>
      <trkpt lat="48.85304" lon="-0.86358">
        <ele>123</ele>
        <time>2020-09-12T14:45:53.276Z</time>
      </trkpt>
      <trkpt lat="48.85271" lon="-0.86318">
        <ele>124</ele>
        <time>2020-09-12T14:45:58.276Z</time>
      </trkpt>
      <trkpt lat="48.85238" lon="-0.8628">
        <ele>125</ele>
        <time>2020-09-12T14:46:03.278Z</time>
      </trkpt>
      <trkpt lat="48.85199" lon="-0.86263">
        <ele>126</ele>
        <time>2020-09-12T14:46:09.278Z</time>
      </trkpt>
      <trkpt lat="48.85177" lon="-0.86316">
        <ele>127</ele>
        <time>2020-09-12T14:46:14.324Z</time>
      </trkpt>
      <trkpt lat="48.85152" lon="-0.86366">
        <ele>128</ele>
        <time>2020-09-12T14:46:19.276Z</time>
      </trkpt>
      <trkpt lat="48.85125" lon="-0.8641">
        <ele>129</ele>
        <time>2020-09-12T14:46:24.281Z</time>
      </trkpt>
      <trkpt lat="48.85101" lon="-0.86449">
        <ele>129</ele>
        <time>2020-09-12T14:46:29.278Z</time>
      </trkpt>
      <trkpt lat="48.85079" lon="-0.86487">
        <ele>130</ele>
        <time>2020-09-12T14:46:34.277Z</time>
      </trkpt>
      <trkpt lat="48.85061" lon="-0.86528">
        <ele>130</ele>
        <time>2020-09-12T14:46:39.278Z</time>
      </trkpt>
      <trkpt lat="48.85046" lon="-0.86573">
        <ele>130</ele>
        <time>2020-09-12T14:46:44.322Z</time>
      </trkpt>
      <trkpt lat="48.85031" lon="-0.86618">
        <ele>131</ele>
        <time>2020-09-12T14:46:49.272Z</time>
      </trkpt>
      <trkpt lat="48.85016" lon="-0.86662">
        <ele>131</ele>
        <time>2020-09-12T14:46:54.285Z</time>
      </trkpt>
      <trkpt lat="48.85001" lon="-0.86705">
        <ele>131</ele>
        <time>2020-09-12T14:46:59.275Z</time>
      </trkpt>
      <trkpt lat="48.84988" lon="-0.86749">
        <ele>131</ele>
        <time>2020-09-12T14:47:04.272Z</time>
      </trkpt>
      <trkpt lat="48.84974" lon="-0.86793">
        <ele>132</ele>
        <time>2020-09-12T14:47:09.278Z</time>
      </trkpt>
      <trkpt lat="48.84959" lon="-0.86839">
        <ele>132</ele>
        <time>2020-09-12T14:47:14.319Z</time>
      </trkpt>
      <trkpt lat="48.84946" lon="-0.86885">
        <ele>132</ele>
        <time>2020-09-12T14:47:19.278Z</time>
      </trkpt>
      <trkpt lat="48.84935" lon="-0.86934">
        <ele>133</ele>
        <time>2020-09-12T14:47:24.276Z</time>
      </trkpt>
      <trkpt lat="48.84925" lon="-0.86982">
        <ele>133</ele>
        <time>2020-09-12T14:47:29.275Z</time>
      </trkpt>
      <trkpt lat="48.84914" lon="-0.87033">
        <ele>134</ele>
        <time>2020-09-12T14:47:34.274Z</time>
      </trkpt>
      <trkpt lat="48.84902" lon="-0.87084">
        <ele>134</ele>
        <time>2020-09-12T14:47:39.286Z</time>
      </trkpt>
      <trkpt lat="48.84889" lon="-0.87139">
        <ele>134</ele>
        <time>2020-09-12T14:47:44.324Z</time>
      </trkpt>
      <trkpt lat="48.84881" lon="-0.87196">
        <ele>135</ele>
        <time>2020-09-12T14:47:49.276Z</time>
      </trkpt>
      <trkpt lat="48.84884" lon="-0.87257">
        <ele>134</ele>
        <time>2020-09-12T14:47:54.279Z</time>
      </trkpt>
      <trkpt lat="48.84888" lon="-0.87317">
        <ele>134</ele>
        <time>2020-09-12T14:47:59.273Z</time>
      </trkpt>
      <trkpt lat="48.8489" lon="-0.8738">
        <ele>134</ele>
        <time>2020-09-12T14:48:04.276Z</time>
      </trkpt>
      <trkpt lat="48.84875" lon="-0.87439">
        <ele>134</ele>
        <time>2020-09-12T14:48:09.275Z</time>
      </trkpt>
      <trkpt lat="48.8484" lon="-0.87476">
        <ele>133</ele>
        <time>2020-09-12T14:48:14.322Z</time>
      </trkpt>
      <trkpt lat="48.84794" lon="-0.87483">
        <ele>133</ele>
        <time>2020-09-12T14:48:19.277Z</time>
      </trkpt>
      <trkpt lat="48.84755" lon="-0.87484">
        <ele>133</ele>
        <time>2020-09-12T14:48:24.278Z</time>
      </trkpt>
      <trkpt lat="48.84717" lon="-0.87486">
        <ele>134</ele>
        <time>2020-09-12T14:48:30.274Z</time>
      </trkpt>
      <trkpt lat="48.8469" lon="-0.87503">
        <ele>135</ele>
        <time>2020-09-12T14:48:35.274Z</time>
      </trkpt>
      <trkpt lat="48.84668" lon="-0.87537">
        <ele>136</ele>
        <time>2020-09-12T14:48:40.275Z</time>
      </trkpt>
      <trkpt lat="48.84649" lon="-0.87577">
        <ele>137</ele>
        <time>2020-09-12T14:48:45.276Z</time>
      </trkpt>
      <trkpt lat="48.84632" lon="-0.87624">
        <ele>138</ele>
        <time>2020-09-12T14:48:50.323Z</time>
      </trkpt>
      <trkpt lat="48.84624" lon="-0.87676">
        <ele>139</ele>
        <time>2020-09-12T14:48:55.277Z</time>
      </trkpt>
      <trkpt lat="48.84619" lon="-0.87728">
        <ele>140</ele>
        <time>2020-09-12T14:49:00.278Z</time>
      </trkpt>
      <trkpt lat="48.84612" lon="-0.8778">
        <ele>141</ele>
        <time>2020-09-12T14:49:05.277Z</time>
      </trkpt>
      <trkpt lat="48.84605" lon="-0.87833">
        <ele>142</ele>
        <time>2020-09-12T14:49:10.277Z</time>
      </trkpt>
      <trkpt lat="48.84592" lon="-0.87883">
        <ele>142</ele>
        <time>2020-09-12T14:49:15.277Z</time>
      </trkpt>
      <trkpt lat="48.84576" lon="-0.8793">
        <ele>142</ele>
        <time>2020-09-12T14:49:20.322Z</time>
      </trkpt>
      <trkpt lat="48.84558" lon="-0.87972">
        <ele>142</ele>
        <time>2020-09-12T14:49:25.277Z</time>
      </trkpt>
      <trkpt lat="48.84542" lon="-0.88013">
        <ele>142</ele>
        <time>2020-09-12T14:49:30.277Z</time>
      </trkpt>
      <trkpt lat="48.84524" lon="-0.88053">
        <ele>142</ele>
        <time>2020-09-12T14:49:35.279Z</time>
      </trkpt>
      <trkpt lat="48.84501" lon="-0.8809">
        <ele>143</ele>
        <time>2020-09-12T14:49:40.285Z</time>
      </trkpt>
      <trkpt lat="48.84477" lon="-0.88125">
        <ele>143</ele>
        <time>2020-09-12T14:49:45.280Z</time>
      </trkpt>
      <trkpt lat="48.84454" lon="-0.88161">
        <ele>144</ele>
        <time>2020-09-12T14:49:50.323Z</time>
      </trkpt>
      <trkpt lat="48.84431" lon="-0.88199">
        <ele>145</ele>
        <time>2020-09-12T14:49:55.276Z</time>
      </trkpt>
      <trkpt lat="48.84407" lon="-0.88239">
        <ele>146</ele>
        <time>2020-09-12T14:50:00.277Z</time>
      </trkpt>
      <trkpt lat="48.84395" lon="-0.8829">
        <ele>148</ele>
        <time>2020-09-12T14:50:05.275Z</time>
      </trkpt>
      <trkpt lat="48.84398" lon="-0.88346">
        <ele>149</ele>
        <time>2020-09-12T14:50:10.292Z</time>
      </trkpt>
      <trkpt lat="48.84406" lon="-0.88406">
        <ele>150</ele>
        <time>2020-09-12T14:50:15.282Z</time>
      </trkpt>
      <trkpt lat="48.84424" lon="-0.8846">
        <ele>150</ele>
        <time>2020-09-12T14:50:20.322Z</time>
      </trkpt>
      <trkpt lat="48.84447" lon="-0.88498">
        <ele>150</ele>
        <time>2020-09-12T14:50:26.335Z</time>
      </trkpt>
      <trkpt lat="48.84457" lon="-0.88514">
        <ele>150</ele>
        <time>2020-09-12T14:50:35.279Z</time>
      </trkpt>
      <trkpt lat="48.84464" lon="-0.88525">
        <ele>150</ele>
        <time>2020-09-12T14:50:38.323Z</time>
      </trkpt>
      <trkpt lat="48.84468" lon="-0.88537">
        <ele>149</ele>
        <time>2020-09-12T14:50:40.275Z</time>
      </trkpt>
      <trkpt lat="48.84469" lon="-0.88551">
        <ele>149</ele>
        <time>2020-09-12T14:50:42.280Z</time>
      </trkpt>
      <trkpt lat="48.84458" lon="-0.88564">
        <ele>149</ele>
        <time>2020-09-12T14:50:45.277Z</time>
      </trkpt>
      <trkpt lat="48.84438" lon="-0.88575">
        <ele>149</ele>
        <time>2020-09-12T14:50:49.274Z</time>
      </trkpt>
      <trkpt lat="48.84416" lon="-0.88588">
        <ele>149</ele>
        <time>2020-09-12T14:50:53.274Z</time>
      </trkpt>
      <trkpt lat="48.84391" lon="-0.88604">
        <ele>149</ele>
        <time>2020-09-12T14:50:58.279Z</time>
      </trkpt>
      <trkpt lat="48.84366" lon="-0.88619">
        <ele>150</ele>
        <time>2020-09-12T14:51:03.277Z</time>
      </trkpt>
      <trkpt lat="48.8434" lon="-0.8863">
        <ele>151</ele>
        <time>2020-09-12T14:51:08.327Z</time>
      </trkpt>
      <trkpt lat="48.84318" lon="-0.88644">
        <ele>152</ele>
        <time>2020-09-12T14:51:13.278Z</time>
      </trkpt>
      <trkpt lat="48.84297" lon="-0.88658">
        <ele>153</ele>
        <time>2020-09-12T14:51:18.277Z</time>
      </trkpt>
      <trkpt lat="48.84275" lon="-0.88674">
        <ele>155</ele>
        <time>2020-09-12T14:51:23.279Z</time>
      </trkpt>
      <trkpt lat="48.84257" lon="-0.88687">
        <ele>157</ele>
        <time>2020-09-12T14:51:27.281Z</time>
      </trkpt>
      <trkpt lat="48.84238" lon="-0.88698">
        <ele>158</ele>
        <time>2020-09-12T14:51:31.278Z</time>
      </trkpt>
      <trkpt lat="48.84217" lon="-0.88709">
        <ele>159</ele>
        <time>2020-09-12T14:51:35.274Z</time>
      </trkpt>
      <trkpt lat="48.84193" lon="-0.88725">
        <ele>161</ele>
        <time>2020-09-12T14:51:40.274Z</time>
      </trkpt>
      <trkpt lat="48.84169" lon="-0.88739">
        <ele>162</ele>
        <time>2020-09-12T14:51:45.278Z</time>
      </trkpt>
      <trkpt lat="48.84147" lon="-0.88754">
        <ele>163</ele>
        <time>2020-09-12T14:51:49.274Z</time>
      </trkpt>
      <trkpt lat="48.84123" lon="-0.88771">
        <ele>165</ele>
        <time>2020-09-12T14:51:54.276Z</time>
      </trkpt>
      <trkpt lat="48.84098" lon="-0.88787">
        <ele>166</ele>
        <time>2020-09-12T14:51:59.277Z</time>
      </trkpt>
      <trkpt lat="48.84076" lon="-0.88798">
        <ele>167</ele>
        <time>2020-09-12T14:52:03.276Z</time>
      </trkpt>
      <trkpt lat="48.84052" lon="-0.88808">
        <ele>168</ele>
        <time>2020-09-12T14:52:07.275Z</time>
      </trkpt>
      <trkpt lat="48.84024" lon="-0.88821">
        <ele>169</ele>
        <time>2020-09-12T14:52:12.274Z</time>
      </trkpt>
      <trkpt lat="48.83997" lon="-0.88838">
        <ele>170</ele>
        <time>2020-09-12T14:52:17.275Z</time>
      </trkpt>
      <trkpt lat="48.83972" lon="-0.88858">
        <ele>171</ele>
        <time>2020-09-12T14:52:22.279Z</time>
      </trkpt>
      <trkpt lat="48.83948" lon="-0.88878">
        <ele>173</ele>
        <time>2020-09-12T14:52:27.275Z</time>
      </trkpt>
      <trkpt lat="48.83921" lon="-0.88895">
        <ele>174</ele>
        <time>2020-09-12T14:52:32.326Z</time>
      </trkpt>
      <trkpt lat="48.83898" lon="-0.88911">
        <ele>176</ele>
        <time>2020-09-12T14:52:37.275Z</time>
      </trkpt>
      <trkpt lat="48.83883" lon="-0.8892">
        <ele>178</ele>
        <time>2020-09-12T14:52:45.276Z</time>
      </trkpt>
      <trkpt lat="48.83875" lon="-0.88929">
        <ele>180</ele>
        <time>2020-09-12T14:52:50.324Z</time>
      </trkpt>
      <trkpt lat="48.83873" lon="-0.88944">
        <ele>182</ele>
        <time>2020-09-12T14:52:55.274Z</time>
      </trkpt>
      <trkpt lat="48.83865" lon="-0.88951">
        <ele>183</ele>
        <time>2020-09-12T14:52:58.277Z</time>
      </trkpt>
      <trkpt lat="48.83855" lon="-0.88941">
        <ele>184</ele>
        <time>2020-09-12T14:53:01.279Z</time>
      </trkpt>
      <trkpt lat="48.83848" lon="-0.88922">
        <ele>185</ele>
        <time>2020-09-12T14:53:04.274Z</time>
      </trkpt>
      <trkpt lat="48.83841" lon="-0.88895">
        <ele>186</ele>
        <time>2020-09-12T14:53:08.321Z</time>
      </trkpt>
      <trkpt lat="48.83831" lon="-0.88866">
        <ele>188</ele>
        <time>2020-09-12T14:53:12.275Z</time>
      </trkpt>
      <trkpt lat="48.83815" lon="-0.88838">
        <ele>189</ele>
        <time>2020-09-12T14:53:16.272Z</time>
      </trkpt>
      <trkpt lat="48.83804" lon="-0.88804">
        <ele>190</ele>
        <time>2020-09-12T14:53:20.321Z</time>
      </trkpt>
      <trkpt lat="48.8379" lon="-0.88764">
        <ele>191</ele>
        <time>2020-09-12T14:53:25.275Z</time>
      </trkpt>
      <trkpt lat="48.83778" lon="-0.88727">
        <ele>192</ele>
        <time>2020-09-12T14:53:30.274Z</time>
      </trkpt>
      <trkpt lat="48.83769" lon="-0.88687">
        <ele>193</ele>
        <time>2020-09-12T14:53:35.276Z</time>
      </trkpt>
      <trkpt lat="48.8376" lon="-0.88645">
        <ele>194</ele>
        <time>2020-09-12T14:53:40.276Z</time>
      </trkpt>
      <trkpt lat="48.83751" lon="-0.88605">
        <ele>194</ele>
        <time>2020-09-12T14:53:45.273Z</time>
      </trkpt>
      <trkpt lat="48.8374" lon="-0.88566">
        <ele>194</ele>
        <time>2020-09-12T14:53:50.321Z</time>
      </trkpt>
      <trkpt lat="48.83728" lon="-0.88528">
        <ele>193</ele>
        <time>2020-09-12T14:53:55.280Z</time>
      </trkpt>
      <trkpt lat="48.83717" lon="-0.88489">
        <ele>193</ele>
        <time>2020-09-12T14:54:00.274Z</time>
      </trkpt>
      <trkpt lat="48.83706" lon="-0.88452">
        <ele>193</ele>
        <time>2020-09-12T14:54:05.276Z</time>
      </trkpt>
      <trkpt lat="48.83698" lon="-0.88419">
        <ele>194</ele>
        <time>2020-09-12T14:54:10.272Z</time>
      </trkpt>
      <trkpt lat="48.83692" lon="-0.88384">
        <ele>194</ele>
        <time>2020-09-12T14:54:15.282Z</time>
      </trkpt>
      <trkpt lat="48.83688" lon="-0.8835">
        <ele>195</ele>
        <time>2020-09-12T14:54:20.316Z</time>
      </trkpt>
      <trkpt lat="48.83685" lon="-0.8832">
        <ele>197</ele>
        <time>2020-09-12T14:54:25.276Z</time>
      </trkpt>
      <trkpt lat="48.83684" lon="-0.88292">
        <ele>198</ele>
        <time>2020-09-12T14:54:29.277Z</time>
      </trkpt>
      <trkpt lat="48.83684" lon="-0.88261">
        <ele>200</ele>
        <time>2020-09-12T14:54:33.278Z</time>
      </trkpt>
      <trkpt lat="48.83684" lon="-0.88226">
        <ele>201</ele>
        <time>2020-09-12T14:54:37.279Z</time>
      </trkpt>
      <trkpt lat="48.83684" lon="-0.88188">
        <ele>203</ele>
        <time>2020-09-12T14:54:41.280Z</time>
      </trkpt>
      <trkpt lat="48.8369" lon="-0.88147">
        <ele>205</ele>
        <time>2020-09-12T14:54:45.277Z</time>
      </trkpt>
      <trkpt lat="48.83697" lon="-0.88099">
        <ele>207</ele>
        <time>2020-09-12T14:54:50.323Z</time>
      </trkpt>
      <trkpt lat="48.83723" lon="-0.88066">
        <ele>208</ele>
        <time>2020-09-12T14:54:55.278Z</time>
      </trkpt>
      <trkpt lat="48.8374" lon="-0.88024">
        <ele>209</ele>
        <time>2020-09-12T14:55:00.272Z</time>
      </trkpt>
      <trkpt lat="48.83754" lon="-0.87976">
        <ele>209</ele>
        <time>2020-09-12T14:55:05.275Z</time>
      </trkpt>
      <trkpt lat="48.8377" lon="-0.87929">
        <ele>209</ele>
        <time>2020-09-12T14:55:10.284Z</time>
      </trkpt>
      <trkpt lat="48.83787" lon="-0.87883">
        <ele>208</ele>
        <time>2020-09-12T14:55:15.277Z</time>
      </trkpt>
      <trkpt lat="48.83803" lon="-0.87838">
        <ele>208</ele>
        <time>2020-09-12T14:55:20.314Z</time>
      </trkpt>
      <trkpt lat="48.83818" lon="-0.87793">
        <ele>207</ele>
        <time>2020-09-12T14:55:25.281Z</time>
      </trkpt>
      <trkpt lat="48.83831" lon="-0.87745">
        <ele>206</ele>
        <time>2020-09-12T14:55:30.274Z</time>
      </trkpt>
      <trkpt lat="48.83841" lon="-0.87698">
        <ele>206</ele>
        <time>2020-09-12T14:55:35.275Z</time>
      </trkpt>
      <trkpt lat="48.83848" lon="-0.87648">
        <ele>206</ele>
        <time>2020-09-12T14:55:40.276Z</time>
      </trkpt>
      <trkpt lat="48.83853" lon="-0.87594">
        <ele>206</ele>
        <time>2020-09-12T14:55:45.280Z</time>
      </trkpt>
      <trkpt lat="48.83855" lon="-0.87548">
        <ele>206</ele>
        <time>2020-09-12T14:55:50.325Z</time>
      </trkpt>
      <trkpt lat="48.83854" lon="-0.87518">
        <ele>208</ele>
        <time>2020-09-12T14:55:58.280Z</time>
      </trkpt>
      <trkpt lat="48.83846" lon="-0.87508">
        <ele>209</ele>
        <time>2020-09-12T14:56:05.276Z</time>
      </trkpt>
      <trkpt lat="48.83839" lon="-0.87507">
        <ele>216</ele>
        <time>2020-09-12T14:56:26.318Z</time>
      </trkpt>
      <trkpt lat="48.83839" lon="-0.87507">
        <ele>216</ele>
        <time>2020-09-12T14:56:55.266Z</time>
      </trkpt>
      <trkpt lat="48.83838" lon="-0.87472">
        <ele>222</ele>
        <time>2020-09-12T14:56:56.325Z</time>
      </trkpt>
      <trkpt lat="48.83841" lon="-0.87486">
        <ele>221</ele>
        <time>2020-09-12T14:57:12.267Z</time>
      </trkpt>
      <trkpt lat="48.83841" lon="-0.87488">
        <ele>221</ele>
        <time>2020-09-12T14:57:25.269Z</time>
      </trkpt>
      <trkpt lat="48.83841" lon="-0.87488">
        <ele>221</ele>
        <time>2020-09-12T14:58:07.266Z</time>
      </trkpt>
      <trkpt lat="48.83836" lon="-0.87653">
        <ele>219</ele>
        <time>2020-09-12T14:58:39.270Z</time>
      </trkpt>
      <trkpt lat="48.83819" lon="-0.87705">
        <ele>222</ele>
        <time>2020-09-12T14:58:43.272Z</time>
      </trkpt>
      <trkpt lat="48.83816" lon="-0.87685">
        <ele>231</ele>
        <time>2020-09-12T14:58:51.274Z</time>
      </trkpt>
      <trkpt lat="48.83816" lon="-0.87681">
        <ele>249</ele>
        <time>2020-09-12T14:59:06.275Z</time>
      </trkpt>
      <trkpt lat="48.83816" lon="-0.87681">
        <ele>249</ele>
        <time>2020-09-12T14:59:23.269Z</time>
      </trkpt>
      <trkpt lat="48.83827" lon="-0.87642">
        <ele>271</ele>
        <time>2020-09-12T14:59:24.275Z</time>
      </trkpt>
      <trkpt lat="48.83832" lon="-0.87617">
        <ele>272</ele>
        <time>2020-09-12T14:59:26.326Z</time>
      </trkpt>
      <trkpt lat="48.83835" lon="-0.87582">
        <ele>272</ele>
        <time>2020-09-12T14:59:28.270Z</time>
      </trkpt>
      <trkpt lat="48.83833" lon="-0.87531">
        <ele>271</ele>
        <time>2020-09-12T14:59:31.267Z</time>
      </trkpt>
      <trkpt lat="48.83829" lon="-0.87499">
        <ele>264</ele>
        <time>2020-09-12T14:59:40.270Z</time>
      </trkpt>
      <trkpt lat="48.83829" lon="-0.87499">
        <ele>258</ele>
        <time>2020-09-12T14:59:47.274Z</time>
      </trkpt>
      <trkpt lat="48.83829" lon="-0.87499">
        <ele>258</ele>
        <time>2020-09-12T15:08:02.321Z</time>
      </trkpt>
      <trkpt lat="48.83837" lon="-0.87454">
        <ele>205</ele>
        <time>2020-09-12T15:08:03.276Z</time>
      </trkpt>
      <trkpt lat="48.83837" lon="-0.8744">
        <ele>205</ele>
        <time>2020-09-12T15:08:07.273Z</time>
      </trkpt>
      <trkpt lat="48.83837" lon="-0.87443">
        <ele>204</ele>
        <time>2020-09-12T15:08:20.326Z</time>
      </trkpt>
      <trkpt lat="48.83837" lon="-0.87443">
        <ele>204</ele>
        <time>2020-09-12T15:09:08.323Z</time>
      </trkpt>
      <trkpt lat="48.83841" lon="-0.87477">
        <ele>203</ele>
        <time>2020-09-12T15:09:09.281Z</time>
      </trkpt>
      <trkpt lat="48.83841" lon="-0.87477">
        <ele>205</ele>
        <time>2020-09-12T15:09:22.265Z</time>
      </trkpt>
      <trkpt lat="48.83841" lon="-0.87477">
        <ele>205</ele>
        <time>2020-09-12T15:16:52.278Z</time>
      </trkpt>
      <trkpt lat="48.8386" lon="-0.87521">
        <ele>212</ele>
        <time>2020-09-12T15:16:53.279Z</time>
      </trkpt>
      <trkpt lat="48.83861" lon="-0.87535">
        <ele>212</ele>
        <time>2020-09-12T15:16:56.343Z</time>
      </trkpt>
      <trkpt lat="48.83859" lon="-0.87554">
        <ele>212</ele>
        <time>2020-09-12T15:16:59.279Z</time>
      </trkpt>
      <trkpt lat="48.83859" lon="-0.87569">
        <ele>213</ele>
        <time>2020-09-12T15:17:01.279Z</time>
      </trkpt>
      <trkpt lat="48.83858" lon="-0.87593">
        <ele>213</ele>
        <time>2020-09-12T15:17:04.278Z</time>
      </trkpt>
      <trkpt lat="48.83855" lon="-0.8763">
        <ele>214</ele>
        <time>2020-09-12T15:17:08.320Z</time>
      </trkpt>
      <trkpt lat="48.8385" lon="-0.87671">
        <ele>214</ele>
        <time>2020-09-12T15:17:12.279Z</time>
      </trkpt>
      <trkpt lat="48.83843" lon="-0.87713">
        <ele>215</ele>
        <time>2020-09-12T15:17:16.286Z</time>
      </trkpt>
      <trkpt lat="48.83832" lon="-0.8777">
        <ele>215</ele>
        <time>2020-09-12T15:17:21.283Z</time>
      </trkpt>
      <trkpt lat="48.83815" lon="-0.87825">
        <ele>214</ele>
        <time>2020-09-12T15:17:26.345Z</time>
      </trkpt>
      <trkpt lat="48.83795" lon="-0.87879">
        <ele>214</ele>
        <time>2020-09-12T15:17:31.281Z</time>
      </trkpt>
      <trkpt lat="48.83776" lon="-0.87935">
        <ele>214</ele>
        <time>2020-09-12T15:17:36.278Z</time>
      </trkpt>
      <trkpt lat="48.83759" lon="-0.87993">
        <ele>213</ele>
        <time>2020-09-12T15:17:41.279Z</time>
      </trkpt>
      <trkpt lat="48.83745" lon="-0.8805">
        <ele>212</ele>
        <time>2020-09-12T15:17:46.281Z</time>
      </trkpt>
      <trkpt lat="48.83722" lon="-0.88105">
        <ele>210</ele>
        <time>2020-09-12T15:17:51.276Z</time>
      </trkpt>
      <trkpt lat="48.83699" lon="-0.88165">
        <ele>208</ele>
        <time>2020-09-12T15:17:56.343Z</time>
      </trkpt>
      <trkpt lat="48.83689" lon="-0.88232">
        <ele>207</ele>
        <time>2020-09-12T15:18:01.280Z</time>
      </trkpt>
      <trkpt lat="48.8369" lon="-0.88296">
        <ele>206</ele>
        <time>2020-09-12T15:18:06.280Z</time>
      </trkpt>
      <trkpt lat="48.83697" lon="-0.88362">
        <ele>205</ele>
        <time>2020-09-12T15:18:11.280Z</time>
      </trkpt>
      <trkpt lat="48.83709" lon="-0.88434">
        <ele>203</ele>
        <time>2020-09-12T15:18:16.279Z</time>
      </trkpt>
      <trkpt lat="48.83727" lon="-0.88494">
        <ele>202</ele>
        <time>2020-09-12T15:18:20.325Z</time>
      </trkpt>
      <trkpt lat="48.8375" lon="-0.8857">
        <ele>201</ele>
        <time>2020-09-12T15:18:25.282Z</time>
      </trkpt>
      <trkpt lat="48.83773" lon="-0.88646">
        <ele>198</ele>
        <time>2020-09-12T15:18:30.281Z</time>
      </trkpt>
      <trkpt lat="48.83789" lon="-0.88723">
        <ele>196</ele>
        <time>2020-09-12T15:18:35.280Z</time>
      </trkpt>
      <trkpt lat="48.83811" lon="-0.88791">
        <ele>194</ele>
        <time>2020-09-12T15:18:40.279Z</time>
      </trkpt>
      <trkpt lat="48.8383" lon="-0.88851">
        <ele>191</ele>
        <time>2020-09-12T15:18:45.281Z</time>
      </trkpt>
      <trkpt lat="48.8385" lon="-0.88904">
        <ele>188</ele>
        <time>2020-09-12T15:18:51.278Z</time>
      </trkpt>
      <trkpt lat="48.83868" lon="-0.88943">
        <ele>185</ele>
        <time>2020-09-12T15:18:57.281Z</time>
      </trkpt>
      <trkpt lat="48.83857" lon="-0.88981">
        <ele>183</ele>
        <time>2020-09-12T15:19:01.277Z</time>
      </trkpt>
      <trkpt lat="48.83843" lon="-0.89017">
        <ele>182</ele>
        <time>2020-09-12T15:19:05.281Z</time>
      </trkpt>
      <trkpt lat="48.83828" lon="-0.89063">
        <ele>181</ele>
        <time>2020-09-12T15:19:11.279Z</time>
      </trkpt>
      <trkpt lat="48.83814" lon="-0.89108">
        <ele>181</ele>
        <time>2020-09-12T15:19:16.284Z</time>
      </trkpt>
      <trkpt lat="48.83801" lon="-0.89149">
        <ele>181</ele>
        <time>2020-09-12T15:19:20.324Z</time>
      </trkpt>
      <trkpt lat="48.83786" lon="-0.89193">
        <ele>181</ele>
        <time>2020-09-12T15:19:24.277Z</time>
      </trkpt>
      <trkpt lat="48.83796" lon="-0.89238">
        <ele>181</ele>
        <time>2020-09-12T15:19:32.333Z</time>
      </trkpt>
      <trkpt lat="48.83813" lon="-0.89246">
        <ele>182</ele>
        <time>2020-09-12T15:19:37.278Z</time>
      </trkpt>
      <trkpt lat="48.83831" lon="-0.89252">
        <ele>182</ele>
        <time>2020-09-12T15:19:41.276Z</time>
      </trkpt>
      <trkpt lat="48.83848" lon="-0.89262">
        <ele>182</ele>
        <time>2020-09-12T15:19:45.280Z</time>
      </trkpt>
      <trkpt lat="48.83866" lon="-0.8927">
        <ele>182</ele>
        <time>2020-09-12T15:19:49.275Z</time>
      </trkpt>
      <trkpt lat="48.83886" lon="-0.89284">
        <ele>183</ele>
        <time>2020-09-12T15:19:54.280Z</time>
      </trkpt>
      <trkpt lat="48.83894" lon="-0.89314">
        <ele>183</ele>
        <time>2020-09-12T15:19:58.281Z</time>
      </trkpt>
      <trkpt lat="48.83885" lon="-0.89349">
        <ele>184</ele>
        <time>2020-09-12T15:20:02.331Z</time>
      </trkpt>
      <trkpt lat="48.83873" lon="-0.89386">
        <ele>185</ele>
        <time>2020-09-12T15:20:06.280Z</time>
      </trkpt>
      <trkpt lat="48.83873" lon="-0.89442">
        <ele>186</ele>
        <time>2020-09-12T15:20:10.281Z</time>
      </trkpt>
      <trkpt lat="48.83871" lon="-0.89498">
        <ele>186</ele>
        <time>2020-09-12T15:20:14.327Z</time>
      </trkpt>
      <trkpt lat="48.83862" lon="-0.89567">
        <ele>186</ele>
        <time>2020-09-12T15:20:19.280Z</time>
      </trkpt>
      <trkpt lat="48.83853" lon="-0.89636">
        <ele>186</ele>
        <time>2020-09-12T15:20:24.280Z</time>
      </trkpt>
      <trkpt lat="48.83855" lon="-0.89703">
        <ele>185</ele>
        <time>2020-09-12T15:20:29.280Z</time>
      </trkpt>
      <trkpt lat="48.83865" lon="-0.89763">
        <ele>184</ele>
        <time>2020-09-12T15:20:34.281Z</time>
      </trkpt>
      <trkpt lat="48.83873" lon="-0.89821">
        <ele>183</ele>
        <time>2020-09-12T15:20:39.284Z</time>
      </trkpt>
      <trkpt lat="48.8388" lon="-0.89877">
        <ele>181</ele>
        <time>2020-09-12T15:20:44.326Z</time>
      </trkpt>
      <trkpt lat="48.83886" lon="-0.89933">
        <ele>179</ele>
        <time>2020-09-12T15:20:49.276Z</time>
      </trkpt>
      <trkpt lat="48.83891" lon="-0.89983">
        <ele>176</ele>
        <time>2020-09-12T15:20:54.283Z</time>
      </trkpt>
      <trkpt lat="48.83906" lon="-0.90036">
        <ele>175</ele>
        <time>2020-09-12T15:20:59.284Z</time>
      </trkpt>
      <trkpt lat="48.83933" lon="-0.90069">
        <ele>173</ele>
        <time>2020-09-12T15:21:04.276Z</time>
      </trkpt>
      <trkpt lat="48.8392" lon="-0.90119">
        <ele>172</ele>
        <time>2020-09-12T15:21:10.279Z</time>
      </trkpt>
      <trkpt lat="48.83881" lon="-0.90144">
        <ele>172</ele>
        <time>2020-09-12T15:21:13.279Z</time>
      </trkpt>
      <trkpt lat="48.8383" lon="-0.90145">
        <ele>170</ele>
        <time>2020-09-12T15:21:18.282Z</time>
      </trkpt>
      <trkpt lat="48.83865" lon="-0.9017">
        <ele>167</ele>
        <time>2020-09-12T15:21:26.342Z</time>
      </trkpt>
      <trkpt lat="48.83843" lon="-0.90179">
        <ele>163</ele>
        <time>2020-09-12T15:21:33.280Z</time>
      </trkpt>
      <trkpt lat="48.83852" lon="-0.90187">
        <ele>155</ele>
        <time>2020-09-12T15:21:43.283Z</time>
      </trkpt>
      <trkpt lat="48.83865" lon="-0.90187">
        <ele>153</ele>
        <time>2020-09-12T15:21:46.278Z</time>
      </trkpt>
      <trkpt lat="48.83881" lon="-0.90186">
        <ele>150</ele>
        <time>2020-09-12T15:21:49.278Z</time>
      </trkpt>
      <trkpt lat="48.83903" lon="-0.90179">
        <ele>147</ele>
        <time>2020-09-12T15:21:53.281Z</time>
      </trkpt>
      <trkpt lat="48.8393" lon="-0.9017">
        <ele>144</ele>
        <time>2020-09-12T15:21:57.279Z</time>
      </trkpt>
      <trkpt lat="48.83961" lon="-0.90166">
        <ele>141</ele>
        <time>2020-09-12T15:22:01.278Z</time>
      </trkpt>
      <trkpt lat="48.83996" lon="-0.90151">
        <ele>138</ele>
        <time>2020-09-12T15:22:06.278Z</time>
      </trkpt>
      <trkpt lat="48.84023" lon="-0.90117">
        <ele>136</ele>
        <time>2020-09-12T15:22:11.281Z</time>
      </trkpt>
      <trkpt lat="48.84048" lon="-0.90086">
        <ele>135</ele>
        <time>2020-09-12T15:22:16.284Z</time>
      </trkpt>
      <trkpt lat="48.84077" lon="-0.90056">
        <ele>134</ele>
        <time>2020-09-12T15:22:21.289Z</time>
      </trkpt>
      <trkpt lat="48.84108" lon="-0.90028">
        <ele>134</ele>
        <time>2020-09-12T15:22:26.347Z</time>
      </trkpt>
      <trkpt lat="48.8414" lon="-0.90008">
        <ele>135</ele>
        <time>2020-09-12T15:22:31.280Z</time>
      </trkpt>
      <trkpt lat="48.84172" lon="-0.8998">
        <ele>136</ele>
        <time>2020-09-12T15:22:36.278Z</time>
      </trkpt>
      <trkpt lat="48.84205" lon="-0.89956">
        <ele>137</ele>
        <time>2020-09-12T15:22:41.280Z</time>
      </trkpt>
      <trkpt lat="48.84238" lon="-0.89954">
        <ele>137</ele>
        <time>2020-09-12T15:22:46.283Z</time>
      </trkpt>
      <trkpt lat="48.84266" lon="-0.89976">
        <ele>138</ele>
        <time>2020-09-12T15:22:50.334Z</time>
      </trkpt>
      <trkpt lat="48.84298" lon="-0.89987">
        <ele>138</ele>
        <time>2020-09-12T15:22:54.279Z</time>
      </trkpt>
      <trkpt lat="48.84332" lon="-0.89975">
        <ele>138</ele>
        <time>2020-09-12T15:22:58.280Z</time>
      </trkpt>
      <trkpt lat="48.84373" lon="-0.89947">
        <ele>137</ele>
        <time>2020-09-12T15:23:03.280Z</time>
      </trkpt>
      <trkpt lat="48.84402" lon="-0.89905">
        <ele>136</ele>
        <time>2020-09-12T15:23:08.331Z</time>
      </trkpt>
      <trkpt lat="48.84426" lon="-0.89844">
        <ele>134</ele>
        <time>2020-09-12T15:23:13.276Z</time>
      </trkpt>
      <trkpt lat="48.84449" lon="-0.89788">
        <ele>131</ele>
        <time>2020-09-12T15:23:18.278Z</time>
      </trkpt>
      <trkpt lat="48.8447" lon="-0.89736">
        <ele>128</ele>
        <time>2020-09-12T15:23:23.295Z</time>
      </trkpt>
      <trkpt lat="48.84503" lon="-0.89703">
        <ele>125</ele>
        <time>2020-09-12T15:23:28.278Z</time>
      </trkpt>
      <trkpt lat="48.84531" lon="-0.89669">
        <ele>121</ele>
        <time>2020-09-12T15:23:33.279Z</time>
      </trkpt>
      <trkpt lat="48.84555" lon="-0.89624">
        <ele>117</ele>
        <time>2020-09-12T15:23:38.332Z</time>
      </trkpt>
      <trkpt lat="48.84553" lon="-0.89576">
        <ele>113</ele>
        <time>2020-09-12T15:23:44.328Z</time>
      </trkpt>
      <trkpt lat="48.8453" lon="-0.89564">
        <ele>111</ele>
        <time>2020-09-12T15:23:50.330Z</time>
      </trkpt>
      <trkpt lat="48.84524" lon="-0.89571">
        <ele>109</ele>
        <time>2020-09-12T15:24:05.277Z</time>
      </trkpt>
      <trkpt lat="48.84524" lon="-0.89571">
        <ele>113</ele>
        <time>2020-09-12T15:24:42.516Z</time>
      </trkpt>
    </trkseg>
  </trk>
</gpx>